<?xml version="1.0" encoding="UTF-8" standalone="no" ?>
<gpx xmlns="http://www.topografix.com/GPX/1/1" xmlns:xsi="http://www.w3.org/2001/XMLSchema-instance" xsi:schemaLocation="http://www.topografix.com/GPX/1/1 http://www.topografix.com/GPX/1/1/gpx.xsd" version="1.1" creator="VisuGPX - https://www.visugpx.com">
  <metadata>
    <name>Vélo dans l'après-midi</name>
  </metadata>
  <trk>
    <name><![CDATA[Vélo dans l'après-midi]]></name>
    <trkseg>
      <trkpt lat="49.48196" lon="1.1059">
        <ele>164.5</ele>
        <time>2022-03-26T12:27:36Z</time>
      </trkpt>
      <trkpt lat="49.48197" lon="1.1059">
        <ele>164.5</ele>
        <time>2022-03-26T12:27:37Z</time>
      </trkpt>
      <trkpt lat="49.48197" lon="1.10589">
        <ele>164.5</ele>
        <time>2022-03-26T12:27:38Z</time>
      </trkpt>
      <trkpt lat="49.48198" lon="1.10589">
        <ele>164.5</ele>
        <time>2022-03-26T12:27:39Z</time>
      </trkpt>
      <trkpt lat="49.48199" lon="1.10589">
        <ele>164.5</ele>
        <time>2022-03-26T12:27:40Z</time>
      </trkpt>
      <trkpt lat="49.48199" lon="1.10589">
        <ele>164.5</ele>
        <time>2022-03-26T12:27:41Z</time>
      </trkpt>
      <trkpt lat="49.48199" lon="1.10588">
        <ele>164.5</ele>
        <time>2022-03-26T12:27:42Z</time>
      </trkpt>
      <trkpt lat="49.482" lon="1.10588">
        <ele>164.5</ele>
        <time>2022-03-26T12:27:43Z</time>
      </trkpt>
      <trkpt lat="49.482" lon="1.10587">
        <ele>164.5</ele>
        <time>2022-03-26T12:27:44Z</time>
      </trkpt>
      <trkpt lat="49.48201" lon="1.10587">
        <ele>164.5</ele>
        <time>2022-03-26T12:27:45Z</time>
      </trkpt>
      <trkpt lat="49.48201" lon="1.10585">
        <ele>164.5</ele>
        <time>2022-03-26T12:27:46Z</time>
      </trkpt>
      <trkpt lat="49.482" lon="1.10585">
        <ele>164.5</ele>
        <time>2022-03-26T12:27:47Z</time>
      </trkpt>
      <trkpt lat="49.48199" lon="1.10586">
        <ele>164.5</ele>
        <time>2022-03-26T12:27:48Z</time>
      </trkpt>
      <trkpt lat="49.48198" lon="1.10586">
        <ele>164.6</ele>
        <time>2022-03-26T12:27:49Z</time>
      </trkpt>
      <trkpt lat="49.48197" lon="1.10586">
        <ele>164.6</ele>
        <time>2022-03-26T12:27:50Z</time>
      </trkpt>
      <trkpt lat="49.48194" lon="1.10587">
        <ele>164.6</ele>
        <time>2022-03-26T12:27:51Z</time>
      </trkpt>
      <trkpt lat="49.4819" lon="1.10588">
        <ele>164.7</ele>
        <time>2022-03-26T12:27:52Z</time>
      </trkpt>
      <trkpt lat="49.48188" lon="1.10588">
        <ele>164.7</ele>
        <time>2022-03-26T12:27:53Z</time>
      </trkpt>
      <trkpt lat="49.48186" lon="1.10591">
        <ele>164.8</ele>
        <time>2022-03-26T12:27:54Z</time>
      </trkpt>
      <trkpt lat="49.48183" lon="1.10594">
        <ele>164.9</ele>
        <time>2022-03-26T12:27:55Z</time>
      </trkpt>
      <trkpt lat="49.48181" lon="1.10599">
        <ele>165</ele>
        <time>2022-03-26T12:27:56Z</time>
      </trkpt>
      <trkpt lat="49.4818" lon="1.10603">
        <ele>165.1</ele>
        <time>2022-03-26T12:27:57Z</time>
      </trkpt>
      <trkpt lat="49.48181" lon="1.10608">
        <ele>165.1</ele>
        <time>2022-03-26T12:27:58Z</time>
      </trkpt>
      <trkpt lat="49.48181" lon="1.10613">
        <ele>165.1</ele>
        <time>2022-03-26T12:27:59Z</time>
      </trkpt>
      <trkpt lat="49.4818" lon="1.10619">
        <ele>165.2</ele>
        <time>2022-03-26T12:28:00Z</time>
      </trkpt>
      <trkpt lat="49.4818" lon="1.10621">
        <ele>165.2</ele>
        <time>2022-03-26T12:28:01Z</time>
      </trkpt>
      <trkpt lat="49.48179" lon="1.10626">
        <ele>165.2</ele>
        <time>2022-03-26T12:28:02Z</time>
      </trkpt>
      <trkpt lat="49.48179" lon="1.10628">
        <ele>165.2</ele>
        <time>2022-03-26T12:28:03Z</time>
      </trkpt>
      <trkpt lat="49.4818" lon="1.10631">
        <ele>165.2</ele>
        <time>2022-03-26T12:28:05Z</time>
      </trkpt>
      <trkpt lat="49.48181" lon="1.10631">
        <ele>165.2</ele>
        <time>2022-03-26T12:28:06Z</time>
      </trkpt>
      <trkpt lat="49.48182" lon="1.10631">
        <ele>165.1</ele>
        <time>2022-03-26T12:28:07Z</time>
      </trkpt>
      <trkpt lat="49.48189" lon="1.10632">
        <ele>165.1</ele>
        <time>2022-03-26T12:28:08Z</time>
      </trkpt>
      <trkpt lat="49.48196" lon="1.1063">
        <ele>165</ele>
        <time>2022-03-26T12:28:09Z</time>
      </trkpt>
      <trkpt lat="49.48203" lon="1.10629">
        <ele>165</ele>
        <time>2022-03-26T12:28:10Z</time>
      </trkpt>
      <trkpt lat="49.48211" lon="1.10628">
        <ele>164.9</ele>
        <time>2022-03-26T12:28:11Z</time>
      </trkpt>
      <trkpt lat="49.48219" lon="1.10628">
        <ele>164.9</ele>
        <time>2022-03-26T12:28:12Z</time>
      </trkpt>
      <trkpt lat="49.48225" lon="1.10628">
        <ele>164.9</ele>
        <time>2022-03-26T12:28:13Z</time>
      </trkpt>
      <trkpt lat="49.48232" lon="1.10628">
        <ele>164.8</ele>
        <time>2022-03-26T12:28:14Z</time>
      </trkpt>
      <trkpt lat="49.48238" lon="1.10626">
        <ele>164.8</ele>
        <time>2022-03-26T12:28:15Z</time>
      </trkpt>
      <trkpt lat="49.48245" lon="1.10628">
        <ele>164.8</ele>
        <time>2022-03-26T12:28:16Z</time>
      </trkpt>
      <trkpt lat="49.48248" lon="1.10633">
        <ele>164.7</ele>
        <time>2022-03-26T12:28:17Z</time>
      </trkpt>
      <trkpt lat="49.4825" lon="1.10638">
        <ele>165</ele>
        <time>2022-03-26T12:28:18Z</time>
      </trkpt>
      <trkpt lat="49.48253" lon="1.10642">
        <ele>165.1</ele>
        <time>2022-03-26T12:28:19Z</time>
      </trkpt>
      <trkpt lat="49.48255" lon="1.10648">
        <ele>165.2</ele>
        <time>2022-03-26T12:28:20Z</time>
      </trkpt>
      <trkpt lat="49.48256" lon="1.10654">
        <ele>165.3</ele>
        <time>2022-03-26T12:28:21Z</time>
      </trkpt>
      <trkpt lat="49.48256" lon="1.10663">
        <ele>165.4</ele>
        <time>2022-03-26T12:28:22Z</time>
      </trkpt>
      <trkpt lat="49.48257" lon="1.10672">
        <ele>165.4</ele>
        <time>2022-03-26T12:28:23Z</time>
      </trkpt>
      <trkpt lat="49.48259" lon="1.10681">
        <ele>165.4</ele>
        <time>2022-03-26T12:28:24Z</time>
      </trkpt>
      <trkpt lat="49.4826" lon="1.10689">
        <ele>165.4</ele>
        <time>2022-03-26T12:28:25Z</time>
      </trkpt>
      <trkpt lat="49.48262" lon="1.10697">
        <ele>165.3</ele>
        <time>2022-03-26T12:28:26Z</time>
      </trkpt>
      <trkpt lat="49.48264" lon="1.10706">
        <ele>165.3</ele>
        <time>2022-03-26T12:28:27Z</time>
      </trkpt>
      <trkpt lat="49.48266" lon="1.10716">
        <ele>165.3</ele>
        <time>2022-03-26T12:28:28Z</time>
      </trkpt>
      <trkpt lat="49.48268" lon="1.10724">
        <ele>165.2</ele>
        <time>2022-03-26T12:28:29Z</time>
      </trkpt>
      <trkpt lat="49.48271" lon="1.10733">
        <ele>165.2</ele>
        <time>2022-03-26T12:28:30Z</time>
      </trkpt>
      <trkpt lat="49.48273" lon="1.10741">
        <ele>165.2</ele>
        <time>2022-03-26T12:28:31Z</time>
      </trkpt>
      <trkpt lat="49.48275" lon="1.1075">
        <ele>165.2</ele>
        <time>2022-03-26T12:28:32Z</time>
      </trkpt>
      <trkpt lat="49.48277" lon="1.10758">
        <ele>165.1</ele>
        <time>2022-03-26T12:28:33Z</time>
      </trkpt>
      <trkpt lat="49.4828" lon="1.10766">
        <ele>165.1</ele>
        <time>2022-03-26T12:28:34Z</time>
      </trkpt>
      <trkpt lat="49.48282" lon="1.10775">
        <ele>165.1</ele>
        <time>2022-03-26T12:28:35Z</time>
      </trkpt>
      <trkpt lat="49.48284" lon="1.10783">
        <ele>165</ele>
        <time>2022-03-26T12:28:36Z</time>
      </trkpt>
      <trkpt lat="49.48286" lon="1.10792">
        <ele>165</ele>
        <time>2022-03-26T12:28:37Z</time>
      </trkpt>
      <trkpt lat="49.48288" lon="1.108">
        <ele>165</ele>
        <time>2022-03-26T12:28:38Z</time>
      </trkpt>
      <trkpt lat="49.4829" lon="1.10807">
        <ele>164.9</ele>
        <time>2022-03-26T12:28:39Z</time>
      </trkpt>
      <trkpt lat="49.48292" lon="1.10815">
        <ele>164.9</ele>
        <time>2022-03-26T12:28:40Z</time>
      </trkpt>
      <trkpt lat="49.48293" lon="1.10822">
        <ele>164.9</ele>
        <time>2022-03-26T12:28:41Z</time>
      </trkpt>
      <trkpt lat="49.48295" lon="1.10827">
        <ele>164.9</ele>
        <time>2022-03-26T12:28:42Z</time>
      </trkpt>
      <trkpt lat="49.48296" lon="1.10831">
        <ele>164.9</ele>
        <time>2022-03-26T12:28:43Z</time>
      </trkpt>
      <trkpt lat="49.48296" lon="1.10833">
        <ele>164.9</ele>
        <time>2022-03-26T12:28:44Z</time>
      </trkpt>
      <trkpt lat="49.48297" lon="1.10836">
        <ele>164.9</ele>
        <time>2022-03-26T12:28:45Z</time>
      </trkpt>
      <trkpt lat="49.48297" lon="1.10837">
        <ele>164.9</ele>
        <time>2022-03-26T12:28:46Z</time>
      </trkpt>
      <trkpt lat="49.48297" lon="1.10837">
        <ele>164.9</ele>
        <time>2022-03-26T12:28:47Z</time>
      </trkpt>
      <trkpt lat="49.48297" lon="1.10837">
        <ele>164.9</ele>
        <time>2022-03-26T12:28:48Z</time>
      </trkpt>
      <trkpt lat="49.48297" lon="1.10836">
        <ele>164.9</ele>
        <time>2022-03-26T12:28:49Z</time>
      </trkpt>
      <trkpt lat="49.48297" lon="1.10836">
        <ele>164.9</ele>
        <time>2022-03-26T12:28:50Z</time>
      </trkpt>
      <trkpt lat="49.48297" lon="1.10835">
        <ele>164.9</ele>
        <time>2022-03-26T12:28:51Z</time>
      </trkpt>
      <trkpt lat="49.48298" lon="1.10833">
        <ele>164.9</ele>
        <time>2022-03-26T12:28:52Z</time>
      </trkpt>
      <trkpt lat="49.48298" lon="1.10833">
        <ele>164.9</ele>
        <time>2022-03-26T12:28:53Z</time>
      </trkpt>
      <trkpt lat="49.48298" lon="1.10832">
        <ele>164.9</ele>
        <time>2022-03-26T12:28:54Z</time>
      </trkpt>
      <trkpt lat="49.483" lon="1.10832">
        <ele>164.9</ele>
        <time>2022-03-26T12:28:55Z</time>
      </trkpt>
      <trkpt lat="49.48301" lon="1.10833">
        <ele>164.9</ele>
        <time>2022-03-26T12:29:02Z</time>
      </trkpt>
      <trkpt lat="49.48303" lon="1.10834">
        <ele>164.9</ele>
        <time>2022-03-26T12:29:03Z</time>
      </trkpt>
      <trkpt lat="49.48304" lon="1.10835">
        <ele>164.9</ele>
        <time>2022-03-26T12:29:04Z</time>
      </trkpt>
      <trkpt lat="49.4831" lon="1.10834">
        <ele>164.8</ele>
        <time>2022-03-26T12:29:06Z</time>
      </trkpt>
      <trkpt lat="49.48318" lon="1.1083">
        <ele>164.7</ele>
        <time>2022-03-26T12:29:07Z</time>
      </trkpt>
      <trkpt lat="49.48324" lon="1.10828">
        <ele>164.6</ele>
        <time>2022-03-26T12:29:08Z</time>
      </trkpt>
      <trkpt lat="49.48329" lon="1.10826">
        <ele>164.6</ele>
        <time>2022-03-26T12:29:09Z</time>
      </trkpt>
      <trkpt lat="49.48335" lon="1.10823">
        <ele>164.5</ele>
        <time>2022-03-26T12:29:10Z</time>
      </trkpt>
      <trkpt lat="49.48341" lon="1.10819">
        <ele>164.4</ele>
        <time>2022-03-26T12:29:11Z</time>
      </trkpt>
      <trkpt lat="49.48346" lon="1.10816">
        <ele>164.4</ele>
        <time>2022-03-26T12:29:12Z</time>
      </trkpt>
      <trkpt lat="49.48351" lon="1.10812">
        <ele>164.3</ele>
        <time>2022-03-26T12:29:13Z</time>
      </trkpt>
      <trkpt lat="49.48357" lon="1.10809">
        <ele>164.3</ele>
        <time>2022-03-26T12:29:14Z</time>
      </trkpt>
      <trkpt lat="49.48362" lon="1.10806">
        <ele>164.3</ele>
        <time>2022-03-26T12:29:15Z</time>
      </trkpt>
      <trkpt lat="49.48367" lon="1.10803">
        <ele>164.3</ele>
        <time>2022-03-26T12:29:16Z</time>
      </trkpt>
      <trkpt lat="49.48372" lon="1.10799">
        <ele>164.3</ele>
        <time>2022-03-26T12:29:17Z</time>
      </trkpt>
      <trkpt lat="49.48378" lon="1.10795">
        <ele>164.4</ele>
        <time>2022-03-26T12:29:18Z</time>
      </trkpt>
      <trkpt lat="49.48383" lon="1.10791">
        <ele>164.4</ele>
        <time>2022-03-26T12:29:19Z</time>
      </trkpt>
      <trkpt lat="49.48389" lon="1.10787">
        <ele>164.4</ele>
        <time>2022-03-26T12:29:20Z</time>
      </trkpt>
      <trkpt lat="49.48394" lon="1.10783">
        <ele>164.5</ele>
        <time>2022-03-26T12:29:21Z</time>
      </trkpt>
      <trkpt lat="49.48399" lon="1.1078">
        <ele>164.5</ele>
        <time>2022-03-26T12:29:22Z</time>
      </trkpt>
      <trkpt lat="49.48404" lon="1.10777">
        <ele>164.5</ele>
        <time>2022-03-26T12:29:23Z</time>
      </trkpt>
      <trkpt lat="49.48409" lon="1.10773">
        <ele>164.6</ele>
        <time>2022-03-26T12:29:24Z</time>
      </trkpt>
      <trkpt lat="49.48413" lon="1.10769">
        <ele>164.6</ele>
        <time>2022-03-26T12:29:25Z</time>
      </trkpt>
      <trkpt lat="49.48417" lon="1.10769">
        <ele>164.6</ele>
        <time>2022-03-26T12:29:26Z</time>
      </trkpt>
      <trkpt lat="49.48421" lon="1.1077">
        <ele>164.7</ele>
        <time>2022-03-26T12:29:27Z</time>
      </trkpt>
      <trkpt lat="49.48426" lon="1.10772">
        <ele>164.8</ele>
        <time>2022-03-26T12:29:28Z</time>
      </trkpt>
      <trkpt lat="49.4843" lon="1.10775">
        <ele>164.9</ele>
        <time>2022-03-26T12:29:29Z</time>
      </trkpt>
      <trkpt lat="49.48431" lon="1.1078">
        <ele>164.9</ele>
        <time>2022-03-26T12:29:30Z</time>
      </trkpt>
      <trkpt lat="49.48432" lon="1.10785">
        <ele>164.9</ele>
        <time>2022-03-26T12:29:31Z</time>
      </trkpt>
      <trkpt lat="49.48432" lon="1.10792">
        <ele>165</ele>
        <time>2022-03-26T12:29:32Z</time>
      </trkpt>
      <trkpt lat="49.48437" lon="1.10799">
        <ele>165.1</ele>
        <time>2022-03-26T12:29:33Z</time>
      </trkpt>
      <trkpt lat="49.48439" lon="1.10806">
        <ele>165.1</ele>
        <time>2022-03-26T12:29:34Z</time>
      </trkpt>
      <trkpt lat="49.48442" lon="1.10814">
        <ele>165.1</ele>
        <time>2022-03-26T12:29:35Z</time>
      </trkpt>
      <trkpt lat="49.48444" lon="1.10823">
        <ele>165.2</ele>
        <time>2022-03-26T12:29:36Z</time>
      </trkpt>
      <trkpt lat="49.48446" lon="1.10831">
        <ele>165.2</ele>
        <time>2022-03-26T12:29:37Z</time>
      </trkpt>
      <trkpt lat="49.48449" lon="1.10839">
        <ele>165.3</ele>
        <time>2022-03-26T12:29:38Z</time>
      </trkpt>
      <trkpt lat="49.48451" lon="1.10847">
        <ele>165.4</ele>
        <time>2022-03-26T12:29:39Z</time>
      </trkpt>
      <trkpt lat="49.48453" lon="1.10855">
        <ele>165.4</ele>
        <time>2022-03-26T12:29:40Z</time>
      </trkpt>
      <trkpt lat="49.48455" lon="1.10864">
        <ele>165.5</ele>
        <time>2022-03-26T12:29:41Z</time>
      </trkpt>
      <trkpt lat="49.48457" lon="1.10871">
        <ele>165.6</ele>
        <time>2022-03-26T12:29:42Z</time>
      </trkpt>
      <trkpt lat="49.48459" lon="1.10879">
        <ele>165.7</ele>
        <time>2022-03-26T12:29:43Z</time>
      </trkpt>
      <trkpt lat="49.48461" lon="1.10887">
        <ele>165.8</ele>
        <time>2022-03-26T12:29:44Z</time>
      </trkpt>
      <trkpt lat="49.48462" lon="1.10895">
        <ele>165.8</ele>
        <time>2022-03-26T12:29:45Z</time>
      </trkpt>
      <trkpt lat="49.48464" lon="1.10902">
        <ele>165.9</ele>
        <time>2022-03-26T12:29:46Z</time>
      </trkpt>
      <trkpt lat="49.48464" lon="1.10906">
        <ele>165.9</ele>
        <time>2022-03-26T12:29:47Z</time>
      </trkpt>
      <trkpt lat="49.48466" lon="1.10912">
        <ele>166</ele>
        <time>2022-03-26T12:29:48Z</time>
      </trkpt>
      <trkpt lat="49.48467" lon="1.10917">
        <ele>166.1</ele>
        <time>2022-03-26T12:29:49Z</time>
      </trkpt>
      <trkpt lat="49.48468" lon="1.10922">
        <ele>166.1</ele>
        <time>2022-03-26T12:29:50Z</time>
      </trkpt>
      <trkpt lat="49.4847" lon="1.10925">
        <ele>166.2</ele>
        <time>2022-03-26T12:29:51Z</time>
      </trkpt>
      <trkpt lat="49.48472" lon="1.10929">
        <ele>166.2</ele>
        <time>2022-03-26T12:29:52Z</time>
      </trkpt>
      <trkpt lat="49.48474" lon="1.10937">
        <ele>166.3</ele>
        <time>2022-03-26T12:29:53Z</time>
      </trkpt>
      <trkpt lat="49.48475" lon="1.10944">
        <ele>166.5</ele>
        <time>2022-03-26T12:29:54Z</time>
      </trkpt>
      <trkpt lat="49.48477" lon="1.10946">
        <ele>166.5</ele>
        <time>2022-03-26T12:29:56Z</time>
      </trkpt>
      <trkpt lat="49.48477" lon="1.10949">
        <ele>166.6</ele>
        <time>2022-03-26T12:29:57Z</time>
      </trkpt>
      <trkpt lat="49.48478" lon="1.10957">
        <ele>166.7</ele>
        <time>2022-03-26T12:29:58Z</time>
      </trkpt>
      <trkpt lat="49.48479" lon="1.10964">
        <ele>166.8</ele>
        <time>2022-03-26T12:29:59Z</time>
      </trkpt>
      <trkpt lat="49.4848" lon="1.10972">
        <ele>167</ele>
        <time>2022-03-26T12:30:00Z</time>
      </trkpt>
      <trkpt lat="49.48481" lon="1.1098">
        <ele>167.1</ele>
        <time>2022-03-26T12:30:01Z</time>
      </trkpt>
      <trkpt lat="49.48483" lon="1.10987">
        <ele>167.2</ele>
        <time>2022-03-26T12:30:02Z</time>
      </trkpt>
      <trkpt lat="49.48484" lon="1.10996">
        <ele>167.4</ele>
        <time>2022-03-26T12:30:04Z</time>
      </trkpt>
      <trkpt lat="49.48486" lon="1.11004">
        <ele>167.6</ele>
        <time>2022-03-26T12:30:05Z</time>
      </trkpt>
      <trkpt lat="49.48487" lon="1.11014">
        <ele>167.8</ele>
        <time>2022-03-26T12:30:06Z</time>
      </trkpt>
      <trkpt lat="49.48489" lon="1.11021">
        <ele>168</ele>
        <time>2022-03-26T12:30:07Z</time>
      </trkpt>
      <trkpt lat="49.48491" lon="1.11026">
        <ele>168.1</ele>
        <time>2022-03-26T12:30:08Z</time>
      </trkpt>
      <trkpt lat="49.48494" lon="1.11033">
        <ele>168.2</ele>
        <time>2022-03-26T12:30:09Z</time>
      </trkpt>
      <trkpt lat="49.48495" lon="1.1104">
        <ele>168.4</ele>
        <time>2022-03-26T12:30:10Z</time>
      </trkpt>
      <trkpt lat="49.48498" lon="1.1105">
        <ele>168.6</ele>
        <time>2022-03-26T12:30:12Z</time>
      </trkpt>
      <trkpt lat="49.48499" lon="1.11058">
        <ele>168.7</ele>
        <time>2022-03-26T12:30:13Z</time>
      </trkpt>
      <trkpt lat="49.48501" lon="1.11066">
        <ele>168.8</ele>
        <time>2022-03-26T12:30:14Z</time>
      </trkpt>
      <trkpt lat="49.48503" lon="1.11074">
        <ele>169</ele>
        <time>2022-03-26T12:30:15Z</time>
      </trkpt>
      <trkpt lat="49.48505" lon="1.11079">
        <ele>169.1</ele>
        <time>2022-03-26T12:30:16Z</time>
      </trkpt>
      <trkpt lat="49.48507" lon="1.11085">
        <ele>169.2</ele>
        <time>2022-03-26T12:30:17Z</time>
      </trkpt>
      <trkpt lat="49.4851" lon="1.11096">
        <ele>169.4</ele>
        <time>2022-03-26T12:30:18Z</time>
      </trkpt>
      <trkpt lat="49.48514" lon="1.11104">
        <ele>169.5</ele>
        <time>2022-03-26T12:30:19Z</time>
      </trkpt>
      <trkpt lat="49.48518" lon="1.11111">
        <ele>169.7</ele>
        <time>2022-03-26T12:30:20Z</time>
      </trkpt>
      <trkpt lat="49.48521" lon="1.11117">
        <ele>169.8</ele>
        <time>2022-03-26T12:30:21Z</time>
      </trkpt>
      <trkpt lat="49.48524" lon="1.11121">
        <ele>169.8</ele>
        <time>2022-03-26T12:30:22Z</time>
      </trkpt>
      <trkpt lat="49.48529" lon="1.11131">
        <ele>170</ele>
        <time>2022-03-26T12:30:24Z</time>
      </trkpt>
      <trkpt lat="49.48534" lon="1.11139">
        <ele>170.1</ele>
        <time>2022-03-26T12:30:25Z</time>
      </trkpt>
      <trkpt lat="49.48538" lon="1.11145">
        <ele>170.2</ele>
        <time>2022-03-26T12:30:26Z</time>
      </trkpt>
      <trkpt lat="49.48537" lon="1.11148">
        <ele>170.3</ele>
        <time>2022-03-26T12:30:27Z</time>
      </trkpt>
      <trkpt lat="49.48542" lon="1.11155">
        <ele>170.4</ele>
        <time>2022-03-26T12:30:29Z</time>
      </trkpt>
      <trkpt lat="49.48556" lon="1.11167">
        <ele>170.7</ele>
        <time>2022-03-26T12:30:30Z</time>
      </trkpt>
      <trkpt lat="49.4856" lon="1.11171">
        <ele>170.8</ele>
        <time>2022-03-26T12:30:31Z</time>
      </trkpt>
      <trkpt lat="49.48567" lon="1.11176">
        <ele>171</ele>
        <time>2022-03-26T12:30:32Z</time>
      </trkpt>
      <trkpt lat="49.48574" lon="1.1118">
        <ele>171.1</ele>
        <time>2022-03-26T12:30:33Z</time>
      </trkpt>
      <trkpt lat="49.4858" lon="1.11185">
        <ele>171.2</ele>
        <time>2022-03-26T12:30:34Z</time>
      </trkpt>
      <trkpt lat="49.48584" lon="1.11189">
        <ele>171.3</ele>
        <time>2022-03-26T12:30:35Z</time>
      </trkpt>
      <trkpt lat="49.48589" lon="1.11193">
        <ele>171.3</ele>
        <time>2022-03-26T12:30:36Z</time>
      </trkpt>
      <trkpt lat="49.48594" lon="1.11197">
        <ele>171.4</ele>
        <time>2022-03-26T12:30:37Z</time>
      </trkpt>
      <trkpt lat="49.48599" lon="1.112">
        <ele>171.4</ele>
        <time>2022-03-26T12:30:38Z</time>
      </trkpt>
      <trkpt lat="49.48603" lon="1.11203">
        <ele>171.4</ele>
        <time>2022-03-26T12:30:39Z</time>
      </trkpt>
      <trkpt lat="49.48606" lon="1.11206">
        <ele>171.4</ele>
        <time>2022-03-26T12:30:40Z</time>
      </trkpt>
      <trkpt lat="49.4861" lon="1.1121">
        <ele>171.3</ele>
        <time>2022-03-26T12:30:41Z</time>
      </trkpt>
      <trkpt lat="49.48613" lon="1.11212">
        <ele>171.2</ele>
        <time>2022-03-26T12:30:42Z</time>
      </trkpt>
      <trkpt lat="49.48619" lon="1.11214">
        <ele>171.1</ele>
        <time>2022-03-26T12:30:43Z</time>
      </trkpt>
      <trkpt lat="49.48624" lon="1.11217">
        <ele>170.9</ele>
        <time>2022-03-26T12:30:44Z</time>
      </trkpt>
      <trkpt lat="49.4863" lon="1.11219">
        <ele>170.8</ele>
        <time>2022-03-26T12:30:45Z</time>
      </trkpt>
      <trkpt lat="49.48636" lon="1.11221">
        <ele>170.5</ele>
        <time>2022-03-26T12:30:46Z</time>
      </trkpt>
      <trkpt lat="49.48642" lon="1.11225">
        <ele>170.3</ele>
        <time>2022-03-26T12:30:47Z</time>
      </trkpt>
      <trkpt lat="49.48648" lon="1.11228">
        <ele>170.1</ele>
        <time>2022-03-26T12:30:48Z</time>
      </trkpt>
      <trkpt lat="49.48655" lon="1.11231">
        <ele>169.8</ele>
        <time>2022-03-26T12:30:49Z</time>
      </trkpt>
      <trkpt lat="49.48661" lon="1.11232">
        <ele>169.6</ele>
        <time>2022-03-26T12:30:50Z</time>
      </trkpt>
      <trkpt lat="49.48669" lon="1.11234">
        <ele>169.3</ele>
        <time>2022-03-26T12:30:51Z</time>
      </trkpt>
      <trkpt lat="49.48675" lon="1.11236">
        <ele>169</ele>
        <time>2022-03-26T12:30:52Z</time>
      </trkpt>
      <trkpt lat="49.48683" lon="1.1124">
        <ele>168.8</ele>
        <time>2022-03-26T12:30:53Z</time>
      </trkpt>
      <trkpt lat="49.48691" lon="1.11243">
        <ele>168.6</ele>
        <time>2022-03-26T12:30:54Z</time>
      </trkpt>
      <trkpt lat="49.48698" lon="1.11245">
        <ele>168.4</ele>
        <time>2022-03-26T12:30:55Z</time>
      </trkpt>
      <trkpt lat="49.48706" lon="1.11248">
        <ele>168.3</ele>
        <time>2022-03-26T12:30:56Z</time>
      </trkpt>
      <trkpt lat="49.48713" lon="1.1125">
        <ele>168.3</ele>
        <time>2022-03-26T12:30:57Z</time>
      </trkpt>
      <trkpt lat="49.48721" lon="1.11253">
        <ele>168.3</ele>
        <time>2022-03-26T12:30:58Z</time>
      </trkpt>
      <trkpt lat="49.48728" lon="1.11255">
        <ele>168.4</ele>
        <time>2022-03-26T12:30:59Z</time>
      </trkpt>
      <trkpt lat="49.48735" lon="1.11259">
        <ele>168.6</ele>
        <time>2022-03-26T12:31:00Z</time>
      </trkpt>
      <trkpt lat="49.48741" lon="1.11261">
        <ele>168.8</ele>
        <time>2022-03-26T12:31:01Z</time>
      </trkpt>
      <trkpt lat="49.48748" lon="1.11263">
        <ele>168.9</ele>
        <time>2022-03-26T12:31:02Z</time>
      </trkpt>
      <trkpt lat="49.48754" lon="1.11264">
        <ele>169</ele>
        <time>2022-03-26T12:31:03Z</time>
      </trkpt>
      <trkpt lat="49.4876" lon="1.11266">
        <ele>169</ele>
        <time>2022-03-26T12:31:04Z</time>
      </trkpt>
      <trkpt lat="49.48766" lon="1.11268">
        <ele>169.1</ele>
        <time>2022-03-26T12:31:05Z</time>
      </trkpt>
      <trkpt lat="49.48772" lon="1.11271">
        <ele>169.2</ele>
        <time>2022-03-26T12:31:06Z</time>
      </trkpt>
      <trkpt lat="49.48778" lon="1.11273">
        <ele>169.2</ele>
        <time>2022-03-26T12:31:07Z</time>
      </trkpt>
      <trkpt lat="49.48784" lon="1.11274">
        <ele>169.3</ele>
        <time>2022-03-26T12:31:08Z</time>
      </trkpt>
      <trkpt lat="49.48791" lon="1.11277">
        <ele>169.4</ele>
        <time>2022-03-26T12:31:09Z</time>
      </trkpt>
      <trkpt lat="49.48797" lon="1.1128">
        <ele>169.4</ele>
        <time>2022-03-26T12:31:10Z</time>
      </trkpt>
      <trkpt lat="49.48803" lon="1.11282">
        <ele>169.5</ele>
        <time>2022-03-26T12:31:11Z</time>
      </trkpt>
      <trkpt lat="49.4881" lon="1.11285">
        <ele>169.6</ele>
        <time>2022-03-26T12:31:12Z</time>
      </trkpt>
      <trkpt lat="49.48816" lon="1.11288">
        <ele>169.6</ele>
        <time>2022-03-26T12:31:13Z</time>
      </trkpt>
      <trkpt lat="49.48822" lon="1.1129">
        <ele>169.6</ele>
        <time>2022-03-26T12:31:14Z</time>
      </trkpt>
      <trkpt lat="49.48829" lon="1.11291">
        <ele>169.6</ele>
        <time>2022-03-26T12:31:15Z</time>
      </trkpt>
      <trkpt lat="49.48835" lon="1.11294">
        <ele>169.6</ele>
        <time>2022-03-26T12:31:16Z</time>
      </trkpt>
      <trkpt lat="49.4884" lon="1.11296">
        <ele>169.6</ele>
        <time>2022-03-26T12:31:17Z</time>
      </trkpt>
      <trkpt lat="49.48845" lon="1.11299">
        <ele>169.6</ele>
        <time>2022-03-26T12:31:18Z</time>
      </trkpt>
      <trkpt lat="49.48851" lon="1.113">
        <ele>169.7</ele>
        <time>2022-03-26T12:31:19Z</time>
      </trkpt>
      <trkpt lat="49.48856" lon="1.11302">
        <ele>169.7</ele>
        <time>2022-03-26T12:31:20Z</time>
      </trkpt>
      <trkpt lat="49.48862" lon="1.11304">
        <ele>169.7</ele>
        <time>2022-03-26T12:31:21Z</time>
      </trkpt>
      <trkpt lat="49.48867" lon="1.11306">
        <ele>169.7</ele>
        <time>2022-03-26T12:31:22Z</time>
      </trkpt>
      <trkpt lat="49.48871" lon="1.11308">
        <ele>169.7</ele>
        <time>2022-03-26T12:31:23Z</time>
      </trkpt>
      <trkpt lat="49.48875" lon="1.11309">
        <ele>169.7</ele>
        <time>2022-03-26T12:31:24Z</time>
      </trkpt>
      <trkpt lat="49.48879" lon="1.11309">
        <ele>169.7</ele>
        <time>2022-03-26T12:31:25Z</time>
      </trkpt>
      <trkpt lat="49.48883" lon="1.11308">
        <ele>169.7</ele>
        <time>2022-03-26T12:31:26Z</time>
      </trkpt>
      <trkpt lat="49.48886" lon="1.11308">
        <ele>169.7</ele>
        <time>2022-03-26T12:31:27Z</time>
      </trkpt>
      <trkpt lat="49.48889" lon="1.11311">
        <ele>169.7</ele>
        <time>2022-03-26T12:31:28Z</time>
      </trkpt>
      <trkpt lat="49.48891" lon="1.11314">
        <ele>169.7</ele>
        <time>2022-03-26T12:31:29Z</time>
      </trkpt>
      <trkpt lat="49.4889" lon="1.11318">
        <ele>169.7</ele>
        <time>2022-03-26T12:31:30Z</time>
      </trkpt>
      <trkpt lat="49.48891" lon="1.11319">
        <ele>169.7</ele>
        <time>2022-03-26T12:31:31Z</time>
      </trkpt>
      <trkpt lat="49.48892" lon="1.11325">
        <ele>169.6</ele>
        <time>2022-03-26T12:31:32Z</time>
      </trkpt>
      <trkpt lat="49.48893" lon="1.1133">
        <ele>169.5</ele>
        <time>2022-03-26T12:31:33Z</time>
      </trkpt>
      <trkpt lat="49.48895" lon="1.11334">
        <ele>169.4</ele>
        <time>2022-03-26T12:31:34Z</time>
      </trkpt>
      <trkpt lat="49.48897" lon="1.1134">
        <ele>169.3</ele>
        <time>2022-03-26T12:31:35Z</time>
      </trkpt>
      <trkpt lat="49.48899" lon="1.11345">
        <ele>169.3</ele>
        <time>2022-03-26T12:31:36Z</time>
      </trkpt>
      <trkpt lat="49.48902" lon="1.11351">
        <ele>169.2</ele>
        <time>2022-03-26T12:31:37Z</time>
      </trkpt>
      <trkpt lat="49.48903" lon="1.11356">
        <ele>169.1</ele>
        <time>2022-03-26T12:31:38Z</time>
      </trkpt>
      <trkpt lat="49.48904" lon="1.11361">
        <ele>169</ele>
        <time>2022-03-26T12:31:39Z</time>
      </trkpt>
      <trkpt lat="49.48908" lon="1.1137">
        <ele>168.9</ele>
        <time>2022-03-26T12:31:41Z</time>
      </trkpt>
      <trkpt lat="49.48908" lon="1.11385">
        <ele>168.7</ele>
        <time>2022-03-26T12:31:42Z</time>
      </trkpt>
      <trkpt lat="49.48905" lon="1.11394">
        <ele>168.6</ele>
        <time>2022-03-26T12:31:43Z</time>
      </trkpt>
      <trkpt lat="49.48904" lon="1.114">
        <ele>168.5</ele>
        <time>2022-03-26T12:31:44Z</time>
      </trkpt>
      <trkpt lat="49.48904" lon="1.11408">
        <ele>168.4</ele>
        <time>2022-03-26T12:31:45Z</time>
      </trkpt>
      <trkpt lat="49.48904" lon="1.11416">
        <ele>168.3</ele>
        <time>2022-03-26T12:31:46Z</time>
      </trkpt>
      <trkpt lat="49.48904" lon="1.11422">
        <ele>168.3</ele>
        <time>2022-03-26T12:31:47Z</time>
      </trkpt>
      <trkpt lat="49.48904" lon="1.11429">
        <ele>168.1</ele>
        <time>2022-03-26T12:31:48Z</time>
      </trkpt>
      <trkpt lat="49.48904" lon="1.11436">
        <ele>168</ele>
        <time>2022-03-26T12:31:49Z</time>
      </trkpt>
      <trkpt lat="49.489" lon="1.11444">
        <ele>167.9</ele>
        <time>2022-03-26T12:31:51Z</time>
      </trkpt>
      <trkpt lat="49.48897" lon="1.11451">
        <ele>167.8</ele>
        <time>2022-03-26T12:31:52Z</time>
      </trkpt>
      <trkpt lat="49.48896" lon="1.11459">
        <ele>167.6</ele>
        <time>2022-03-26T12:31:54Z</time>
      </trkpt>
      <trkpt lat="49.48896" lon="1.11467">
        <ele>167.5</ele>
        <time>2022-03-26T12:31:55Z</time>
      </trkpt>
      <trkpt lat="49.48897" lon="1.11475">
        <ele>167.3</ele>
        <time>2022-03-26T12:31:56Z</time>
      </trkpt>
      <trkpt lat="49.48894" lon="1.11483">
        <ele>167.1</ele>
        <time>2022-03-26T12:31:57Z</time>
      </trkpt>
      <trkpt lat="49.48892" lon="1.11492">
        <ele>167</ele>
        <time>2022-03-26T12:31:59Z</time>
      </trkpt>
      <trkpt lat="49.48889" lon="1.11512">
        <ele>166.5</ele>
        <time>2022-03-26T12:32:00Z</time>
      </trkpt>
      <trkpt lat="49.48886" lon="1.1152">
        <ele>166.3</ele>
        <time>2022-03-26T12:32:02Z</time>
      </trkpt>
      <trkpt lat="49.48883" lon="1.11527">
        <ele>166.1</ele>
        <time>2022-03-26T12:32:03Z</time>
      </trkpt>
      <trkpt lat="49.48881" lon="1.11534">
        <ele>166</ele>
        <time>2022-03-26T12:32:04Z</time>
      </trkpt>
      <trkpt lat="49.48881" lon="1.11543">
        <ele>165.8</ele>
        <time>2022-03-26T12:32:05Z</time>
      </trkpt>
      <trkpt lat="49.48881" lon="1.11551">
        <ele>165.6</ele>
        <time>2022-03-26T12:32:06Z</time>
      </trkpt>
      <trkpt lat="49.48882" lon="1.11557">
        <ele>165.4</ele>
        <time>2022-03-26T12:32:07Z</time>
      </trkpt>
      <trkpt lat="49.48882" lon="1.11565">
        <ele>165.2</ele>
        <time>2022-03-26T12:32:08Z</time>
      </trkpt>
      <trkpt lat="49.48881" lon="1.11572">
        <ele>165</ele>
        <time>2022-03-26T12:32:09Z</time>
      </trkpt>
      <trkpt lat="49.48878" lon="1.11585">
        <ele>164.5</ele>
        <time>2022-03-26T12:32:10Z</time>
      </trkpt>
      <trkpt lat="49.48877" lon="1.11596">
        <ele>164.1</ele>
        <time>2022-03-26T12:32:11Z</time>
      </trkpt>
      <trkpt lat="49.48876" lon="1.11605">
        <ele>163.7</ele>
        <time>2022-03-26T12:32:12Z</time>
      </trkpt>
      <trkpt lat="49.48874" lon="1.11615">
        <ele>163.3</ele>
        <time>2022-03-26T12:32:13Z</time>
      </trkpt>
      <trkpt lat="49.48871" lon="1.11627">
        <ele>162.9</ele>
        <time>2022-03-26T12:32:14Z</time>
      </trkpt>
      <trkpt lat="49.48869" lon="1.11637">
        <ele>162.7</ele>
        <time>2022-03-26T12:32:15Z</time>
      </trkpt>
      <trkpt lat="49.48868" lon="1.11645">
        <ele>162.6</ele>
        <time>2022-03-26T12:32:16Z</time>
      </trkpt>
      <trkpt lat="49.48865" lon="1.11652">
        <ele>162.6</ele>
        <time>2022-03-26T12:32:17Z</time>
      </trkpt>
      <trkpt lat="49.48863" lon="1.11659">
        <ele>162.6</ele>
        <time>2022-03-26T12:32:18Z</time>
      </trkpt>
      <trkpt lat="49.48861" lon="1.11668">
        <ele>162.6</ele>
        <time>2022-03-26T12:32:19Z</time>
      </trkpt>
      <trkpt lat="49.48858" lon="1.11678">
        <ele>162.7</ele>
        <time>2022-03-26T12:32:20Z</time>
      </trkpt>
      <trkpt lat="49.48857" lon="1.11688">
        <ele>162.9</ele>
        <time>2022-03-26T12:32:21Z</time>
      </trkpt>
      <trkpt lat="49.48857" lon="1.11697">
        <ele>163</ele>
        <time>2022-03-26T12:32:22Z</time>
      </trkpt>
      <trkpt lat="49.48857" lon="1.11706">
        <ele>163.1</ele>
        <time>2022-03-26T12:32:23Z</time>
      </trkpt>
      <trkpt lat="49.48857" lon="1.11712">
        <ele>163.2</ele>
        <time>2022-03-26T12:32:24Z</time>
      </trkpt>
      <trkpt lat="49.48859" lon="1.11718">
        <ele>163.3</ele>
        <time>2022-03-26T12:32:25Z</time>
      </trkpt>
      <trkpt lat="49.48858" lon="1.11724">
        <ele>163.4</ele>
        <time>2022-03-26T12:32:26Z</time>
      </trkpt>
      <trkpt lat="49.48857" lon="1.1173">
        <ele>163.5</ele>
        <time>2022-03-26T12:32:27Z</time>
      </trkpt>
      <trkpt lat="49.48855" lon="1.11739">
        <ele>163.5</ele>
        <time>2022-03-26T12:32:28Z</time>
      </trkpt>
      <trkpt lat="49.48854" lon="1.11746">
        <ele>163.6</ele>
        <time>2022-03-26T12:32:29Z</time>
      </trkpt>
      <trkpt lat="49.48855" lon="1.11752">
        <ele>163.6</ele>
        <time>2022-03-26T12:32:30Z</time>
      </trkpt>
      <trkpt lat="49.48855" lon="1.11755">
        <ele>163.7</ele>
        <time>2022-03-26T12:32:31Z</time>
      </trkpt>
      <trkpt lat="49.48853" lon="1.1176">
        <ele>163.7</ele>
        <time>2022-03-26T12:32:32Z</time>
      </trkpt>
      <trkpt lat="49.4885" lon="1.11765">
        <ele>163.7</ele>
        <time>2022-03-26T12:32:33Z</time>
      </trkpt>
      <trkpt lat="49.48847" lon="1.1177">
        <ele>163.7</ele>
        <time>2022-03-26T12:32:34Z</time>
      </trkpt>
      <trkpt lat="49.48846" lon="1.1178">
        <ele>163.7</ele>
        <time>2022-03-26T12:32:36Z</time>
      </trkpt>
      <trkpt lat="49.48846" lon="1.11787">
        <ele>163.7</ele>
        <time>2022-03-26T12:32:37Z</time>
      </trkpt>
      <trkpt lat="49.48846" lon="1.11798">
        <ele>163.7</ele>
        <time>2022-03-26T12:32:38Z</time>
      </trkpt>
      <trkpt lat="49.48844" lon="1.11804">
        <ele>163.7</ele>
        <time>2022-03-26T12:32:39Z</time>
      </trkpt>
      <trkpt lat="49.48843" lon="1.11809">
        <ele>163.7</ele>
        <time>2022-03-26T12:32:40Z</time>
      </trkpt>
      <trkpt lat="49.48843" lon="1.11815">
        <ele>163.7</ele>
        <time>2022-03-26T12:32:41Z</time>
      </trkpt>
      <trkpt lat="49.48841" lon="1.11822">
        <ele>163.7</ele>
        <time>2022-03-26T12:32:43Z</time>
      </trkpt>
      <trkpt lat="49.4884" lon="1.11829">
        <ele>163.6</ele>
        <time>2022-03-26T12:32:44Z</time>
      </trkpt>
      <trkpt lat="49.48838" lon="1.11833">
        <ele>163.6</ele>
        <time>2022-03-26T12:32:45Z</time>
      </trkpt>
      <trkpt lat="49.48836" lon="1.11837">
        <ele>163.6</ele>
        <time>2022-03-26T12:32:46Z</time>
      </trkpt>
      <trkpt lat="49.48833" lon="1.11841">
        <ele>163.6</ele>
        <time>2022-03-26T12:32:47Z</time>
      </trkpt>
      <trkpt lat="49.48831" lon="1.11846">
        <ele>163.6</ele>
        <time>2022-03-26T12:32:48Z</time>
      </trkpt>
      <trkpt lat="49.48827" lon="1.11852">
        <ele>163.6</ele>
        <time>2022-03-26T12:32:50Z</time>
      </trkpt>
      <trkpt lat="49.48825" lon="1.11857">
        <ele>163.6</ele>
        <time>2022-03-26T12:32:51Z</time>
      </trkpt>
      <trkpt lat="49.48823" lon="1.11862">
        <ele>163.6</ele>
        <time>2022-03-26T12:32:52Z</time>
      </trkpt>
      <trkpt lat="49.48822" lon="1.1187">
        <ele>163.7</ele>
        <time>2022-03-26T12:32:53Z</time>
      </trkpt>
      <trkpt lat="49.48823" lon="1.11876">
        <ele>163.6</ele>
        <time>2022-03-26T12:32:54Z</time>
      </trkpt>
      <trkpt lat="49.48824" lon="1.1188">
        <ele>163.6</ele>
        <time>2022-03-26T12:32:55Z</time>
      </trkpt>
      <trkpt lat="49.48827" lon="1.11883">
        <ele>163.5</ele>
        <time>2022-03-26T12:32:56Z</time>
      </trkpt>
      <trkpt lat="49.48829" lon="1.11889">
        <ele>163.4</ele>
        <time>2022-03-26T12:32:57Z</time>
      </trkpt>
      <trkpt lat="49.48832" lon="1.11895">
        <ele>163.3</ele>
        <time>2022-03-26T12:32:58Z</time>
      </trkpt>
      <trkpt lat="49.48834" lon="1.11901">
        <ele>163.2</ele>
        <time>2022-03-26T12:32:59Z</time>
      </trkpt>
      <trkpt lat="49.48837" lon="1.11906">
        <ele>163.2</ele>
        <time>2022-03-26T12:33:00Z</time>
      </trkpt>
      <trkpt lat="49.48842" lon="1.11923">
        <ele>162.9</ele>
        <time>2022-03-26T12:33:02Z</time>
      </trkpt>
      <trkpt lat="49.48846" lon="1.11931">
        <ele>162.8</ele>
        <time>2022-03-26T12:33:03Z</time>
      </trkpt>
      <trkpt lat="49.48849" lon="1.11936">
        <ele>162.7</ele>
        <time>2022-03-26T12:33:04Z</time>
      </trkpt>
      <trkpt lat="49.48854" lon="1.11943">
        <ele>162.5</ele>
        <time>2022-03-26T12:33:05Z</time>
      </trkpt>
      <trkpt lat="49.48859" lon="1.11951">
        <ele>162.3</ele>
        <time>2022-03-26T12:33:06Z</time>
      </trkpt>
      <trkpt lat="49.48862" lon="1.11956">
        <ele>162.1</ele>
        <time>2022-03-26T12:33:07Z</time>
      </trkpt>
      <trkpt lat="49.48866" lon="1.11964">
        <ele>161.9</ele>
        <time>2022-03-26T12:33:08Z</time>
      </trkpt>
      <trkpt lat="49.4887" lon="1.1197">
        <ele>161.7</ele>
        <time>2022-03-26T12:33:09Z</time>
      </trkpt>
      <trkpt lat="49.48874" lon="1.11979">
        <ele>161.4</ele>
        <time>2022-03-26T12:33:10Z</time>
      </trkpt>
      <trkpt lat="49.48878" lon="1.11986">
        <ele>161.2</ele>
        <time>2022-03-26T12:33:11Z</time>
      </trkpt>
      <trkpt lat="49.48883" lon="1.11992">
        <ele>161</ele>
        <time>2022-03-26T12:33:12Z</time>
      </trkpt>
      <trkpt lat="49.48888" lon="1.11998">
        <ele>160.7</ele>
        <time>2022-03-26T12:33:13Z</time>
      </trkpt>
      <trkpt lat="49.48894" lon="1.12006">
        <ele>160.4</ele>
        <time>2022-03-26T12:33:14Z</time>
      </trkpt>
      <trkpt lat="49.48899" lon="1.12014">
        <ele>160.2</ele>
        <time>2022-03-26T12:33:15Z</time>
      </trkpt>
      <trkpt lat="49.48904" lon="1.12022">
        <ele>159.9</ele>
        <time>2022-03-26T12:33:16Z</time>
      </trkpt>
      <trkpt lat="49.48909" lon="1.1203">
        <ele>159.6</ele>
        <time>2022-03-26T12:33:17Z</time>
      </trkpt>
      <trkpt lat="49.48913" lon="1.12037">
        <ele>159.4</ele>
        <time>2022-03-26T12:33:18Z</time>
      </trkpt>
      <trkpt lat="49.48917" lon="1.12042">
        <ele>159.2</ele>
        <time>2022-03-26T12:33:19Z</time>
      </trkpt>
      <trkpt lat="49.4892" lon="1.12047">
        <ele>159.1</ele>
        <time>2022-03-26T12:33:20Z</time>
      </trkpt>
      <trkpt lat="49.48923" lon="1.12052">
        <ele>159</ele>
        <time>2022-03-26T12:33:21Z</time>
      </trkpt>
      <trkpt lat="49.48926" lon="1.12056">
        <ele>158.8</ele>
        <time>2022-03-26T12:33:22Z</time>
      </trkpt>
      <trkpt lat="49.48929" lon="1.12061">
        <ele>158.7</ele>
        <time>2022-03-26T12:33:23Z</time>
      </trkpt>
      <trkpt lat="49.48933" lon="1.12066">
        <ele>158.6</ele>
        <time>2022-03-26T12:33:24Z</time>
      </trkpt>
      <trkpt lat="49.48936" lon="1.12071">
        <ele>158.5</ele>
        <time>2022-03-26T12:33:25Z</time>
      </trkpt>
      <trkpt lat="49.48941" lon="1.12079">
        <ele>158.3</ele>
        <time>2022-03-26T12:33:26Z</time>
      </trkpt>
      <trkpt lat="49.48945" lon="1.12084">
        <ele>158.2</ele>
        <time>2022-03-26T12:33:27Z</time>
      </trkpt>
      <trkpt lat="49.48945" lon="1.12084">
        <ele>158.2</ele>
        <time>2022-03-26T12:33:28Z</time>
      </trkpt>
      <trkpt lat="49.48948" lon="1.12089">
        <ele>158.1</ele>
        <time>2022-03-26T12:33:30Z</time>
      </trkpt>
      <trkpt lat="49.48952" lon="1.12096">
        <ele>157.9</ele>
        <time>2022-03-26T12:33:31Z</time>
      </trkpt>
      <trkpt lat="49.48956" lon="1.12102">
        <ele>157.8</ele>
        <time>2022-03-26T12:33:32Z</time>
      </trkpt>
      <trkpt lat="49.48959" lon="1.12107">
        <ele>157.7</ele>
        <time>2022-03-26T12:33:33Z</time>
      </trkpt>
      <trkpt lat="49.48962" lon="1.12112">
        <ele>157.6</ele>
        <time>2022-03-26T12:33:34Z</time>
      </trkpt>
      <trkpt lat="49.48968" lon="1.12121">
        <ele>157.5</ele>
        <time>2022-03-26T12:33:36Z</time>
      </trkpt>
      <trkpt lat="49.48971" lon="1.12126">
        <ele>157.4</ele>
        <time>2022-03-26T12:33:37Z</time>
      </trkpt>
      <trkpt lat="49.48976" lon="1.12133">
        <ele>157.3</ele>
        <time>2022-03-26T12:33:38Z</time>
      </trkpt>
      <trkpt lat="49.4898" lon="1.12138">
        <ele>157.3</ele>
        <time>2022-03-26T12:33:39Z</time>
      </trkpt>
      <trkpt lat="49.48985" lon="1.12145">
        <ele>157.2</ele>
        <time>2022-03-26T12:33:40Z</time>
      </trkpt>
      <trkpt lat="49.48989" lon="1.12152">
        <ele>157.1</ele>
        <time>2022-03-26T12:33:41Z</time>
      </trkpt>
      <trkpt lat="49.48998" lon="1.12162">
        <ele>156.9</ele>
        <time>2022-03-26T12:33:43Z</time>
      </trkpt>
      <trkpt lat="49.49004" lon="1.1217">
        <ele>156.8</ele>
        <time>2022-03-26T12:33:44Z</time>
      </trkpt>
      <trkpt lat="49.4901" lon="1.12178">
        <ele>156.7</ele>
        <time>2022-03-26T12:33:46Z</time>
      </trkpt>
      <trkpt lat="49.49014" lon="1.12183">
        <ele>156.7</ele>
        <time>2022-03-26T12:33:47Z</time>
      </trkpt>
      <trkpt lat="49.49016" lon="1.12186">
        <ele>156.7</ele>
        <time>2022-03-26T12:33:48Z</time>
      </trkpt>
      <trkpt lat="49.49019" lon="1.1219">
        <ele>156.7</ele>
        <time>2022-03-26T12:33:49Z</time>
      </trkpt>
      <trkpt lat="49.49022" lon="1.12194">
        <ele>156.7</ele>
        <time>2022-03-26T12:33:50Z</time>
      </trkpt>
      <trkpt lat="49.49032" lon="1.12206">
        <ele>156.7</ele>
        <time>2022-03-26T12:33:51Z</time>
      </trkpt>
      <trkpt lat="49.49039" lon="1.12215">
        <ele>156.8</ele>
        <time>2022-03-26T12:33:52Z</time>
      </trkpt>
      <trkpt lat="49.49042" lon="1.12221">
        <ele>156.8</ele>
        <time>2022-03-26T12:33:53Z</time>
      </trkpt>
      <trkpt lat="49.49056" lon="1.12237">
        <ele>156.9</ele>
        <time>2022-03-26T12:33:54Z</time>
      </trkpt>
      <trkpt lat="49.49057" lon="1.12239">
        <ele>156.9</ele>
        <time>2022-03-26T12:33:55Z</time>
      </trkpt>
      <trkpt lat="49.49062" lon="1.12243">
        <ele>156.9</ele>
        <time>2022-03-26T12:33:56Z</time>
      </trkpt>
      <trkpt lat="49.49065" lon="1.12246">
        <ele>156.9</ele>
        <time>2022-03-26T12:33:57Z</time>
      </trkpt>
      <trkpt lat="49.49066" lon="1.12247">
        <ele>156.9</ele>
        <time>2022-03-26T12:33:58Z</time>
      </trkpt>
      <trkpt lat="49.4907" lon="1.12249">
        <ele>157</ele>
        <time>2022-03-26T12:33:59Z</time>
      </trkpt>
      <trkpt lat="49.49073" lon="1.12252">
        <ele>157</ele>
        <time>2022-03-26T12:34:00Z</time>
      </trkpt>
      <trkpt lat="49.49078" lon="1.12256">
        <ele>157</ele>
        <time>2022-03-26T12:34:01Z</time>
      </trkpt>
      <trkpt lat="49.49081" lon="1.1226">
        <ele>157</ele>
        <time>2022-03-26T12:34:02Z</time>
      </trkpt>
      <trkpt lat="49.49084" lon="1.12263">
        <ele>157.1</ele>
        <time>2022-03-26T12:34:03Z</time>
      </trkpt>
      <trkpt lat="49.49088" lon="1.12268">
        <ele>157.1</ele>
        <time>2022-03-26T12:34:04Z</time>
      </trkpt>
      <trkpt lat="49.49096" lon="1.1228">
        <ele>157.4</ele>
        <time>2022-03-26T12:34:05Z</time>
      </trkpt>
      <trkpt lat="49.491" lon="1.12286">
        <ele>157.4</ele>
        <time>2022-03-26T12:34:06Z</time>
      </trkpt>
      <trkpt lat="49.49108" lon="1.12293">
        <ele>157.6</ele>
        <time>2022-03-26T12:34:07Z</time>
      </trkpt>
      <trkpt lat="49.49113" lon="1.12297">
        <ele>157.7</ele>
        <time>2022-03-26T12:34:08Z</time>
      </trkpt>
      <trkpt lat="49.4912" lon="1.12304">
        <ele>157.8</ele>
        <time>2022-03-26T12:34:10Z</time>
      </trkpt>
      <trkpt lat="49.49128" lon="1.12309">
        <ele>157.9</ele>
        <time>2022-03-26T12:34:11Z</time>
      </trkpt>
      <trkpt lat="49.49133" lon="1.12316">
        <ele>158</ele>
        <time>2022-03-26T12:34:12Z</time>
      </trkpt>
      <trkpt lat="49.49138" lon="1.12323">
        <ele>158.1</ele>
        <time>2022-03-26T12:34:13Z</time>
      </trkpt>
      <trkpt lat="49.49141" lon="1.12332">
        <ele>158.2</ele>
        <time>2022-03-26T12:34:14Z</time>
      </trkpt>
      <trkpt lat="49.49147" lon="1.12341">
        <ele>158.3</ele>
        <time>2022-03-26T12:34:15Z</time>
      </trkpt>
      <trkpt lat="49.49153" lon="1.12351">
        <ele>158.4</ele>
        <time>2022-03-26T12:34:16Z</time>
      </trkpt>
      <trkpt lat="49.49159" lon="1.12359">
        <ele>158.5</ele>
        <time>2022-03-26T12:34:17Z</time>
      </trkpt>
      <trkpt lat="49.49164" lon="1.12366">
        <ele>158.5</ele>
        <time>2022-03-26T12:34:18Z</time>
      </trkpt>
      <trkpt lat="49.49168" lon="1.12373">
        <ele>158.6</ele>
        <time>2022-03-26T12:34:19Z</time>
      </trkpt>
      <trkpt lat="49.49173" lon="1.12379">
        <ele>158.6</ele>
        <time>2022-03-26T12:34:20Z</time>
      </trkpt>
      <trkpt lat="49.49178" lon="1.12386">
        <ele>158.7</ele>
        <time>2022-03-26T12:34:21Z</time>
      </trkpt>
      <trkpt lat="49.49182" lon="1.12394">
        <ele>158.7</ele>
        <time>2022-03-26T12:34:22Z</time>
      </trkpt>
      <trkpt lat="49.49185" lon="1.124">
        <ele>158.7</ele>
        <time>2022-03-26T12:34:23Z</time>
      </trkpt>
      <trkpt lat="49.49188" lon="1.12407">
        <ele>158.8</ele>
        <time>2022-03-26T12:34:24Z</time>
      </trkpt>
      <trkpt lat="49.49191" lon="1.12413">
        <ele>158.8</ele>
        <time>2022-03-26T12:34:25Z</time>
      </trkpt>
      <trkpt lat="49.49193" lon="1.1242">
        <ele>158.7</ele>
        <time>2022-03-26T12:34:26Z</time>
      </trkpt>
      <trkpt lat="49.49195" lon="1.12427">
        <ele>158.7</ele>
        <time>2022-03-26T12:34:27Z</time>
      </trkpt>
      <trkpt lat="49.49198" lon="1.12435">
        <ele>158.7</ele>
        <time>2022-03-26T12:34:28Z</time>
      </trkpt>
      <trkpt lat="49.49202" lon="1.12444">
        <ele>158.6</ele>
        <time>2022-03-26T12:34:29Z</time>
      </trkpt>
      <trkpt lat="49.49205" lon="1.12453">
        <ele>158.5</ele>
        <time>2022-03-26T12:34:30Z</time>
      </trkpt>
      <trkpt lat="49.49208" lon="1.12462">
        <ele>158.5</ele>
        <time>2022-03-26T12:34:31Z</time>
      </trkpt>
      <trkpt lat="49.49211" lon="1.12471">
        <ele>158.5</ele>
        <time>2022-03-26T12:34:32Z</time>
      </trkpt>
      <trkpt lat="49.49213" lon="1.1248">
        <ele>158.5</ele>
        <time>2022-03-26T12:34:33Z</time>
      </trkpt>
      <trkpt lat="49.49215" lon="1.12487">
        <ele>158.5</ele>
        <time>2022-03-26T12:34:34Z</time>
      </trkpt>
      <trkpt lat="49.49218" lon="1.12494">
        <ele>158.6</ele>
        <time>2022-03-26T12:34:35Z</time>
      </trkpt>
      <trkpt lat="49.49219" lon="1.12502">
        <ele>158.6</ele>
        <time>2022-03-26T12:34:36Z</time>
      </trkpt>
      <trkpt lat="49.49221" lon="1.1251">
        <ele>158.7</ele>
        <time>2022-03-26T12:34:37Z</time>
      </trkpt>
      <trkpt lat="49.49223" lon="1.12517">
        <ele>158.7</ele>
        <time>2022-03-26T12:34:38Z</time>
      </trkpt>
      <trkpt lat="49.49225" lon="1.12524">
        <ele>158.8</ele>
        <time>2022-03-26T12:34:39Z</time>
      </trkpt>
      <trkpt lat="49.49226" lon="1.1253">
        <ele>158.8</ele>
        <time>2022-03-26T12:34:40Z</time>
      </trkpt>
      <trkpt lat="49.49227" lon="1.12537">
        <ele>158.8</ele>
        <time>2022-03-26T12:34:41Z</time>
      </trkpt>
      <trkpt lat="49.4923" lon="1.12544">
        <ele>158.8</ele>
        <time>2022-03-26T12:34:42Z</time>
      </trkpt>
      <trkpt lat="49.49232" lon="1.1255">
        <ele>158.8</ele>
        <time>2022-03-26T12:34:43Z</time>
      </trkpt>
      <trkpt lat="49.49234" lon="1.12557">
        <ele>158.8</ele>
        <time>2022-03-26T12:34:44Z</time>
      </trkpt>
      <trkpt lat="49.49237" lon="1.12565">
        <ele>158.8</ele>
        <time>2022-03-26T12:34:45Z</time>
      </trkpt>
      <trkpt lat="49.49239" lon="1.12572">
        <ele>158.8</ele>
        <time>2022-03-26T12:34:46Z</time>
      </trkpt>
      <trkpt lat="49.49241" lon="1.12578">
        <ele>158.8</ele>
        <time>2022-03-26T12:34:47Z</time>
      </trkpt>
      <trkpt lat="49.49243" lon="1.12583">
        <ele>158.8</ele>
        <time>2022-03-26T12:34:48Z</time>
      </trkpt>
      <trkpt lat="49.49244" lon="1.12587">
        <ele>158.8</ele>
        <time>2022-03-26T12:34:49Z</time>
      </trkpt>
      <trkpt lat="49.49245" lon="1.12592">
        <ele>158.8</ele>
        <time>2022-03-26T12:34:50Z</time>
      </trkpt>
      <trkpt lat="49.49246" lon="1.12593">
        <ele>159.6</ele>
        <time>2022-03-26T12:34:51Z</time>
      </trkpt>
      <trkpt lat="49.49248" lon="1.12597">
        <ele>159.5</ele>
        <time>2022-03-26T12:34:52Z</time>
      </trkpt>
      <trkpt lat="49.49249" lon="1.12598">
        <ele>159.5</ele>
        <time>2022-03-26T12:34:53Z</time>
      </trkpt>
      <trkpt lat="49.49252" lon="1.12597">
        <ele>159.4</ele>
        <time>2022-03-26T12:34:54Z</time>
      </trkpt>
      <trkpt lat="49.49253" lon="1.12597">
        <ele>159.4</ele>
        <time>2022-03-26T12:34:55Z</time>
      </trkpt>
      <trkpt lat="49.49256" lon="1.12596">
        <ele>159.4</ele>
        <time>2022-03-26T12:34:56Z</time>
      </trkpt>
      <trkpt lat="49.49257" lon="1.12596">
        <ele>159.3</ele>
        <time>2022-03-26T12:34:57Z</time>
      </trkpt>
      <trkpt lat="49.4926" lon="1.12593">
        <ele>159.3</ele>
        <time>2022-03-26T12:34:58Z</time>
      </trkpt>
      <trkpt lat="49.49263" lon="1.12591">
        <ele>158.5</ele>
        <time>2022-03-26T12:34:59Z</time>
      </trkpt>
      <trkpt lat="49.49266" lon="1.12591">
        <ele>158.5</ele>
        <time>2022-03-26T12:35:00Z</time>
      </trkpt>
      <trkpt lat="49.4927" lon="1.12591">
        <ele>158.6</ele>
        <time>2022-03-26T12:35:01Z</time>
      </trkpt>
      <trkpt lat="49.49273" lon="1.12589">
        <ele>158.6</ele>
        <time>2022-03-26T12:35:02Z</time>
      </trkpt>
      <trkpt lat="49.49275" lon="1.12585">
        <ele>158.5</ele>
        <time>2022-03-26T12:35:03Z</time>
      </trkpt>
      <trkpt lat="49.49279" lon="1.12583">
        <ele>159.1</ele>
        <time>2022-03-26T12:35:04Z</time>
      </trkpt>
      <trkpt lat="49.4928" lon="1.12582">
        <ele>159</ele>
        <time>2022-03-26T12:35:05Z</time>
      </trkpt>
      <trkpt lat="49.49283" lon="1.12581">
        <ele>159</ele>
        <time>2022-03-26T12:35:06Z</time>
      </trkpt>
      <trkpt lat="49.49286" lon="1.12579">
        <ele>158.9</ele>
        <time>2022-03-26T12:35:07Z</time>
      </trkpt>
      <trkpt lat="49.49286" lon="1.12578">
        <ele>158.9</ele>
        <time>2022-03-26T12:35:08Z</time>
      </trkpt>
      <trkpt lat="49.49287" lon="1.12578">
        <ele>158.8</ele>
        <time>2022-03-26T12:35:09Z</time>
      </trkpt>
      <trkpt lat="49.49289" lon="1.12577">
        <ele>159.6</ele>
        <time>2022-03-26T12:35:10Z</time>
      </trkpt>
      <trkpt lat="49.49291" lon="1.12574">
        <ele>159.2</ele>
        <time>2022-03-26T12:35:11Z</time>
      </trkpt>
      <trkpt lat="49.4929" lon="1.12572">
        <ele>159.2</ele>
        <time>2022-03-26T12:35:12Z</time>
      </trkpt>
      <trkpt lat="49.4929" lon="1.12568">
        <ele>159.1</ele>
        <time>2022-03-26T12:35:13Z</time>
      </trkpt>
      <trkpt lat="49.49291" lon="1.12567">
        <ele>159.1</ele>
        <time>2022-03-26T12:35:14Z</time>
      </trkpt>
      <trkpt lat="49.49291" lon="1.12566">
        <ele>159</ele>
        <time>2022-03-26T12:35:15Z</time>
      </trkpt>
      <trkpt lat="49.49292" lon="1.12561">
        <ele>159</ele>
        <time>2022-03-26T12:35:16Z</time>
      </trkpt>
      <trkpt lat="49.49294" lon="1.12557">
        <ele>158.6</ele>
        <time>2022-03-26T12:35:17Z</time>
      </trkpt>
      <trkpt lat="49.49296" lon="1.12554">
        <ele>158.6</ele>
        <time>2022-03-26T12:35:18Z</time>
      </trkpt>
      <trkpt lat="49.49299" lon="1.12552">
        <ele>158.5</ele>
        <time>2022-03-26T12:35:19Z</time>
      </trkpt>
      <trkpt lat="49.49302" lon="1.12551">
        <ele>159.7</ele>
        <time>2022-03-26T12:35:20Z</time>
      </trkpt>
      <trkpt lat="49.49304" lon="1.12548">
        <ele>159.7</ele>
        <time>2022-03-26T12:35:21Z</time>
      </trkpt>
      <trkpt lat="49.49305" lon="1.12547">
        <ele>159.6</ele>
        <time>2022-03-26T12:35:22Z</time>
      </trkpt>
      <trkpt lat="49.49307" lon="1.12544">
        <ele>159.6</ele>
        <time>2022-03-26T12:35:23Z</time>
      </trkpt>
      <trkpt lat="49.4931" lon="1.1254">
        <ele>159.6</ele>
        <time>2022-03-26T12:35:24Z</time>
      </trkpt>
      <trkpt lat="49.49313" lon="1.12538">
        <ele>161</ele>
        <time>2022-03-26T12:35:25Z</time>
      </trkpt>
      <trkpt lat="49.49316" lon="1.12535">
        <ele>160.9</ele>
        <time>2022-03-26T12:35:26Z</time>
      </trkpt>
      <trkpt lat="49.49317" lon="1.12533">
        <ele>160.9</ele>
        <time>2022-03-26T12:35:27Z</time>
      </trkpt>
      <trkpt lat="49.4932" lon="1.1253">
        <ele>160.8</ele>
        <time>2022-03-26T12:35:28Z</time>
      </trkpt>
      <trkpt lat="49.49324" lon="1.12527">
        <ele>161.9</ele>
        <time>2022-03-26T12:35:29Z</time>
      </trkpt>
      <trkpt lat="49.49326" lon="1.12523">
        <ele>162</ele>
        <time>2022-03-26T12:35:30Z</time>
      </trkpt>
      <trkpt lat="49.4933" lon="1.12521">
        <ele>162</ele>
        <time>2022-03-26T12:35:31Z</time>
      </trkpt>
      <trkpt lat="49.49331" lon="1.12521">
        <ele>161.9</ele>
        <time>2022-03-26T12:35:32Z</time>
      </trkpt>
      <trkpt lat="49.49335" lon="1.1252">
        <ele>162.7</ele>
        <time>2022-03-26T12:35:33Z</time>
      </trkpt>
      <trkpt lat="49.49337" lon="1.12518">
        <ele>162.6</ele>
        <time>2022-03-26T12:35:34Z</time>
      </trkpt>
      <trkpt lat="49.49338" lon="1.12517">
        <ele>162.6</ele>
        <time>2022-03-26T12:35:35Z</time>
      </trkpt>
      <trkpt lat="49.4934" lon="1.12514">
        <ele>162.5</ele>
        <time>2022-03-26T12:35:36Z</time>
      </trkpt>
      <trkpt lat="49.49343" lon="1.12511">
        <ele>162.5</ele>
        <time>2022-03-26T12:35:37Z</time>
      </trkpt>
      <trkpt lat="49.49346" lon="1.12507">
        <ele>162.8</ele>
        <time>2022-03-26T12:35:38Z</time>
      </trkpt>
      <trkpt lat="49.4935" lon="1.12504">
        <ele>162.8</ele>
        <time>2022-03-26T12:35:39Z</time>
      </trkpt>
      <trkpt lat="49.49353" lon="1.12501">
        <ele>162.7</ele>
        <time>2022-03-26T12:35:40Z</time>
      </trkpt>
      <trkpt lat="49.49356" lon="1.12499">
        <ele>162.8</ele>
        <time>2022-03-26T12:35:41Z</time>
      </trkpt>
      <trkpt lat="49.49356" lon="1.12499">
        <ele>162.8</ele>
        <time>2022-03-26T12:35:42Z</time>
      </trkpt>
      <trkpt lat="49.49357" lon="1.12498">
        <ele>162.7</ele>
        <time>2022-03-26T12:35:43Z</time>
      </trkpt>
      <trkpt lat="49.49357" lon="1.12498">
        <ele>162.7</ele>
        <time>2022-03-26T12:35:44Z</time>
      </trkpt>
      <trkpt lat="49.49357" lon="1.12497">
        <ele>162.6</ele>
        <time>2022-03-26T12:35:45Z</time>
      </trkpt>
      <trkpt lat="49.49357" lon="1.12497">
        <ele>162.5</ele>
        <time>2022-03-26T12:35:46Z</time>
      </trkpt>
      <trkpt lat="49.49357" lon="1.12497">
        <ele>162.5</ele>
        <time>2022-03-26T12:35:47Z</time>
      </trkpt>
      <trkpt lat="49.49359" lon="1.12497">
        <ele>162.4</ele>
        <time>2022-03-26T12:35:48Z</time>
      </trkpt>
      <trkpt lat="49.49364" lon="1.12497">
        <ele>162.4</ele>
        <time>2022-03-26T12:35:49Z</time>
      </trkpt>
      <trkpt lat="49.49368" lon="1.12497">
        <ele>162.4</ele>
        <time>2022-03-26T12:35:50Z</time>
      </trkpt>
      <trkpt lat="49.49371" lon="1.12497">
        <ele>162.3</ele>
        <time>2022-03-26T12:35:51Z</time>
      </trkpt>
      <trkpt lat="49.49374" lon="1.12498">
        <ele>162.3</ele>
        <time>2022-03-26T12:35:52Z</time>
      </trkpt>
      <trkpt lat="49.49377" lon="1.125">
        <ele>162.2</ele>
        <time>2022-03-26T12:35:53Z</time>
      </trkpt>
      <trkpt lat="49.49379" lon="1.12503">
        <ele>162.2</ele>
        <time>2022-03-26T12:35:54Z</time>
      </trkpt>
      <trkpt lat="49.49382" lon="1.12506">
        <ele>162.1</ele>
        <time>2022-03-26T12:35:55Z</time>
      </trkpt>
      <trkpt lat="49.49383" lon="1.12506">
        <ele>162.1</ele>
        <time>2022-03-26T12:35:56Z</time>
      </trkpt>
      <trkpt lat="49.49384" lon="1.12508">
        <ele>162.1</ele>
        <time>2022-03-26T12:35:57Z</time>
      </trkpt>
      <trkpt lat="49.49385" lon="1.12509">
        <ele>162</ele>
        <time>2022-03-26T12:35:58Z</time>
      </trkpt>
      <trkpt lat="49.49386" lon="1.12511">
        <ele>162</ele>
        <time>2022-03-26T12:35:59Z</time>
      </trkpt>
      <trkpt lat="49.49387" lon="1.12511">
        <ele>161.9</ele>
        <time>2022-03-26T12:36:00Z</time>
      </trkpt>
      <trkpt lat="49.49388" lon="1.12512">
        <ele>161.9</ele>
        <time>2022-03-26T12:36:01Z</time>
      </trkpt>
      <trkpt lat="49.49389" lon="1.12514">
        <ele>161.9</ele>
        <time>2022-03-26T12:36:02Z</time>
      </trkpt>
      <trkpt lat="49.4939" lon="1.12516">
        <ele>161.8</ele>
        <time>2022-03-26T12:36:03Z</time>
      </trkpt>
      <trkpt lat="49.49391" lon="1.1252">
        <ele>161.7</ele>
        <time>2022-03-26T12:36:04Z</time>
      </trkpt>
      <trkpt lat="49.49392" lon="1.12522">
        <ele>161.7</ele>
        <time>2022-03-26T12:36:05Z</time>
      </trkpt>
      <trkpt lat="49.49393" lon="1.12525">
        <ele>161.6</ele>
        <time>2022-03-26T12:36:06Z</time>
      </trkpt>
      <trkpt lat="49.49393" lon="1.12527">
        <ele>161.5</ele>
        <time>2022-03-26T12:36:07Z</time>
      </trkpt>
      <trkpt lat="49.49395" lon="1.12531">
        <ele>161.5</ele>
        <time>2022-03-26T12:36:08Z</time>
      </trkpt>
      <trkpt lat="49.49395" lon="1.12532">
        <ele>161.4</ele>
        <time>2022-03-26T12:36:09Z</time>
      </trkpt>
      <trkpt lat="49.49397" lon="1.12534">
        <ele>161.4</ele>
        <time>2022-03-26T12:36:10Z</time>
      </trkpt>
      <trkpt lat="49.49398" lon="1.12536">
        <ele>161.3</ele>
        <time>2022-03-26T12:36:11Z</time>
      </trkpt>
      <trkpt lat="49.49399" lon="1.12538">
        <ele>161.3</ele>
        <time>2022-03-26T12:36:12Z</time>
      </trkpt>
      <trkpt lat="49.49399" lon="1.12541">
        <ele>161.2</ele>
        <time>2022-03-26T12:36:13Z</time>
      </trkpt>
      <trkpt lat="49.494" lon="1.12543">
        <ele>161</ele>
        <time>2022-03-26T12:36:14Z</time>
      </trkpt>
      <trkpt lat="49.49399" lon="1.12545">
        <ele>161</ele>
        <time>2022-03-26T12:36:15Z</time>
      </trkpt>
      <trkpt lat="49.49399" lon="1.12546">
        <ele>160.9</ele>
        <time>2022-03-26T12:36:16Z</time>
      </trkpt>
      <trkpt lat="49.494" lon="1.12548">
        <ele>160.9</ele>
        <time>2022-03-26T12:36:17Z</time>
      </trkpt>
      <trkpt lat="49.494" lon="1.1255">
        <ele>160.8</ele>
        <time>2022-03-26T12:36:18Z</time>
      </trkpt>
      <trkpt lat="49.49401" lon="1.12555">
        <ele>160.7</ele>
        <time>2022-03-26T12:36:19Z</time>
      </trkpt>
      <trkpt lat="49.49402" lon="1.12556">
        <ele>160.7</ele>
        <time>2022-03-26T12:36:20Z</time>
      </trkpt>
      <trkpt lat="49.49403" lon="1.12561">
        <ele>160.5</ele>
        <time>2022-03-26T12:36:21Z</time>
      </trkpt>
      <trkpt lat="49.49404" lon="1.12562">
        <ele>160.4</ele>
        <time>2022-03-26T12:36:22Z</time>
      </trkpt>
      <trkpt lat="49.49406" lon="1.12567">
        <ele>160.4</ele>
        <time>2022-03-26T12:36:23Z</time>
      </trkpt>
      <trkpt lat="49.49407" lon="1.12569">
        <ele>160.3</ele>
        <time>2022-03-26T12:36:24Z</time>
      </trkpt>
      <trkpt lat="49.49409" lon="1.12573">
        <ele>160.3</ele>
        <time>2022-03-26T12:36:25Z</time>
      </trkpt>
      <trkpt lat="49.49411" lon="1.12578">
        <ele>160</ele>
        <time>2022-03-26T12:36:26Z</time>
      </trkpt>
      <trkpt lat="49.49412" lon="1.12584">
        <ele>159.9</ele>
        <time>2022-03-26T12:36:27Z</time>
      </trkpt>
      <trkpt lat="49.49413" lon="1.1259">
        <ele>159.8</ele>
        <time>2022-03-26T12:36:28Z</time>
      </trkpt>
      <trkpt lat="49.49414" lon="1.12594">
        <ele>159.8</ele>
        <time>2022-03-26T12:36:29Z</time>
      </trkpt>
      <trkpt lat="49.49414" lon="1.126">
        <ele>159.8</ele>
        <time>2022-03-26T12:36:30Z</time>
      </trkpt>
      <trkpt lat="49.49414" lon="1.12605">
        <ele>159.8</ele>
        <time>2022-03-26T12:36:31Z</time>
      </trkpt>
      <trkpt lat="49.49414" lon="1.1261">
        <ele>159.8</ele>
        <time>2022-03-26T12:36:32Z</time>
      </trkpt>
      <trkpt lat="49.49413" lon="1.12614">
        <ele>159.8</ele>
        <time>2022-03-26T12:36:33Z</time>
      </trkpt>
      <trkpt lat="49.49415" lon="1.12619">
        <ele>159.8</ele>
        <time>2022-03-26T12:36:35Z</time>
      </trkpt>
      <trkpt lat="49.49416" lon="1.12623">
        <ele>159.8</ele>
        <time>2022-03-26T12:36:36Z</time>
      </trkpt>
      <trkpt lat="49.49415" lon="1.12629">
        <ele>159.8</ele>
        <time>2022-03-26T12:36:37Z</time>
      </trkpt>
      <trkpt lat="49.49415" lon="1.12632">
        <ele>159.8</ele>
        <time>2022-03-26T12:36:38Z</time>
      </trkpt>
      <trkpt lat="49.49414" lon="1.12638">
        <ele>159.8</ele>
        <time>2022-03-26T12:36:40Z</time>
      </trkpt>
      <trkpt lat="49.49413" lon="1.12643">
        <ele>159.8</ele>
        <time>2022-03-26T12:36:41Z</time>
      </trkpt>
      <trkpt lat="49.49412" lon="1.12647">
        <ele>159.8</ele>
        <time>2022-03-26T12:36:42Z</time>
      </trkpt>
      <trkpt lat="49.4941" lon="1.12652">
        <ele>159.8</ele>
        <time>2022-03-26T12:36:43Z</time>
      </trkpt>
      <trkpt lat="49.49409" lon="1.12658">
        <ele>159.8</ele>
        <time>2022-03-26T12:36:44Z</time>
      </trkpt>
      <trkpt lat="49.49408" lon="1.12666">
        <ele>159.8</ele>
        <time>2022-03-26T12:36:46Z</time>
      </trkpt>
      <trkpt lat="49.49407" lon="1.12671">
        <ele>159.8</ele>
        <time>2022-03-26T12:36:47Z</time>
      </trkpt>
      <trkpt lat="49.49406" lon="1.12676">
        <ele>159.8</ele>
        <time>2022-03-26T12:36:48Z</time>
      </trkpt>
      <trkpt lat="49.49405" lon="1.12681">
        <ele>159.7</ele>
        <time>2022-03-26T12:36:49Z</time>
      </trkpt>
      <trkpt lat="49.49403" lon="1.12685">
        <ele>159.7</ele>
        <time>2022-03-26T12:36:50Z</time>
      </trkpt>
      <trkpt lat="49.49402" lon="1.1269">
        <ele>159.7</ele>
        <time>2022-03-26T12:36:51Z</time>
      </trkpt>
      <trkpt lat="49.49401" lon="1.12697">
        <ele>159.7</ele>
        <time>2022-03-26T12:36:52Z</time>
      </trkpt>
      <trkpt lat="49.49399" lon="1.12708">
        <ele>159.6</ele>
        <time>2022-03-26T12:36:54Z</time>
      </trkpt>
      <trkpt lat="49.49398" lon="1.12714">
        <ele>159.6</ele>
        <time>2022-03-26T12:36:56Z</time>
      </trkpt>
      <trkpt lat="49.49398" lon="1.12719">
        <ele>159.5</ele>
        <time>2022-03-26T12:36:57Z</time>
      </trkpt>
      <trkpt lat="49.49396" lon="1.12725">
        <ele>159.5</ele>
        <time>2022-03-26T12:36:58Z</time>
      </trkpt>
      <trkpt lat="49.49395" lon="1.12732">
        <ele>159.4</ele>
        <time>2022-03-26T12:36:59Z</time>
      </trkpt>
      <trkpt lat="49.49394" lon="1.12738">
        <ele>159.4</ele>
        <time>2022-03-26T12:37:00Z</time>
      </trkpt>
      <trkpt lat="49.49393" lon="1.12743">
        <ele>159.4</ele>
        <time>2022-03-26T12:37:01Z</time>
      </trkpt>
      <trkpt lat="49.49392" lon="1.12747">
        <ele>159.3</ele>
        <time>2022-03-26T12:37:02Z</time>
      </trkpt>
      <trkpt lat="49.4939" lon="1.12757">
        <ele>159.2</ele>
        <time>2022-03-26T12:37:04Z</time>
      </trkpt>
      <trkpt lat="49.49389" lon="1.1277">
        <ele>159.2</ele>
        <time>2022-03-26T12:37:05Z</time>
      </trkpt>
      <trkpt lat="49.49388" lon="1.12778">
        <ele>159.1</ele>
        <time>2022-03-26T12:37:06Z</time>
      </trkpt>
      <trkpt lat="49.49389" lon="1.12784">
        <ele>159</ele>
        <time>2022-03-26T12:37:07Z</time>
      </trkpt>
      <trkpt lat="49.49389" lon="1.12789">
        <ele>159</ele>
        <time>2022-03-26T12:37:08Z</time>
      </trkpt>
      <trkpt lat="49.49389" lon="1.12793">
        <ele>159</ele>
        <time>2022-03-26T12:37:09Z</time>
      </trkpt>
      <trkpt lat="49.49388" lon="1.12796">
        <ele>158.9</ele>
        <time>2022-03-26T12:37:10Z</time>
      </trkpt>
      <trkpt lat="49.49386" lon="1.128">
        <ele>158.9</ele>
        <time>2022-03-26T12:37:12Z</time>
      </trkpt>
      <trkpt lat="49.49385" lon="1.12804">
        <ele>158.9</ele>
        <time>2022-03-26T12:37:13Z</time>
      </trkpt>
      <trkpt lat="49.49383" lon="1.1281">
        <ele>158.8</ele>
        <time>2022-03-26T12:37:15Z</time>
      </trkpt>
      <trkpt lat="49.49383" lon="1.12819">
        <ele>158.7</ele>
        <time>2022-03-26T12:37:16Z</time>
      </trkpt>
      <trkpt lat="49.49383" lon="1.12826">
        <ele>158.7</ele>
        <time>2022-03-26T12:37:17Z</time>
      </trkpt>
      <trkpt lat="49.49382" lon="1.12833">
        <ele>158.6</ele>
        <time>2022-03-26T12:37:18Z</time>
      </trkpt>
      <trkpt lat="49.49381" lon="1.12838">
        <ele>158.6</ele>
        <time>2022-03-26T12:37:19Z</time>
      </trkpt>
      <trkpt lat="49.49379" lon="1.12844">
        <ele>158.5</ele>
        <time>2022-03-26T12:37:21Z</time>
      </trkpt>
      <trkpt lat="49.49379" lon="1.12849">
        <ele>158.5</ele>
        <time>2022-03-26T12:37:22Z</time>
      </trkpt>
      <trkpt lat="49.49378" lon="1.12854">
        <ele>158.4</ele>
        <time>2022-03-26T12:37:23Z</time>
      </trkpt>
      <trkpt lat="49.49377" lon="1.12856">
        <ele>158.4</ele>
        <time>2022-03-26T12:37:24Z</time>
      </trkpt>
      <trkpt lat="49.49376" lon="1.12859">
        <ele>158.4</ele>
        <time>2022-03-26T12:37:25Z</time>
      </trkpt>
      <trkpt lat="49.49375" lon="1.12863">
        <ele>158.3</ele>
        <time>2022-03-26T12:37:27Z</time>
      </trkpt>
      <trkpt lat="49.49375" lon="1.12868">
        <ele>158.3</ele>
        <time>2022-03-26T12:37:28Z</time>
      </trkpt>
      <trkpt lat="49.49374" lon="1.12875">
        <ele>158.2</ele>
        <time>2022-03-26T12:37:29Z</time>
      </trkpt>
      <trkpt lat="49.49374" lon="1.12877">
        <ele>158.1</ele>
        <time>2022-03-26T12:37:30Z</time>
      </trkpt>
      <trkpt lat="49.49373" lon="1.12884">
        <ele>158.1</ele>
        <time>2022-03-26T12:37:31Z</time>
      </trkpt>
      <trkpt lat="49.49372" lon="1.1289">
        <ele>158</ele>
        <time>2022-03-26T12:37:32Z</time>
      </trkpt>
      <trkpt lat="49.49371" lon="1.12894">
        <ele>157.9</ele>
        <time>2022-03-26T12:37:33Z</time>
      </trkpt>
      <trkpt lat="49.49371" lon="1.12899">
        <ele>157.9</ele>
        <time>2022-03-26T12:37:34Z</time>
      </trkpt>
      <trkpt lat="49.49371" lon="1.12905">
        <ele>157.8</ele>
        <time>2022-03-26T12:37:35Z</time>
      </trkpt>
      <trkpt lat="49.4937" lon="1.12911">
        <ele>157.7</ele>
        <time>2022-03-26T12:37:36Z</time>
      </trkpt>
      <trkpt lat="49.49369" lon="1.12918">
        <ele>157.6</ele>
        <time>2022-03-26T12:37:38Z</time>
      </trkpt>
      <trkpt lat="49.49368" lon="1.12924">
        <ele>157.5</ele>
        <time>2022-03-26T12:37:39Z</time>
      </trkpt>
      <trkpt lat="49.49367" lon="1.12928">
        <ele>157.5</ele>
        <time>2022-03-26T12:37:40Z</time>
      </trkpt>
      <trkpt lat="49.49366" lon="1.12934">
        <ele>157.4</ele>
        <time>2022-03-26T12:37:41Z</time>
      </trkpt>
      <trkpt lat="49.49366" lon="1.12936">
        <ele>157.4</ele>
        <time>2022-03-26T12:37:42Z</time>
      </trkpt>
      <trkpt lat="49.49366" lon="1.1294">
        <ele>157.3</ele>
        <time>2022-03-26T12:37:43Z</time>
      </trkpt>
      <trkpt lat="49.49365" lon="1.12946">
        <ele>157.3</ele>
        <time>2022-03-26T12:37:45Z</time>
      </trkpt>
      <trkpt lat="49.49363" lon="1.12956">
        <ele>157.1</ele>
        <time>2022-03-26T12:37:46Z</time>
      </trkpt>
      <trkpt lat="49.49362" lon="1.12961">
        <ele>157.1</ele>
        <time>2022-03-26T12:37:47Z</time>
      </trkpt>
      <trkpt lat="49.49361" lon="1.12965">
        <ele>157</ele>
        <time>2022-03-26T12:37:48Z</time>
      </trkpt>
      <trkpt lat="49.4936" lon="1.1297">
        <ele>157</ele>
        <time>2022-03-26T12:37:49Z</time>
      </trkpt>
      <trkpt lat="49.4936" lon="1.12971">
        <ele>157</ele>
        <time>2022-03-26T12:37:50Z</time>
      </trkpt>
      <trkpt lat="49.49359" lon="1.12974">
        <ele>156.9</ele>
        <time>2022-03-26T12:37:52Z</time>
      </trkpt>
      <trkpt lat="49.49359" lon="1.12975">
        <ele>156.9</ele>
        <time>2022-03-26T12:37:53Z</time>
      </trkpt>
      <trkpt lat="49.49359" lon="1.12977">
        <ele>156.9</ele>
        <time>2022-03-26T12:37:54Z</time>
      </trkpt>
      <trkpt lat="49.49359" lon="1.12978">
        <ele>156.9</ele>
        <time>2022-03-26T12:37:55Z</time>
      </trkpt>
      <trkpt lat="49.49359" lon="1.12981">
        <ele>156.9</ele>
        <time>2022-03-26T12:37:56Z</time>
      </trkpt>
      <trkpt lat="49.49359" lon="1.12983">
        <ele>156.8</ele>
        <time>2022-03-26T12:37:57Z</time>
      </trkpt>
      <trkpt lat="49.49358" lon="1.12985">
        <ele>156.8</ele>
        <time>2022-03-26T12:37:58Z</time>
      </trkpt>
      <trkpt lat="49.49357" lon="1.1299">
        <ele>156.8</ele>
        <time>2022-03-26T12:37:59Z</time>
      </trkpt>
      <trkpt lat="49.49357" lon="1.12992">
        <ele>156.8</ele>
        <time>2022-03-26T12:38:00Z</time>
      </trkpt>
      <trkpt lat="49.49357" lon="1.13">
        <ele>156.7</ele>
        <time>2022-03-26T12:38:02Z</time>
      </trkpt>
      <trkpt lat="49.49358" lon="1.13006">
        <ele>156.6</ele>
        <time>2022-03-26T12:38:03Z</time>
      </trkpt>
      <trkpt lat="49.49358" lon="1.13011">
        <ele>156.6</ele>
        <time>2022-03-26T12:38:04Z</time>
      </trkpt>
      <trkpt lat="49.49359" lon="1.13017">
        <ele>156.5</ele>
        <time>2022-03-26T12:38:05Z</time>
      </trkpt>
      <trkpt lat="49.49362" lon="1.13031">
        <ele>156.4</ele>
        <time>2022-03-26T12:38:07Z</time>
      </trkpt>
      <trkpt lat="49.49363" lon="1.13037">
        <ele>156.4</ele>
        <time>2022-03-26T12:38:08Z</time>
      </trkpt>
      <trkpt lat="49.49366" lon="1.13044">
        <ele>156.3</ele>
        <time>2022-03-26T12:38:09Z</time>
      </trkpt>
      <trkpt lat="49.49369" lon="1.13067">
        <ele>156.2</ele>
        <time>2022-03-26T12:38:10Z</time>
      </trkpt>
      <trkpt lat="49.49369" lon="1.13075">
        <ele>156.2</ele>
        <time>2022-03-26T12:38:11Z</time>
      </trkpt>
      <trkpt lat="49.49373" lon="1.13088">
        <ele>156.1</ele>
        <time>2022-03-26T12:38:12Z</time>
      </trkpt>
      <trkpt lat="49.49377" lon="1.13095">
        <ele>156.1</ele>
        <time>2022-03-26T12:38:13Z</time>
      </trkpt>
      <trkpt lat="49.49381" lon="1.13102">
        <ele>156.1</ele>
        <time>2022-03-26T12:38:14Z</time>
      </trkpt>
      <trkpt lat="49.49383" lon="1.13115">
        <ele>155.9</ele>
        <time>2022-03-26T12:38:15Z</time>
      </trkpt>
      <trkpt lat="49.49386" lon="1.13126">
        <ele>155.8</ele>
        <time>2022-03-26T12:38:16Z</time>
      </trkpt>
      <trkpt lat="49.49389" lon="1.13134">
        <ele>155.8</ele>
        <time>2022-03-26T12:38:17Z</time>
      </trkpt>
      <trkpt lat="49.49392" lon="1.13142">
        <ele>155.7</ele>
        <time>2022-03-26T12:38:18Z</time>
      </trkpt>
      <trkpt lat="49.49394" lon="1.13149">
        <ele>155.6</ele>
        <time>2022-03-26T12:38:19Z</time>
      </trkpt>
      <trkpt lat="49.49397" lon="1.13158">
        <ele>155.5</ele>
        <time>2022-03-26T12:38:20Z</time>
      </trkpt>
      <trkpt lat="49.49401" lon="1.13167">
        <ele>155.3</ele>
        <time>2022-03-26T12:38:21Z</time>
      </trkpt>
      <trkpt lat="49.49404" lon="1.13177">
        <ele>155.2</ele>
        <time>2022-03-26T12:38:22Z</time>
      </trkpt>
      <trkpt lat="49.49408" lon="1.13188">
        <ele>155</ele>
        <time>2022-03-26T12:38:23Z</time>
      </trkpt>
      <trkpt lat="49.49411" lon="1.13197">
        <ele>154.9</ele>
        <time>2022-03-26T12:38:24Z</time>
      </trkpt>
      <trkpt lat="49.49414" lon="1.13204">
        <ele>154.7</ele>
        <time>2022-03-26T12:38:25Z</time>
      </trkpt>
      <trkpt lat="49.49419" lon="1.13212">
        <ele>154.6</ele>
        <time>2022-03-26T12:38:26Z</time>
      </trkpt>
      <trkpt lat="49.49422" lon="1.13221">
        <ele>154.4</ele>
        <time>2022-03-26T12:38:27Z</time>
      </trkpt>
      <trkpt lat="49.49425" lon="1.13228">
        <ele>154.2</ele>
        <time>2022-03-26T12:38:28Z</time>
      </trkpt>
      <trkpt lat="49.49428" lon="1.13235">
        <ele>154.1</ele>
        <time>2022-03-26T12:38:29Z</time>
      </trkpt>
      <trkpt lat="49.4943" lon="1.13241">
        <ele>154</ele>
        <time>2022-03-26T12:38:30Z</time>
      </trkpt>
      <trkpt lat="49.49432" lon="1.13247">
        <ele>153.9</ele>
        <time>2022-03-26T12:38:31Z</time>
      </trkpt>
      <trkpt lat="49.49435" lon="1.13254">
        <ele>153.8</ele>
        <time>2022-03-26T12:38:32Z</time>
      </trkpt>
      <trkpt lat="49.49439" lon="1.1326">
        <ele>153.7</ele>
        <time>2022-03-26T12:38:33Z</time>
      </trkpt>
      <trkpt lat="49.49442" lon="1.13266">
        <ele>153.6</ele>
        <time>2022-03-26T12:38:34Z</time>
      </trkpt>
      <trkpt lat="49.49445" lon="1.13272">
        <ele>153.5</ele>
        <time>2022-03-26T12:38:35Z</time>
      </trkpt>
      <trkpt lat="49.49449" lon="1.13277">
        <ele>153.4</ele>
        <time>2022-03-26T12:38:36Z</time>
      </trkpt>
      <trkpt lat="49.49453" lon="1.1328">
        <ele>153.4</ele>
        <time>2022-03-26T12:38:37Z</time>
      </trkpt>
      <trkpt lat="49.49454" lon="1.13284">
        <ele>153.3</ele>
        <time>2022-03-26T12:38:38Z</time>
      </trkpt>
      <trkpt lat="49.49461" lon="1.13292">
        <ele>153.2</ele>
        <time>2022-03-26T12:38:39Z</time>
      </trkpt>
      <trkpt lat="49.49465" lon="1.13298">
        <ele>153.2</ele>
        <time>2022-03-26T12:38:40Z</time>
      </trkpt>
      <trkpt lat="49.49473" lon="1.13303">
        <ele>153.1</ele>
        <time>2022-03-26T12:38:42Z</time>
      </trkpt>
      <trkpt lat="49.49476" lon="1.13307">
        <ele>153.1</ele>
        <time>2022-03-26T12:38:43Z</time>
      </trkpt>
      <trkpt lat="49.49479" lon="1.1331">
        <ele>153</ele>
        <time>2022-03-26T12:38:44Z</time>
      </trkpt>
      <trkpt lat="49.49482" lon="1.13314">
        <ele>153</ele>
        <time>2022-03-26T12:38:45Z</time>
      </trkpt>
      <trkpt lat="49.49485" lon="1.13317">
        <ele>153</ele>
        <time>2022-03-26T12:38:46Z</time>
      </trkpt>
      <trkpt lat="49.49488" lon="1.1332">
        <ele>153</ele>
        <time>2022-03-26T12:38:47Z</time>
      </trkpt>
      <trkpt lat="49.49491" lon="1.13323">
        <ele>153</ele>
        <time>2022-03-26T12:38:49Z</time>
      </trkpt>
      <trkpt lat="49.49494" lon="1.13327">
        <ele>153</ele>
        <time>2022-03-26T12:38:50Z</time>
      </trkpt>
      <trkpt lat="49.49496" lon="1.1333">
        <ele>153</ele>
        <time>2022-03-26T12:38:51Z</time>
      </trkpt>
      <trkpt lat="49.495" lon="1.13333">
        <ele>153</ele>
        <time>2022-03-26T12:38:52Z</time>
      </trkpt>
      <trkpt lat="49.49501" lon="1.13334">
        <ele>153</ele>
        <time>2022-03-26T12:38:53Z</time>
      </trkpt>
      <trkpt lat="49.49504" lon="1.13338">
        <ele>152.9</ele>
        <time>2022-03-26T12:38:54Z</time>
      </trkpt>
      <trkpt lat="49.49508" lon="1.13341">
        <ele>152.9</ele>
        <time>2022-03-26T12:38:55Z</time>
      </trkpt>
      <trkpt lat="49.49512" lon="1.13343">
        <ele>152.9</ele>
        <time>2022-03-26T12:38:56Z</time>
      </trkpt>
      <trkpt lat="49.49515" lon="1.13345">
        <ele>152.9</ele>
        <time>2022-03-26T12:38:57Z</time>
      </trkpt>
      <trkpt lat="49.49518" lon="1.13348">
        <ele>152.9</ele>
        <time>2022-03-26T12:38:58Z</time>
      </trkpt>
      <trkpt lat="49.4952" lon="1.13351">
        <ele>152.9</ele>
        <time>2022-03-26T12:38:59Z</time>
      </trkpt>
      <trkpt lat="49.49531" lon="1.13359">
        <ele>152.8</ele>
        <time>2022-03-26T12:39:00Z</time>
      </trkpt>
      <trkpt lat="49.49538" lon="1.13365">
        <ele>152.7</ele>
        <time>2022-03-26T12:39:01Z</time>
      </trkpt>
      <trkpt lat="49.49542" lon="1.1337">
        <ele>152.7</ele>
        <time>2022-03-26T12:39:02Z</time>
      </trkpt>
      <trkpt lat="49.49546" lon="1.13374">
        <ele>152.6</ele>
        <time>2022-03-26T12:39:03Z</time>
      </trkpt>
      <trkpt lat="49.49549" lon="1.13376">
        <ele>152.6</ele>
        <time>2022-03-26T12:39:04Z</time>
      </trkpt>
      <trkpt lat="49.49552" lon="1.13379">
        <ele>152.5</ele>
        <time>2022-03-26T12:39:05Z</time>
      </trkpt>
      <trkpt lat="49.49556" lon="1.13383">
        <ele>152.5</ele>
        <time>2022-03-26T12:39:06Z</time>
      </trkpt>
      <trkpt lat="49.49561" lon="1.13387">
        <ele>152.4</ele>
        <time>2022-03-26T12:39:07Z</time>
      </trkpt>
      <trkpt lat="49.49565" lon="1.1339">
        <ele>152.4</ele>
        <time>2022-03-26T12:39:08Z</time>
      </trkpt>
      <trkpt lat="49.4957" lon="1.13394">
        <ele>152.3</ele>
        <time>2022-03-26T12:39:09Z</time>
      </trkpt>
      <trkpt lat="49.49575" lon="1.13398">
        <ele>152.3</ele>
        <time>2022-03-26T12:39:10Z</time>
      </trkpt>
      <trkpt lat="49.4958" lon="1.13403">
        <ele>152.2</ele>
        <time>2022-03-26T12:39:11Z</time>
      </trkpt>
      <trkpt lat="49.49586" lon="1.13407">
        <ele>152.2</ele>
        <time>2022-03-26T12:39:12Z</time>
      </trkpt>
      <trkpt lat="49.49591" lon="1.1341">
        <ele>152.1</ele>
        <time>2022-03-26T12:39:13Z</time>
      </trkpt>
      <trkpt lat="49.49597" lon="1.13412">
        <ele>152.1</ele>
        <time>2022-03-26T12:39:14Z</time>
      </trkpt>
      <trkpt lat="49.49602" lon="1.13416">
        <ele>152.1</ele>
        <time>2022-03-26T12:39:15Z</time>
      </trkpt>
      <trkpt lat="49.49608" lon="1.13421">
        <ele>152.1</ele>
        <time>2022-03-26T12:39:16Z</time>
      </trkpt>
      <trkpt lat="49.49613" lon="1.13426">
        <ele>152</ele>
        <time>2022-03-26T12:39:17Z</time>
      </trkpt>
      <trkpt lat="49.49618" lon="1.13429">
        <ele>152</ele>
        <time>2022-03-26T12:39:18Z</time>
      </trkpt>
      <trkpt lat="49.49623" lon="1.13433">
        <ele>152</ele>
        <time>2022-03-26T12:39:19Z</time>
      </trkpt>
      <trkpt lat="49.49628" lon="1.13435">
        <ele>152</ele>
        <time>2022-03-26T12:39:20Z</time>
      </trkpt>
      <trkpt lat="49.49633" lon="1.13439">
        <ele>151.9</ele>
        <time>2022-03-26T12:39:21Z</time>
      </trkpt>
      <trkpt lat="49.49639" lon="1.13444">
        <ele>151.9</ele>
        <time>2022-03-26T12:39:22Z</time>
      </trkpt>
      <trkpt lat="49.49644" lon="1.1345">
        <ele>151.8</ele>
        <time>2022-03-26T12:39:23Z</time>
      </trkpt>
      <trkpt lat="49.49651" lon="1.13454">
        <ele>151.7</ele>
        <time>2022-03-26T12:39:24Z</time>
      </trkpt>
      <trkpt lat="49.49658" lon="1.1346">
        <ele>151.7</ele>
        <time>2022-03-26T12:39:25Z</time>
      </trkpt>
      <trkpt lat="49.49665" lon="1.13465">
        <ele>151.6</ele>
        <time>2022-03-26T12:39:26Z</time>
      </trkpt>
      <trkpt lat="49.49671" lon="1.13469">
        <ele>151.5</ele>
        <time>2022-03-26T12:39:27Z</time>
      </trkpt>
      <trkpt lat="49.49677" lon="1.13474">
        <ele>151.4</ele>
        <time>2022-03-26T12:39:28Z</time>
      </trkpt>
      <trkpt lat="49.49682" lon="1.13479">
        <ele>151.3</ele>
        <time>2022-03-26T12:39:29Z</time>
      </trkpt>
      <trkpt lat="49.49688" lon="1.13483">
        <ele>151.2</ele>
        <time>2022-03-26T12:39:30Z</time>
      </trkpt>
      <trkpt lat="49.49692" lon="1.13486">
        <ele>151.2</ele>
        <time>2022-03-26T12:39:31Z</time>
      </trkpt>
      <trkpt lat="49.49696" lon="1.1349">
        <ele>151.1</ele>
        <time>2022-03-26T12:39:32Z</time>
      </trkpt>
      <trkpt lat="49.49697" lon="1.13492">
        <ele>151.1</ele>
        <time>2022-03-26T12:39:33Z</time>
      </trkpt>
      <trkpt lat="49.49701" lon="1.13495">
        <ele>151</ele>
        <time>2022-03-26T12:39:34Z</time>
      </trkpt>
      <trkpt lat="49.49707" lon="1.135">
        <ele>150.8</ele>
        <time>2022-03-26T12:39:35Z</time>
      </trkpt>
      <trkpt lat="49.49713" lon="1.13506">
        <ele>150.6</ele>
        <time>2022-03-26T12:39:36Z</time>
      </trkpt>
      <trkpt lat="49.49719" lon="1.1351">
        <ele>150.4</ele>
        <time>2022-03-26T12:39:37Z</time>
      </trkpt>
      <trkpt lat="49.49725" lon="1.13514">
        <ele>150.3</ele>
        <time>2022-03-26T12:39:38Z</time>
      </trkpt>
      <trkpt lat="49.49729" lon="1.13517">
        <ele>150.2</ele>
        <time>2022-03-26T12:39:39Z</time>
      </trkpt>
      <trkpt lat="49.49734" lon="1.13519">
        <ele>150.1</ele>
        <time>2022-03-26T12:39:40Z</time>
      </trkpt>
      <trkpt lat="49.49738" lon="1.13522">
        <ele>149.9</ele>
        <time>2022-03-26T12:39:41Z</time>
      </trkpt>
      <trkpt lat="49.49742" lon="1.13525">
        <ele>149.8</ele>
        <time>2022-03-26T12:39:42Z</time>
      </trkpt>
      <trkpt lat="49.49745" lon="1.13528">
        <ele>149.7</ele>
        <time>2022-03-26T12:39:43Z</time>
      </trkpt>
      <trkpt lat="49.49746" lon="1.13529">
        <ele>149.7</ele>
        <time>2022-03-26T12:39:44Z</time>
      </trkpt>
      <trkpt lat="49.49748" lon="1.13531">
        <ele>149.5</ele>
        <time>2022-03-26T12:39:45Z</time>
      </trkpt>
      <trkpt lat="49.49751" lon="1.13532">
        <ele>149.4</ele>
        <time>2022-03-26T12:39:46Z</time>
      </trkpt>
      <trkpt lat="49.49754" lon="1.13533">
        <ele>149.3</ele>
        <time>2022-03-26T12:39:47Z</time>
      </trkpt>
      <trkpt lat="49.49755" lon="1.13534">
        <ele>149.1</ele>
        <time>2022-03-26T12:39:48Z</time>
      </trkpt>
      <trkpt lat="49.49757" lon="1.13529">
        <ele>149.1</ele>
        <time>2022-03-26T12:39:49Z</time>
      </trkpt>
      <trkpt lat="49.49757" lon="1.13527">
        <ele>149</ele>
        <time>2022-03-26T12:39:50Z</time>
      </trkpt>
      <trkpt lat="49.4976" lon="1.13524">
        <ele>149</ele>
        <time>2022-03-26T12:39:51Z</time>
      </trkpt>
      <trkpt lat="49.49761" lon="1.13519">
        <ele>149</ele>
        <time>2022-03-26T12:39:52Z</time>
      </trkpt>
      <trkpt lat="49.49761" lon="1.13514">
        <ele>149</ele>
        <time>2022-03-26T12:39:53Z</time>
      </trkpt>
      <trkpt lat="49.49762" lon="1.13509">
        <ele>149</ele>
        <time>2022-03-26T12:39:54Z</time>
      </trkpt>
      <trkpt lat="49.49763" lon="1.13504">
        <ele>149</ele>
        <time>2022-03-26T12:39:55Z</time>
      </trkpt>
      <trkpt lat="49.49764" lon="1.13499">
        <ele>149</ele>
        <time>2022-03-26T12:39:56Z</time>
      </trkpt>
      <trkpt lat="49.49764" lon="1.13494">
        <ele>149</ele>
        <time>2022-03-26T12:39:57Z</time>
      </trkpt>
      <trkpt lat="49.49765" lon="1.13488">
        <ele>149</ele>
        <time>2022-03-26T12:39:58Z</time>
      </trkpt>
      <trkpt lat="49.49767" lon="1.13482">
        <ele>149.1</ele>
        <time>2022-03-26T12:39:59Z</time>
      </trkpt>
      <trkpt lat="49.49768" lon="1.13477">
        <ele>149.1</ele>
        <time>2022-03-26T12:40:00Z</time>
      </trkpt>
      <trkpt lat="49.49769" lon="1.1347">
        <ele>149.1</ele>
        <time>2022-03-26T12:40:01Z</time>
      </trkpt>
      <trkpt lat="49.4977" lon="1.13462">
        <ele>149.2</ele>
        <time>2022-03-26T12:40:02Z</time>
      </trkpt>
      <trkpt lat="49.4977" lon="1.13455">
        <ele>149.2</ele>
        <time>2022-03-26T12:40:03Z</time>
      </trkpt>
      <trkpt lat="49.49771" lon="1.1345">
        <ele>149.2</ele>
        <time>2022-03-26T12:40:04Z</time>
      </trkpt>
      <trkpt lat="49.49772" lon="1.13445">
        <ele>149.2</ele>
        <time>2022-03-26T12:40:05Z</time>
      </trkpt>
      <trkpt lat="49.49775" lon="1.13441">
        <ele>149.2</ele>
        <time>2022-03-26T12:40:06Z</time>
      </trkpt>
      <trkpt lat="49.49778" lon="1.13438">
        <ele>149.2</ele>
        <time>2022-03-26T12:40:07Z</time>
      </trkpt>
      <trkpt lat="49.49779" lon="1.13433">
        <ele>149.2</ele>
        <time>2022-03-26T12:40:08Z</time>
      </trkpt>
      <trkpt lat="49.49778" lon="1.13428">
        <ele>149.2</ele>
        <time>2022-03-26T12:40:09Z</time>
      </trkpt>
      <trkpt lat="49.49779" lon="1.13424">
        <ele>149.2</ele>
        <time>2022-03-26T12:40:10Z</time>
      </trkpt>
      <trkpt lat="49.4978" lon="1.13418">
        <ele>149.2</ele>
        <time>2022-03-26T12:40:11Z</time>
      </trkpt>
      <trkpt lat="49.49781" lon="1.13416">
        <ele>149.2</ele>
        <time>2022-03-26T12:40:12Z</time>
      </trkpt>
      <trkpt lat="49.49782" lon="1.1341">
        <ele>149.2</ele>
        <time>2022-03-26T12:40:13Z</time>
      </trkpt>
      <trkpt lat="49.49783" lon="1.13404">
        <ele>149.2</ele>
        <time>2022-03-26T12:40:14Z</time>
      </trkpt>
      <trkpt lat="49.49783" lon="1.13399">
        <ele>149.2</ele>
        <time>2022-03-26T12:40:15Z</time>
      </trkpt>
      <trkpt lat="49.49783" lon="1.13394">
        <ele>149.2</ele>
        <time>2022-03-26T12:40:16Z</time>
      </trkpt>
      <trkpt lat="49.49783" lon="1.1339">
        <ele>149.2</ele>
        <time>2022-03-26T12:40:17Z</time>
      </trkpt>
      <trkpt lat="49.49782" lon="1.13385">
        <ele>149.2</ele>
        <time>2022-03-26T12:40:18Z</time>
      </trkpt>
      <trkpt lat="49.49781" lon="1.13379">
        <ele>149.2</ele>
        <time>2022-03-26T12:40:19Z</time>
      </trkpt>
      <trkpt lat="49.49782" lon="1.13374">
        <ele>149.2</ele>
        <time>2022-03-26T12:40:20Z</time>
      </trkpt>
      <trkpt lat="49.49783" lon="1.1337">
        <ele>149.2</ele>
        <time>2022-03-26T12:40:21Z</time>
      </trkpt>
      <trkpt lat="49.49783" lon="1.13368">
        <ele>149.2</ele>
        <time>2022-03-26T12:40:22Z</time>
      </trkpt>
      <trkpt lat="49.49783" lon="1.13367">
        <ele>149.2</ele>
        <time>2022-03-26T12:40:23Z</time>
      </trkpt>
      <trkpt lat="49.49783" lon="1.13367">
        <ele>149.2</ele>
        <time>2022-03-26T12:40:24Z</time>
      </trkpt>
      <trkpt lat="49.49783" lon="1.13366">
        <ele>149.2</ele>
        <time>2022-03-26T12:40:25Z</time>
      </trkpt>
      <trkpt lat="49.49783" lon="1.13365">
        <ele>149.2</ele>
        <time>2022-03-26T12:40:26Z</time>
      </trkpt>
      <trkpt lat="49.49784" lon="1.13365">
        <ele>149.2</ele>
        <time>2022-03-26T12:40:27Z</time>
      </trkpt>
      <trkpt lat="49.49784" lon="1.13364">
        <ele>149.2</ele>
        <time>2022-03-26T12:40:28Z</time>
      </trkpt>
      <trkpt lat="49.49784" lon="1.13363">
        <ele>149.2</ele>
        <time>2022-03-26T12:40:29Z</time>
      </trkpt>
      <trkpt lat="49.49785" lon="1.13355">
        <ele>149.1</ele>
        <time>2022-03-26T12:40:30Z</time>
      </trkpt>
      <trkpt lat="49.49787" lon="1.13347">
        <ele>149.1</ele>
        <time>2022-03-26T12:40:31Z</time>
      </trkpt>
      <trkpt lat="49.49789" lon="1.13336">
        <ele>149.1</ele>
        <time>2022-03-26T12:40:32Z</time>
      </trkpt>
      <trkpt lat="49.4979" lon="1.13328">
        <ele>149.1</ele>
        <time>2022-03-26T12:40:33Z</time>
      </trkpt>
      <trkpt lat="49.49792" lon="1.13322">
        <ele>149.1</ele>
        <time>2022-03-26T12:40:34Z</time>
      </trkpt>
      <trkpt lat="49.49794" lon="1.13315">
        <ele>149.1</ele>
        <time>2022-03-26T12:40:35Z</time>
      </trkpt>
      <trkpt lat="49.49796" lon="1.13309">
        <ele>149.1</ele>
        <time>2022-03-26T12:40:36Z</time>
      </trkpt>
      <trkpt lat="49.49799" lon="1.13303">
        <ele>149.1</ele>
        <time>2022-03-26T12:40:37Z</time>
      </trkpt>
      <trkpt lat="49.49802" lon="1.13296">
        <ele>149.2</ele>
        <time>2022-03-26T12:40:38Z</time>
      </trkpt>
      <trkpt lat="49.49804" lon="1.13289">
        <ele>149.2</ele>
        <time>2022-03-26T12:40:39Z</time>
      </trkpt>
      <trkpt lat="49.49806" lon="1.13284">
        <ele>149.2</ele>
        <time>2022-03-26T12:40:40Z</time>
      </trkpt>
      <trkpt lat="49.49808" lon="1.1328">
        <ele>149.3</ele>
        <time>2022-03-26T12:40:41Z</time>
      </trkpt>
      <trkpt lat="49.49808" lon="1.13275">
        <ele>149.3</ele>
        <time>2022-03-26T12:40:42Z</time>
      </trkpt>
      <trkpt lat="49.49809" lon="1.13274">
        <ele>149.3</ele>
        <time>2022-03-26T12:40:43Z</time>
      </trkpt>
      <trkpt lat="49.49809" lon="1.13269">
        <ele>149.3</ele>
        <time>2022-03-26T12:40:44Z</time>
      </trkpt>
      <trkpt lat="49.49809" lon="1.13268">
        <ele>149.3</ele>
        <time>2022-03-26T12:40:45Z</time>
      </trkpt>
      <trkpt lat="49.49809" lon="1.13263">
        <ele>149.3</ele>
        <time>2022-03-26T12:40:46Z</time>
      </trkpt>
      <trkpt lat="49.49809" lon="1.13261">
        <ele>149.3</ele>
        <time>2022-03-26T12:40:47Z</time>
      </trkpt>
      <trkpt lat="49.49809" lon="1.13256">
        <ele>149.3</ele>
        <time>2022-03-26T12:40:48Z</time>
      </trkpt>
      <trkpt lat="49.49809" lon="1.13254">
        <ele>149.3</ele>
        <time>2022-03-26T12:40:49Z</time>
      </trkpt>
      <trkpt lat="49.49811" lon="1.13249">
        <ele>149.3</ele>
        <time>2022-03-26T12:40:50Z</time>
      </trkpt>
      <trkpt lat="49.49812" lon="1.13247">
        <ele>149.3</ele>
        <time>2022-03-26T12:40:51Z</time>
      </trkpt>
      <trkpt lat="49.49814" lon="1.13243">
        <ele>149.3</ele>
        <time>2022-03-26T12:40:52Z</time>
      </trkpt>
      <trkpt lat="49.49814" lon="1.13239">
        <ele>149.3</ele>
        <time>2022-03-26T12:40:53Z</time>
      </trkpt>
      <trkpt lat="49.49814" lon="1.13233">
        <ele>149.3</ele>
        <time>2022-03-26T12:40:54Z</time>
      </trkpt>
      <trkpt lat="49.49814" lon="1.13227">
        <ele>149.2</ele>
        <time>2022-03-26T12:40:55Z</time>
      </trkpt>
      <trkpt lat="49.49813" lon="1.13219">
        <ele>149.2</ele>
        <time>2022-03-26T12:40:56Z</time>
      </trkpt>
      <trkpt lat="49.49813" lon="1.13212">
        <ele>149.1</ele>
        <time>2022-03-26T12:40:57Z</time>
      </trkpt>
      <trkpt lat="49.49812" lon="1.13204">
        <ele>149.1</ele>
        <time>2022-03-26T12:40:58Z</time>
      </trkpt>
      <trkpt lat="49.49812" lon="1.13197">
        <ele>149</ele>
        <time>2022-03-26T12:40:59Z</time>
      </trkpt>
      <trkpt lat="49.49812" lon="1.13191">
        <ele>149</ele>
        <time>2022-03-26T12:41:00Z</time>
      </trkpt>
      <trkpt lat="49.49812" lon="1.13181">
        <ele>148.8</ele>
        <time>2022-03-26T12:41:01Z</time>
      </trkpt>
      <trkpt lat="49.49813" lon="1.13168">
        <ele>148.6</ele>
        <time>2022-03-26T12:41:02Z</time>
      </trkpt>
      <trkpt lat="49.49813" lon="1.13151">
        <ele>148.2</ele>
        <time>2022-03-26T12:41:03Z</time>
      </trkpt>
      <trkpt lat="49.49815" lon="1.13139">
        <ele>148</ele>
        <time>2022-03-26T12:41:04Z</time>
      </trkpt>
      <trkpt lat="49.49815" lon="1.13128">
        <ele>147.8</ele>
        <time>2022-03-26T12:41:05Z</time>
      </trkpt>
      <trkpt lat="49.49815" lon="1.13115">
        <ele>147.5</ele>
        <time>2022-03-26T12:41:06Z</time>
      </trkpt>
      <trkpt lat="49.49815" lon="1.13104">
        <ele>147.2</ele>
        <time>2022-03-26T12:41:07Z</time>
      </trkpt>
      <trkpt lat="49.49816" lon="1.13094">
        <ele>147</ele>
        <time>2022-03-26T12:41:08Z</time>
      </trkpt>
      <trkpt lat="49.49818" lon="1.13086">
        <ele>146.8</ele>
        <time>2022-03-26T12:41:09Z</time>
      </trkpt>
      <trkpt lat="49.49821" lon="1.13076">
        <ele>146.6</ele>
        <time>2022-03-26T12:41:10Z</time>
      </trkpt>
      <trkpt lat="49.49825" lon="1.13066">
        <ele>146.3</ele>
        <time>2022-03-26T12:41:11Z</time>
      </trkpt>
      <trkpt lat="49.49828" lon="1.13059">
        <ele>146.1</ele>
        <time>2022-03-26T12:41:12Z</time>
      </trkpt>
      <trkpt lat="49.4983" lon="1.13054">
        <ele>145.9</ele>
        <time>2022-03-26T12:41:13Z</time>
      </trkpt>
      <trkpt lat="49.4983" lon="1.13049">
        <ele>145.8</ele>
        <time>2022-03-26T12:41:14Z</time>
      </trkpt>
      <trkpt lat="49.49831" lon="1.13042">
        <ele>145.6</ele>
        <time>2022-03-26T12:41:15Z</time>
      </trkpt>
      <trkpt lat="49.49831" lon="1.13036">
        <ele>145.4</ele>
        <time>2022-03-26T12:41:16Z</time>
      </trkpt>
      <trkpt lat="49.49833" lon="1.13027">
        <ele>145.1</ele>
        <time>2022-03-26T12:41:17Z</time>
      </trkpt>
      <trkpt lat="49.49835" lon="1.1302">
        <ele>144.9</ele>
        <time>2022-03-26T12:41:18Z</time>
      </trkpt>
      <trkpt lat="49.49834" lon="1.13012">
        <ele>144.5</ele>
        <time>2022-03-26T12:41:19Z</time>
      </trkpt>
      <trkpt lat="49.49836" lon="1.13002">
        <ele>144</ele>
        <time>2022-03-26T12:41:20Z</time>
      </trkpt>
      <trkpt lat="49.49838" lon="1.12994">
        <ele>143.6</ele>
        <time>2022-03-26T12:41:21Z</time>
      </trkpt>
      <trkpt lat="49.4984" lon="1.12986">
        <ele>143.2</ele>
        <time>2022-03-26T12:41:22Z</time>
      </trkpt>
      <trkpt lat="49.49842" lon="1.12974">
        <ele>142.6</ele>
        <time>2022-03-26T12:41:23Z</time>
      </trkpt>
      <trkpt lat="49.49845" lon="1.12962">
        <ele>141.9</ele>
        <time>2022-03-26T12:41:24Z</time>
      </trkpt>
      <trkpt lat="49.49847" lon="1.12949">
        <ele>141.2</ele>
        <time>2022-03-26T12:41:25Z</time>
      </trkpt>
      <trkpt lat="49.49849" lon="1.12935">
        <ele>140.3</ele>
        <time>2022-03-26T12:41:26Z</time>
      </trkpt>
      <trkpt lat="49.49852" lon="1.12921">
        <ele>139.4</ele>
        <time>2022-03-26T12:41:27Z</time>
      </trkpt>
      <trkpt lat="49.49854" lon="1.12907">
        <ele>138.7</ele>
        <time>2022-03-26T12:41:28Z</time>
      </trkpt>
      <trkpt lat="49.49855" lon="1.12894">
        <ele>138.2</ele>
        <time>2022-03-26T12:41:29Z</time>
      </trkpt>
      <trkpt lat="49.49858" lon="1.12879">
        <ele>137.8</ele>
        <time>2022-03-26T12:41:30Z</time>
      </trkpt>
      <trkpt lat="49.49859" lon="1.12867">
        <ele>137.7</ele>
        <time>2022-03-26T12:41:31Z</time>
      </trkpt>
      <trkpt lat="49.4986" lon="1.12859">
        <ele>137.7</ele>
        <time>2022-03-26T12:41:32Z</time>
      </trkpt>
      <trkpt lat="49.49862" lon="1.12855">
        <ele>137.7</ele>
        <time>2022-03-26T12:41:33Z</time>
      </trkpt>
      <trkpt lat="49.49864" lon="1.1285">
        <ele>137.7</ele>
        <time>2022-03-26T12:41:34Z</time>
      </trkpt>
      <trkpt lat="49.49866" lon="1.12844">
        <ele>137.7</ele>
        <time>2022-03-26T12:41:35Z</time>
      </trkpt>
      <trkpt lat="49.49868" lon="1.1284">
        <ele>137.7</ele>
        <time>2022-03-26T12:41:36Z</time>
      </trkpt>
      <trkpt lat="49.49869" lon="1.12836">
        <ele>137.8</ele>
        <time>2022-03-26T12:41:37Z</time>
      </trkpt>
      <trkpt lat="49.49869" lon="1.1283">
        <ele>137.8</ele>
        <time>2022-03-26T12:41:38Z</time>
      </trkpt>
      <trkpt lat="49.49869" lon="1.12828">
        <ele>137.8</ele>
        <time>2022-03-26T12:41:39Z</time>
      </trkpt>
      <trkpt lat="49.4987" lon="1.12819">
        <ele>137.7</ele>
        <time>2022-03-26T12:41:41Z</time>
      </trkpt>
      <trkpt lat="49.49871" lon="1.1281">
        <ele>137.6</ele>
        <time>2022-03-26T12:41:42Z</time>
      </trkpt>
      <trkpt lat="49.49872" lon="1.12804">
        <ele>137.4</ele>
        <time>2022-03-26T12:41:43Z</time>
      </trkpt>
      <trkpt lat="49.49873" lon="1.12793">
        <ele>137.1</ele>
        <time>2022-03-26T12:41:45Z</time>
      </trkpt>
      <trkpt lat="49.49878" lon="1.12782">
        <ele>136.7</ele>
        <time>2022-03-26T12:41:46Z</time>
      </trkpt>
      <trkpt lat="49.49881" lon="1.12777">
        <ele>136.5</ele>
        <time>2022-03-26T12:41:47Z</time>
      </trkpt>
      <trkpt lat="49.49883" lon="1.12773">
        <ele>136.4</ele>
        <time>2022-03-26T12:41:48Z</time>
      </trkpt>
      <trkpt lat="49.49884" lon="1.12766">
        <ele>136.2</ele>
        <time>2022-03-26T12:41:50Z</time>
      </trkpt>
      <trkpt lat="49.49885" lon="1.12762">
        <ele>136.1</ele>
        <time>2022-03-26T12:41:51Z</time>
      </trkpt>
      <trkpt lat="49.49886" lon="1.12757">
        <ele>136</ele>
        <time>2022-03-26T12:41:52Z</time>
      </trkpt>
      <trkpt lat="49.49887" lon="1.1275">
        <ele>136</ele>
        <time>2022-03-26T12:41:53Z</time>
      </trkpt>
      <trkpt lat="49.49887" lon="1.12743">
        <ele>135.9</ele>
        <time>2022-03-26T12:41:54Z</time>
      </trkpt>
      <trkpt lat="49.49887" lon="1.12738">
        <ele>136</ele>
        <time>2022-03-26T12:41:56Z</time>
      </trkpt>
      <trkpt lat="49.49888" lon="1.12732">
        <ele>136</ele>
        <time>2022-03-26T12:41:57Z</time>
      </trkpt>
      <trkpt lat="49.49888" lon="1.12726">
        <ele>136</ele>
        <time>2022-03-26T12:41:58Z</time>
      </trkpt>
      <trkpt lat="49.4989" lon="1.12715">
        <ele>136.1</ele>
        <time>2022-03-26T12:41:59Z</time>
      </trkpt>
      <trkpt lat="49.49892" lon="1.12704">
        <ele>136.2</ele>
        <time>2022-03-26T12:42:00Z</time>
      </trkpt>
      <trkpt lat="49.49894" lon="1.12693">
        <ele>136.2</ele>
        <time>2022-03-26T12:42:01Z</time>
      </trkpt>
      <trkpt lat="49.49896" lon="1.12683">
        <ele>136</ele>
        <time>2022-03-26T12:42:02Z</time>
      </trkpt>
      <trkpt lat="49.49898" lon="1.12672">
        <ele>135.7</ele>
        <time>2022-03-26T12:42:03Z</time>
      </trkpt>
      <trkpt lat="49.499" lon="1.1266">
        <ele>134.9</ele>
        <time>2022-03-26T12:42:04Z</time>
      </trkpt>
      <trkpt lat="49.49902" lon="1.12646">
        <ele>133.6</ele>
        <time>2022-03-26T12:42:05Z</time>
      </trkpt>
      <trkpt lat="49.49903" lon="1.12634">
        <ele>132.3</ele>
        <time>2022-03-26T12:42:06Z</time>
      </trkpt>
      <trkpt lat="49.49906" lon="1.12624">
        <ele>131.2</ele>
        <time>2022-03-26T12:42:07Z</time>
      </trkpt>
      <trkpt lat="49.4991" lon="1.12614">
        <ele>130.1</ele>
        <time>2022-03-26T12:42:08Z</time>
      </trkpt>
      <trkpt lat="49.49913" lon="1.12606">
        <ele>129.9</ele>
        <time>2022-03-26T12:42:09Z</time>
      </trkpt>
      <trkpt lat="49.49915" lon="1.126">
        <ele>129.8</ele>
        <time>2022-03-26T12:42:10Z</time>
      </trkpt>
      <trkpt lat="49.49917" lon="1.12594">
        <ele>129.8</ele>
        <time>2022-03-26T12:42:11Z</time>
      </trkpt>
      <trkpt lat="49.49918" lon="1.1259">
        <ele>129.9</ele>
        <time>2022-03-26T12:42:12Z</time>
      </trkpt>
      <trkpt lat="49.49919" lon="1.12587">
        <ele>129.9</ele>
        <time>2022-03-26T12:42:13Z</time>
      </trkpt>
      <trkpt lat="49.49919" lon="1.12585">
        <ele>130</ele>
        <time>2022-03-26T12:42:14Z</time>
      </trkpt>
      <trkpt lat="49.49919" lon="1.12583">
        <ele>130</ele>
        <time>2022-03-26T12:42:15Z</time>
      </trkpt>
      <trkpt lat="49.49919" lon="1.1258">
        <ele>130.2</ele>
        <time>2022-03-26T12:42:16Z</time>
      </trkpt>
      <trkpt lat="49.4992" lon="1.12576">
        <ele>130.3</ele>
        <time>2022-03-26T12:42:17Z</time>
      </trkpt>
      <trkpt lat="49.4992" lon="1.12574">
        <ele>130.4</ele>
        <time>2022-03-26T12:42:18Z</time>
      </trkpt>
      <trkpt lat="49.4992" lon="1.1257">
        <ele>130.7</ele>
        <time>2022-03-26T12:42:19Z</time>
      </trkpt>
      <trkpt lat="49.4992" lon="1.12565">
        <ele>131</ele>
        <time>2022-03-26T12:42:20Z</time>
      </trkpt>
      <trkpt lat="49.4992" lon="1.1256">
        <ele>131.3</ele>
        <time>2022-03-26T12:42:21Z</time>
      </trkpt>
      <trkpt lat="49.4992" lon="1.12557">
        <ele>131.6</ele>
        <time>2022-03-26T12:42:22Z</time>
      </trkpt>
      <trkpt lat="49.49921" lon="1.12555">
        <ele>131.8</ele>
        <time>2022-03-26T12:42:23Z</time>
      </trkpt>
      <trkpt lat="49.49921" lon="1.1255">
        <ele>132.2</ele>
        <time>2022-03-26T12:42:24Z</time>
      </trkpt>
      <trkpt lat="49.49921" lon="1.12548">
        <ele>132.4</ele>
        <time>2022-03-26T12:42:25Z</time>
      </trkpt>
      <trkpt lat="49.49921" lon="1.12545">
        <ele>132.7</ele>
        <time>2022-03-26T12:42:26Z</time>
      </trkpt>
      <trkpt lat="49.49921" lon="1.12544">
        <ele>132.8</ele>
        <time>2022-03-26T12:42:27Z</time>
      </trkpt>
      <trkpt lat="49.49921" lon="1.12543">
        <ele>132.9</ele>
        <time>2022-03-26T12:42:28Z</time>
      </trkpt>
      <trkpt lat="49.49922" lon="1.12542">
        <ele>133</ele>
        <time>2022-03-26T12:42:29Z</time>
      </trkpt>
      <trkpt lat="49.49922" lon="1.12541">
        <ele>133.1</ele>
        <time>2022-03-26T12:42:30Z</time>
      </trkpt>
      <trkpt lat="49.49922" lon="1.1254">
        <ele>133.1</ele>
        <time>2022-03-26T12:42:31Z</time>
      </trkpt>
      <trkpt lat="49.49922" lon="1.1254">
        <ele>133.1</ele>
        <time>2022-03-26T12:42:32Z</time>
      </trkpt>
      <trkpt lat="49.49922" lon="1.1254">
        <ele>133.1</ele>
        <time>2022-03-26T12:42:33Z</time>
      </trkpt>
      <trkpt lat="49.49922" lon="1.1254">
        <ele>133.1</ele>
        <time>2022-03-26T12:42:34Z</time>
      </trkpt>
      <trkpt lat="49.49924" lon="1.12534">
        <ele>133.8</ele>
        <time>2022-03-26T12:42:35Z</time>
      </trkpt>
      <trkpt lat="49.49934" lon="1.12481">
        <ele>135.9</ele>
        <time>2022-03-26T12:42:44Z</time>
      </trkpt>
      <trkpt lat="49.49935" lon="1.1247">
        <ele>135.7</ele>
        <time>2022-03-26T12:42:45Z</time>
      </trkpt>
      <trkpt lat="49.49936" lon="1.12461">
        <ele>135.6</ele>
        <time>2022-03-26T12:42:46Z</time>
      </trkpt>
      <trkpt lat="49.49937" lon="1.12453">
        <ele>135.4</ele>
        <time>2022-03-26T12:42:47Z</time>
      </trkpt>
      <trkpt lat="49.49938" lon="1.12447">
        <ele>135.3</ele>
        <time>2022-03-26T12:42:48Z</time>
      </trkpt>
      <trkpt lat="49.49939" lon="1.12441">
        <ele>135.2</ele>
        <time>2022-03-26T12:42:49Z</time>
      </trkpt>
      <trkpt lat="49.49939" lon="1.12435">
        <ele>135.1</ele>
        <time>2022-03-26T12:42:50Z</time>
      </trkpt>
      <trkpt lat="49.4994" lon="1.12429">
        <ele>135</ele>
        <time>2022-03-26T12:42:51Z</time>
      </trkpt>
      <trkpt lat="49.4994" lon="1.12428">
        <ele>135</ele>
        <time>2022-03-26T12:42:52Z</time>
      </trkpt>
      <trkpt lat="49.4994" lon="1.12425">
        <ele>135</ele>
        <time>2022-03-26T12:42:53Z</time>
      </trkpt>
      <trkpt lat="49.49941" lon="1.12422">
        <ele>135</ele>
        <time>2022-03-26T12:42:54Z</time>
      </trkpt>
      <trkpt lat="49.49941" lon="1.12418">
        <ele>135.1</ele>
        <time>2022-03-26T12:42:55Z</time>
      </trkpt>
      <trkpt lat="49.49941" lon="1.12417">
        <ele>135.1</ele>
        <time>2022-03-26T12:42:56Z</time>
      </trkpt>
      <trkpt lat="49.49942" lon="1.1241">
        <ele>135.2</ele>
        <time>2022-03-26T12:42:57Z</time>
      </trkpt>
      <trkpt lat="49.49942" lon="1.12408">
        <ele>135.2</ele>
        <time>2022-03-26T12:42:58Z</time>
      </trkpt>
      <trkpt lat="49.49943" lon="1.12403">
        <ele>135.4</ele>
        <time>2022-03-26T12:42:59Z</time>
      </trkpt>
      <trkpt lat="49.49943" lon="1.12398">
        <ele>135.6</ele>
        <time>2022-03-26T12:43:00Z</time>
      </trkpt>
      <trkpt lat="49.49944" lon="1.12393">
        <ele>135.8</ele>
        <time>2022-03-26T12:43:01Z</time>
      </trkpt>
      <trkpt lat="49.49944" lon="1.12391">
        <ele>135.9</ele>
        <time>2022-03-26T12:43:02Z</time>
      </trkpt>
      <trkpt lat="49.49945" lon="1.12387">
        <ele>136.1</ele>
        <time>2022-03-26T12:43:03Z</time>
      </trkpt>
      <trkpt lat="49.49946" lon="1.12382">
        <ele>136.4</ele>
        <time>2022-03-26T12:43:04Z</time>
      </trkpt>
      <trkpt lat="49.49947" lon="1.12377">
        <ele>136.6</ele>
        <time>2022-03-26T12:43:05Z</time>
      </trkpt>
      <trkpt lat="49.49948" lon="1.12372">
        <ele>136.9</ele>
        <time>2022-03-26T12:43:06Z</time>
      </trkpt>
      <trkpt lat="49.49949" lon="1.12367">
        <ele>137.1</ele>
        <time>2022-03-26T12:43:07Z</time>
      </trkpt>
      <trkpt lat="49.49949" lon="1.12362">
        <ele>137.4</ele>
        <time>2022-03-26T12:43:08Z</time>
      </trkpt>
      <trkpt lat="49.4995" lon="1.1236">
        <ele>137.5</ele>
        <time>2022-03-26T12:43:09Z</time>
      </trkpt>
      <trkpt lat="49.49951" lon="1.12354">
        <ele>137.8</ele>
        <time>2022-03-26T12:43:10Z</time>
      </trkpt>
      <trkpt lat="49.49951" lon="1.12352">
        <ele>137.8</ele>
        <time>2022-03-26T12:43:11Z</time>
      </trkpt>
      <trkpt lat="49.49952" lon="1.12349">
        <ele>138</ele>
        <time>2022-03-26T12:43:12Z</time>
      </trkpt>
      <trkpt lat="49.49953" lon="1.12344">
        <ele>138.2</ele>
        <time>2022-03-26T12:43:14Z</time>
      </trkpt>
      <trkpt lat="49.49954" lon="1.1234">
        <ele>138.4</ele>
        <time>2022-03-26T12:43:15Z</time>
      </trkpt>
      <trkpt lat="49.49955" lon="1.12335">
        <ele>138.6</ele>
        <time>2022-03-26T12:43:16Z</time>
      </trkpt>
      <trkpt lat="49.49956" lon="1.1233">
        <ele>138.8</ele>
        <time>2022-03-26T12:43:17Z</time>
      </trkpt>
      <trkpt lat="49.49957" lon="1.12326">
        <ele>139</ele>
        <time>2022-03-26T12:43:18Z</time>
      </trkpt>
      <trkpt lat="49.49957" lon="1.12321">
        <ele>139.1</ele>
        <time>2022-03-26T12:43:20Z</time>
      </trkpt>
      <trkpt lat="49.49958" lon="1.12316">
        <ele>139.3</ele>
        <time>2022-03-26T12:43:21Z</time>
      </trkpt>
      <trkpt lat="49.49959" lon="1.1231">
        <ele>139.5</ele>
        <time>2022-03-26T12:43:22Z</time>
      </trkpt>
      <trkpt lat="49.49959" lon="1.12306">
        <ele>139.7</ele>
        <time>2022-03-26T12:43:23Z</time>
      </trkpt>
      <trkpt lat="49.49959" lon="1.12303">
        <ele>139.8</ele>
        <time>2022-03-26T12:43:24Z</time>
      </trkpt>
      <trkpt lat="49.49959" lon="1.12301">
        <ele>139.8</ele>
        <time>2022-03-26T12:43:25Z</time>
      </trkpt>
      <trkpt lat="49.49959" lon="1.12297">
        <ele>140</ele>
        <time>2022-03-26T12:43:26Z</time>
      </trkpt>
      <trkpt lat="49.49959" lon="1.12295">
        <ele>140</ele>
        <time>2022-03-26T12:43:27Z</time>
      </trkpt>
      <trkpt lat="49.4996" lon="1.1229">
        <ele>140.2</ele>
        <time>2022-03-26T12:43:28Z</time>
      </trkpt>
      <trkpt lat="49.49961" lon="1.12287">
        <ele>140.2</ele>
        <time>2022-03-26T12:43:29Z</time>
      </trkpt>
      <trkpt lat="49.49961" lon="1.12282">
        <ele>140.4</ele>
        <time>2022-03-26T12:43:30Z</time>
      </trkpt>
      <trkpt lat="49.49963" lon="1.12274">
        <ele>140.5</ele>
        <time>2022-03-26T12:43:32Z</time>
      </trkpt>
      <trkpt lat="49.49963" lon="1.12271">
        <ele>140.6</ele>
        <time>2022-03-26T12:43:33Z</time>
      </trkpt>
      <trkpt lat="49.49964" lon="1.12268">
        <ele>140.6</ele>
        <time>2022-03-26T12:43:34Z</time>
      </trkpt>
      <trkpt lat="49.49965" lon="1.12264">
        <ele>140.7</ele>
        <time>2022-03-26T12:43:35Z</time>
      </trkpt>
      <trkpt lat="49.49966" lon="1.12263">
        <ele>140.7</ele>
        <time>2022-03-26T12:43:36Z</time>
      </trkpt>
      <trkpt lat="49.49967" lon="1.12261">
        <ele>140.8</ele>
        <time>2022-03-26T12:43:37Z</time>
      </trkpt>
      <trkpt lat="49.49967" lon="1.12254">
        <ele>140.8</ele>
        <time>2022-03-26T12:43:39Z</time>
      </trkpt>
      <trkpt lat="49.49968" lon="1.12245">
        <ele>140.9</ele>
        <time>2022-03-26T12:43:40Z</time>
      </trkpt>
      <trkpt lat="49.49968" lon="1.12241">
        <ele>140.8</ele>
        <time>2022-03-26T12:43:41Z</time>
      </trkpt>
      <trkpt lat="49.49969" lon="1.12224">
        <ele>140.7</ele>
        <time>2022-03-26T12:43:42Z</time>
      </trkpt>
      <trkpt lat="49.49971" lon="1.12211">
        <ele>140.3</ele>
        <time>2022-03-26T12:43:43Z</time>
      </trkpt>
      <trkpt lat="49.49973" lon="1.12198">
        <ele>139.7</ele>
        <time>2022-03-26T12:43:44Z</time>
      </trkpt>
      <trkpt lat="49.49974" lon="1.12185">
        <ele>139</ele>
        <time>2022-03-26T12:43:45Z</time>
      </trkpt>
      <trkpt lat="49.49975" lon="1.12171">
        <ele>138.4</ele>
        <time>2022-03-26T12:43:46Z</time>
      </trkpt>
      <trkpt lat="49.49977" lon="1.12166">
        <ele>138.1</ele>
        <time>2022-03-26T12:43:47Z</time>
      </trkpt>
      <trkpt lat="49.49979" lon="1.12165">
        <ele>138.1</ele>
        <time>2022-03-26T12:43:48Z</time>
      </trkpt>
      <trkpt lat="49.49978" lon="1.12156">
        <ele>137.8</ele>
        <time>2022-03-26T12:43:50Z</time>
      </trkpt>
      <trkpt lat="49.49979" lon="1.12149">
        <ele>137.6</ele>
        <time>2022-03-26T12:43:52Z</time>
      </trkpt>
      <trkpt lat="49.4998" lon="1.12144">
        <ele>137.6</ele>
        <time>2022-03-26T12:43:53Z</time>
      </trkpt>
      <trkpt lat="49.49981" lon="1.12137">
        <ele>137.6</ele>
        <time>2022-03-26T12:43:54Z</time>
      </trkpt>
      <trkpt lat="49.49982" lon="1.12133">
        <ele>137.6</ele>
        <time>2022-03-26T12:43:56Z</time>
      </trkpt>
      <trkpt lat="49.49983" lon="1.12125">
        <ele>137.8</ele>
        <time>2022-03-26T12:43:57Z</time>
      </trkpt>
      <trkpt lat="49.49985" lon="1.12115">
        <ele>138.2</ele>
        <time>2022-03-26T12:43:58Z</time>
      </trkpt>
      <trkpt lat="49.49987" lon="1.1211">
        <ele>138.5</ele>
        <time>2022-03-26T12:43:59Z</time>
      </trkpt>
      <trkpt lat="49.49987" lon="1.12109">
        <ele>138.6</ele>
        <time>2022-03-26T12:44:00Z</time>
      </trkpt>
      <trkpt lat="49.49988" lon="1.12106">
        <ele>138.8</ele>
        <time>2022-03-26T12:44:01Z</time>
      </trkpt>
      <trkpt lat="49.49989" lon="1.12101">
        <ele>139.2</ele>
        <time>2022-03-26T12:44:03Z</time>
      </trkpt>
      <trkpt lat="49.49989" lon="1.12097">
        <ele>139.4</ele>
        <time>2022-03-26T12:44:04Z</time>
      </trkpt>
      <trkpt lat="49.49989" lon="1.12096">
        <ele>139.5</ele>
        <time>2022-03-26T12:44:05Z</time>
      </trkpt>
      <trkpt lat="49.4999" lon="1.1209">
        <ele>140</ele>
        <time>2022-03-26T12:44:06Z</time>
      </trkpt>
      <trkpt lat="49.4999" lon="1.12087">
        <ele>140.2</ele>
        <time>2022-03-26T12:44:07Z</time>
      </trkpt>
      <trkpt lat="49.49991" lon="1.12085">
        <ele>140.3</ele>
        <time>2022-03-26T12:44:08Z</time>
      </trkpt>
      <trkpt lat="49.49991" lon="1.12085">
        <ele>140.4</ele>
        <time>2022-03-26T12:44:10Z</time>
      </trkpt>
      <trkpt lat="49.49991" lon="1.12085">
        <ele>140.4</ele>
        <time>2022-03-26T12:44:12Z</time>
      </trkpt>
      <trkpt lat="49.49991" lon="1.12084">
        <ele>140.5</ele>
        <time>2022-03-26T12:44:13Z</time>
      </trkpt>
      <trkpt lat="49.49992" lon="1.12081">
        <ele>140.7</ele>
        <time>2022-03-26T12:44:14Z</time>
      </trkpt>
      <trkpt lat="49.49994" lon="1.12072">
        <ele>141.4</ele>
        <time>2022-03-26T12:44:16Z</time>
      </trkpt>
      <trkpt lat="49.49995" lon="1.12067">
        <ele>141.7</ele>
        <time>2022-03-26T12:44:17Z</time>
      </trkpt>
      <trkpt lat="49.49996" lon="1.12062">
        <ele>142</ele>
        <time>2022-03-26T12:44:18Z</time>
      </trkpt>
      <trkpt lat="49.49997" lon="1.12058">
        <ele>142.3</ele>
        <time>2022-03-26T12:44:19Z</time>
      </trkpt>
      <trkpt lat="49.49998" lon="1.12054">
        <ele>142.5</ele>
        <time>2022-03-26T12:44:20Z</time>
      </trkpt>
      <trkpt lat="49.49999" lon="1.12049">
        <ele>142.8</ele>
        <time>2022-03-26T12:44:21Z</time>
      </trkpt>
      <trkpt lat="49.5" lon="1.12044">
        <ele>143</ele>
        <time>2022-03-26T12:44:22Z</time>
      </trkpt>
      <trkpt lat="49.5" lon="1.1204">
        <ele>143.1</ele>
        <time>2022-03-26T12:44:23Z</time>
      </trkpt>
      <trkpt lat="49.50001" lon="1.12034">
        <ele>143.3</ele>
        <time>2022-03-26T12:44:25Z</time>
      </trkpt>
      <trkpt lat="49.50002" lon="1.12029">
        <ele>143.5</ele>
        <time>2022-03-26T12:44:26Z</time>
      </trkpt>
      <trkpt lat="49.50003" lon="1.12023">
        <ele>143.7</ele>
        <time>2022-03-26T12:44:27Z</time>
      </trkpt>
      <trkpt lat="49.50004" lon="1.12022">
        <ele>143.8</ele>
        <time>2022-03-26T12:44:28Z</time>
      </trkpt>
      <trkpt lat="49.50005" lon="1.12014">
        <ele>144</ele>
        <time>2022-03-26T12:44:30Z</time>
      </trkpt>
      <trkpt lat="49.50005" lon="1.12012">
        <ele>144.1</ele>
        <time>2022-03-26T12:44:31Z</time>
      </trkpt>
      <trkpt lat="49.50006" lon="1.12009">
        <ele>144.2</ele>
        <time>2022-03-26T12:44:32Z</time>
      </trkpt>
      <trkpt lat="49.50006" lon="1.12003">
        <ele>144.4</ele>
        <time>2022-03-26T12:44:33Z</time>
      </trkpt>
      <trkpt lat="49.50007" lon="1.11997">
        <ele>144.6</ele>
        <time>2022-03-26T12:44:34Z</time>
      </trkpt>
      <trkpt lat="49.50008" lon="1.11989">
        <ele>144.7</ele>
        <time>2022-03-26T12:44:36Z</time>
      </trkpt>
      <trkpt lat="49.50009" lon="1.11982">
        <ele>144.8</ele>
        <time>2022-03-26T12:44:37Z</time>
      </trkpt>
      <trkpt lat="49.5001" lon="1.11977">
        <ele>144.9</ele>
        <time>2022-03-26T12:44:38Z</time>
      </trkpt>
      <trkpt lat="49.5001" lon="1.11972">
        <ele>145</ele>
        <time>2022-03-26T12:44:39Z</time>
      </trkpt>
      <trkpt lat="49.50011" lon="1.11963">
        <ele>145.1</ele>
        <time>2022-03-26T12:44:41Z</time>
      </trkpt>
      <trkpt lat="49.50019" lon="1.11911">
        <ele>144.8</ele>
        <time>2022-03-26T12:44:42Z</time>
      </trkpt>
      <trkpt lat="49.5002" lon="1.11903">
        <ele>144.5</ele>
        <time>2022-03-26T12:44:43Z</time>
      </trkpt>
      <trkpt lat="49.50023" lon="1.11887">
        <ele>143.9</ele>
        <time>2022-03-26T12:44:44Z</time>
      </trkpt>
      <trkpt lat="49.50026" lon="1.11873">
        <ele>143.2</ele>
        <time>2022-03-26T12:44:45Z</time>
      </trkpt>
      <trkpt lat="49.50028" lon="1.11859">
        <ele>142.3</ele>
        <time>2022-03-26T12:44:46Z</time>
      </trkpt>
      <trkpt lat="49.5003" lon="1.11846">
        <ele>141.6</ele>
        <time>2022-03-26T12:44:47Z</time>
      </trkpt>
      <trkpt lat="49.50031" lon="1.11832">
        <ele>141</ele>
        <time>2022-03-26T12:44:48Z</time>
      </trkpt>
      <trkpt lat="49.50033" lon="1.1182">
        <ele>140.9</ele>
        <time>2022-03-26T12:44:49Z</time>
      </trkpt>
      <trkpt lat="49.50035" lon="1.11812">
        <ele>141</ele>
        <time>2022-03-26T12:44:50Z</time>
      </trkpt>
      <trkpt lat="49.50035" lon="1.11809">
        <ele>141.1</ele>
        <time>2022-03-26T12:44:52Z</time>
      </trkpt>
      <trkpt lat="49.50036" lon="1.11809">
        <ele>141.1</ele>
        <time>2022-03-26T12:44:53Z</time>
      </trkpt>
      <trkpt lat="49.50036" lon="1.11808">
        <ele>141.2</ele>
        <time>2022-03-26T12:44:54Z</time>
      </trkpt>
      <trkpt lat="49.50037" lon="1.11808">
        <ele>141.2</ele>
        <time>2022-03-26T12:44:55Z</time>
      </trkpt>
      <trkpt lat="49.50037" lon="1.11808">
        <ele>141.2</ele>
        <time>2022-03-26T12:44:56Z</time>
      </trkpt>
      <trkpt lat="49.50038" lon="1.11807">
        <ele>141.2</ele>
        <time>2022-03-26T12:44:57Z</time>
      </trkpt>
      <trkpt lat="49.50038" lon="1.11808">
        <ele>141.2</ele>
        <time>2022-03-26T12:44:58Z</time>
      </trkpt>
      <trkpt lat="49.50038" lon="1.11808">
        <ele>141.3</ele>
        <time>2022-03-26T12:45:00Z</time>
      </trkpt>
      <trkpt lat="49.50038" lon="1.11808">
        <ele>141.3</ele>
        <time>2022-03-26T12:45:01Z</time>
      </trkpt>
      <trkpt lat="49.50038" lon="1.11809">
        <ele>141.3</ele>
        <time>2022-03-26T12:45:02Z</time>
      </trkpt>
      <trkpt lat="49.50041" lon="1.11804">
        <ele>141.6</ele>
        <time>2022-03-26T12:45:20Z</time>
      </trkpt>
      <trkpt lat="49.50041" lon="1.11804">
        <ele>141.6</ele>
        <time>2022-03-26T12:45:21Z</time>
      </trkpt>
      <trkpt lat="49.50041" lon="1.11803">
        <ele>141.6</ele>
        <time>2022-03-26T12:45:22Z</time>
      </trkpt>
      <trkpt lat="49.50042" lon="1.11803">
        <ele>141.6</ele>
        <time>2022-03-26T12:45:23Z</time>
      </trkpt>
      <trkpt lat="49.50042" lon="1.11802">
        <ele>141.7</ele>
        <time>2022-03-26T12:45:25Z</time>
      </trkpt>
      <trkpt lat="49.50042" lon="1.11802">
        <ele>141.7</ele>
        <time>2022-03-26T12:45:26Z</time>
      </trkpt>
      <trkpt lat="49.50043" lon="1.11802">
        <ele>141.8</ele>
        <time>2022-03-26T12:45:27Z</time>
      </trkpt>
      <trkpt lat="49.50044" lon="1.11802">
        <ele>141.8</ele>
        <time>2022-03-26T12:45:28Z</time>
      </trkpt>
      <trkpt lat="49.50044" lon="1.11801">
        <ele>141.9</ele>
        <time>2022-03-26T12:45:29Z</time>
      </trkpt>
      <trkpt lat="49.50044" lon="1.11801">
        <ele>141.9</ele>
        <time>2022-03-26T12:45:30Z</time>
      </trkpt>
      <trkpt lat="49.50045" lon="1.11801">
        <ele>141.9</ele>
        <time>2022-03-26T12:45:31Z</time>
      </trkpt>
      <trkpt lat="49.50045" lon="1.11801">
        <ele>142</ele>
        <time>2022-03-26T12:45:32Z</time>
      </trkpt>
      <trkpt lat="49.50043" lon="1.11796">
        <ele>142.3</ele>
        <time>2022-03-26T12:45:57Z</time>
      </trkpt>
      <trkpt lat="49.50042" lon="1.11795">
        <ele>142.4</ele>
        <time>2022-03-26T12:45:58Z</time>
      </trkpt>
      <trkpt lat="49.50042" lon="1.11794">
        <ele>142.5</ele>
        <time>2022-03-26T12:45:59Z</time>
      </trkpt>
      <trkpt lat="49.50041" lon="1.11793">
        <ele>142.5</ele>
        <time>2022-03-26T12:46:00Z</time>
      </trkpt>
      <trkpt lat="49.50041" lon="1.11791">
        <ele>142.7</ele>
        <time>2022-03-26T12:46:02Z</time>
      </trkpt>
      <trkpt lat="49.50041" lon="1.1179">
        <ele>142.8</ele>
        <time>2022-03-26T12:46:03Z</time>
      </trkpt>
      <trkpt lat="49.50042" lon="1.11788">
        <ele>142.9</ele>
        <time>2022-03-26T12:46:04Z</time>
      </trkpt>
      <trkpt lat="49.50042" lon="1.11787">
        <ele>142.5</ele>
        <time>2022-03-26T12:46:05Z</time>
      </trkpt>
      <trkpt lat="49.50043" lon="1.11786">
        <ele>142.4</ele>
        <time>2022-03-26T12:46:07Z</time>
      </trkpt>
      <trkpt lat="49.50044" lon="1.11785">
        <ele>142.4</ele>
        <time>2022-03-26T12:46:08Z</time>
      </trkpt>
      <trkpt lat="49.50044" lon="1.11784">
        <ele>142.3</ele>
        <time>2022-03-26T12:46:09Z</time>
      </trkpt>
      <trkpt lat="49.50047" lon="1.11784">
        <ele>142.2</ele>
        <time>2022-03-26T12:46:10Z</time>
      </trkpt>
      <trkpt lat="49.5005" lon="1.11784">
        <ele>142</ele>
        <time>2022-03-26T12:46:12Z</time>
      </trkpt>
      <trkpt lat="49.50053" lon="1.11784">
        <ele>141.7</ele>
        <time>2022-03-26T12:46:13Z</time>
      </trkpt>
      <trkpt lat="49.50054" lon="1.11784">
        <ele>141.7</ele>
        <time>2022-03-26T12:46:14Z</time>
      </trkpt>
      <trkpt lat="49.50057" lon="1.11783">
        <ele>141.4</ele>
        <time>2022-03-26T12:46:15Z</time>
      </trkpt>
      <trkpt lat="49.50058" lon="1.11783">
        <ele>141.4</ele>
        <time>2022-03-26T12:46:16Z</time>
      </trkpt>
      <trkpt lat="49.50061" lon="1.11783">
        <ele>141.2</ele>
        <time>2022-03-26T12:46:17Z</time>
      </trkpt>
      <trkpt lat="49.50066" lon="1.11784">
        <ele>140.8</ele>
        <time>2022-03-26T12:46:19Z</time>
      </trkpt>
      <trkpt lat="49.50081" lon="1.11778">
        <ele>139.4</ele>
        <time>2022-03-26T12:46:20Z</time>
      </trkpt>
      <trkpt lat="49.50082" lon="1.11772">
        <ele>139</ele>
        <time>2022-03-26T12:46:21Z</time>
      </trkpt>
      <trkpt lat="49.50088" lon="1.11773">
        <ele>138.5</ele>
        <time>2022-03-26T12:46:22Z</time>
      </trkpt>
      <trkpt lat="49.50092" lon="1.11778">
        <ele>137.9</ele>
        <time>2022-03-26T12:46:23Z</time>
      </trkpt>
      <trkpt lat="49.50095" lon="1.11779">
        <ele>137.5</ele>
        <time>2022-03-26T12:46:24Z</time>
      </trkpt>
      <trkpt lat="49.50105" lon="1.11759">
        <ele>135.8</ele>
        <time>2022-03-26T12:46:26Z</time>
      </trkpt>
      <trkpt lat="49.5011" lon="1.11746">
        <ele>134.7</ele>
        <time>2022-03-26T12:46:27Z</time>
      </trkpt>
      <trkpt lat="49.50117" lon="1.11735">
        <ele>133.7</ele>
        <time>2022-03-26T12:46:28Z</time>
      </trkpt>
      <trkpt lat="49.50123" lon="1.11724">
        <ele>132.7</ele>
        <time>2022-03-26T12:46:29Z</time>
      </trkpt>
      <trkpt lat="49.50128" lon="1.11713">
        <ele>131.7</ele>
        <time>2022-03-26T12:46:30Z</time>
      </trkpt>
      <trkpt lat="49.50134" lon="1.11705">
        <ele>130.8</ele>
        <time>2022-03-26T12:46:31Z</time>
      </trkpt>
      <trkpt lat="49.5014" lon="1.11694">
        <ele>129.8</ele>
        <time>2022-03-26T12:46:32Z</time>
      </trkpt>
      <trkpt lat="49.50146" lon="1.11682">
        <ele>128.7</ele>
        <time>2022-03-26T12:46:33Z</time>
      </trkpt>
      <trkpt lat="49.50152" lon="1.1167">
        <ele>127.6</ele>
        <time>2022-03-26T12:46:34Z</time>
      </trkpt>
      <trkpt lat="49.50157" lon="1.11661">
        <ele>126.8</ele>
        <time>2022-03-26T12:46:35Z</time>
      </trkpt>
      <trkpt lat="49.50162" lon="1.11651">
        <ele>125.9</ele>
        <time>2022-03-26T12:46:36Z</time>
      </trkpt>
      <trkpt lat="49.50169" lon="1.11639">
        <ele>124.8</ele>
        <time>2022-03-26T12:46:37Z</time>
      </trkpt>
      <trkpt lat="49.50175" lon="1.11627">
        <ele>123.8</ele>
        <time>2022-03-26T12:46:38Z</time>
      </trkpt>
      <trkpt lat="49.50181" lon="1.11615">
        <ele>122.9</ele>
        <time>2022-03-26T12:46:39Z</time>
      </trkpt>
      <trkpt lat="49.50187" lon="1.11602">
        <ele>122</ele>
        <time>2022-03-26T12:46:40Z</time>
      </trkpt>
      <trkpt lat="49.50192" lon="1.11589">
        <ele>121.3</ele>
        <time>2022-03-26T12:46:41Z</time>
      </trkpt>
      <trkpt lat="49.50198" lon="1.11577">
        <ele>120.6</ele>
        <time>2022-03-26T12:46:42Z</time>
      </trkpt>
      <trkpt lat="49.50204" lon="1.11568">
        <ele>120</ele>
        <time>2022-03-26T12:46:43Z</time>
      </trkpt>
      <trkpt lat="49.5021" lon="1.11559">
        <ele>119.4</ele>
        <time>2022-03-26T12:46:44Z</time>
      </trkpt>
      <trkpt lat="49.50216" lon="1.11549">
        <ele>118.8</ele>
        <time>2022-03-26T12:46:45Z</time>
      </trkpt>
      <trkpt lat="49.50224" lon="1.11539">
        <ele>118.1</ele>
        <time>2022-03-26T12:46:46Z</time>
      </trkpt>
      <trkpt lat="49.5023" lon="1.11529">
        <ele>117.4</ele>
        <time>2022-03-26T12:46:47Z</time>
      </trkpt>
      <trkpt lat="49.50236" lon="1.11517">
        <ele>116.6</ele>
        <time>2022-03-26T12:46:48Z</time>
      </trkpt>
      <trkpt lat="49.50243" lon="1.11504">
        <ele>115.8</ele>
        <time>2022-03-26T12:46:49Z</time>
      </trkpt>
      <trkpt lat="49.5025" lon="1.11493">
        <ele>115</ele>
        <time>2022-03-26T12:46:50Z</time>
      </trkpt>
      <trkpt lat="49.50256" lon="1.11482">
        <ele>114.2</ele>
        <time>2022-03-26T12:46:51Z</time>
      </trkpt>
      <trkpt lat="49.50262" lon="1.11472">
        <ele>113.5</ele>
        <time>2022-03-26T12:46:52Z</time>
      </trkpt>
      <trkpt lat="49.50269" lon="1.11462">
        <ele>112.7</ele>
        <time>2022-03-26T12:46:53Z</time>
      </trkpt>
      <trkpt lat="49.50275" lon="1.11451">
        <ele>112</ele>
        <time>2022-03-26T12:46:54Z</time>
      </trkpt>
      <trkpt lat="49.50282" lon="1.11441">
        <ele>111.1</ele>
        <time>2022-03-26T12:46:55Z</time>
      </trkpt>
      <trkpt lat="49.50289" lon="1.11429">
        <ele>110.1</ele>
        <time>2022-03-26T12:46:56Z</time>
      </trkpt>
      <trkpt lat="49.50297" lon="1.11416">
        <ele>109</ele>
        <time>2022-03-26T12:46:57Z</time>
      </trkpt>
      <trkpt lat="49.50304" lon="1.11401">
        <ele>107.7</ele>
        <time>2022-03-26T12:46:58Z</time>
      </trkpt>
      <trkpt lat="49.50311" lon="1.11386">
        <ele>106.4</ele>
        <time>2022-03-26T12:46:59Z</time>
      </trkpt>
      <trkpt lat="49.50318" lon="1.11373">
        <ele>105.1</ele>
        <time>2022-03-26T12:47:00Z</time>
      </trkpt>
      <trkpt lat="49.50326" lon="1.11363">
        <ele>104</ele>
        <time>2022-03-26T12:47:01Z</time>
      </trkpt>
      <trkpt lat="49.50332" lon="1.11354">
        <ele>103.1</ele>
        <time>2022-03-26T12:47:02Z</time>
      </trkpt>
      <trkpt lat="49.50337" lon="1.11348">
        <ele>102.6</ele>
        <time>2022-03-26T12:47:03Z</time>
      </trkpt>
      <trkpt lat="49.50341" lon="1.11344">
        <ele>102.1</ele>
        <time>2022-03-26T12:47:04Z</time>
      </trkpt>
      <trkpt lat="49.50345" lon="1.11336">
        <ele>101.5</ele>
        <time>2022-03-26T12:47:05Z</time>
      </trkpt>
      <trkpt lat="49.50348" lon="1.1133">
        <ele>101</ele>
        <time>2022-03-26T12:47:06Z</time>
      </trkpt>
      <trkpt lat="49.50351" lon="1.11326">
        <ele>100.6</ele>
        <time>2022-03-26T12:47:07Z</time>
      </trkpt>
      <trkpt lat="49.50354" lon="1.11322">
        <ele>100.2</ele>
        <time>2022-03-26T12:47:08Z</time>
      </trkpt>
      <trkpt lat="49.5036" lon="1.11315">
        <ele>99.5</ele>
        <time>2022-03-26T12:47:09Z</time>
      </trkpt>
      <trkpt lat="49.50365" lon="1.11307">
        <ele>98.7</ele>
        <time>2022-03-26T12:47:10Z</time>
      </trkpt>
      <trkpt lat="49.50371" lon="1.113">
        <ele>98</ele>
        <time>2022-03-26T12:47:11Z</time>
      </trkpt>
      <trkpt lat="49.50376" lon="1.11292">
        <ele>97.3</ele>
        <time>2022-03-26T12:47:12Z</time>
      </trkpt>
      <trkpt lat="49.50382" lon="1.11287">
        <ele>96.7</ele>
        <time>2022-03-26T12:47:13Z</time>
      </trkpt>
      <trkpt lat="49.50388" lon="1.11278">
        <ele>95.9</ele>
        <time>2022-03-26T12:47:14Z</time>
      </trkpt>
      <trkpt lat="49.50395" lon="1.1127">
        <ele>95.1</ele>
        <time>2022-03-26T12:47:15Z</time>
      </trkpt>
      <trkpt lat="49.50399" lon="1.11263">
        <ele>94.5</ele>
        <time>2022-03-26T12:47:16Z</time>
      </trkpt>
      <trkpt lat="49.50396" lon="1.11262">
        <ele>94.2</ele>
        <time>2022-03-26T12:47:18Z</time>
      </trkpt>
      <trkpt lat="49.504" lon="1.1126">
        <ele>93.8</ele>
        <time>2022-03-26T12:47:19Z</time>
      </trkpt>
      <trkpt lat="49.50404" lon="1.11258">
        <ele>93.4</ele>
        <time>2022-03-26T12:47:20Z</time>
      </trkpt>
      <trkpt lat="49.50408" lon="1.11257">
        <ele>93</ele>
        <time>2022-03-26T12:47:21Z</time>
      </trkpt>
      <trkpt lat="49.5041" lon="1.11256">
        <ele>92.8</ele>
        <time>2022-03-26T12:47:22Z</time>
      </trkpt>
      <trkpt lat="49.50414" lon="1.11253">
        <ele>92.4</ele>
        <time>2022-03-26T12:47:23Z</time>
      </trkpt>
      <trkpt lat="49.50417" lon="1.1125">
        <ele>92.1</ele>
        <time>2022-03-26T12:47:24Z</time>
      </trkpt>
      <trkpt lat="49.50426" lon="1.11245">
        <ele>91.2</ele>
        <time>2022-03-26T12:47:26Z</time>
      </trkpt>
      <trkpt lat="49.50434" lon="1.11241">
        <ele>90.5</ele>
        <time>2022-03-26T12:47:27Z</time>
      </trkpt>
      <trkpt lat="49.50439" lon="1.11239">
        <ele>90.1</ele>
        <time>2022-03-26T12:47:28Z</time>
      </trkpt>
      <trkpt lat="49.50449" lon="1.11237">
        <ele>89.5</ele>
        <time>2022-03-26T12:47:30Z</time>
      </trkpt>
      <trkpt lat="49.50455" lon="1.11238">
        <ele>89.3</ele>
        <time>2022-03-26T12:47:31Z</time>
      </trkpt>
      <trkpt lat="49.50457" lon="1.11241">
        <ele>89.2</ele>
        <time>2022-03-26T12:47:32Z</time>
      </trkpt>
      <trkpt lat="49.50457" lon="1.11242">
        <ele>88.5</ele>
        <time>2022-03-26T12:47:33Z</time>
      </trkpt>
      <trkpt lat="49.50458" lon="1.11246">
        <ele>88.5</ele>
        <time>2022-03-26T12:47:34Z</time>
      </trkpt>
      <trkpt lat="49.50458" lon="1.11248">
        <ele>88.5</ele>
        <time>2022-03-26T12:47:35Z</time>
      </trkpt>
      <trkpt lat="49.50459" lon="1.11253">
        <ele>88.5</ele>
        <time>2022-03-26T12:47:36Z</time>
      </trkpt>
      <trkpt lat="49.5046" lon="1.11254">
        <ele>88.5</ele>
        <time>2022-03-26T12:47:37Z</time>
      </trkpt>
      <trkpt lat="49.50461" lon="1.11258">
        <ele>88.5</ele>
        <time>2022-03-26T12:47:38Z</time>
      </trkpt>
      <trkpt lat="49.50461" lon="1.11259">
        <ele>88.9</ele>
        <time>2022-03-26T12:47:39Z</time>
      </trkpt>
      <trkpt lat="49.50462" lon="1.11264">
        <ele>88.9</ele>
        <time>2022-03-26T12:47:40Z</time>
      </trkpt>
      <trkpt lat="49.50462" lon="1.11266">
        <ele>89</ele>
        <time>2022-03-26T12:47:41Z</time>
      </trkpt>
      <trkpt lat="49.50462" lon="1.11269">
        <ele>89</ele>
        <time>2022-03-26T12:47:42Z</time>
      </trkpt>
      <trkpt lat="49.50462" lon="1.11273">
        <ele>89</ele>
        <time>2022-03-26T12:47:44Z</time>
      </trkpt>
      <trkpt lat="49.50463" lon="1.11275">
        <ele>89</ele>
        <time>2022-03-26T12:47:45Z</time>
      </trkpt>
      <trkpt lat="49.50464" lon="1.11274">
        <ele>89.1</ele>
        <time>2022-03-26T12:47:46Z</time>
      </trkpt>
      <trkpt lat="49.50466" lon="1.11273">
        <ele>89.1</ele>
        <time>2022-03-26T12:47:47Z</time>
      </trkpt>
      <trkpt lat="49.50467" lon="1.11272">
        <ele>89.1</ele>
        <time>2022-03-26T12:47:48Z</time>
      </trkpt>
      <trkpt lat="49.50469" lon="1.11272">
        <ele>89.1</ele>
        <time>2022-03-26T12:47:49Z</time>
      </trkpt>
      <trkpt lat="49.5047" lon="1.11273">
        <ele>89.1</ele>
        <time>2022-03-26T12:47:50Z</time>
      </trkpt>
      <trkpt lat="49.50471" lon="1.11275">
        <ele>89.2</ele>
        <time>2022-03-26T12:47:52Z</time>
      </trkpt>
      <trkpt lat="49.50468" lon="1.11279">
        <ele>89.2</ele>
        <time>2022-03-26T12:47:53Z</time>
      </trkpt>
      <trkpt lat="49.50465" lon="1.11286">
        <ele>89.3</ele>
        <time>2022-03-26T12:47:54Z</time>
      </trkpt>
      <trkpt lat="49.50463" lon="1.11298">
        <ele>89.4</ele>
        <time>2022-03-26T12:47:56Z</time>
      </trkpt>
      <trkpt lat="49.50466" lon="1.11313">
        <ele>89.6</ele>
        <time>2022-03-26T12:47:57Z</time>
      </trkpt>
      <trkpt lat="49.50467" lon="1.11321">
        <ele>89.6</ele>
        <time>2022-03-26T12:47:58Z</time>
      </trkpt>
      <trkpt lat="49.50467" lon="1.11325">
        <ele>89.7</ele>
        <time>2022-03-26T12:47:59Z</time>
      </trkpt>
      <trkpt lat="49.50468" lon="1.11327">
        <ele>89.7</ele>
        <time>2022-03-26T12:48:00Z</time>
      </trkpt>
      <trkpt lat="49.50468" lon="1.11327">
        <ele>89.7</ele>
        <time>2022-03-26T12:48:01Z</time>
      </trkpt>
      <trkpt lat="49.50469" lon="1.11326">
        <ele>89.7</ele>
        <time>2022-03-26T12:48:02Z</time>
      </trkpt>
      <trkpt lat="49.5047" lon="1.11325">
        <ele>89.7</ele>
        <time>2022-03-26T12:48:03Z</time>
      </trkpt>
      <trkpt lat="49.5047" lon="1.11324">
        <ele>89.7</ele>
        <time>2022-03-26T12:48:04Z</time>
      </trkpt>
      <trkpt lat="49.50471" lon="1.11323">
        <ele>89.7</ele>
        <time>2022-03-26T12:48:33Z</time>
      </trkpt>
      <trkpt lat="49.50472" lon="1.11323">
        <ele>89.7</ele>
        <time>2022-03-26T12:48:34Z</time>
      </trkpt>
      <trkpt lat="49.50472" lon="1.11322">
        <ele>89.8</ele>
        <time>2022-03-26T12:48:35Z</time>
      </trkpt>
      <trkpt lat="49.50473" lon="1.11321">
        <ele>89.8</ele>
        <time>2022-03-26T12:48:36Z</time>
      </trkpt>
      <trkpt lat="49.50473" lon="1.11319">
        <ele>89.8</ele>
        <time>2022-03-26T12:48:37Z</time>
      </trkpt>
      <trkpt lat="49.50472" lon="1.11318">
        <ele>89.8</ele>
        <time>2022-03-26T12:48:38Z</time>
      </trkpt>
      <trkpt lat="49.50472" lon="1.11317">
        <ele>89.8</ele>
        <time>2022-03-26T12:48:39Z</time>
      </trkpt>
      <trkpt lat="49.50471" lon="1.11315">
        <ele>89.8</ele>
        <time>2022-03-26T12:48:40Z</time>
      </trkpt>
      <trkpt lat="49.50471" lon="1.11316">
        <ele>89.8</ele>
        <time>2022-03-26T12:48:41Z</time>
      </trkpt>
      <trkpt lat="49.50471" lon="1.11321">
        <ele>89.9</ele>
        <time>2022-03-26T12:48:42Z</time>
      </trkpt>
      <trkpt lat="49.50471" lon="1.11327">
        <ele>89.9</ele>
        <time>2022-03-26T12:48:43Z</time>
      </trkpt>
      <trkpt lat="49.50471" lon="1.11333">
        <ele>89.9</ele>
        <time>2022-03-26T12:48:44Z</time>
      </trkpt>
      <trkpt lat="49.5047" lon="1.1134">
        <ele>90</ele>
        <time>2022-03-26T12:48:45Z</time>
      </trkpt>
      <trkpt lat="49.5047" lon="1.11345">
        <ele>90</ele>
        <time>2022-03-26T12:48:46Z</time>
      </trkpt>
      <trkpt lat="49.5047" lon="1.11351">
        <ele>90.1</ele>
        <time>2022-03-26T12:48:47Z</time>
      </trkpt>
      <trkpt lat="49.5047" lon="1.11352">
        <ele>90.1</ele>
        <time>2022-03-26T12:48:48Z</time>
      </trkpt>
      <trkpt lat="49.50469" lon="1.11357">
        <ele>90.1</ele>
        <time>2022-03-26T12:48:49Z</time>
      </trkpt>
      <trkpt lat="49.50469" lon="1.11359">
        <ele>90.1</ele>
        <time>2022-03-26T12:48:50Z</time>
      </trkpt>
      <trkpt lat="49.50469" lon="1.11363">
        <ele>90.1</ele>
        <time>2022-03-26T12:48:51Z</time>
      </trkpt>
      <trkpt lat="49.50468" lon="1.11369">
        <ele>90.2</ele>
        <time>2022-03-26T12:48:52Z</time>
      </trkpt>
      <trkpt lat="49.50468" lon="1.11376">
        <ele>90.2</ele>
        <time>2022-03-26T12:48:53Z</time>
      </trkpt>
      <trkpt lat="49.50467" lon="1.11389">
        <ele>90.3</ele>
        <time>2022-03-26T12:48:54Z</time>
      </trkpt>
      <trkpt lat="49.50467" lon="1.11397">
        <ele>90.4</ele>
        <time>2022-03-26T12:48:55Z</time>
      </trkpt>
      <trkpt lat="49.50467" lon="1.11416">
        <ele>90.5</ele>
        <time>2022-03-26T12:48:57Z</time>
      </trkpt>
      <trkpt lat="49.50466" lon="1.11423">
        <ele>90.5</ele>
        <time>2022-03-26T12:48:58Z</time>
      </trkpt>
      <trkpt lat="49.50464" lon="1.11429">
        <ele>90.6</ele>
        <time>2022-03-26T12:48:59Z</time>
      </trkpt>
      <trkpt lat="49.50462" lon="1.11437">
        <ele>90.6</ele>
        <time>2022-03-26T12:49:00Z</time>
      </trkpt>
      <trkpt lat="49.50461" lon="1.11447">
        <ele>90.7</ele>
        <time>2022-03-26T12:49:01Z</time>
      </trkpt>
      <trkpt lat="49.50459" lon="1.11457">
        <ele>90.7</ele>
        <time>2022-03-26T12:49:02Z</time>
      </trkpt>
      <trkpt lat="49.50457" lon="1.11465">
        <ele>90.8</ele>
        <time>2022-03-26T12:49:03Z</time>
      </trkpt>
      <trkpt lat="49.50455" lon="1.11472">
        <ele>90.8</ele>
        <time>2022-03-26T12:49:04Z</time>
      </trkpt>
      <trkpt lat="49.50452" lon="1.11479">
        <ele>90.9</ele>
        <time>2022-03-26T12:49:05Z</time>
      </trkpt>
      <trkpt lat="49.50451" lon="1.11487">
        <ele>90.9</ele>
        <time>2022-03-26T12:49:06Z</time>
      </trkpt>
      <trkpt lat="49.50449" lon="1.11495">
        <ele>91</ele>
        <time>2022-03-26T12:49:07Z</time>
      </trkpt>
      <trkpt lat="49.50448" lon="1.11502">
        <ele>91.1</ele>
        <time>2022-03-26T12:49:08Z</time>
      </trkpt>
      <trkpt lat="49.50445" lon="1.1151">
        <ele>91.2</ele>
        <time>2022-03-26T12:49:09Z</time>
      </trkpt>
      <trkpt lat="49.50442" lon="1.11517">
        <ele>91.3</ele>
        <time>2022-03-26T12:49:10Z</time>
      </trkpt>
      <trkpt lat="49.50439" lon="1.11524">
        <ele>91.4</ele>
        <time>2022-03-26T12:49:11Z</time>
      </trkpt>
      <trkpt lat="49.50435" lon="1.11531">
        <ele>91.5</ele>
        <time>2022-03-26T12:49:12Z</time>
      </trkpt>
      <trkpt lat="49.50433" lon="1.1154">
        <ele>91.7</ele>
        <time>2022-03-26T12:49:13Z</time>
      </trkpt>
      <trkpt lat="49.5043" lon="1.11549">
        <ele>91.9</ele>
        <time>2022-03-26T12:49:14Z</time>
      </trkpt>
      <trkpt lat="49.50427" lon="1.11555">
        <ele>92</ele>
        <time>2022-03-26T12:49:15Z</time>
      </trkpt>
      <trkpt lat="49.50423" lon="1.11563">
        <ele>92.2</ele>
        <time>2022-03-26T12:49:16Z</time>
      </trkpt>
      <trkpt lat="49.5042" lon="1.11569">
        <ele>92.3</ele>
        <time>2022-03-26T12:49:17Z</time>
      </trkpt>
      <trkpt lat="49.50417" lon="1.11575">
        <ele>92.4</ele>
        <time>2022-03-26T12:49:18Z</time>
      </trkpt>
      <trkpt lat="49.50414" lon="1.11581">
        <ele>92.6</ele>
        <time>2022-03-26T12:49:19Z</time>
      </trkpt>
      <trkpt lat="49.50411" lon="1.11588">
        <ele>92.7</ele>
        <time>2022-03-26T12:49:20Z</time>
      </trkpt>
      <trkpt lat="49.50408" lon="1.11594">
        <ele>92.9</ele>
        <time>2022-03-26T12:49:21Z</time>
      </trkpt>
      <trkpt lat="49.50405" lon="1.11601">
        <ele>93</ele>
        <time>2022-03-26T12:49:22Z</time>
      </trkpt>
      <trkpt lat="49.50402" lon="1.11607">
        <ele>93.2</ele>
        <time>2022-03-26T12:49:23Z</time>
      </trkpt>
      <trkpt lat="49.50399" lon="1.11613">
        <ele>93.3</ele>
        <time>2022-03-26T12:49:24Z</time>
      </trkpt>
      <trkpt lat="49.50394" lon="1.11617">
        <ele>93.5</ele>
        <time>2022-03-26T12:49:25Z</time>
      </trkpt>
      <trkpt lat="49.50389" lon="1.1162">
        <ele>93.6</ele>
        <time>2022-03-26T12:49:26Z</time>
      </trkpt>
      <trkpt lat="49.50385" lon="1.11626">
        <ele>93.8</ele>
        <time>2022-03-26T12:49:27Z</time>
      </trkpt>
      <trkpt lat="49.50384" lon="1.11633">
        <ele>93.9</ele>
        <time>2022-03-26T12:49:28Z</time>
      </trkpt>
      <trkpt lat="49.50381" lon="1.1164">
        <ele>94.1</ele>
        <time>2022-03-26T12:49:29Z</time>
      </trkpt>
      <trkpt lat="49.50378" lon="1.11646">
        <ele>94.2</ele>
        <time>2022-03-26T12:49:30Z</time>
      </trkpt>
      <trkpt lat="49.50373" lon="1.11648">
        <ele>94.4</ele>
        <time>2022-03-26T12:49:31Z</time>
      </trkpt>
      <trkpt lat="49.50369" lon="1.11653">
        <ele>94.5</ele>
        <time>2022-03-26T12:49:32Z</time>
      </trkpt>
      <trkpt lat="49.50367" lon="1.1166">
        <ele>94.6</ele>
        <time>2022-03-26T12:49:33Z</time>
      </trkpt>
      <trkpt lat="49.50366" lon="1.11668">
        <ele>94.7</ele>
        <time>2022-03-26T12:49:34Z</time>
      </trkpt>
      <trkpt lat="49.50363" lon="1.11674">
        <ele>94.9</ele>
        <time>2022-03-26T12:49:35Z</time>
      </trkpt>
      <trkpt lat="49.50358" lon="1.11682">
        <ele>95</ele>
        <time>2022-03-26T12:49:37Z</time>
      </trkpt>
      <trkpt lat="49.50353" lon="1.1169">
        <ele>95.2</ele>
        <time>2022-03-26T12:49:39Z</time>
      </trkpt>
      <trkpt lat="49.50348" lon="1.117">
        <ele>95.4</ele>
        <time>2022-03-26T12:49:40Z</time>
      </trkpt>
      <trkpt lat="49.50346" lon="1.11707">
        <ele>95.5</ele>
        <time>2022-03-26T12:49:41Z</time>
      </trkpt>
      <trkpt lat="49.50343" lon="1.11715">
        <ele>95.6</ele>
        <time>2022-03-26T12:49:42Z</time>
      </trkpt>
      <trkpt lat="49.5034" lon="1.1172">
        <ele>95.7</ele>
        <time>2022-03-26T12:49:43Z</time>
      </trkpt>
      <trkpt lat="49.50337" lon="1.11728">
        <ele>95.9</ele>
        <time>2022-03-26T12:49:44Z</time>
      </trkpt>
      <trkpt lat="49.50335" lon="1.11733">
        <ele>96</ele>
        <time>2022-03-26T12:49:46Z</time>
      </trkpt>
      <trkpt lat="49.50333" lon="1.11738">
        <ele>96.1</ele>
        <time>2022-03-26T12:49:47Z</time>
      </trkpt>
      <trkpt lat="49.50327" lon="1.11742">
        <ele>96.2</ele>
        <time>2022-03-26T12:49:48Z</time>
      </trkpt>
      <trkpt lat="49.50323" lon="1.11745">
        <ele>96.3</ele>
        <time>2022-03-26T12:49:49Z</time>
      </trkpt>
      <trkpt lat="49.5032" lon="1.11751">
        <ele>96.4</ele>
        <time>2022-03-26T12:49:50Z</time>
      </trkpt>
      <trkpt lat="49.50314" lon="1.11761">
        <ele>96.6</ele>
        <time>2022-03-26T12:49:51Z</time>
      </trkpt>
      <trkpt lat="49.5031" lon="1.11767">
        <ele>96.7</ele>
        <time>2022-03-26T12:49:52Z</time>
      </trkpt>
      <trkpt lat="49.50307" lon="1.1177">
        <ele>96.8</ele>
        <time>2022-03-26T12:49:53Z</time>
      </trkpt>
      <trkpt lat="49.50304" lon="1.11776">
        <ele>96.9</ele>
        <time>2022-03-26T12:49:54Z</time>
      </trkpt>
      <trkpt lat="49.50303" lon="1.11782">
        <ele>97</ele>
        <time>2022-03-26T12:49:55Z</time>
      </trkpt>
      <trkpt lat="49.503" lon="1.11792">
        <ele>97.2</ele>
        <time>2022-03-26T12:49:56Z</time>
      </trkpt>
      <trkpt lat="49.50299" lon="1.11802">
        <ele>97.4</ele>
        <time>2022-03-26T12:49:57Z</time>
      </trkpt>
      <trkpt lat="49.50299" lon="1.11808">
        <ele>97.5</ele>
        <time>2022-03-26T12:49:58Z</time>
      </trkpt>
      <trkpt lat="49.50296" lon="1.11816">
        <ele>97.6</ele>
        <time>2022-03-26T12:49:59Z</time>
      </trkpt>
      <trkpt lat="49.50295" lon="1.11827">
        <ele>97.8</ele>
        <time>2022-03-26T12:50:00Z</time>
      </trkpt>
      <trkpt lat="49.50295" lon="1.11833">
        <ele>97.9</ele>
        <time>2022-03-26T12:50:01Z</time>
      </trkpt>
      <trkpt lat="49.50294" lon="1.1184">
        <ele>98</ele>
        <time>2022-03-26T12:50:02Z</time>
      </trkpt>
      <trkpt lat="49.50293" lon="1.11846">
        <ele>98.1</ele>
        <time>2022-03-26T12:50:04Z</time>
      </trkpt>
      <trkpt lat="49.50295" lon="1.11856">
        <ele>98.2</ele>
        <time>2022-03-26T12:50:05Z</time>
      </trkpt>
      <trkpt lat="49.50297" lon="1.11863">
        <ele>98.3</ele>
        <time>2022-03-26T12:50:06Z</time>
      </trkpt>
      <trkpt lat="49.50299" lon="1.11869">
        <ele>98.3</ele>
        <time>2022-03-26T12:50:07Z</time>
      </trkpt>
      <trkpt lat="49.50302" lon="1.11878">
        <ele>98.5</ele>
        <time>2022-03-26T12:50:08Z</time>
      </trkpt>
      <trkpt lat="49.50305" lon="1.11886">
        <ele>98.6</ele>
        <time>2022-03-26T12:50:09Z</time>
      </trkpt>
      <trkpt lat="49.50307" lon="1.11891">
        <ele>98.6</ele>
        <time>2022-03-26T12:50:10Z</time>
      </trkpt>
      <trkpt lat="49.50312" lon="1.11898">
        <ele>98.7</ele>
        <time>2022-03-26T12:50:12Z</time>
      </trkpt>
      <trkpt lat="49.50315" lon="1.11906">
        <ele>98.8</ele>
        <time>2022-03-26T12:50:13Z</time>
      </trkpt>
      <trkpt lat="49.5032" lon="1.11916">
        <ele>98.9</ele>
        <time>2022-03-26T12:50:14Z</time>
      </trkpt>
      <trkpt lat="49.50323" lon="1.1192">
        <ele>98.9</ele>
        <time>2022-03-26T12:50:15Z</time>
      </trkpt>
      <trkpt lat="49.50325" lon="1.11927">
        <ele>98.9</ele>
        <time>2022-03-26T12:50:16Z</time>
      </trkpt>
      <trkpt lat="49.50325" lon="1.11935">
        <ele>98.9</ele>
        <time>2022-03-26T12:50:17Z</time>
      </trkpt>
      <trkpt lat="49.50328" lon="1.11941">
        <ele>99</ele>
        <time>2022-03-26T12:50:18Z</time>
      </trkpt>
      <trkpt lat="49.50329" lon="1.11946">
        <ele>99</ele>
        <time>2022-03-26T12:50:19Z</time>
      </trkpt>
      <trkpt lat="49.50332" lon="1.11949">
        <ele>99</ele>
        <time>2022-03-26T12:50:20Z</time>
      </trkpt>
      <trkpt lat="49.50334" lon="1.11954">
        <ele>99</ele>
        <time>2022-03-26T12:50:21Z</time>
      </trkpt>
      <trkpt lat="49.50336" lon="1.11961">
        <ele>99</ele>
        <time>2022-03-26T12:50:22Z</time>
      </trkpt>
      <trkpt lat="49.50338" lon="1.11972">
        <ele>99</ele>
        <time>2022-03-26T12:50:23Z</time>
      </trkpt>
      <trkpt lat="49.50338" lon="1.11977">
        <ele>99</ele>
        <time>2022-03-26T12:50:24Z</time>
      </trkpt>
      <trkpt lat="49.50339" lon="1.11981">
        <ele>99</ele>
        <time>2022-03-26T12:50:25Z</time>
      </trkpt>
      <trkpt lat="49.50341" lon="1.11985">
        <ele>99</ele>
        <time>2022-03-26T12:50:26Z</time>
      </trkpt>
      <trkpt lat="49.50343" lon="1.11992">
        <ele>99.1</ele>
        <time>2022-03-26T12:50:28Z</time>
      </trkpt>
      <trkpt lat="49.50344" lon="1.11996">
        <ele>99.1</ele>
        <time>2022-03-26T12:50:29Z</time>
      </trkpt>
      <trkpt lat="49.50345" lon="1.11998">
        <ele>99.1</ele>
        <time>2022-03-26T12:50:30Z</time>
      </trkpt>
      <trkpt lat="49.50345" lon="1.12">
        <ele>99.1</ele>
        <time>2022-03-26T12:50:31Z</time>
      </trkpt>
      <trkpt lat="49.50347" lon="1.12006">
        <ele>99.1</ele>
        <time>2022-03-26T12:50:33Z</time>
      </trkpt>
      <trkpt lat="49.50348" lon="1.12008">
        <ele>99.1</ele>
        <time>2022-03-26T12:50:34Z</time>
      </trkpt>
      <trkpt lat="49.50349" lon="1.12009">
        <ele>99.1</ele>
        <time>2022-03-26T12:50:35Z</time>
      </trkpt>
      <trkpt lat="49.5035" lon="1.12008">
        <ele>99.1</ele>
        <time>2022-03-26T12:50:36Z</time>
      </trkpt>
      <trkpt lat="49.50351" lon="1.12003">
        <ele>99.1</ele>
        <time>2022-03-26T12:50:37Z</time>
      </trkpt>
      <trkpt lat="49.50351" lon="1.12002">
        <ele>99.1</ele>
        <time>2022-03-26T12:50:38Z</time>
      </trkpt>
      <trkpt lat="49.5035" lon="1.12">
        <ele>99.1</ele>
        <time>2022-03-26T12:50:39Z</time>
      </trkpt>
      <trkpt lat="49.5035" lon="1.11999">
        <ele>99.1</ele>
        <time>2022-03-26T12:50:40Z</time>
      </trkpt>
      <trkpt lat="49.50349" lon="1.11999">
        <ele>99.1</ele>
        <time>2022-03-26T12:50:41Z</time>
      </trkpt>
      <trkpt lat="49.50348" lon="1.12001">
        <ele>99.1</ele>
        <time>2022-03-26T12:50:43Z</time>
      </trkpt>
      <trkpt lat="49.50348" lon="1.12002">
        <ele>99.1</ele>
        <time>2022-03-26T12:50:44Z</time>
      </trkpt>
      <trkpt lat="49.50347" lon="1.12004">
        <ele>99.1</ele>
        <time>2022-03-26T12:50:45Z</time>
      </trkpt>
      <trkpt lat="49.50347" lon="1.12006">
        <ele>99.1</ele>
        <time>2022-03-26T12:50:46Z</time>
      </trkpt>
      <trkpt lat="49.50347" lon="1.12011">
        <ele>99.1</ele>
        <time>2022-03-26T12:50:48Z</time>
      </trkpt>
      <trkpt lat="49.50347" lon="1.12013">
        <ele>99.1</ele>
        <time>2022-03-26T12:50:49Z</time>
      </trkpt>
      <trkpt lat="49.50347" lon="1.12014">
        <ele>99.1</ele>
        <time>2022-03-26T12:50:50Z</time>
      </trkpt>
      <trkpt lat="49.50347" lon="1.12015">
        <ele>99.1</ele>
        <time>2022-03-26T12:50:51Z</time>
      </trkpt>
      <trkpt lat="49.50348" lon="1.12017">
        <ele>99.1</ele>
        <time>2022-03-26T12:50:52Z</time>
      </trkpt>
      <trkpt lat="49.50349" lon="1.12018">
        <ele>99.1</ele>
        <time>2022-03-26T12:50:53Z</time>
      </trkpt>
      <trkpt lat="49.50349" lon="1.12019">
        <ele>99.1</ele>
        <time>2022-03-26T12:50:54Z</time>
      </trkpt>
      <trkpt lat="49.50351" lon="1.12019">
        <ele>99.2</ele>
        <time>2022-03-26T12:50:56Z</time>
      </trkpt>
      <trkpt lat="49.50352" lon="1.1202">
        <ele>99.2</ele>
        <time>2022-03-26T12:50:57Z</time>
      </trkpt>
      <trkpt lat="49.50353" lon="1.1202">
        <ele>99.2</ele>
        <time>2022-03-26T12:50:58Z</time>
      </trkpt>
      <trkpt lat="49.50354" lon="1.1202">
        <ele>99.2</ele>
        <time>2022-03-26T12:50:59Z</time>
      </trkpt>
      <trkpt lat="49.50354" lon="1.1202">
        <ele>99.2</ele>
        <time>2022-03-26T12:51:00Z</time>
      </trkpt>
      <trkpt lat="49.50355" lon="1.1202">
        <ele>99.3</ele>
        <time>2022-03-26T12:51:01Z</time>
      </trkpt>
      <trkpt lat="49.50355" lon="1.1202">
        <ele>99.4</ele>
        <time>2022-03-26T12:51:02Z</time>
      </trkpt>
      <trkpt lat="49.50356" lon="1.12019">
        <ele>99.5</ele>
        <time>2022-03-26T12:51:03Z</time>
      </trkpt>
      <trkpt lat="49.50356" lon="1.12019">
        <ele>99.6</ele>
        <time>2022-03-26T12:51:05Z</time>
      </trkpt>
      <trkpt lat="49.50357" lon="1.12019">
        <ele>99.8</ele>
        <time>2022-03-26T12:51:06Z</time>
      </trkpt>
      <trkpt lat="49.50358" lon="1.12018">
        <ele>99.9</ele>
        <time>2022-03-26T12:51:07Z</time>
      </trkpt>
      <trkpt lat="49.50361" lon="1.12017">
        <ele>100.5</ele>
        <time>2022-03-26T12:51:08Z</time>
      </trkpt>
      <trkpt lat="49.50362" lon="1.12016">
        <ele>100.6</ele>
        <time>2022-03-26T12:51:09Z</time>
      </trkpt>
      <trkpt lat="49.50363" lon="1.12015">
        <ele>100.9</ele>
        <time>2022-03-26T12:51:10Z</time>
      </trkpt>
      <trkpt lat="49.50364" lon="1.12014">
        <ele>101.2</ele>
        <time>2022-03-26T12:51:11Z</time>
      </trkpt>
      <trkpt lat="49.50366" lon="1.12013">
        <ele>101.7</ele>
        <time>2022-03-26T12:51:13Z</time>
      </trkpt>
      <trkpt lat="49.50367" lon="1.12012">
        <ele>102</ele>
        <time>2022-03-26T12:51:14Z</time>
      </trkpt>
      <trkpt lat="49.50369" lon="1.12011">
        <ele>102.4</ele>
        <time>2022-03-26T12:51:15Z</time>
      </trkpt>
      <trkpt lat="49.5037" lon="1.12011">
        <ele>102.7</ele>
        <time>2022-03-26T12:51:16Z</time>
      </trkpt>
      <trkpt lat="49.50372" lon="1.12011">
        <ele>103</ele>
        <time>2022-03-26T12:51:17Z</time>
      </trkpt>
      <trkpt lat="49.50372" lon="1.12012">
        <ele>103.2</ele>
        <time>2022-03-26T12:51:19Z</time>
      </trkpt>
      <trkpt lat="49.50373" lon="1.12012">
        <ele>103.5</ele>
        <time>2022-03-26T12:51:20Z</time>
      </trkpt>
      <trkpt lat="49.50375" lon="1.12012">
        <ele>103.8</ele>
        <time>2022-03-26T12:51:21Z</time>
      </trkpt>
      <trkpt lat="49.50376" lon="1.12012">
        <ele>104.1</ele>
        <time>2022-03-26T12:51:22Z</time>
      </trkpt>
      <trkpt lat="49.50377" lon="1.12012">
        <ele>104.4</ele>
        <time>2022-03-26T12:51:23Z</time>
      </trkpt>
      <trkpt lat="49.50378" lon="1.12013">
        <ele>104.8</ele>
        <time>2022-03-26T12:51:24Z</time>
      </trkpt>
      <trkpt lat="49.50379" lon="1.12013">
        <ele>105.1</ele>
        <time>2022-03-26T12:51:26Z</time>
      </trkpt>
      <trkpt lat="49.5038" lon="1.12014">
        <ele>105.4</ele>
        <time>2022-03-26T12:51:27Z</time>
      </trkpt>
      <trkpt lat="49.50381" lon="1.12015">
        <ele>105.7</ele>
        <time>2022-03-26T12:51:28Z</time>
      </trkpt>
      <trkpt lat="49.50382" lon="1.12015">
        <ele>106</ele>
        <time>2022-03-26T12:51:29Z</time>
      </trkpt>
      <trkpt lat="49.50382" lon="1.12015">
        <ele>106.1</ele>
        <time>2022-03-26T12:51:30Z</time>
      </trkpt>
      <trkpt lat="49.50382" lon="1.12015">
        <ele>106.2</ele>
        <time>2022-03-26T12:51:31Z</time>
      </trkpt>
      <trkpt lat="49.50383" lon="1.12015">
        <ele>106.4</ele>
        <time>2022-03-26T12:51:32Z</time>
      </trkpt>
      <trkpt lat="49.50384" lon="1.12016">
        <ele>106.7</ele>
        <time>2022-03-26T12:51:33Z</time>
      </trkpt>
      <trkpt lat="49.50387" lon="1.12017">
        <ele>107.6</ele>
        <time>2022-03-26T12:51:35Z</time>
      </trkpt>
      <trkpt lat="49.50387" lon="1.12017">
        <ele>107.8</ele>
        <time>2022-03-26T12:51:36Z</time>
      </trkpt>
      <trkpt lat="49.50389" lon="1.12017">
        <ele>108.3</ele>
        <time>2022-03-26T12:51:37Z</time>
      </trkpt>
      <trkpt lat="49.5039" lon="1.12016">
        <ele>108.7</ele>
        <time>2022-03-26T12:51:38Z</time>
      </trkpt>
      <trkpt lat="49.50392" lon="1.12015">
        <ele>109.3</ele>
        <time>2022-03-26T12:51:40Z</time>
      </trkpt>
      <trkpt lat="49.50393" lon="1.12014">
        <ele>109.6</ele>
        <time>2022-03-26T12:51:41Z</time>
      </trkpt>
      <trkpt lat="49.50393" lon="1.12014">
        <ele>109.8</ele>
        <time>2022-03-26T12:51:42Z</time>
      </trkpt>
      <trkpt lat="49.50393" lon="1.12013">
        <ele>109.9</ele>
        <time>2022-03-26T12:51:43Z</time>
      </trkpt>
      <trkpt lat="49.50393" lon="1.12013">
        <ele>110.2</ele>
        <time>2022-03-26T12:51:44Z</time>
      </trkpt>
      <trkpt lat="49.50394" lon="1.12013">
        <ele>110.3</ele>
        <time>2022-03-26T12:51:45Z</time>
      </trkpt>
      <trkpt lat="49.50394" lon="1.12013">
        <ele>110.5</ele>
        <time>2022-03-26T12:51:46Z</time>
      </trkpt>
      <trkpt lat="49.50396" lon="1.12013">
        <ele>110.9</ele>
        <time>2022-03-26T12:51:48Z</time>
      </trkpt>
      <trkpt lat="49.50397" lon="1.12013">
        <ele>111.1</ele>
        <time>2022-03-26T12:51:49Z</time>
      </trkpt>
      <trkpt lat="49.50398" lon="1.12013">
        <ele>111.5</ele>
        <time>2022-03-26T12:51:50Z</time>
      </trkpt>
      <trkpt lat="49.50398" lon="1.12013">
        <ele>111.7</ele>
        <time>2022-03-26T12:51:51Z</time>
      </trkpt>
      <trkpt lat="49.50399" lon="1.12013">
        <ele>111.9</ele>
        <time>2022-03-26T12:51:52Z</time>
      </trkpt>
      <trkpt lat="49.50399" lon="1.12013">
        <ele>112.1</ele>
        <time>2022-03-26T12:51:53Z</time>
      </trkpt>
      <trkpt lat="49.504" lon="1.12013">
        <ele>112.2</ele>
        <time>2022-03-26T12:51:55Z</time>
      </trkpt>
      <trkpt lat="49.504" lon="1.12012">
        <ele>112.4</ele>
        <time>2022-03-26T12:51:56Z</time>
      </trkpt>
      <trkpt lat="49.504" lon="1.12011">
        <ele>112.7</ele>
        <time>2022-03-26T12:51:57Z</time>
      </trkpt>
      <trkpt lat="49.50401" lon="1.1201">
        <ele>113</ele>
        <time>2022-03-26T12:51:59Z</time>
      </trkpt>
      <trkpt lat="49.50402" lon="1.12009">
        <ele>113.3</ele>
        <time>2022-03-26T12:52:00Z</time>
      </trkpt>
      <trkpt lat="49.50402" lon="1.12008">
        <ele>113.5</ele>
        <time>2022-03-26T12:52:01Z</time>
      </trkpt>
      <trkpt lat="49.50403" lon="1.12008">
        <ele>113.8</ele>
        <time>2022-03-26T12:52:02Z</time>
      </trkpt>
      <trkpt lat="49.50404" lon="1.12007">
        <ele>114</ele>
        <time>2022-03-26T12:52:03Z</time>
      </trkpt>
      <trkpt lat="49.50404" lon="1.12007">
        <ele>114.3</ele>
        <time>2022-03-26T12:52:05Z</time>
      </trkpt>
      <trkpt lat="49.50405" lon="1.12006">
        <ele>114.6</ele>
        <time>2022-03-26T12:52:06Z</time>
      </trkpt>
      <trkpt lat="49.50406" lon="1.12005">
        <ele>114.9</ele>
        <time>2022-03-26T12:52:07Z</time>
      </trkpt>
      <trkpt lat="49.50407" lon="1.12003">
        <ele>115.3</ele>
        <time>2022-03-26T12:52:08Z</time>
      </trkpt>
      <trkpt lat="49.50407" lon="1.12003">
        <ele>115.4</ele>
        <time>2022-03-26T12:52:09Z</time>
      </trkpt>
      <trkpt lat="49.50407" lon="1.12002">
        <ele>115.5</ele>
        <time>2022-03-26T12:52:10Z</time>
      </trkpt>
      <trkpt lat="49.50407" lon="1.12002">
        <ele>115.5</ele>
        <time>2022-03-26T12:52:11Z</time>
      </trkpt>
      <trkpt lat="49.50406" lon="1.12002">
        <ele>115.8</ele>
        <time>2022-03-26T12:52:13Z</time>
      </trkpt>
      <trkpt lat="49.50406" lon="1.12002">
        <ele>115.8</ele>
        <time>2022-03-26T12:52:14Z</time>
      </trkpt>
      <trkpt lat="49.50406" lon="1.12002">
        <ele>115.8</ele>
        <time>2022-03-26T12:52:15Z</time>
      </trkpt>
      <trkpt lat="49.50406" lon="1.12002">
        <ele>115.8</ele>
        <time>2022-03-26T12:52:16Z</time>
      </trkpt>
      <trkpt lat="49.50406" lon="1.12002">
        <ele>115.9</ele>
        <time>2022-03-26T12:52:18Z</time>
      </trkpt>
      <trkpt lat="49.50406" lon="1.12002">
        <ele>115.9</ele>
        <time>2022-03-26T12:52:19Z</time>
      </trkpt>
      <trkpt lat="49.50405" lon="1.12002">
        <ele>116</ele>
        <time>2022-03-26T12:52:20Z</time>
      </trkpt>
      <trkpt lat="49.50405" lon="1.12002">
        <ele>116</ele>
        <time>2022-03-26T12:52:21Z</time>
      </trkpt>
      <trkpt lat="49.50405" lon="1.12002">
        <ele>116.1</ele>
        <time>2022-03-26T12:52:22Z</time>
      </trkpt>
      <trkpt lat="49.50406" lon="1.12002">
        <ele>116.2</ele>
        <time>2022-03-26T12:52:23Z</time>
      </trkpt>
      <trkpt lat="49.50406" lon="1.12002">
        <ele>116.3</ele>
        <time>2022-03-26T12:52:24Z</time>
      </trkpt>
      <trkpt lat="49.50407" lon="1.12001">
        <ele>116.6</ele>
        <time>2022-03-26T12:52:26Z</time>
      </trkpt>
      <trkpt lat="49.50409" lon="1.12">
        <ele>117.2</ele>
        <time>2022-03-26T12:52:28Z</time>
      </trkpt>
      <trkpt lat="49.5041" lon="1.12001">
        <ele>117.7</ele>
        <time>2022-03-26T12:52:29Z</time>
      </trkpt>
      <trkpt lat="49.50412" lon="1.12001">
        <ele>118.2</ele>
        <time>2022-03-26T12:52:30Z</time>
      </trkpt>
      <trkpt lat="49.50414" lon="1.12003">
        <ele>119.1</ele>
        <time>2022-03-26T12:52:32Z</time>
      </trkpt>
      <trkpt lat="49.50415" lon="1.12004">
        <ele>119.3</ele>
        <time>2022-03-26T12:52:33Z</time>
      </trkpt>
      <trkpt lat="49.50416" lon="1.12005">
        <ele>119.7</ele>
        <time>2022-03-26T12:52:34Z</time>
      </trkpt>
      <trkpt lat="49.50417" lon="1.12006">
        <ele>120.1</ele>
        <time>2022-03-26T12:52:36Z</time>
      </trkpt>
      <trkpt lat="49.50418" lon="1.12007">
        <ele>120.5</ele>
        <time>2022-03-26T12:52:37Z</time>
      </trkpt>
      <trkpt lat="49.50419" lon="1.12007">
        <ele>121</ele>
        <time>2022-03-26T12:52:38Z</time>
      </trkpt>
      <trkpt lat="49.5042" lon="1.12008">
        <ele>121.2</ele>
        <time>2022-03-26T12:52:39Z</time>
      </trkpt>
      <trkpt lat="49.50421" lon="1.12008">
        <ele>121.6</ele>
        <time>2022-03-26T12:52:40Z</time>
      </trkpt>
      <trkpt lat="49.50422" lon="1.12008">
        <ele>121.8</ele>
        <time>2022-03-26T12:52:41Z</time>
      </trkpt>
      <trkpt lat="49.50423" lon="1.12008">
        <ele>122.2</ele>
        <time>2022-03-26T12:52:43Z</time>
      </trkpt>
      <trkpt lat="49.50424" lon="1.12008">
        <ele>122.5</ele>
        <time>2022-03-26T12:52:44Z</time>
      </trkpt>
      <trkpt lat="49.50425" lon="1.12008">
        <ele>122.7</ele>
        <time>2022-03-26T12:52:45Z</time>
      </trkpt>
      <trkpt lat="49.50425" lon="1.12008">
        <ele>123</ele>
        <time>2022-03-26T12:52:46Z</time>
      </trkpt>
      <trkpt lat="49.50426" lon="1.12008">
        <ele>123.2</ele>
        <time>2022-03-26T12:52:47Z</time>
      </trkpt>
      <trkpt lat="49.50427" lon="1.12008">
        <ele>123.5</ele>
        <time>2022-03-26T12:52:49Z</time>
      </trkpt>
      <trkpt lat="49.50428" lon="1.12009">
        <ele>123.9</ele>
        <time>2022-03-26T12:52:50Z</time>
      </trkpt>
      <trkpt lat="49.50429" lon="1.12009">
        <ele>124.1</ele>
        <time>2022-03-26T12:52:51Z</time>
      </trkpt>
      <trkpt lat="49.50429" lon="1.12009">
        <ele>124.2</ele>
        <time>2022-03-26T12:52:52Z</time>
      </trkpt>
      <trkpt lat="49.50429" lon="1.12009">
        <ele>124.3</ele>
        <time>2022-03-26T12:52:53Z</time>
      </trkpt>
      <trkpt lat="49.50429" lon="1.12009">
        <ele>124.5</ele>
        <time>2022-03-26T12:52:55Z</time>
      </trkpt>
      <trkpt lat="49.50429" lon="1.12009">
        <ele>124.6</ele>
        <time>2022-03-26T12:52:56Z</time>
      </trkpt>
      <trkpt lat="49.5043" lon="1.1201">
        <ele>124.8</ele>
        <time>2022-03-26T12:52:57Z</time>
      </trkpt>
      <trkpt lat="49.5043" lon="1.12011">
        <ele>125.1</ele>
        <time>2022-03-26T12:52:58Z</time>
      </trkpt>
      <trkpt lat="49.50431" lon="1.12011">
        <ele>125.3</ele>
        <time>2022-03-26T12:52:59Z</time>
      </trkpt>
      <trkpt lat="49.50431" lon="1.12012">
        <ele>125.4</ele>
        <time>2022-03-26T12:53:00Z</time>
      </trkpt>
      <trkpt lat="49.50431" lon="1.12012">
        <ele>125.4</ele>
        <time>2022-03-26T12:53:01Z</time>
      </trkpt>
      <trkpt lat="49.5043" lon="1.12011">
        <ele>125.7</ele>
        <time>2022-03-26T12:53:03Z</time>
      </trkpt>
      <trkpt lat="49.5043" lon="1.12011">
        <ele>125.8</ele>
        <time>2022-03-26T12:53:04Z</time>
      </trkpt>
      <trkpt lat="49.5043" lon="1.12011">
        <ele>125.8</ele>
        <time>2022-03-26T12:53:05Z</time>
      </trkpt>
      <trkpt lat="49.5043" lon="1.1201">
        <ele>126</ele>
        <time>2022-03-26T12:53:07Z</time>
      </trkpt>
      <trkpt lat="49.5043" lon="1.1201">
        <ele>126.1</ele>
        <time>2022-03-26T12:53:08Z</time>
      </trkpt>
      <trkpt lat="49.5043" lon="1.1201">
        <ele>126.2</ele>
        <time>2022-03-26T12:53:09Z</time>
      </trkpt>
      <trkpt lat="49.5043" lon="1.1201">
        <ele>126.3</ele>
        <time>2022-03-26T12:53:10Z</time>
      </trkpt>
      <trkpt lat="49.50431" lon="1.12009">
        <ele>126.4</ele>
        <time>2022-03-26T12:53:11Z</time>
      </trkpt>
      <trkpt lat="49.50431" lon="1.12009">
        <ele>126.6</ele>
        <time>2022-03-26T12:53:12Z</time>
      </trkpt>
      <trkpt lat="49.50431" lon="1.12008">
        <ele>126.8</ele>
        <time>2022-03-26T12:53:13Z</time>
      </trkpt>
      <trkpt lat="49.50432" lon="1.12008">
        <ele>127</ele>
        <time>2022-03-26T12:53:14Z</time>
      </trkpt>
      <trkpt lat="49.50433" lon="1.12007">
        <ele>127.3</ele>
        <time>2022-03-26T12:53:16Z</time>
      </trkpt>
      <trkpt lat="49.50434" lon="1.12005">
        <ele>127.7</ele>
        <time>2022-03-26T12:53:17Z</time>
      </trkpt>
      <trkpt lat="49.50434" lon="1.12004">
        <ele>128.1</ele>
        <time>2022-03-26T12:53:18Z</time>
      </trkpt>
      <trkpt lat="49.50435" lon="1.12004">
        <ele>128.3</ele>
        <time>2022-03-26T12:53:19Z</time>
      </trkpt>
      <trkpt lat="49.50435" lon="1.12003">
        <ele>128.5</ele>
        <time>2022-03-26T12:53:20Z</time>
      </trkpt>
      <trkpt lat="49.50436" lon="1.12003">
        <ele>128.7</ele>
        <time>2022-03-26T12:53:21Z</time>
      </trkpt>
      <trkpt lat="49.50437" lon="1.12002">
        <ele>129</ele>
        <time>2022-03-26T12:53:23Z</time>
      </trkpt>
      <trkpt lat="49.50437" lon="1.12002">
        <ele>129.2</ele>
        <time>2022-03-26T12:53:24Z</time>
      </trkpt>
      <trkpt lat="49.50438" lon="1.12001">
        <ele>129.4</ele>
        <time>2022-03-26T12:53:25Z</time>
      </trkpt>
      <trkpt lat="49.50438" lon="1.12001">
        <ele>129.6</ele>
        <time>2022-03-26T12:53:26Z</time>
      </trkpt>
      <trkpt lat="49.50439" lon="1.12">
        <ele>129.9</ele>
        <time>2022-03-26T12:53:27Z</time>
      </trkpt>
      <trkpt lat="49.5044" lon="1.12">
        <ele>130.2</ele>
        <time>2022-03-26T12:53:28Z</time>
      </trkpt>
      <trkpt lat="49.50441" lon="1.11999">
        <ele>130.5</ele>
        <time>2022-03-26T12:53:29Z</time>
      </trkpt>
      <trkpt lat="49.50442" lon="1.11999">
        <ele>130.9</ele>
        <time>2022-03-26T12:53:31Z</time>
      </trkpt>
      <trkpt lat="49.50443" lon="1.11998">
        <ele>131.3</ele>
        <time>2022-03-26T12:53:32Z</time>
      </trkpt>
      <trkpt lat="49.50445" lon="1.11999">
        <ele>131.7</ele>
        <time>2022-03-26T12:53:33Z</time>
      </trkpt>
      <trkpt lat="49.50446" lon="1.12">
        <ele>132.2</ele>
        <time>2022-03-26T12:53:35Z</time>
      </trkpt>
      <trkpt lat="49.50446" lon="1.12001">
        <ele>132.4</ele>
        <time>2022-03-26T12:53:36Z</time>
      </trkpt>
      <trkpt lat="49.50447" lon="1.12002">
        <ele>132.7</ele>
        <time>2022-03-26T12:53:37Z</time>
      </trkpt>
      <trkpt lat="49.50448" lon="1.12003">
        <ele>133.1</ele>
        <time>2022-03-26T12:53:38Z</time>
      </trkpt>
      <trkpt lat="49.50449" lon="1.12004">
        <ele>133.4</ele>
        <time>2022-03-26T12:53:39Z</time>
      </trkpt>
      <trkpt lat="49.50449" lon="1.12005">
        <ele>133.7</ele>
        <time>2022-03-26T12:53:41Z</time>
      </trkpt>
      <trkpt lat="49.5045" lon="1.12005">
        <ele>134</ele>
        <time>2022-03-26T12:53:42Z</time>
      </trkpt>
      <trkpt lat="49.50451" lon="1.12005">
        <ele>134.3</ele>
        <time>2022-03-26T12:53:43Z</time>
      </trkpt>
      <trkpt lat="49.50453" lon="1.12005">
        <ele>134.6</ele>
        <time>2022-03-26T12:53:44Z</time>
      </trkpt>
      <trkpt lat="49.50453" lon="1.12005">
        <ele>134.9</ele>
        <time>2022-03-26T12:53:45Z</time>
      </trkpt>
      <trkpt lat="49.50455" lon="1.12005">
        <ele>135.4</ele>
        <time>2022-03-26T12:53:47Z</time>
      </trkpt>
      <trkpt lat="49.50456" lon="1.12005">
        <ele>135.7</ele>
        <time>2022-03-26T12:53:48Z</time>
      </trkpt>
      <trkpt lat="49.50456" lon="1.12005">
        <ele>135.9</ele>
        <time>2022-03-26T12:53:49Z</time>
      </trkpt>
      <trkpt lat="49.50456" lon="1.12006">
        <ele>135.9</ele>
        <time>2022-03-26T12:53:50Z</time>
      </trkpt>
      <trkpt lat="49.50456" lon="1.12006">
        <ele>136</ele>
        <time>2022-03-26T12:53:51Z</time>
      </trkpt>
      <trkpt lat="49.50456" lon="1.12006">
        <ele>136</ele>
        <time>2022-03-26T12:53:52Z</time>
      </trkpt>
      <trkpt lat="49.50456" lon="1.12006">
        <ele>136.1</ele>
        <time>2022-03-26T12:53:53Z</time>
      </trkpt>
      <trkpt lat="49.50456" lon="1.12006">
        <ele>136.1</ele>
        <time>2022-03-26T12:53:54Z</time>
      </trkpt>
      <trkpt lat="49.50456" lon="1.12006">
        <ele>136.2</ele>
        <time>2022-03-26T12:53:55Z</time>
      </trkpt>
      <trkpt lat="49.50456" lon="1.12006">
        <ele>136.2</ele>
        <time>2022-03-26T12:53:56Z</time>
      </trkpt>
      <trkpt lat="49.50456" lon="1.12006">
        <ele>136.2</ele>
        <time>2022-03-26T12:53:57Z</time>
      </trkpt>
      <trkpt lat="49.50456" lon="1.12006">
        <ele>136.3</ele>
        <time>2022-03-26T12:53:58Z</time>
      </trkpt>
      <trkpt lat="49.50456" lon="1.12006">
        <ele>136.3</ele>
        <time>2022-03-26T12:53:59Z</time>
      </trkpt>
      <trkpt lat="49.50456" lon="1.12006">
        <ele>136.3</ele>
        <time>2022-03-26T12:54:00Z</time>
      </trkpt>
      <trkpt lat="49.50456" lon="1.12006">
        <ele>136.4</ele>
        <time>2022-03-26T12:54:02Z</time>
      </trkpt>
      <trkpt lat="49.50457" lon="1.12006">
        <ele>136.6</ele>
        <time>2022-03-26T12:54:03Z</time>
      </trkpt>
      <trkpt lat="49.50457" lon="1.12007">
        <ele>136.8</ele>
        <time>2022-03-26T12:54:04Z</time>
      </trkpt>
      <trkpt lat="49.50458" lon="1.12008">
        <ele>137</ele>
        <time>2022-03-26T12:54:05Z</time>
      </trkpt>
      <trkpt lat="49.50458" lon="1.12008">
        <ele>137.2</ele>
        <time>2022-03-26T12:54:06Z</time>
      </trkpt>
      <trkpt lat="49.50458" lon="1.12009">
        <ele>137.3</ele>
        <time>2022-03-26T12:54:08Z</time>
      </trkpt>
      <trkpt lat="49.50459" lon="1.1201">
        <ele>137.5</ele>
        <time>2022-03-26T12:54:09Z</time>
      </trkpt>
      <trkpt lat="49.50459" lon="1.12009">
        <ele>137.7</ele>
        <time>2022-03-26T12:54:10Z</time>
      </trkpt>
      <trkpt lat="49.50459" lon="1.12008">
        <ele>137.8</ele>
        <time>2022-03-26T12:54:11Z</time>
      </trkpt>
      <trkpt lat="49.5046" lon="1.12007">
        <ele>138.1</ele>
        <time>2022-03-26T12:54:13Z</time>
      </trkpt>
      <trkpt lat="49.5046" lon="1.12006">
        <ele>138.4</ele>
        <time>2022-03-26T12:54:14Z</time>
      </trkpt>
      <trkpt lat="49.50461" lon="1.12005">
        <ele>138.6</ele>
        <time>2022-03-26T12:54:15Z</time>
      </trkpt>
      <trkpt lat="49.50462" lon="1.12005">
        <ele>138.8</ele>
        <time>2022-03-26T12:54:16Z</time>
      </trkpt>
      <trkpt lat="49.50462" lon="1.12004">
        <ele>139</ele>
        <time>2022-03-26T12:54:17Z</time>
      </trkpt>
      <trkpt lat="49.50463" lon="1.12004">
        <ele>139.3</ele>
        <time>2022-03-26T12:54:19Z</time>
      </trkpt>
      <trkpt lat="49.50464" lon="1.12004">
        <ele>139.6</ele>
        <time>2022-03-26T12:54:20Z</time>
      </trkpt>
      <trkpt lat="49.50465" lon="1.12004">
        <ele>139.8</ele>
        <time>2022-03-26T12:54:21Z</time>
      </trkpt>
      <trkpt lat="49.50466" lon="1.12004">
        <ele>140.2</ele>
        <time>2022-03-26T12:54:22Z</time>
      </trkpt>
      <trkpt lat="49.50467" lon="1.12004">
        <ele>140.5</ele>
        <time>2022-03-26T12:54:23Z</time>
      </trkpt>
      <trkpt lat="49.50468" lon="1.12004">
        <ele>140.7</ele>
        <time>2022-03-26T12:54:25Z</time>
      </trkpt>
      <trkpt lat="49.50469" lon="1.12004">
        <ele>141</ele>
        <time>2022-03-26T12:54:26Z</time>
      </trkpt>
      <trkpt lat="49.5047" lon="1.12004">
        <ele>141.3</ele>
        <time>2022-03-26T12:54:27Z</time>
      </trkpt>
      <trkpt lat="49.50471" lon="1.12004">
        <ele>141.6</ele>
        <time>2022-03-26T12:54:28Z</time>
      </trkpt>
      <trkpt lat="49.50472" lon="1.12004">
        <ele>141.8</ele>
        <time>2022-03-26T12:54:29Z</time>
      </trkpt>
      <trkpt lat="49.50473" lon="1.12004">
        <ele>142.1</ele>
        <time>2022-03-26T12:54:30Z</time>
      </trkpt>
      <trkpt lat="49.50474" lon="1.12005">
        <ele>142.4</ele>
        <time>2022-03-26T12:54:32Z</time>
      </trkpt>
      <trkpt lat="49.50475" lon="1.12005">
        <ele>142.7</ele>
        <time>2022-03-26T12:54:33Z</time>
      </trkpt>
      <trkpt lat="49.50477" lon="1.12006">
        <ele>143.3</ele>
        <time>2022-03-26T12:54:34Z</time>
      </trkpt>
      <trkpt lat="49.50478" lon="1.12006">
        <ele>143.5</ele>
        <time>2022-03-26T12:54:35Z</time>
      </trkpt>
      <trkpt lat="49.50479" lon="1.12006">
        <ele>143.7</ele>
        <time>2022-03-26T12:54:36Z</time>
      </trkpt>
      <trkpt lat="49.50479" lon="1.12007">
        <ele>143.9</ele>
        <time>2022-03-26T12:54:37Z</time>
      </trkpt>
      <trkpt lat="49.5048" lon="1.12007">
        <ele>144.2</ele>
        <time>2022-03-26T12:54:39Z</time>
      </trkpt>
      <trkpt lat="49.50481" lon="1.12008">
        <ele>144.4</ele>
        <time>2022-03-26T12:54:40Z</time>
      </trkpt>
      <trkpt lat="49.50482" lon="1.12008">
        <ele>144.7</ele>
        <time>2022-03-26T12:54:41Z</time>
      </trkpt>
      <trkpt lat="49.50482" lon="1.12009">
        <ele>144.8</ele>
        <time>2022-03-26T12:54:43Z</time>
      </trkpt>
      <trkpt lat="49.50482" lon="1.12009">
        <ele>144.9</ele>
        <time>2022-03-26T12:54:44Z</time>
      </trkpt>
      <trkpt lat="49.50483" lon="1.1201">
        <ele>145.2</ele>
        <time>2022-03-26T12:54:45Z</time>
      </trkpt>
      <trkpt lat="49.50484" lon="1.12011">
        <ele>145.4</ele>
        <time>2022-03-26T12:54:46Z</time>
      </trkpt>
      <trkpt lat="49.50484" lon="1.12012">
        <ele>145.7</ele>
        <time>2022-03-26T12:54:47Z</time>
      </trkpt>
      <trkpt lat="49.50485" lon="1.12012">
        <ele>145.9</ele>
        <time>2022-03-26T12:54:48Z</time>
      </trkpt>
      <trkpt lat="49.50485" lon="1.12013">
        <ele>146</ele>
        <time>2022-03-26T12:54:50Z</time>
      </trkpt>
      <trkpt lat="49.50486" lon="1.12013">
        <ele>146.2</ele>
        <time>2022-03-26T12:54:51Z</time>
      </trkpt>
      <trkpt lat="49.50487" lon="1.12013">
        <ele>146.5</ele>
        <time>2022-03-26T12:54:52Z</time>
      </trkpt>
      <trkpt lat="49.50489" lon="1.12012">
        <ele>147</ele>
        <time>2022-03-26T12:54:53Z</time>
      </trkpt>
      <trkpt lat="49.5049" lon="1.12011">
        <ele>147.3</ele>
        <time>2022-03-26T12:54:54Z</time>
      </trkpt>
      <trkpt lat="49.50491" lon="1.1201">
        <ele>147.7</ele>
        <time>2022-03-26T12:54:56Z</time>
      </trkpt>
      <trkpt lat="49.50492" lon="1.12009">
        <ele>148.2</ele>
        <time>2022-03-26T12:54:57Z</time>
      </trkpt>
      <trkpt lat="49.50494" lon="1.12006">
        <ele>148.9</ele>
        <time>2022-03-26T12:54:59Z</time>
      </trkpt>
      <trkpt lat="49.50495" lon="1.12006">
        <ele>149</ele>
        <time>2022-03-26T12:55:00Z</time>
      </trkpt>
      <trkpt lat="49.50496" lon="1.12005">
        <ele>149.3</ele>
        <time>2022-03-26T12:55:02Z</time>
      </trkpt>
      <trkpt lat="49.50495" lon="1.12004">
        <ele>149.4</ele>
        <time>2022-03-26T12:55:03Z</time>
      </trkpt>
      <trkpt lat="49.50496" lon="1.12003">
        <ele>149.6</ele>
        <time>2022-03-26T12:55:04Z</time>
      </trkpt>
      <trkpt lat="49.50495" lon="1.12003">
        <ele>149.6</ele>
        <time>2022-03-26T12:55:05Z</time>
      </trkpt>
      <trkpt lat="49.50495" lon="1.12003">
        <ele>149.6</ele>
        <time>2022-03-26T12:55:06Z</time>
      </trkpt>
      <trkpt lat="49.50495" lon="1.12003">
        <ele>149.7</ele>
        <time>2022-03-26T12:55:08Z</time>
      </trkpt>
      <trkpt lat="49.50496" lon="1.12003">
        <ele>149.9</ele>
        <time>2022-03-26T12:55:09Z</time>
      </trkpt>
      <trkpt lat="49.50497" lon="1.12003">
        <ele>150.1</ele>
        <time>2022-03-26T12:55:10Z</time>
      </trkpt>
      <trkpt lat="49.50499" lon="1.12003">
        <ele>150.5</ele>
        <time>2022-03-26T12:55:11Z</time>
      </trkpt>
      <trkpt lat="49.505" lon="1.12004">
        <ele>150.7</ele>
        <time>2022-03-26T12:55:12Z</time>
      </trkpt>
      <trkpt lat="49.50501" lon="1.12004">
        <ele>150.9</ele>
        <time>2022-03-26T12:55:13Z</time>
      </trkpt>
      <trkpt lat="49.50504" lon="1.12004">
        <ele>151.7</ele>
        <time>2022-03-26T12:55:14Z</time>
      </trkpt>
      <trkpt lat="49.50505" lon="1.12003">
        <ele>151.8</ele>
        <time>2022-03-26T12:55:15Z</time>
      </trkpt>
      <trkpt lat="49.50508" lon="1.12002">
        <ele>152.4</ele>
        <time>2022-03-26T12:55:17Z</time>
      </trkpt>
      <trkpt lat="49.50509" lon="1.12002">
        <ele>152.5</ele>
        <time>2022-03-26T12:55:18Z</time>
      </trkpt>
      <trkpt lat="49.5051" lon="1.12003">
        <ele>152.8</ele>
        <time>2022-03-26T12:55:19Z</time>
      </trkpt>
      <trkpt lat="49.50512" lon="1.12003">
        <ele>153.2</ele>
        <time>2022-03-26T12:55:21Z</time>
      </trkpt>
      <trkpt lat="49.50513" lon="1.12004">
        <ele>153.4</ele>
        <time>2022-03-26T12:55:22Z</time>
      </trkpt>
      <trkpt lat="49.50514" lon="1.12004">
        <ele>153.5</ele>
        <time>2022-03-26T12:55:23Z</time>
      </trkpt>
      <trkpt lat="49.50516" lon="1.12005">
        <ele>153.7</ele>
        <time>2022-03-26T12:55:24Z</time>
      </trkpt>
      <trkpt lat="49.50517" lon="1.12006">
        <ele>153.9</ele>
        <time>2022-03-26T12:55:25Z</time>
      </trkpt>
      <trkpt lat="49.50519" lon="1.12007">
        <ele>154.2</ele>
        <time>2022-03-26T12:55:27Z</time>
      </trkpt>
      <trkpt lat="49.50521" lon="1.12008">
        <ele>154.5</ele>
        <time>2022-03-26T12:55:28Z</time>
      </trkpt>
      <trkpt lat="49.50522" lon="1.12008">
        <ele>154.6</ele>
        <time>2022-03-26T12:55:29Z</time>
      </trkpt>
      <trkpt lat="49.50522" lon="1.12007">
        <ele>154.6</ele>
        <time>2022-03-26T12:55:30Z</time>
      </trkpt>
      <trkpt lat="49.50523" lon="1.12007">
        <ele>154.7</ele>
        <time>2022-03-26T12:55:31Z</time>
      </trkpt>
      <trkpt lat="49.50526" lon="1.12009">
        <ele>155</ele>
        <time>2022-03-26T12:55:32Z</time>
      </trkpt>
      <trkpt lat="49.50527" lon="1.12009">
        <ele>155.2</ele>
        <time>2022-03-26T12:55:33Z</time>
      </trkpt>
      <trkpt lat="49.5053" lon="1.1201">
        <ele>155.5</ele>
        <time>2022-03-26T12:55:34Z</time>
      </trkpt>
      <trkpt lat="49.50531" lon="1.12011">
        <ele>155.7</ele>
        <time>2022-03-26T12:55:35Z</time>
      </trkpt>
      <trkpt lat="49.50533" lon="1.12012">
        <ele>155.8</ele>
        <time>2022-03-26T12:55:36Z</time>
      </trkpt>
      <trkpt lat="49.50534" lon="1.12014">
        <ele>155.9</ele>
        <time>2022-03-26T12:55:38Z</time>
      </trkpt>
      <trkpt lat="49.50535" lon="1.12015">
        <ele>156.1</ele>
        <time>2022-03-26T12:55:39Z</time>
      </trkpt>
      <trkpt lat="49.50536" lon="1.12016">
        <ele>156.2</ele>
        <time>2022-03-26T12:55:40Z</time>
      </trkpt>
      <trkpt lat="49.50538" lon="1.12018">
        <ele>156.4</ele>
        <time>2022-03-26T12:55:42Z</time>
      </trkpt>
      <trkpt lat="49.50539" lon="1.12018">
        <ele>156.5</ele>
        <time>2022-03-26T12:55:43Z</time>
      </trkpt>
      <trkpt lat="49.50541" lon="1.12019">
        <ele>156.6</ele>
        <time>2022-03-26T12:55:44Z</time>
      </trkpt>
      <trkpt lat="49.50542" lon="1.1202">
        <ele>156.7</ele>
        <time>2022-03-26T12:55:45Z</time>
      </trkpt>
      <trkpt lat="49.50544" lon="1.1202">
        <ele>156.9</ele>
        <time>2022-03-26T12:55:47Z</time>
      </trkpt>
      <trkpt lat="49.50546" lon="1.12021">
        <ele>157.1</ele>
        <time>2022-03-26T12:55:48Z</time>
      </trkpt>
      <trkpt lat="49.50548" lon="1.12021">
        <ele>157.2</ele>
        <time>2022-03-26T12:55:49Z</time>
      </trkpt>
      <trkpt lat="49.5055" lon="1.12021">
        <ele>157.4</ele>
        <time>2022-03-26T12:55:50Z</time>
      </trkpt>
      <trkpt lat="49.50551" lon="1.12022">
        <ele>157.5</ele>
        <time>2022-03-26T12:55:51Z</time>
      </trkpt>
      <trkpt lat="49.50553" lon="1.12024">
        <ele>157.6</ele>
        <time>2022-03-26T12:55:52Z</time>
      </trkpt>
      <trkpt lat="49.50554" lon="1.12025">
        <ele>157.7</ele>
        <time>2022-03-26T12:55:53Z</time>
      </trkpt>
      <trkpt lat="49.50555" lon="1.12026">
        <ele>157.8</ele>
        <time>2022-03-26T12:55:54Z</time>
      </trkpt>
      <trkpt lat="49.50555" lon="1.12027">
        <ele>157.9</ele>
        <time>2022-03-26T12:55:55Z</time>
      </trkpt>
      <trkpt lat="49.50555" lon="1.12028">
        <ele>157.9</ele>
        <time>2022-03-26T12:55:56Z</time>
      </trkpt>
      <trkpt lat="49.50555" lon="1.12029">
        <ele>158</ele>
        <time>2022-03-26T12:55:57Z</time>
      </trkpt>
      <trkpt lat="49.50555" lon="1.1203">
        <ele>158.1</ele>
        <time>2022-03-26T12:55:58Z</time>
      </trkpt>
      <trkpt lat="49.50555" lon="1.12031">
        <ele>158.1</ele>
        <time>2022-03-26T12:55:59Z</time>
      </trkpt>
      <trkpt lat="49.50556" lon="1.12032">
        <ele>158.2</ele>
        <time>2022-03-26T12:56:01Z</time>
      </trkpt>
      <trkpt lat="49.50557" lon="1.12033">
        <ele>158.3</ele>
        <time>2022-03-26T12:56:02Z</time>
      </trkpt>
      <trkpt lat="49.50558" lon="1.12035">
        <ele>158.4</ele>
        <time>2022-03-26T12:56:04Z</time>
      </trkpt>
      <trkpt lat="49.50559" lon="1.12035">
        <ele>158.4</ele>
        <time>2022-03-26T12:56:05Z</time>
      </trkpt>
      <trkpt lat="49.50559" lon="1.12035">
        <ele>158.5</ele>
        <time>2022-03-26T12:56:06Z</time>
      </trkpt>
      <trkpt lat="49.50561" lon="1.12036">
        <ele>158.6</ele>
        <time>2022-03-26T12:56:07Z</time>
      </trkpt>
      <trkpt lat="49.50563" lon="1.12037">
        <ele>158.7</ele>
        <time>2022-03-26T12:56:08Z</time>
      </trkpt>
      <trkpt lat="49.50564" lon="1.12038">
        <ele>158.8</ele>
        <time>2022-03-26T12:56:09Z</time>
      </trkpt>
      <trkpt lat="49.50567" lon="1.12039">
        <ele>159</ele>
        <time>2022-03-26T12:56:10Z</time>
      </trkpt>
      <trkpt lat="49.50568" lon="1.12039">
        <ele>159.1</ele>
        <time>2022-03-26T12:56:11Z</time>
      </trkpt>
      <trkpt lat="49.50571" lon="1.1204">
        <ele>159.3</ele>
        <time>2022-03-26T12:56:12Z</time>
      </trkpt>
      <trkpt lat="49.50581" lon="1.12044">
        <ele>159.8</ele>
        <time>2022-03-26T12:56:13Z</time>
      </trkpt>
      <trkpt lat="49.50587" lon="1.12047">
        <ele>160.1</ele>
        <time>2022-03-26T12:56:14Z</time>
      </trkpt>
      <trkpt lat="49.50588" lon="1.12047">
        <ele>160.1</ele>
        <time>2022-03-26T12:56:15Z</time>
      </trkpt>
      <trkpt lat="49.50589" lon="1.12047">
        <ele>160.2</ele>
        <time>2022-03-26T12:56:16Z</time>
      </trkpt>
      <trkpt lat="49.50589" lon="1.12048">
        <ele>160.2</ele>
        <time>2022-03-26T12:56:17Z</time>
      </trkpt>
      <trkpt lat="49.50589" lon="1.12048">
        <ele>160.2</ele>
        <time>2022-03-26T12:56:18Z</time>
      </trkpt>
      <trkpt lat="49.50589" lon="1.12048">
        <ele>160.2</ele>
        <time>2022-03-26T12:56:19Z</time>
      </trkpt>
      <trkpt lat="49.50589" lon="1.12048">
        <ele>160.2</ele>
        <time>2022-03-26T12:56:20Z</time>
      </trkpt>
      <trkpt lat="49.50589" lon="1.12047">
        <ele>160.2</ele>
        <time>2022-03-26T12:56:21Z</time>
      </trkpt>
      <trkpt lat="49.50589" lon="1.12047">
        <ele>160.2</ele>
        <time>2022-03-26T12:56:22Z</time>
      </trkpt>
      <trkpt lat="49.50591" lon="1.12047">
        <ele>160.2</ele>
        <time>2022-03-26T12:56:24Z</time>
      </trkpt>
      <trkpt lat="49.50592" lon="1.12047">
        <ele>160.3</ele>
        <time>2022-03-26T12:56:25Z</time>
      </trkpt>
      <trkpt lat="49.50592" lon="1.12047">
        <ele>160.3</ele>
        <time>2022-03-26T12:56:26Z</time>
      </trkpt>
      <trkpt lat="49.50592" lon="1.12047">
        <ele>160.3</ele>
        <time>2022-03-26T12:56:27Z</time>
      </trkpt>
      <trkpt lat="49.50591" lon="1.12047">
        <ele>160.3</ele>
        <time>2022-03-26T12:56:28Z</time>
      </trkpt>
      <trkpt lat="49.50591" lon="1.12046">
        <ele>160.3</ele>
        <time>2022-03-26T12:56:29Z</time>
      </trkpt>
      <trkpt lat="49.50591" lon="1.12046">
        <ele>160.3</ele>
        <time>2022-03-26T12:56:30Z</time>
      </trkpt>
      <trkpt lat="49.50591" lon="1.12046">
        <ele>160.3</ele>
        <time>2022-03-26T12:56:31Z</time>
      </trkpt>
      <trkpt lat="49.50591" lon="1.12046">
        <ele>160.4</ele>
        <time>2022-03-26T12:56:32Z</time>
      </trkpt>
      <trkpt lat="49.50592" lon="1.12046">
        <ele>160.4</ele>
        <time>2022-03-26T12:56:34Z</time>
      </trkpt>
      <trkpt lat="49.50592" lon="1.12046">
        <ele>160.4</ele>
        <time>2022-03-26T12:56:35Z</time>
      </trkpt>
      <trkpt lat="49.50592" lon="1.12046">
        <ele>160.4</ele>
        <time>2022-03-26T12:56:36Z</time>
      </trkpt>
      <trkpt lat="49.50592" lon="1.12046">
        <ele>160.4</ele>
        <time>2022-03-26T12:56:37Z</time>
      </trkpt>
      <trkpt lat="49.50592" lon="1.12046">
        <ele>160.4</ele>
        <time>2022-03-26T12:56:39Z</time>
      </trkpt>
      <trkpt lat="49.50592" lon="1.12046">
        <ele>160.4</ele>
        <time>2022-03-26T12:56:40Z</time>
      </trkpt>
      <trkpt lat="49.5059" lon="1.12048">
        <ele>160.5</ele>
        <time>2022-03-26T12:56:41Z</time>
      </trkpt>
      <trkpt lat="49.50589" lon="1.1205">
        <ele>160.6</ele>
        <time>2022-03-26T12:56:42Z</time>
      </trkpt>
      <trkpt lat="49.50588" lon="1.12053">
        <ele>160.6</ele>
        <time>2022-03-26T12:56:43Z</time>
      </trkpt>
      <trkpt lat="49.50588" lon="1.12055">
        <ele>160.7</ele>
        <time>2022-03-26T12:56:44Z</time>
      </trkpt>
      <trkpt lat="49.5059" lon="1.12058">
        <ele>160.8</ele>
        <time>2022-03-26T12:56:45Z</time>
      </trkpt>
      <trkpt lat="49.50591" lon="1.12058">
        <ele>160.8</ele>
        <time>2022-03-26T12:56:46Z</time>
      </trkpt>
      <trkpt lat="49.50592" lon="1.12059">
        <ele>160.8</ele>
        <time>2022-03-26T12:56:47Z</time>
      </trkpt>
      <trkpt lat="49.50593" lon="1.12058">
        <ele>160.9</ele>
        <time>2022-03-26T12:56:48Z</time>
      </trkpt>
      <trkpt lat="49.50596" lon="1.12059">
        <ele>161</ele>
        <time>2022-03-26T12:56:50Z</time>
      </trkpt>
      <trkpt lat="49.50599" lon="1.12059">
        <ele>161.1</ele>
        <time>2022-03-26T12:56:51Z</time>
      </trkpt>
      <trkpt lat="49.50601" lon="1.12059">
        <ele>161.2</ele>
        <time>2022-03-26T12:56:52Z</time>
      </trkpt>
      <trkpt lat="49.50605" lon="1.1206">
        <ele>161.3</ele>
        <time>2022-03-26T12:56:53Z</time>
      </trkpt>
      <trkpt lat="49.50606" lon="1.1206">
        <ele>161.4</ele>
        <time>2022-03-26T12:56:54Z</time>
      </trkpt>
      <trkpt lat="49.50609" lon="1.1206">
        <ele>161.5</ele>
        <time>2022-03-26T12:56:55Z</time>
      </trkpt>
      <trkpt lat="49.50613" lon="1.12058">
        <ele>161.6</ele>
        <time>2022-03-26T12:56:56Z</time>
      </trkpt>
      <trkpt lat="49.50614" lon="1.12058">
        <ele>161.7</ele>
        <time>2022-03-26T12:56:57Z</time>
      </trkpt>
      <trkpt lat="49.50617" lon="1.12057">
        <ele>161.8</ele>
        <time>2022-03-26T12:56:58Z</time>
      </trkpt>
      <trkpt lat="49.50619" lon="1.12057">
        <ele>161.8</ele>
        <time>2022-03-26T12:56:59Z</time>
      </trkpt>
      <trkpt lat="49.50623" lon="1.12056">
        <ele>161.9</ele>
        <time>2022-03-26T12:57:01Z</time>
      </trkpt>
      <trkpt lat="49.50627" lon="1.12057">
        <ele>162</ele>
        <time>2022-03-26T12:57:02Z</time>
      </trkpt>
      <trkpt lat="49.50628" lon="1.12057">
        <ele>162.1</ele>
        <time>2022-03-26T12:57:03Z</time>
      </trkpt>
      <trkpt lat="49.50632" lon="1.12058">
        <ele>162.2</ele>
        <time>2022-03-26T12:57:05Z</time>
      </trkpt>
      <trkpt lat="49.50635" lon="1.12059">
        <ele>162.3</ele>
        <time>2022-03-26T12:57:06Z</time>
      </trkpt>
      <trkpt lat="49.50639" lon="1.1206">
        <ele>162.4</ele>
        <time>2022-03-26T12:57:07Z</time>
      </trkpt>
      <trkpt lat="49.5064" lon="1.1206">
        <ele>162.4</ele>
        <time>2022-03-26T12:57:08Z</time>
      </trkpt>
      <trkpt lat="49.50643" lon="1.12061">
        <ele>162.5</ele>
        <time>2022-03-26T12:57:09Z</time>
      </trkpt>
      <trkpt lat="49.50644" lon="1.12061">
        <ele>162.5</ele>
        <time>2022-03-26T12:57:10Z</time>
      </trkpt>
      <trkpt lat="49.50648" lon="1.12062">
        <ele>162.6</ele>
        <time>2022-03-26T12:57:12Z</time>
      </trkpt>
      <trkpt lat="49.50651" lon="1.12063">
        <ele>162.7</ele>
        <time>2022-03-26T12:57:13Z</time>
      </trkpt>
      <trkpt lat="49.50655" lon="1.12064">
        <ele>162.8</ele>
        <time>2022-03-26T12:57:14Z</time>
      </trkpt>
      <trkpt lat="49.50659" lon="1.12064">
        <ele>162.9</ele>
        <time>2022-03-26T12:57:15Z</time>
      </trkpt>
      <trkpt lat="49.5066" lon="1.12064">
        <ele>162.9</ele>
        <time>2022-03-26T12:57:16Z</time>
      </trkpt>
      <trkpt lat="49.50663" lon="1.12065">
        <ele>163</ele>
        <time>2022-03-26T12:57:17Z</time>
      </trkpt>
      <trkpt lat="49.50665" lon="1.12066">
        <ele>163</ele>
        <time>2022-03-26T12:57:18Z</time>
      </trkpt>
      <trkpt lat="49.5067" lon="1.12067">
        <ele>163.1</ele>
        <time>2022-03-26T12:57:20Z</time>
      </trkpt>
      <trkpt lat="49.50673" lon="1.12069">
        <ele>163.2</ele>
        <time>2022-03-26T12:57:21Z</time>
      </trkpt>
      <trkpt lat="49.50675" lon="1.1207">
        <ele>163.3</ele>
        <time>2022-03-26T12:57:22Z</time>
      </trkpt>
      <trkpt lat="49.50678" lon="1.12071">
        <ele>163.3</ele>
        <time>2022-03-26T12:57:23Z</time>
      </trkpt>
      <trkpt lat="49.50681" lon="1.12072">
        <ele>163.4</ele>
        <time>2022-03-26T12:57:24Z</time>
      </trkpt>
      <trkpt lat="49.50682" lon="1.12072">
        <ele>163.4</ele>
        <time>2022-03-26T12:57:25Z</time>
      </trkpt>
      <trkpt lat="49.50685" lon="1.12073">
        <ele>163.5</ele>
        <time>2022-03-26T12:57:26Z</time>
      </trkpt>
      <trkpt lat="49.50687" lon="1.12074">
        <ele>163.5</ele>
        <time>2022-03-26T12:57:27Z</time>
      </trkpt>
      <trkpt lat="49.5069" lon="1.12075">
        <ele>163.6</ele>
        <time>2022-03-26T12:57:28Z</time>
      </trkpt>
      <trkpt lat="49.50695" lon="1.12077">
        <ele>163.7</ele>
        <time>2022-03-26T12:57:29Z</time>
      </trkpt>
      <trkpt lat="49.50697" lon="1.12078">
        <ele>163.8</ele>
        <time>2022-03-26T12:57:30Z</time>
      </trkpt>
      <trkpt lat="49.507" lon="1.12078">
        <ele>163.8</ele>
        <time>2022-03-26T12:57:31Z</time>
      </trkpt>
      <trkpt lat="49.50701" lon="1.12079">
        <ele>163.8</ele>
        <time>2022-03-26T12:57:32Z</time>
      </trkpt>
      <trkpt lat="49.50702" lon="1.12078">
        <ele>163.9</ele>
        <time>2022-03-26T12:57:33Z</time>
      </trkpt>
      <trkpt lat="49.50704" lon="1.12079">
        <ele>163.9</ele>
        <time>2022-03-26T12:57:34Z</time>
      </trkpt>
      <trkpt lat="49.50705" lon="1.1208">
        <ele>163.9</ele>
        <time>2022-03-26T12:57:35Z</time>
      </trkpt>
      <trkpt lat="49.50706" lon="1.12081">
        <ele>163.9</ele>
        <time>2022-03-26T12:57:36Z</time>
      </trkpt>
      <trkpt lat="49.50708" lon="1.12082">
        <ele>164</ele>
        <time>2022-03-26T12:57:37Z</time>
      </trkpt>
      <trkpt lat="49.50709" lon="1.12081">
        <ele>164</ele>
        <time>2022-03-26T12:57:38Z</time>
      </trkpt>
      <trkpt lat="49.50713" lon="1.12078">
        <ele>164</ele>
        <time>2022-03-26T12:57:40Z</time>
      </trkpt>
      <trkpt lat="49.50714" lon="1.12078">
        <ele>164</ele>
        <time>2022-03-26T12:57:41Z</time>
      </trkpt>
      <trkpt lat="49.50715" lon="1.12077">
        <ele>164</ele>
        <time>2022-03-26T12:57:42Z</time>
      </trkpt>
      <trkpt lat="49.5072" lon="1.12075">
        <ele>164.1</ele>
        <time>2022-03-26T12:57:43Z</time>
      </trkpt>
      <trkpt lat="49.50725" lon="1.12075">
        <ele>164.1</ele>
        <time>2022-03-26T12:57:45Z</time>
      </trkpt>
      <trkpt lat="49.50726" lon="1.12076">
        <ele>164.1</ele>
        <time>2022-03-26T12:57:46Z</time>
      </trkpt>
      <trkpt lat="49.50728" lon="1.12076">
        <ele>164.1</ele>
        <time>2022-03-26T12:57:47Z</time>
      </trkpt>
      <trkpt lat="49.50732" lon="1.12076">
        <ele>164.1</ele>
        <time>2022-03-26T12:57:48Z</time>
      </trkpt>
      <trkpt lat="49.50734" lon="1.12076">
        <ele>164.1</ele>
        <time>2022-03-26T12:57:49Z</time>
      </trkpt>
      <trkpt lat="49.50738" lon="1.12076">
        <ele>164.1</ele>
        <time>2022-03-26T12:57:51Z</time>
      </trkpt>
      <trkpt lat="49.50741" lon="1.12076">
        <ele>164.1</ele>
        <time>2022-03-26T12:57:52Z</time>
      </trkpt>
      <trkpt lat="49.50744" lon="1.12074">
        <ele>164.1</ele>
        <time>2022-03-26T12:57:53Z</time>
      </trkpt>
      <trkpt lat="49.50746" lon="1.12074">
        <ele>164</ele>
        <time>2022-03-26T12:57:54Z</time>
      </trkpt>
      <trkpt lat="49.50749" lon="1.12074">
        <ele>164</ele>
        <time>2022-03-26T12:57:55Z</time>
      </trkpt>
      <trkpt lat="49.50751" lon="1.12074">
        <ele>164</ele>
        <time>2022-03-26T12:57:56Z</time>
      </trkpt>
      <trkpt lat="49.50756" lon="1.12075">
        <ele>163.9</ele>
        <time>2022-03-26T12:57:58Z</time>
      </trkpt>
      <trkpt lat="49.50761" lon="1.12076">
        <ele>163.7</ele>
        <time>2022-03-26T12:57:59Z</time>
      </trkpt>
      <trkpt lat="49.50766" lon="1.12077">
        <ele>163.6</ele>
        <time>2022-03-26T12:58:00Z</time>
      </trkpt>
      <trkpt lat="49.50768" lon="1.12079">
        <ele>163.6</ele>
        <time>2022-03-26T12:58:01Z</time>
      </trkpt>
      <trkpt lat="49.50771" lon="1.12082">
        <ele>163.5</ele>
        <time>2022-03-26T12:58:03Z</time>
      </trkpt>
      <trkpt lat="49.50774" lon="1.12084">
        <ele>163.4</ele>
        <time>2022-03-26T12:58:04Z</time>
      </trkpt>
      <trkpt lat="49.50778" lon="1.12085">
        <ele>163.2</ele>
        <time>2022-03-26T12:58:05Z</time>
      </trkpt>
      <trkpt lat="49.5078" lon="1.12086">
        <ele>163.1</ele>
        <time>2022-03-26T12:58:06Z</time>
      </trkpt>
      <trkpt lat="49.50783" lon="1.12088">
        <ele>163</ele>
        <time>2022-03-26T12:58:07Z</time>
      </trkpt>
      <trkpt lat="49.50789" lon="1.1209">
        <ele>162.8</ele>
        <time>2022-03-26T12:58:08Z</time>
      </trkpt>
      <trkpt lat="49.50795" lon="1.12093">
        <ele>162.6</ele>
        <time>2022-03-26T12:58:09Z</time>
      </trkpt>
      <trkpt lat="49.50801" lon="1.12096">
        <ele>162.3</ele>
        <time>2022-03-26T12:58:10Z</time>
      </trkpt>
      <trkpt lat="49.50807" lon="1.12099">
        <ele>162</ele>
        <time>2022-03-26T12:58:11Z</time>
      </trkpt>
      <trkpt lat="49.50812" lon="1.12101">
        <ele>161.7</ele>
        <time>2022-03-26T12:58:13Z</time>
      </trkpt>
      <trkpt lat="49.50818" lon="1.12104">
        <ele>161.3</ele>
        <time>2022-03-26T12:58:14Z</time>
      </trkpt>
      <trkpt lat="49.50825" lon="1.12108">
        <ele>160.9</ele>
        <time>2022-03-26T12:58:15Z</time>
      </trkpt>
      <trkpt lat="49.5083" lon="1.12112">
        <ele>160.5</ele>
        <time>2022-03-26T12:58:17Z</time>
      </trkpt>
      <trkpt lat="49.50835" lon="1.12116">
        <ele>160.3</ele>
        <time>2022-03-26T12:58:18Z</time>
      </trkpt>
      <trkpt lat="49.5084" lon="1.1212">
        <ele>160</ele>
        <time>2022-03-26T12:58:19Z</time>
      </trkpt>
      <trkpt lat="49.50851" lon="1.12127">
        <ele>159.3</ele>
        <time>2022-03-26T12:58:20Z</time>
      </trkpt>
      <trkpt lat="49.50857" lon="1.12133">
        <ele>158.9</ele>
        <time>2022-03-26T12:58:21Z</time>
      </trkpt>
      <trkpt lat="49.50863" lon="1.12142">
        <ele>158.4</ele>
        <time>2022-03-26T12:58:22Z</time>
      </trkpt>
      <trkpt lat="49.50869" lon="1.1215">
        <ele>157.8</ele>
        <time>2022-03-26T12:58:23Z</time>
      </trkpt>
      <trkpt lat="49.50873" lon="1.12156">
        <ele>157.3</ele>
        <time>2022-03-26T12:58:24Z</time>
      </trkpt>
      <trkpt lat="49.50877" lon="1.12161">
        <ele>156.8</ele>
        <time>2022-03-26T12:58:25Z</time>
      </trkpt>
      <trkpt lat="49.5088" lon="1.12166">
        <ele>156.3</ele>
        <time>2022-03-26T12:58:26Z</time>
      </trkpt>
      <trkpt lat="49.50883" lon="1.1217">
        <ele>155.8</ele>
        <time>2022-03-26T12:58:27Z</time>
      </trkpt>
      <trkpt lat="49.50886" lon="1.12178">
        <ele>155.1</ele>
        <time>2022-03-26T12:58:28Z</time>
      </trkpt>
      <trkpt lat="49.509" lon="1.12198">
        <ele>151.9</ele>
        <time>2022-03-26T12:58:30Z</time>
      </trkpt>
      <trkpt lat="49.50907" lon="1.12203">
        <ele>150.7</ele>
        <time>2022-03-26T12:58:31Z</time>
      </trkpt>
      <trkpt lat="49.50914" lon="1.12206">
        <ele>148.9</ele>
        <time>2022-03-26T12:58:32Z</time>
      </trkpt>
      <trkpt lat="49.5092" lon="1.12206">
        <ele>149.2</ele>
        <time>2022-03-26T12:58:33Z</time>
      </trkpt>
      <trkpt lat="49.50924" lon="1.12203">
        <ele>149.6</ele>
        <time>2022-03-26T12:58:34Z</time>
      </trkpt>
      <trkpt lat="49.50928" lon="1.12203">
        <ele>149.9</ele>
        <time>2022-03-26T12:58:35Z</time>
      </trkpt>
      <trkpt lat="49.50931" lon="1.122">
        <ele>150.2</ele>
        <time>2022-03-26T12:58:36Z</time>
      </trkpt>
      <trkpt lat="49.50934" lon="1.12199">
        <ele>150.5</ele>
        <time>2022-03-26T12:58:37Z</time>
      </trkpt>
      <trkpt lat="49.50938" lon="1.12198">
        <ele>151</ele>
        <time>2022-03-26T12:58:38Z</time>
      </trkpt>
      <trkpt lat="49.50942" lon="1.12197">
        <ele>151.4</ele>
        <time>2022-03-26T12:58:39Z</time>
      </trkpt>
      <trkpt lat="49.50945" lon="1.12196">
        <ele>151.8</ele>
        <time>2022-03-26T12:58:40Z</time>
      </trkpt>
      <trkpt lat="49.50949" lon="1.12195">
        <ele>152.2</ele>
        <time>2022-03-26T12:58:41Z</time>
      </trkpt>
      <trkpt lat="49.50952" lon="1.12193">
        <ele>152.6</ele>
        <time>2022-03-26T12:58:43Z</time>
      </trkpt>
      <trkpt lat="49.50955" lon="1.12192">
        <ele>152.9</ele>
        <time>2022-03-26T12:58:44Z</time>
      </trkpt>
      <trkpt lat="49.5096" lon="1.1219">
        <ele>153.4</ele>
        <time>2022-03-26T12:58:45Z</time>
      </trkpt>
      <trkpt lat="49.50962" lon="1.12188">
        <ele>153.6</ele>
        <time>2022-03-26T12:58:46Z</time>
      </trkpt>
      <trkpt lat="49.50965" lon="1.12186">
        <ele>153.9</ele>
        <time>2022-03-26T12:58:47Z</time>
      </trkpt>
      <trkpt lat="49.50969" lon="1.12184">
        <ele>154.1</ele>
        <time>2022-03-26T12:58:48Z</time>
      </trkpt>
      <trkpt lat="49.50972" lon="1.12182">
        <ele>154.4</ele>
        <time>2022-03-26T12:58:50Z</time>
      </trkpt>
      <trkpt lat="49.50976" lon="1.1218">
        <ele>154.6</ele>
        <time>2022-03-26T12:58:51Z</time>
      </trkpt>
      <trkpt lat="49.50978" lon="1.12178">
        <ele>154.7</ele>
        <time>2022-03-26T12:58:52Z</time>
      </trkpt>
      <trkpt lat="49.50982" lon="1.12177">
        <ele>154.9</ele>
        <time>2022-03-26T12:58:54Z</time>
      </trkpt>
      <trkpt lat="49.50985" lon="1.12176">
        <ele>155</ele>
        <time>2022-03-26T12:58:55Z</time>
      </trkpt>
      <trkpt lat="49.50986" lon="1.12175">
        <ele>155.1</ele>
        <time>2022-03-26T12:58:56Z</time>
      </trkpt>
      <trkpt lat="49.5099" lon="1.12174">
        <ele>155.2</ele>
        <time>2022-03-26T12:58:57Z</time>
      </trkpt>
      <trkpt lat="49.50991" lon="1.12173">
        <ele>155.2</ele>
        <time>2022-03-26T12:58:58Z</time>
      </trkpt>
      <trkpt lat="49.50995" lon="1.1217">
        <ele>155.3</ele>
        <time>2022-03-26T12:58:59Z</time>
      </trkpt>
      <trkpt lat="49.50996" lon="1.12169">
        <ele>155.4</ele>
        <time>2022-03-26T12:59:00Z</time>
      </trkpt>
      <trkpt lat="49.50997" lon="1.12167">
        <ele>155.4</ele>
        <time>2022-03-26T12:59:01Z</time>
      </trkpt>
      <trkpt lat="49.50998" lon="1.12167">
        <ele>155.4</ele>
        <time>2022-03-26T12:59:02Z</time>
      </trkpt>
      <trkpt lat="49.50999" lon="1.12166">
        <ele>155.5</ele>
        <time>2022-03-26T12:59:03Z</time>
      </trkpt>
      <trkpt lat="49.51001" lon="1.12164">
        <ele>155.5</ele>
        <time>2022-03-26T12:59:05Z</time>
      </trkpt>
      <trkpt lat="49.51001" lon="1.12163">
        <ele>155.5</ele>
        <time>2022-03-26T12:59:06Z</time>
      </trkpt>
      <trkpt lat="49.51001" lon="1.12163">
        <ele>155.5</ele>
        <time>2022-03-26T12:59:07Z</time>
      </trkpt>
      <trkpt lat="49.51001" lon="1.12163">
        <ele>155.5</ele>
        <time>2022-03-26T12:59:09Z</time>
      </trkpt>
      <trkpt lat="49.51002" lon="1.12163">
        <ele>155.5</ele>
        <time>2022-03-26T12:59:10Z</time>
      </trkpt>
      <trkpt lat="49.51013" lon="1.12156">
        <ele>155.8</ele>
        <time>2022-03-26T12:59:14Z</time>
      </trkpt>
      <trkpt lat="49.51017" lon="1.12155">
        <ele>155.8</ele>
        <time>2022-03-26T12:59:16Z</time>
      </trkpt>
      <trkpt lat="49.51021" lon="1.12153">
        <ele>155.9</ele>
        <time>2022-03-26T12:59:17Z</time>
      </trkpt>
      <trkpt lat="49.51024" lon="1.12152">
        <ele>155.9</ele>
        <time>2022-03-26T12:59:18Z</time>
      </trkpt>
      <trkpt lat="49.51027" lon="1.1215">
        <ele>155.9</ele>
        <time>2022-03-26T12:59:19Z</time>
      </trkpt>
      <trkpt lat="49.51031" lon="1.12149">
        <ele>156</ele>
        <time>2022-03-26T12:59:20Z</time>
      </trkpt>
      <trkpt lat="49.51035" lon="1.12147">
        <ele>156</ele>
        <time>2022-03-26T12:59:21Z</time>
      </trkpt>
      <trkpt lat="49.51039" lon="1.12145">
        <ele>156.1</ele>
        <time>2022-03-26T12:59:22Z</time>
      </trkpt>
      <trkpt lat="49.51042" lon="1.12144">
        <ele>156.1</ele>
        <time>2022-03-26T12:59:23Z</time>
      </trkpt>
      <trkpt lat="49.51046" lon="1.12142">
        <ele>156.2</ele>
        <time>2022-03-26T12:59:24Z</time>
      </trkpt>
      <trkpt lat="49.5105" lon="1.1214">
        <ele>156.3</ele>
        <time>2022-03-26T12:59:25Z</time>
      </trkpt>
      <trkpt lat="49.51054" lon="1.12137">
        <ele>156.4</ele>
        <time>2022-03-26T12:59:27Z</time>
      </trkpt>
      <trkpt lat="49.51058" lon="1.12135">
        <ele>156.5</ele>
        <time>2022-03-26T12:59:28Z</time>
      </trkpt>
      <trkpt lat="49.51062" lon="1.12133">
        <ele>156.6</ele>
        <time>2022-03-26T12:59:29Z</time>
      </trkpt>
      <trkpt lat="49.51066" lon="1.1213">
        <ele>156.7</ele>
        <time>2022-03-26T12:59:30Z</time>
      </trkpt>
      <trkpt lat="49.51069" lon="1.12129">
        <ele>156.8</ele>
        <time>2022-03-26T12:59:31Z</time>
      </trkpt>
      <trkpt lat="49.51072" lon="1.12127">
        <ele>156.9</ele>
        <time>2022-03-26T12:59:32Z</time>
      </trkpt>
      <trkpt lat="49.51075" lon="1.12125">
        <ele>157</ele>
        <time>2022-03-26T12:59:33Z</time>
      </trkpt>
      <trkpt lat="49.51079" lon="1.1212">
        <ele>157.1</ele>
        <time>2022-03-26T12:59:35Z</time>
      </trkpt>
      <trkpt lat="49.51083" lon="1.12115">
        <ele>157.2</ele>
        <time>2022-03-26T12:59:36Z</time>
      </trkpt>
      <trkpt lat="49.51086" lon="1.12111">
        <ele>157.3</ele>
        <time>2022-03-26T12:59:37Z</time>
      </trkpt>
      <trkpt lat="49.5109" lon="1.12105">
        <ele>157.4</ele>
        <time>2022-03-26T12:59:38Z</time>
      </trkpt>
      <trkpt lat="49.51094" lon="1.12102">
        <ele>157.4</ele>
        <time>2022-03-26T12:59:39Z</time>
      </trkpt>
      <trkpt lat="49.51097" lon="1.12098">
        <ele>157.4</ele>
        <time>2022-03-26T12:59:41Z</time>
      </trkpt>
      <trkpt lat="49.511" lon="1.12096">
        <ele>157.4</ele>
        <time>2022-03-26T12:59:42Z</time>
      </trkpt>
      <trkpt lat="49.51102" lon="1.12093">
        <ele>157.5</ele>
        <time>2022-03-26T12:59:43Z</time>
      </trkpt>
      <trkpt lat="49.51103" lon="1.12092">
        <ele>157.5</ele>
        <time>2022-03-26T12:59:44Z</time>
      </trkpt>
      <trkpt lat="49.51107" lon="1.12089">
        <ele>157.5</ele>
        <time>2022-03-26T12:59:45Z</time>
      </trkpt>
      <trkpt lat="49.51111" lon="1.12087">
        <ele>157.5</ele>
        <time>2022-03-26T12:59:46Z</time>
      </trkpt>
      <trkpt lat="49.51114" lon="1.12085">
        <ele>157.5</ele>
        <time>2022-03-26T12:59:47Z</time>
      </trkpt>
      <trkpt lat="49.51118" lon="1.12082">
        <ele>157.5</ele>
        <time>2022-03-26T12:59:49Z</time>
      </trkpt>
      <trkpt lat="49.51122" lon="1.12079">
        <ele>157.5</ele>
        <time>2022-03-26T12:59:50Z</time>
      </trkpt>
      <trkpt lat="49.51125" lon="1.12077">
        <ele>157.5</ele>
        <time>2022-03-26T12:59:51Z</time>
      </trkpt>
      <trkpt lat="49.5113" lon="1.12073">
        <ele>157.5</ele>
        <time>2022-03-26T12:59:53Z</time>
      </trkpt>
      <trkpt lat="49.51134" lon="1.12071">
        <ele>157.5</ele>
        <time>2022-03-26T12:59:54Z</time>
      </trkpt>
      <trkpt lat="49.51137" lon="1.12068">
        <ele>157.5</ele>
        <time>2022-03-26T12:59:55Z</time>
      </trkpt>
      <trkpt lat="49.5114" lon="1.12065">
        <ele>157.5</ele>
        <time>2022-03-26T12:59:56Z</time>
      </trkpt>
      <trkpt lat="49.51144" lon="1.12061">
        <ele>157.4</ele>
        <time>2022-03-26T12:59:58Z</time>
      </trkpt>
      <trkpt lat="49.51147" lon="1.12058">
        <ele>157.4</ele>
        <time>2022-03-26T12:59:59Z</time>
      </trkpt>
      <trkpt lat="49.5115" lon="1.12055">
        <ele>157.3</ele>
        <time>2022-03-26T13:00:00Z</time>
      </trkpt>
      <trkpt lat="49.51153" lon="1.12053">
        <ele>157.3</ele>
        <time>2022-03-26T13:00:01Z</time>
      </trkpt>
      <trkpt lat="49.51156" lon="1.12051">
        <ele>157.2</ele>
        <time>2022-03-26T13:00:02Z</time>
      </trkpt>
      <trkpt lat="49.51164" lon="1.12047">
        <ele>156.9</ele>
        <time>2022-03-26T13:00:03Z</time>
      </trkpt>
      <trkpt lat="49.5117" lon="1.12045">
        <ele>156.7</ele>
        <time>2022-03-26T13:00:04Z</time>
      </trkpt>
      <trkpt lat="49.51177" lon="1.12043">
        <ele>156.5</ele>
        <time>2022-03-26T13:00:05Z</time>
      </trkpt>
      <trkpt lat="49.51182" lon="1.12043">
        <ele>156.4</ele>
        <time>2022-03-26T13:00:06Z</time>
      </trkpt>
      <trkpt lat="49.512" lon="1.12035">
        <ele>156.1</ele>
        <time>2022-03-26T13:00:07Z</time>
      </trkpt>
      <trkpt lat="49.51202" lon="1.12037">
        <ele>156.1</ele>
        <time>2022-03-26T13:00:08Z</time>
      </trkpt>
      <trkpt lat="49.51208" lon="1.12036">
        <ele>156.2</ele>
        <time>2022-03-26T13:00:09Z</time>
      </trkpt>
      <trkpt lat="49.51211" lon="1.12034">
        <ele>156.3</ele>
        <time>2022-03-26T13:00:10Z</time>
      </trkpt>
      <trkpt lat="49.51215" lon="1.12036">
        <ele>156.3</ele>
        <time>2022-03-26T13:00:11Z</time>
      </trkpt>
      <trkpt lat="49.51218" lon="1.12037">
        <ele>156.4</ele>
        <time>2022-03-26T13:00:12Z</time>
      </trkpt>
      <trkpt lat="49.51222" lon="1.1204">
        <ele>156.5</ele>
        <time>2022-03-26T13:00:13Z</time>
      </trkpt>
      <trkpt lat="49.51225" lon="1.12043">
        <ele>156.6</ele>
        <time>2022-03-26T13:00:14Z</time>
      </trkpt>
      <trkpt lat="49.51229" lon="1.12044">
        <ele>156.7</ele>
        <time>2022-03-26T13:00:15Z</time>
      </trkpt>
      <trkpt lat="49.51235" lon="1.12045">
        <ele>156.8</ele>
        <time>2022-03-26T13:00:16Z</time>
      </trkpt>
      <trkpt lat="49.5124" lon="1.12046">
        <ele>156.9</ele>
        <time>2022-03-26T13:00:18Z</time>
      </trkpt>
      <trkpt lat="49.51251" lon="1.12048">
        <ele>157</ele>
        <time>2022-03-26T13:00:19Z</time>
      </trkpt>
      <trkpt lat="49.51256" lon="1.12048">
        <ele>156.9</ele>
        <time>2022-03-26T13:00:20Z</time>
      </trkpt>
      <trkpt lat="49.51261" lon="1.12048">
        <ele>156.9</ele>
        <time>2022-03-26T13:00:22Z</time>
      </trkpt>
      <trkpt lat="49.51267" lon="1.1205">
        <ele>156.9</ele>
        <time>2022-03-26T13:00:23Z</time>
      </trkpt>
      <trkpt lat="49.51271" lon="1.12052">
        <ele>156.9</ele>
        <time>2022-03-26T13:00:24Z</time>
      </trkpt>
      <trkpt lat="49.51276" lon="1.12054">
        <ele>156.9</ele>
        <time>2022-03-26T13:00:25Z</time>
      </trkpt>
      <trkpt lat="49.5128" lon="1.12056">
        <ele>156.9</ele>
        <time>2022-03-26T13:00:26Z</time>
      </trkpt>
      <trkpt lat="49.51283" lon="1.12062">
        <ele>157</ele>
        <time>2022-03-26T13:00:28Z</time>
      </trkpt>
      <trkpt lat="49.51287" lon="1.12067">
        <ele>157.2</ele>
        <time>2022-03-26T13:00:29Z</time>
      </trkpt>
      <trkpt lat="49.51291" lon="1.12072">
        <ele>157.3</ele>
        <time>2022-03-26T13:00:30Z</time>
      </trkpt>
      <trkpt lat="49.51293" lon="1.12076">
        <ele>157.5</ele>
        <time>2022-03-26T13:00:31Z</time>
      </trkpt>
      <trkpt lat="49.51298" lon="1.12082">
        <ele>157.7</ele>
        <time>2022-03-26T13:00:33Z</time>
      </trkpt>
      <trkpt lat="49.51301" lon="1.12085">
        <ele>157.7</ele>
        <time>2022-03-26T13:00:34Z</time>
      </trkpt>
      <trkpt lat="49.51304" lon="1.12088">
        <ele>157.8</ele>
        <time>2022-03-26T13:00:35Z</time>
      </trkpt>
      <trkpt lat="49.51309" lon="1.12088">
        <ele>157.9</ele>
        <time>2022-03-26T13:00:36Z</time>
      </trkpt>
      <trkpt lat="49.51312" lon="1.12087">
        <ele>157.9</ele>
        <time>2022-03-26T13:00:37Z</time>
      </trkpt>
      <trkpt lat="49.51316" lon="1.12085">
        <ele>157.9</ele>
        <time>2022-03-26T13:00:38Z</time>
      </trkpt>
      <trkpt lat="49.51318" lon="1.12085">
        <ele>157.8</ele>
        <time>2022-03-26T13:00:39Z</time>
      </trkpt>
      <trkpt lat="49.51322" lon="1.12083">
        <ele>157.8</ele>
        <time>2022-03-26T13:00:40Z</time>
      </trkpt>
      <trkpt lat="49.51327" lon="1.12082">
        <ele>157.7</ele>
        <time>2022-03-26T13:00:42Z</time>
      </trkpt>
      <trkpt lat="49.51332" lon="1.1208">
        <ele>157.6</ele>
        <time>2022-03-26T13:00:43Z</time>
      </trkpt>
      <trkpt lat="49.51335" lon="1.12077">
        <ele>157.5</ele>
        <time>2022-03-26T13:00:44Z</time>
      </trkpt>
      <trkpt lat="49.51338" lon="1.12075">
        <ele>157.4</ele>
        <time>2022-03-26T13:00:45Z</time>
      </trkpt>
      <trkpt lat="49.51342" lon="1.12073">
        <ele>157.3</ele>
        <time>2022-03-26T13:00:46Z</time>
      </trkpt>
      <trkpt lat="49.51346" lon="1.12072">
        <ele>157.2</ele>
        <time>2022-03-26T13:00:47Z</time>
      </trkpt>
      <trkpt lat="49.51349" lon="1.1207">
        <ele>157.2</ele>
        <time>2022-03-26T13:00:48Z</time>
      </trkpt>
      <trkpt lat="49.51353" lon="1.1207">
        <ele>157.1</ele>
        <time>2022-03-26T13:00:49Z</time>
      </trkpt>
      <trkpt lat="49.51357" lon="1.12069">
        <ele>157</ele>
        <time>2022-03-26T13:00:50Z</time>
      </trkpt>
      <trkpt lat="49.5136" lon="1.12067">
        <ele>157</ele>
        <time>2022-03-26T13:00:51Z</time>
      </trkpt>
      <trkpt lat="49.51364" lon="1.12064">
        <ele>156.9</ele>
        <time>2022-03-26T13:00:52Z</time>
      </trkpt>
      <trkpt lat="49.51368" lon="1.12064">
        <ele>156.9</ele>
        <time>2022-03-26T13:00:53Z</time>
      </trkpt>
      <trkpt lat="49.51372" lon="1.12064">
        <ele>156.9</ele>
        <time>2022-03-26T13:00:54Z</time>
      </trkpt>
      <trkpt lat="49.51376" lon="1.12063">
        <ele>156.9</ele>
        <time>2022-03-26T13:00:55Z</time>
      </trkpt>
      <trkpt lat="49.51381" lon="1.12061">
        <ele>156.9</ele>
        <time>2022-03-26T13:00:56Z</time>
      </trkpt>
      <trkpt lat="49.51387" lon="1.12061">
        <ele>156.9</ele>
        <time>2022-03-26T13:00:57Z</time>
      </trkpt>
      <trkpt lat="49.51392" lon="1.12061">
        <ele>156.9</ele>
        <time>2022-03-26T13:00:58Z</time>
      </trkpt>
      <trkpt lat="49.51397" lon="1.12061">
        <ele>156.9</ele>
        <time>2022-03-26T13:00:59Z</time>
      </trkpt>
      <trkpt lat="49.51402" lon="1.1206">
        <ele>156.9</ele>
        <time>2022-03-26T13:01:00Z</time>
      </trkpt>
      <trkpt lat="49.51407" lon="1.12059">
        <ele>157</ele>
        <time>2022-03-26T13:01:01Z</time>
      </trkpt>
      <trkpt lat="49.51411" lon="1.12058">
        <ele>157</ele>
        <time>2022-03-26T13:01:02Z</time>
      </trkpt>
      <trkpt lat="49.51414" lon="1.12057">
        <ele>157</ele>
        <time>2022-03-26T13:01:03Z</time>
      </trkpt>
      <trkpt lat="49.51417" lon="1.12057">
        <ele>157</ele>
        <time>2022-03-26T13:01:04Z</time>
      </trkpt>
      <trkpt lat="49.51419" lon="1.12057">
        <ele>157</ele>
        <time>2022-03-26T13:01:05Z</time>
      </trkpt>
      <trkpt lat="49.5142" lon="1.12056">
        <ele>157</ele>
        <time>2022-03-26T13:01:06Z</time>
      </trkpt>
      <trkpt lat="49.51421" lon="1.12056">
        <ele>157.1</ele>
        <time>2022-03-26T13:01:07Z</time>
      </trkpt>
      <trkpt lat="49.51423" lon="1.12056">
        <ele>157.1</ele>
        <time>2022-03-26T13:01:08Z</time>
      </trkpt>
      <trkpt lat="49.51435" lon="1.12054">
        <ele>157.2</ele>
        <time>2022-03-26T13:01:09Z</time>
      </trkpt>
      <trkpt lat="49.51442" lon="1.12053">
        <ele>157.3</ele>
        <time>2022-03-26T13:01:10Z</time>
      </trkpt>
      <trkpt lat="49.51447" lon="1.12052">
        <ele>157.5</ele>
        <time>2022-03-26T13:01:11Z</time>
      </trkpt>
      <trkpt lat="49.51452" lon="1.12052">
        <ele>157.6</ele>
        <time>2022-03-26T13:01:12Z</time>
      </trkpt>
      <trkpt lat="49.51456" lon="1.12054">
        <ele>157.7</ele>
        <time>2022-03-26T13:01:13Z</time>
      </trkpt>
      <trkpt lat="49.51461" lon="1.12056">
        <ele>157.8</ele>
        <time>2022-03-26T13:01:14Z</time>
      </trkpt>
      <trkpt lat="49.51463" lon="1.12058">
        <ele>157.9</ele>
        <time>2022-03-26T13:01:15Z</time>
      </trkpt>
      <trkpt lat="49.51466" lon="1.12062">
        <ele>158</ele>
        <time>2022-03-26T13:01:16Z</time>
      </trkpt>
      <trkpt lat="49.51468" lon="1.12066">
        <ele>158</ele>
        <time>2022-03-26T13:01:17Z</time>
      </trkpt>
      <trkpt lat="49.51471" lon="1.12067">
        <ele>158.1</ele>
        <time>2022-03-26T13:01:18Z</time>
      </trkpt>
      <trkpt lat="49.51472" lon="1.12066">
        <ele>158.2</ele>
        <time>2022-03-26T13:01:19Z</time>
      </trkpt>
      <trkpt lat="49.51475" lon="1.12066">
        <ele>158.2</ele>
        <time>2022-03-26T13:01:20Z</time>
      </trkpt>
      <trkpt lat="49.51476" lon="1.12066">
        <ele>158.3</ele>
        <time>2022-03-26T13:01:21Z</time>
      </trkpt>
      <trkpt lat="49.51479" lon="1.12067">
        <ele>158.3</ele>
        <time>2022-03-26T13:01:22Z</time>
      </trkpt>
      <trkpt lat="49.51482" lon="1.12067">
        <ele>158.3</ele>
        <time>2022-03-26T13:01:23Z</time>
      </trkpt>
      <trkpt lat="49.51486" lon="1.12067">
        <ele>158.4</ele>
        <time>2022-03-26T13:01:24Z</time>
      </trkpt>
      <trkpt lat="49.51491" lon="1.12066">
        <ele>158.3</ele>
        <time>2022-03-26T13:01:25Z</time>
      </trkpt>
      <trkpt lat="49.51495" lon="1.12068">
        <ele>158.3</ele>
        <time>2022-03-26T13:01:26Z</time>
      </trkpt>
      <trkpt lat="49.515" lon="1.1207">
        <ele>158.2</ele>
        <time>2022-03-26T13:01:27Z</time>
      </trkpt>
      <trkpt lat="49.51503" lon="1.12072">
        <ele>158.1</ele>
        <time>2022-03-26T13:01:28Z</time>
      </trkpt>
      <trkpt lat="49.51506" lon="1.12075">
        <ele>158</ele>
        <time>2022-03-26T13:01:29Z</time>
      </trkpt>
      <trkpt lat="49.51507" lon="1.12076">
        <ele>158</ele>
        <time>2022-03-26T13:01:30Z</time>
      </trkpt>
      <trkpt lat="49.51508" lon="1.12077">
        <ele>158</ele>
        <time>2022-03-26T13:01:31Z</time>
      </trkpt>
      <trkpt lat="49.51509" lon="1.12077">
        <ele>158</ele>
        <time>2022-03-26T13:01:32Z</time>
      </trkpt>
      <trkpt lat="49.51509" lon="1.12078">
        <ele>158</ele>
        <time>2022-03-26T13:01:33Z</time>
      </trkpt>
      <trkpt lat="49.5151" lon="1.12078">
        <ele>157.9</ele>
        <time>2022-03-26T13:01:34Z</time>
      </trkpt>
      <trkpt lat="49.5151" lon="1.12079">
        <ele>157.9</ele>
        <time>2022-03-26T13:01:35Z</time>
      </trkpt>
      <trkpt lat="49.51515" lon="1.12084">
        <ele>157.8</ele>
        <time>2022-03-26T13:01:36Z</time>
      </trkpt>
      <trkpt lat="49.51519" lon="1.12089">
        <ele>157.7</ele>
        <time>2022-03-26T13:01:37Z</time>
      </trkpt>
      <trkpt lat="49.51523" lon="1.12092">
        <ele>157.6</ele>
        <time>2022-03-26T13:01:38Z</time>
      </trkpt>
      <trkpt lat="49.51528" lon="1.12098">
        <ele>157.5</ele>
        <time>2022-03-26T13:01:39Z</time>
      </trkpt>
      <trkpt lat="49.51532" lon="1.12102">
        <ele>157.4</ele>
        <time>2022-03-26T13:01:40Z</time>
      </trkpt>
      <trkpt lat="49.51535" lon="1.12104">
        <ele>157.3</ele>
        <time>2022-03-26T13:01:41Z</time>
      </trkpt>
      <trkpt lat="49.51539" lon="1.12106">
        <ele>157.2</ele>
        <time>2022-03-26T13:01:42Z</time>
      </trkpt>
      <trkpt lat="49.51542" lon="1.12109">
        <ele>157.1</ele>
        <time>2022-03-26T13:01:43Z</time>
      </trkpt>
      <trkpt lat="49.51545" lon="1.12112">
        <ele>157.1</ele>
        <time>2022-03-26T13:01:44Z</time>
      </trkpt>
      <trkpt lat="49.51548" lon="1.12115">
        <ele>157</ele>
        <time>2022-03-26T13:01:45Z</time>
      </trkpt>
      <trkpt lat="49.51552" lon="1.12118">
        <ele>156.9</ele>
        <time>2022-03-26T13:01:46Z</time>
      </trkpt>
      <trkpt lat="49.51554" lon="1.1212">
        <ele>156.8</ele>
        <time>2022-03-26T13:01:47Z</time>
      </trkpt>
      <trkpt lat="49.51557" lon="1.12123">
        <ele>156.8</ele>
        <time>2022-03-26T13:01:48Z</time>
      </trkpt>
      <trkpt lat="49.5156" lon="1.12126">
        <ele>156.7</ele>
        <time>2022-03-26T13:01:49Z</time>
      </trkpt>
      <trkpt lat="49.51562" lon="1.12129">
        <ele>156.7</ele>
        <time>2022-03-26T13:01:50Z</time>
      </trkpt>
      <trkpt lat="49.51565" lon="1.12132">
        <ele>156.6</ele>
        <time>2022-03-26T13:01:51Z</time>
      </trkpt>
      <trkpt lat="49.51566" lon="1.12133">
        <ele>156.6</ele>
        <time>2022-03-26T13:01:52Z</time>
      </trkpt>
      <trkpt lat="49.51568" lon="1.12137">
        <ele>156.6</ele>
        <time>2022-03-26T13:01:53Z</time>
      </trkpt>
      <trkpt lat="49.51569" lon="1.12138">
        <ele>156.6</ele>
        <time>2022-03-26T13:01:54Z</time>
      </trkpt>
      <trkpt lat="49.51572" lon="1.12142">
        <ele>156.6</ele>
        <time>2022-03-26T13:01:55Z</time>
      </trkpt>
      <trkpt lat="49.51574" lon="1.12144">
        <ele>156.6</ele>
        <time>2022-03-26T13:01:56Z</time>
      </trkpt>
      <trkpt lat="49.51578" lon="1.12149">
        <ele>156.6</ele>
        <time>2022-03-26T13:01:57Z</time>
      </trkpt>
      <trkpt lat="49.51583" lon="1.12155">
        <ele>156.7</ele>
        <time>2022-03-26T13:01:58Z</time>
      </trkpt>
      <trkpt lat="49.51586" lon="1.12158">
        <ele>156.7</ele>
        <time>2022-03-26T13:02:00Z</time>
      </trkpt>
      <trkpt lat="49.5159" lon="1.1216">
        <ele>156.7</ele>
        <time>2022-03-26T13:02:01Z</time>
      </trkpt>
      <trkpt lat="49.51594" lon="1.12161">
        <ele>156.5</ele>
        <time>2022-03-26T13:02:02Z</time>
      </trkpt>
      <trkpt lat="49.516" lon="1.12164">
        <ele>155.7</ele>
        <time>2022-03-26T13:02:03Z</time>
      </trkpt>
      <trkpt lat="49.51604" lon="1.12166">
        <ele>155</ele>
        <time>2022-03-26T13:02:04Z</time>
      </trkpt>
      <trkpt lat="49.51611" lon="1.12171">
        <ele>153.5</ele>
        <time>2022-03-26T13:02:06Z</time>
      </trkpt>
      <trkpt lat="49.51616" lon="1.12174">
        <ele>152.1</ele>
        <time>2022-03-26T13:02:07Z</time>
      </trkpt>
      <trkpt lat="49.5162" lon="1.12175">
        <ele>151</ele>
        <time>2022-03-26T13:02:08Z</time>
      </trkpt>
      <trkpt lat="49.51622" lon="1.12175">
        <ele>150.2</ele>
        <time>2022-03-26T13:02:09Z</time>
      </trkpt>
      <trkpt lat="49.51628" lon="1.12174">
        <ele>148.5</ele>
        <time>2022-03-26T13:02:10Z</time>
      </trkpt>
      <trkpt lat="49.51633" lon="1.12167">
        <ele>146.5</ele>
        <time>2022-03-26T13:02:11Z</time>
      </trkpt>
      <trkpt lat="49.51636" lon="1.12158">
        <ele>144.8</ele>
        <time>2022-03-26T13:02:12Z</time>
      </trkpt>
      <trkpt lat="49.5164" lon="1.12149">
        <ele>143.3</ele>
        <time>2022-03-26T13:02:13Z</time>
      </trkpt>
      <trkpt lat="49.51643" lon="1.12138">
        <ele>142</ele>
        <time>2022-03-26T13:02:14Z</time>
      </trkpt>
      <trkpt lat="49.51647" lon="1.12128">
        <ele>141</ele>
        <time>2022-03-26T13:02:15Z</time>
      </trkpt>
      <trkpt lat="49.51649" lon="1.12118">
        <ele>140.2</ele>
        <time>2022-03-26T13:02:16Z</time>
      </trkpt>
      <trkpt lat="49.5165" lon="1.12114">
        <ele>139.9</ele>
        <time>2022-03-26T13:02:17Z</time>
      </trkpt>
      <trkpt lat="49.51653" lon="1.12109">
        <ele>139.4</ele>
        <time>2022-03-26T13:02:19Z</time>
      </trkpt>
      <trkpt lat="49.51654" lon="1.12107">
        <ele>139.3</ele>
        <time>2022-03-26T13:02:20Z</time>
      </trkpt>
      <trkpt lat="49.51653" lon="1.12107">
        <ele>139.3</ele>
        <time>2022-03-26T13:02:21Z</time>
      </trkpt>
      <trkpt lat="49.51653" lon="1.12106">
        <ele>139.3</ele>
        <time>2022-03-26T13:02:22Z</time>
      </trkpt>
      <trkpt lat="49.51655" lon="1.12108">
        <ele>139.1</ele>
        <time>2022-03-26T13:02:23Z</time>
      </trkpt>
      <trkpt lat="49.51658" lon="1.12109">
        <ele>138.8</ele>
        <time>2022-03-26T13:02:25Z</time>
      </trkpt>
      <trkpt lat="49.5166" lon="1.12108">
        <ele>138.7</ele>
        <time>2022-03-26T13:02:26Z</time>
      </trkpt>
      <trkpt lat="49.51661" lon="1.12108">
        <ele>138.6</ele>
        <time>2022-03-26T13:02:27Z</time>
      </trkpt>
      <trkpt lat="49.51661" lon="1.12107">
        <ele>138.5</ele>
        <time>2022-03-26T13:02:28Z</time>
      </trkpt>
      <trkpt lat="49.51664" lon="1.12105">
        <ele>138.3</ele>
        <time>2022-03-26T13:02:29Z</time>
      </trkpt>
      <trkpt lat="49.51665" lon="1.12104">
        <ele>138.2</ele>
        <time>2022-03-26T13:02:31Z</time>
      </trkpt>
      <trkpt lat="49.51666" lon="1.12102">
        <ele>138.1</ele>
        <time>2022-03-26T13:02:32Z</time>
      </trkpt>
      <trkpt lat="49.51667" lon="1.12101">
        <ele>138</ele>
        <time>2022-03-26T13:02:33Z</time>
      </trkpt>
      <trkpt lat="49.51668" lon="1.121">
        <ele>138</ele>
        <time>2022-03-26T13:02:34Z</time>
      </trkpt>
      <trkpt lat="49.51669" lon="1.12098">
        <ele>137.9</ele>
        <time>2022-03-26T13:02:35Z</time>
      </trkpt>
      <trkpt lat="49.51673" lon="1.12096">
        <ele>137.7</ele>
        <time>2022-03-26T13:02:37Z</time>
      </trkpt>
      <trkpt lat="49.51674" lon="1.12095">
        <ele>137.7</ele>
        <time>2022-03-26T13:02:38Z</time>
      </trkpt>
      <trkpt lat="49.51676" lon="1.12094">
        <ele>137.6</ele>
        <time>2022-03-26T13:02:40Z</time>
      </trkpt>
      <trkpt lat="49.51677" lon="1.12092">
        <ele>137.6</ele>
        <time>2022-03-26T13:02:41Z</time>
      </trkpt>
      <trkpt lat="49.51678" lon="1.1209">
        <ele>137.6</ele>
        <time>2022-03-26T13:02:42Z</time>
      </trkpt>
      <trkpt lat="49.51678" lon="1.12089">
        <ele>137.6</ele>
        <time>2022-03-26T13:02:43Z</time>
      </trkpt>
      <trkpt lat="49.5168" lon="1.12085">
        <ele>137.6</ele>
        <time>2022-03-26T13:02:45Z</time>
      </trkpt>
      <trkpt lat="49.51682" lon="1.12081">
        <ele>137.6</ele>
        <time>2022-03-26T13:02:46Z</time>
      </trkpt>
      <trkpt lat="49.51683" lon="1.12078">
        <ele>137.6</ele>
        <time>2022-03-26T13:02:47Z</time>
      </trkpt>
      <trkpt lat="49.51684" lon="1.12075">
        <ele>137.6</ele>
        <time>2022-03-26T13:02:49Z</time>
      </trkpt>
      <trkpt lat="49.51686" lon="1.12073">
        <ele>137.7</ele>
        <time>2022-03-26T13:02:50Z</time>
      </trkpt>
      <trkpt lat="49.51687" lon="1.12069">
        <ele>137.8</ele>
        <time>2022-03-26T13:02:52Z</time>
      </trkpt>
      <trkpt lat="49.51689" lon="1.12064">
        <ele>137.9</ele>
        <time>2022-03-26T13:02:53Z</time>
      </trkpt>
      <trkpt lat="49.51689" lon="1.12062">
        <ele>137.9</ele>
        <time>2022-03-26T13:02:54Z</time>
      </trkpt>
      <trkpt lat="49.5169" lon="1.12058">
        <ele>138.1</ele>
        <time>2022-03-26T13:02:55Z</time>
      </trkpt>
      <trkpt lat="49.51691" lon="1.12052">
        <ele>138.3</ele>
        <time>2022-03-26T13:02:57Z</time>
      </trkpt>
      <trkpt lat="49.51693" lon="1.12047">
        <ele>138.5</ele>
        <time>2022-03-26T13:02:58Z</time>
      </trkpt>
      <trkpt lat="49.51693" lon="1.12042">
        <ele>138.9</ele>
        <time>2022-03-26T13:02:59Z</time>
      </trkpt>
      <trkpt lat="49.51693" lon="1.1204">
        <ele>139.1</ele>
        <time>2022-03-26T13:03:00Z</time>
      </trkpt>
      <trkpt lat="49.51694" lon="1.12036">
        <ele>139.5</ele>
        <time>2022-03-26T13:03:01Z</time>
      </trkpt>
      <trkpt lat="49.51695" lon="1.12034">
        <ele>139.6</ele>
        <time>2022-03-26T13:03:02Z</time>
      </trkpt>
      <trkpt lat="49.51695" lon="1.1203">
        <ele>140</ele>
        <time>2022-03-26T13:03:04Z</time>
      </trkpt>
      <trkpt lat="49.51695" lon="1.12029">
        <ele>140.1</ele>
        <time>2022-03-26T13:03:05Z</time>
      </trkpt>
      <trkpt lat="49.51698" lon="1.12023">
        <ele>140.8</ele>
        <time>2022-03-26T13:03:06Z</time>
      </trkpt>
      <trkpt lat="49.517" lon="1.12019">
        <ele>141.3</ele>
        <time>2022-03-26T13:03:07Z</time>
      </trkpt>
      <trkpt lat="49.51701" lon="1.12016">
        <ele>141.7</ele>
        <time>2022-03-26T13:03:08Z</time>
      </trkpt>
      <trkpt lat="49.51702" lon="1.12015">
        <ele>141.9</ele>
        <time>2022-03-26T13:03:10Z</time>
      </trkpt>
      <trkpt lat="49.51702" lon="1.12014">
        <ele>142</ele>
        <time>2022-03-26T13:03:11Z</time>
      </trkpt>
      <trkpt lat="49.51702" lon="1.12012">
        <ele>142.2</ele>
        <time>2022-03-26T13:03:12Z</time>
      </trkpt>
      <trkpt lat="49.51702" lon="1.12011">
        <ele>142.4</ele>
        <time>2022-03-26T13:03:13Z</time>
      </trkpt>
      <trkpt lat="49.51701" lon="1.1201">
        <ele>142.5</ele>
        <time>2022-03-26T13:03:14Z</time>
      </trkpt>
      <trkpt lat="49.51702" lon="1.12007">
        <ele>142.8</ele>
        <time>2022-03-26T13:03:15Z</time>
      </trkpt>
      <trkpt lat="49.51702" lon="1.12006">
        <ele>143</ele>
        <time>2022-03-26T13:03:17Z</time>
      </trkpt>
      <trkpt lat="49.51703" lon="1.12005">
        <ele>143.2</ele>
        <time>2022-03-26T13:03:18Z</time>
      </trkpt>
      <trkpt lat="49.51703" lon="1.12003">
        <ele>143.4</ele>
        <time>2022-03-26T13:03:19Z</time>
      </trkpt>
      <trkpt lat="49.51703" lon="1.12">
        <ele>143.8</ele>
        <time>2022-03-26T13:03:20Z</time>
      </trkpt>
      <trkpt lat="49.51703" lon="1.11997">
        <ele>144.2</ele>
        <time>2022-03-26T13:03:21Z</time>
      </trkpt>
      <trkpt lat="49.51703" lon="1.11995">
        <ele>144.3</ele>
        <time>2022-03-26T13:03:22Z</time>
      </trkpt>
      <trkpt lat="49.51704" lon="1.11994">
        <ele>144.5</ele>
        <time>2022-03-26T13:03:23Z</time>
      </trkpt>
      <trkpt lat="49.51704" lon="1.11991">
        <ele>144.9</ele>
        <time>2022-03-26T13:03:25Z</time>
      </trkpt>
      <trkpt lat="49.51704" lon="1.1199">
        <ele>145.1</ele>
        <time>2022-03-26T13:03:26Z</time>
      </trkpt>
      <trkpt lat="49.51705" lon="1.11988">
        <ele>145.4</ele>
        <time>2022-03-26T13:03:27Z</time>
      </trkpt>
      <trkpt lat="49.51705" lon="1.11986">
        <ele>145.5</ele>
        <time>2022-03-26T13:03:28Z</time>
      </trkpt>
      <trkpt lat="49.51705" lon="1.11984">
        <ele>145.8</ele>
        <time>2022-03-26T13:03:29Z</time>
      </trkpt>
      <trkpt lat="49.51706" lon="1.11982">
        <ele>146.1</ele>
        <time>2022-03-26T13:03:30Z</time>
      </trkpt>
      <trkpt lat="49.51706" lon="1.1198">
        <ele>146.4</ele>
        <time>2022-03-26T13:03:32Z</time>
      </trkpt>
      <trkpt lat="49.51707" lon="1.11978">
        <ele>146.7</ele>
        <time>2022-03-26T13:03:33Z</time>
      </trkpt>
      <trkpt lat="49.51707" lon="1.11976">
        <ele>147</ele>
        <time>2022-03-26T13:03:34Z</time>
      </trkpt>
      <trkpt lat="49.51709" lon="1.1197">
        <ele>147.8</ele>
        <time>2022-03-26T13:03:35Z</time>
      </trkpt>
      <trkpt lat="49.5171" lon="1.11968">
        <ele>148.1</ele>
        <time>2022-03-26T13:03:36Z</time>
      </trkpt>
      <trkpt lat="49.51712" lon="1.11965">
        <ele>148.9</ele>
        <time>2022-03-26T13:03:37Z</time>
      </trkpt>
      <trkpt lat="49.51715" lon="1.11962">
        <ele>149.5</ele>
        <time>2022-03-26T13:03:39Z</time>
      </trkpt>
      <trkpt lat="49.51716" lon="1.1196">
        <ele>149.8</ele>
        <time>2022-03-26T13:03:40Z</time>
      </trkpt>
      <trkpt lat="49.51718" lon="1.11961">
        <ele>150.3</ele>
        <time>2022-03-26T13:03:41Z</time>
      </trkpt>
      <trkpt lat="49.51721" lon="1.11963">
        <ele>151</ele>
        <time>2022-03-26T13:03:42Z</time>
      </trkpt>
      <trkpt lat="49.51722" lon="1.11963">
        <ele>151.3</ele>
        <time>2022-03-26T13:03:43Z</time>
      </trkpt>
      <trkpt lat="49.51726" lon="1.11965">
        <ele>152.2</ele>
        <time>2022-03-26T13:03:45Z</time>
      </trkpt>
      <trkpt lat="49.51729" lon="1.11966">
        <ele>152.8</ele>
        <time>2022-03-26T13:03:46Z</time>
      </trkpt>
      <trkpt lat="49.5173" lon="1.11967">
        <ele>153</ele>
        <time>2022-03-26T13:03:47Z</time>
      </trkpt>
      <trkpt lat="49.51731" lon="1.11966">
        <ele>153.3</ele>
        <time>2022-03-26T13:03:48Z</time>
      </trkpt>
      <trkpt lat="49.51733" lon="1.11966">
        <ele>153.7</ele>
        <time>2022-03-26T13:03:49Z</time>
      </trkpt>
      <trkpt lat="49.51735" lon="1.11964">
        <ele>154.3</ele>
        <time>2022-03-26T13:03:51Z</time>
      </trkpt>
      <trkpt lat="49.51736" lon="1.11963">
        <ele>154.5</ele>
        <time>2022-03-26T13:03:52Z</time>
      </trkpt>
      <trkpt lat="49.51738" lon="1.1196">
        <ele>155.1</ele>
        <time>2022-03-26T13:03:53Z</time>
      </trkpt>
      <trkpt lat="49.51739" lon="1.11958">
        <ele>155.3</ele>
        <time>2022-03-26T13:03:54Z</time>
      </trkpt>
      <trkpt lat="49.5174" lon="1.11954">
        <ele>155.8</ele>
        <time>2022-03-26T13:03:55Z</time>
      </trkpt>
      <trkpt lat="49.5174" lon="1.11953">
        <ele>156</ele>
        <time>2022-03-26T13:03:56Z</time>
      </trkpt>
      <trkpt lat="49.51741" lon="1.11939">
        <ele>157.4</ele>
        <time>2022-03-26T13:03:58Z</time>
      </trkpt>
      <trkpt lat="49.51742" lon="1.11937">
        <ele>157.6</ele>
        <time>2022-03-26T13:03:59Z</time>
      </trkpt>
      <trkpt lat="49.51742" lon="1.11935">
        <ele>157.8</ele>
        <time>2022-03-26T13:04:00Z</time>
      </trkpt>
      <trkpt lat="49.51743" lon="1.11933">
        <ele>158</ele>
        <time>2022-03-26T13:04:01Z</time>
      </trkpt>
      <trkpt lat="49.51743" lon="1.11929">
        <ele>158.2</ele>
        <time>2022-03-26T13:04:03Z</time>
      </trkpt>
      <trkpt lat="49.51744" lon="1.11925">
        <ele>158.6</ele>
        <time>2022-03-26T13:04:04Z</time>
      </trkpt>
      <trkpt lat="49.51744" lon="1.11923">
        <ele>158.7</ele>
        <time>2022-03-26T13:04:05Z</time>
      </trkpt>
      <trkpt lat="49.51745" lon="1.11921">
        <ele>158.8</ele>
        <time>2022-03-26T13:04:06Z</time>
      </trkpt>
      <trkpt lat="49.51745" lon="1.11919">
        <ele>159</ele>
        <time>2022-03-26T13:04:07Z</time>
      </trkpt>
      <trkpt lat="49.51748" lon="1.11912">
        <ele>159.5</ele>
        <time>2022-03-26T13:04:09Z</time>
      </trkpt>
      <trkpt lat="49.51749" lon="1.1191">
        <ele>159.6</ele>
        <time>2022-03-26T13:04:10Z</time>
      </trkpt>
      <trkpt lat="49.51749" lon="1.11908">
        <ele>159.7</ele>
        <time>2022-03-26T13:04:11Z</time>
      </trkpt>
      <trkpt lat="49.5175" lon="1.11906">
        <ele>159.8</ele>
        <time>2022-03-26T13:04:12Z</time>
      </trkpt>
      <trkpt lat="49.51751" lon="1.11904">
        <ele>160</ele>
        <time>2022-03-26T13:04:13Z</time>
      </trkpt>
      <trkpt lat="49.51752" lon="1.11902">
        <ele>160.1</ele>
        <time>2022-03-26T13:04:14Z</time>
      </trkpt>
      <trkpt lat="49.51754" lon="1.119">
        <ele>160.2</ele>
        <time>2022-03-26T13:04:16Z</time>
      </trkpt>
      <trkpt lat="49.51756" lon="1.11896">
        <ele>160.4</ele>
        <time>2022-03-26T13:04:17Z</time>
      </trkpt>
      <trkpt lat="49.51756" lon="1.11895">
        <ele>160.5</ele>
        <time>2022-03-26T13:04:18Z</time>
      </trkpt>
      <trkpt lat="49.51757" lon="1.11892">
        <ele>160.6</ele>
        <time>2022-03-26T13:04:19Z</time>
      </trkpt>
      <trkpt lat="49.51758" lon="1.11891">
        <ele>160.7</ele>
        <time>2022-03-26T13:04:20Z</time>
      </trkpt>
      <trkpt lat="49.51759" lon="1.11889">
        <ele>160.8</ele>
        <time>2022-03-26T13:04:21Z</time>
      </trkpt>
      <trkpt lat="49.5176" lon="1.11886">
        <ele>160.9</ele>
        <time>2022-03-26T13:04:23Z</time>
      </trkpt>
      <trkpt lat="49.51761" lon="1.11885">
        <ele>161</ele>
        <time>2022-03-26T13:04:24Z</time>
      </trkpt>
      <trkpt lat="49.51762" lon="1.11882">
        <ele>161.1</ele>
        <time>2022-03-26T13:04:25Z</time>
      </trkpt>
      <trkpt lat="49.51763" lon="1.1188">
        <ele>161.2</ele>
        <time>2022-03-26T13:04:26Z</time>
      </trkpt>
      <trkpt lat="49.51764" lon="1.11878">
        <ele>161.3</ele>
        <time>2022-03-26T13:04:27Z</time>
      </trkpt>
      <trkpt lat="49.51767" lon="1.11872">
        <ele>161.6</ele>
        <time>2022-03-26T13:04:29Z</time>
      </trkpt>
      <trkpt lat="49.51767" lon="1.1187">
        <ele>161.7</ele>
        <time>2022-03-26T13:04:30Z</time>
      </trkpt>
      <trkpt lat="49.51768" lon="1.11868">
        <ele>161.8</ele>
        <time>2022-03-26T13:04:31Z</time>
      </trkpt>
      <trkpt lat="49.5177" lon="1.11863">
        <ele>162</ele>
        <time>2022-03-26T13:04:32Z</time>
      </trkpt>
      <trkpt lat="49.51771" lon="1.11861">
        <ele>162.1</ele>
        <time>2022-03-26T13:04:33Z</time>
      </trkpt>
      <trkpt lat="49.51773" lon="1.11857">
        <ele>162.3</ele>
        <time>2022-03-26T13:04:35Z</time>
      </trkpt>
      <trkpt lat="49.51773" lon="1.11855">
        <ele>162.3</ele>
        <time>2022-03-26T13:04:36Z</time>
      </trkpt>
      <trkpt lat="49.51775" lon="1.11851">
        <ele>162.5</ele>
        <time>2022-03-26T13:04:37Z</time>
      </trkpt>
      <trkpt lat="49.51777" lon="1.11846">
        <ele>162.7</ele>
        <time>2022-03-26T13:04:39Z</time>
      </trkpt>
      <trkpt lat="49.51778" lon="1.11841">
        <ele>162.8</ele>
        <time>2022-03-26T13:04:40Z</time>
      </trkpt>
      <trkpt lat="49.5178" lon="1.11838">
        <ele>163</ele>
        <time>2022-03-26T13:04:41Z</time>
      </trkpt>
      <trkpt lat="49.51781" lon="1.11833">
        <ele>163.1</ele>
        <time>2022-03-26T13:04:42Z</time>
      </trkpt>
      <trkpt lat="49.51782" lon="1.11828">
        <ele>163.3</ele>
        <time>2022-03-26T13:04:43Z</time>
      </trkpt>
      <trkpt lat="49.51782" lon="1.11826">
        <ele>163.3</ele>
        <time>2022-03-26T13:04:44Z</time>
      </trkpt>
      <trkpt lat="49.51783" lon="1.11822">
        <ele>163.4</ele>
        <time>2022-03-26T13:04:45Z</time>
      </trkpt>
      <trkpt lat="49.51785" lon="1.11818">
        <ele>163.6</ele>
        <time>2022-03-26T13:04:46Z</time>
      </trkpt>
      <trkpt lat="49.51785" lon="1.11817">
        <ele>163.6</ele>
        <time>2022-03-26T13:04:47Z</time>
      </trkpt>
      <trkpt lat="49.51789" lon="1.11807">
        <ele>163.9</ele>
        <time>2022-03-26T13:04:48Z</time>
      </trkpt>
      <trkpt lat="49.51791" lon="1.118">
        <ele>164.1</ele>
        <time>2022-03-26T13:04:49Z</time>
      </trkpt>
      <trkpt lat="49.51794" lon="1.11792">
        <ele>164.4</ele>
        <time>2022-03-26T13:04:50Z</time>
      </trkpt>
      <trkpt lat="49.51795" lon="1.11786">
        <ele>164.6</ele>
        <time>2022-03-26T13:04:51Z</time>
      </trkpt>
      <trkpt lat="49.51797" lon="1.11781">
        <ele>164.7</ele>
        <time>2022-03-26T13:04:52Z</time>
      </trkpt>
      <trkpt lat="49.51801" lon="1.11766">
        <ele>165.1</ele>
        <time>2022-03-26T13:04:53Z</time>
      </trkpt>
      <trkpt lat="49.51803" lon="1.11761">
        <ele>165.2</ele>
        <time>2022-03-26T13:04:54Z</time>
      </trkpt>
      <trkpt lat="49.51803" lon="1.1176">
        <ele>165.3</ele>
        <time>2022-03-26T13:04:55Z</time>
      </trkpt>
      <trkpt lat="49.51804" lon="1.11756">
        <ele>165.3</ele>
        <time>2022-03-26T13:04:56Z</time>
      </trkpt>
      <trkpt lat="49.51804" lon="1.11754">
        <ele>165.4</ele>
        <time>2022-03-26T13:04:57Z</time>
      </trkpt>
      <trkpt lat="49.51805" lon="1.11749">
        <ele>165.5</ele>
        <time>2022-03-26T13:04:58Z</time>
      </trkpt>
      <trkpt lat="49.51806" lon="1.11747">
        <ele>165.5</ele>
        <time>2022-03-26T13:04:59Z</time>
      </trkpt>
      <trkpt lat="49.51806" lon="1.11744">
        <ele>165.5</ele>
        <time>2022-03-26T13:05:00Z</time>
      </trkpt>
      <trkpt lat="49.51807" lon="1.11742">
        <ele>165.6</ele>
        <time>2022-03-26T13:05:01Z</time>
      </trkpt>
      <trkpt lat="49.51807" lon="1.11739">
        <ele>165.6</ele>
        <time>2022-03-26T13:05:02Z</time>
      </trkpt>
      <trkpt lat="49.51807" lon="1.11738">
        <ele>165.6</ele>
        <time>2022-03-26T13:05:03Z</time>
      </trkpt>
      <trkpt lat="49.51808" lon="1.11733">
        <ele>165.7</ele>
        <time>2022-03-26T13:05:04Z</time>
      </trkpt>
      <trkpt lat="49.51809" lon="1.11732">
        <ele>165.7</ele>
        <time>2022-03-26T13:05:05Z</time>
      </trkpt>
      <trkpt lat="49.51809" lon="1.1173">
        <ele>165.7</ele>
        <time>2022-03-26T13:05:06Z</time>
      </trkpt>
      <trkpt lat="49.5181" lon="1.11729">
        <ele>165.7</ele>
        <time>2022-03-26T13:05:07Z</time>
      </trkpt>
      <trkpt lat="49.51811" lon="1.11725">
        <ele>165.8</ele>
        <time>2022-03-26T13:05:08Z</time>
      </trkpt>
      <trkpt lat="49.51812" lon="1.11724">
        <ele>165.8</ele>
        <time>2022-03-26T13:05:09Z</time>
      </trkpt>
      <trkpt lat="49.51812" lon="1.11722">
        <ele>165.8</ele>
        <time>2022-03-26T13:05:11Z</time>
      </trkpt>
      <trkpt lat="49.51813" lon="1.11721">
        <ele>165.9</ele>
        <time>2022-03-26T13:05:12Z</time>
      </trkpt>
      <trkpt lat="49.51814" lon="1.11719">
        <ele>165.9</ele>
        <time>2022-03-26T13:05:13Z</time>
      </trkpt>
      <trkpt lat="49.51816" lon="1.11715">
        <ele>166</ele>
        <time>2022-03-26T13:05:14Z</time>
      </trkpt>
      <trkpt lat="49.51817" lon="1.11711">
        <ele>166</ele>
        <time>2022-03-26T13:05:15Z</time>
      </trkpt>
      <trkpt lat="49.51818" lon="1.11709">
        <ele>166.1</ele>
        <time>2022-03-26T13:05:16Z</time>
      </trkpt>
      <trkpt lat="49.51821" lon="1.11702">
        <ele>166.2</ele>
        <time>2022-03-26T13:05:17Z</time>
      </trkpt>
      <trkpt lat="49.51823" lon="1.11694">
        <ele>166.3</ele>
        <time>2022-03-26T13:05:18Z</time>
      </trkpt>
      <trkpt lat="49.51825" lon="1.11687">
        <ele>166.4</ele>
        <time>2022-03-26T13:05:19Z</time>
      </trkpt>
      <trkpt lat="49.51831" lon="1.11674">
        <ele>166.6</ele>
        <time>2022-03-26T13:05:21Z</time>
      </trkpt>
      <trkpt lat="49.51833" lon="1.11668">
        <ele>166.7</ele>
        <time>2022-03-26T13:05:22Z</time>
      </trkpt>
      <trkpt lat="49.51834" lon="1.11664">
        <ele>166.8</ele>
        <time>2022-03-26T13:05:23Z</time>
      </trkpt>
      <trkpt lat="49.51832" lon="1.11659">
        <ele>166.9</ele>
        <time>2022-03-26T13:05:24Z</time>
      </trkpt>
      <trkpt lat="49.51832" lon="1.11658">
        <ele>166.9</ele>
        <time>2022-03-26T13:05:25Z</time>
      </trkpt>
      <trkpt lat="49.5183" lon="1.11654">
        <ele>166.9</ele>
        <time>2022-03-26T13:05:26Z</time>
      </trkpt>
      <trkpt lat="49.51828" lon="1.11649">
        <ele>167</ele>
        <time>2022-03-26T13:05:27Z</time>
      </trkpt>
      <trkpt lat="49.51824" lon="1.11644">
        <ele>167.1</ele>
        <time>2022-03-26T13:05:29Z</time>
      </trkpt>
      <trkpt lat="49.51822" lon="1.1164">
        <ele>167.2</ele>
        <time>2022-03-26T13:05:30Z</time>
      </trkpt>
      <trkpt lat="49.51821" lon="1.11639">
        <ele>167.2</ele>
        <time>2022-03-26T13:05:31Z</time>
      </trkpt>
      <trkpt lat="49.51821" lon="1.11636">
        <ele>167.2</ele>
        <time>2022-03-26T13:05:32Z</time>
      </trkpt>
      <trkpt lat="49.51821" lon="1.11634">
        <ele>167.3</ele>
        <time>2022-03-26T13:05:33Z</time>
      </trkpt>
      <trkpt lat="49.51821" lon="1.11633">
        <ele>167.3</ele>
        <time>2022-03-26T13:05:34Z</time>
      </trkpt>
      <trkpt lat="49.51821" lon="1.11631">
        <ele>167.3</ele>
        <time>2022-03-26T13:05:36Z</time>
      </trkpt>
      <trkpt lat="49.5182" lon="1.1163">
        <ele>167.3</ele>
        <time>2022-03-26T13:05:37Z</time>
      </trkpt>
      <trkpt lat="49.5182" lon="1.11624">
        <ele>167.3</ele>
        <time>2022-03-26T13:05:38Z</time>
      </trkpt>
      <trkpt lat="49.5182" lon="1.11621">
        <ele>167.3</ele>
        <time>2022-03-26T13:05:39Z</time>
      </trkpt>
      <trkpt lat="49.51818" lon="1.11614">
        <ele>167.4</ele>
        <time>2022-03-26T13:05:41Z</time>
      </trkpt>
      <trkpt lat="49.51817" lon="1.11608">
        <ele>167.4</ele>
        <time>2022-03-26T13:05:42Z</time>
      </trkpt>
      <trkpt lat="49.51817" lon="1.11602">
        <ele>167.4</ele>
        <time>2022-03-26T13:05:43Z</time>
      </trkpt>
      <trkpt lat="49.51816" lon="1.11594">
        <ele>167.4</ele>
        <time>2022-03-26T13:05:44Z</time>
      </trkpt>
      <trkpt lat="49.51814" lon="1.11588">
        <ele>167.3</ele>
        <time>2022-03-26T13:05:45Z</time>
      </trkpt>
      <trkpt lat="49.51813" lon="1.11582">
        <ele>167.3</ele>
        <time>2022-03-26T13:05:46Z</time>
      </trkpt>
      <trkpt lat="49.51811" lon="1.11573">
        <ele>167.2</ele>
        <time>2022-03-26T13:05:48Z</time>
      </trkpt>
      <trkpt lat="49.51809" lon="1.11563">
        <ele>167.2</ele>
        <time>2022-03-26T13:05:49Z</time>
      </trkpt>
      <trkpt lat="49.51808" lon="1.11553">
        <ele>167.1</ele>
        <time>2022-03-26T13:05:50Z</time>
      </trkpt>
      <trkpt lat="49.51805" lon="1.11536">
        <ele>166.9</ele>
        <time>2022-03-26T13:05:52Z</time>
      </trkpt>
      <trkpt lat="49.51803" lon="1.11528">
        <ele>166.9</ele>
        <time>2022-03-26T13:05:53Z</time>
      </trkpt>
      <trkpt lat="49.51802" lon="1.11521">
        <ele>166.8</ele>
        <time>2022-03-26T13:05:54Z</time>
      </trkpt>
      <trkpt lat="49.518" lon="1.11514">
        <ele>166.7</ele>
        <time>2022-03-26T13:05:55Z</time>
      </trkpt>
      <trkpt lat="49.51798" lon="1.11502">
        <ele>166.6</ele>
        <time>2022-03-26T13:05:56Z</time>
      </trkpt>
      <trkpt lat="49.51798" lon="1.11492">
        <ele>166.4</ele>
        <time>2022-03-26T13:05:57Z</time>
      </trkpt>
      <trkpt lat="49.51796" lon="1.11482">
        <ele>166.3</ele>
        <time>2022-03-26T13:05:58Z</time>
      </trkpt>
      <trkpt lat="49.51795" lon="1.11473">
        <ele>166.2</ele>
        <time>2022-03-26T13:05:59Z</time>
      </trkpt>
      <trkpt lat="49.51793" lon="1.11464">
        <ele>166.1</ele>
        <time>2022-03-26T13:06:00Z</time>
      </trkpt>
      <trkpt lat="49.51792" lon="1.11455">
        <ele>166</ele>
        <time>2022-03-26T13:06:01Z</time>
      </trkpt>
      <trkpt lat="49.51791" lon="1.11447">
        <ele>165.8</ele>
        <time>2022-03-26T13:06:02Z</time>
      </trkpt>
      <trkpt lat="49.5179" lon="1.11439">
        <ele>165.7</ele>
        <time>2022-03-26T13:06:03Z</time>
      </trkpt>
      <trkpt lat="49.51789" lon="1.1143">
        <ele>165.6</ele>
        <time>2022-03-26T13:06:04Z</time>
      </trkpt>
      <trkpt lat="49.51787" lon="1.1142">
        <ele>165.4</ele>
        <time>2022-03-26T13:06:05Z</time>
      </trkpt>
      <trkpt lat="49.51785" lon="1.11411">
        <ele>165.3</ele>
        <time>2022-03-26T13:06:06Z</time>
      </trkpt>
      <trkpt lat="49.51784" lon="1.11403">
        <ele>165.1</ele>
        <time>2022-03-26T13:06:07Z</time>
      </trkpt>
      <trkpt lat="49.51783" lon="1.11394">
        <ele>165</ele>
        <time>2022-03-26T13:06:08Z</time>
      </trkpt>
      <trkpt lat="49.51782" lon="1.11386">
        <ele>164.9</ele>
        <time>2022-03-26T13:06:09Z</time>
      </trkpt>
      <trkpt lat="49.5178" lon="1.11377">
        <ele>164.7</ele>
        <time>2022-03-26T13:06:10Z</time>
      </trkpt>
      <trkpt lat="49.51779" lon="1.11368">
        <ele>164.5</ele>
        <time>2022-03-26T13:06:11Z</time>
      </trkpt>
      <trkpt lat="49.51778" lon="1.11358">
        <ele>164.3</ele>
        <time>2022-03-26T13:06:12Z</time>
      </trkpt>
      <trkpt lat="49.51775" lon="1.11348">
        <ele>164.2</ele>
        <time>2022-03-26T13:06:13Z</time>
      </trkpt>
      <trkpt lat="49.51773" lon="1.11337">
        <ele>164</ele>
        <time>2022-03-26T13:06:14Z</time>
      </trkpt>
      <trkpt lat="49.51771" lon="1.11328">
        <ele>163.9</ele>
        <time>2022-03-26T13:06:15Z</time>
      </trkpt>
      <trkpt lat="49.51769" lon="1.11319">
        <ele>163.8</ele>
        <time>2022-03-26T13:06:16Z</time>
      </trkpt>
      <trkpt lat="49.51766" lon="1.1131">
        <ele>163.8</ele>
        <time>2022-03-26T13:06:17Z</time>
      </trkpt>
      <trkpt lat="49.51765" lon="1.11301">
        <ele>163.8</ele>
        <time>2022-03-26T13:06:18Z</time>
      </trkpt>
      <trkpt lat="49.51764" lon="1.11293">
        <ele>163.7</ele>
        <time>2022-03-26T13:06:19Z</time>
      </trkpt>
      <trkpt lat="49.51762" lon="1.11284">
        <ele>163.7</ele>
        <time>2022-03-26T13:06:20Z</time>
      </trkpt>
      <trkpt lat="49.5176" lon="1.11277">
        <ele>163.7</ele>
        <time>2022-03-26T13:06:21Z</time>
      </trkpt>
      <trkpt lat="49.51758" lon="1.11269">
        <ele>163.7</ele>
        <time>2022-03-26T13:06:22Z</time>
      </trkpt>
      <trkpt lat="49.51757" lon="1.11261">
        <ele>163.8</ele>
        <time>2022-03-26T13:06:23Z</time>
      </trkpt>
      <trkpt lat="49.51757" lon="1.11256">
        <ele>163.8</ele>
        <time>2022-03-26T13:06:24Z</time>
      </trkpt>
      <trkpt lat="49.51756" lon="1.11249">
        <ele>163.8</ele>
        <time>2022-03-26T13:06:25Z</time>
      </trkpt>
      <trkpt lat="49.51755" lon="1.11241">
        <ele>163.9</ele>
        <time>2022-03-26T13:06:26Z</time>
      </trkpt>
      <trkpt lat="49.51753" lon="1.11234">
        <ele>163.9</ele>
        <time>2022-03-26T13:06:27Z</time>
      </trkpt>
      <trkpt lat="49.51751" lon="1.11225">
        <ele>164</ele>
        <time>2022-03-26T13:06:28Z</time>
      </trkpt>
      <trkpt lat="49.51749" lon="1.11215">
        <ele>164.1</ele>
        <time>2022-03-26T13:06:29Z</time>
      </trkpt>
      <trkpt lat="49.51748" lon="1.11207">
        <ele>164.1</ele>
        <time>2022-03-26T13:06:30Z</time>
      </trkpt>
      <trkpt lat="49.51746" lon="1.112">
        <ele>164.2</ele>
        <time>2022-03-26T13:06:31Z</time>
      </trkpt>
      <trkpt lat="49.51745" lon="1.11195">
        <ele>164.3</ele>
        <time>2022-03-26T13:06:32Z</time>
      </trkpt>
      <trkpt lat="49.51743" lon="1.11188">
        <ele>164.3</ele>
        <time>2022-03-26T13:06:33Z</time>
      </trkpt>
      <trkpt lat="49.51742" lon="1.11184">
        <ele>164.4</ele>
        <time>2022-03-26T13:06:34Z</time>
      </trkpt>
      <trkpt lat="49.5174" lon="1.11177">
        <ele>164.4</ele>
        <time>2022-03-26T13:06:35Z</time>
      </trkpt>
      <trkpt lat="49.51737" lon="1.11167">
        <ele>164.5</ele>
        <time>2022-03-26T13:06:37Z</time>
      </trkpt>
      <trkpt lat="49.51735" lon="1.11159">
        <ele>164.6</ele>
        <time>2022-03-26T13:06:38Z</time>
      </trkpt>
      <trkpt lat="49.51735" lon="1.11142">
        <ele>164.7</ele>
        <time>2022-03-26T13:06:39Z</time>
      </trkpt>
      <trkpt lat="49.51734" lon="1.11135">
        <ele>164.7</ele>
        <time>2022-03-26T13:06:40Z</time>
      </trkpt>
      <trkpt lat="49.51734" lon="1.11127">
        <ele>164.8</ele>
        <time>2022-03-26T13:06:41Z</time>
      </trkpt>
      <trkpt lat="49.51732" lon="1.11119">
        <ele>164.8</ele>
        <time>2022-03-26T13:06:42Z</time>
      </trkpt>
      <trkpt lat="49.51731" lon="1.11111">
        <ele>164.8</ele>
        <time>2022-03-26T13:06:43Z</time>
      </trkpt>
      <trkpt lat="49.51728" lon="1.11104">
        <ele>164.8</ele>
        <time>2022-03-26T13:06:44Z</time>
      </trkpt>
      <trkpt lat="49.51727" lon="1.11097">
        <ele>164.8</ele>
        <time>2022-03-26T13:06:45Z</time>
      </trkpt>
      <trkpt lat="49.51725" lon="1.11089">
        <ele>164.9</ele>
        <time>2022-03-26T13:06:46Z</time>
      </trkpt>
      <trkpt lat="49.51723" lon="1.11081">
        <ele>164.9</ele>
        <time>2022-03-26T13:06:47Z</time>
      </trkpt>
      <trkpt lat="49.5172" lon="1.11072">
        <ele>164.9</ele>
        <time>2022-03-26T13:06:48Z</time>
      </trkpt>
      <trkpt lat="49.51718" lon="1.11065">
        <ele>164.9</ele>
        <time>2022-03-26T13:06:49Z</time>
      </trkpt>
      <trkpt lat="49.51716" lon="1.11059">
        <ele>164.9</ele>
        <time>2022-03-26T13:06:50Z</time>
      </trkpt>
      <trkpt lat="49.51715" lon="1.11051">
        <ele>164.9</ele>
        <time>2022-03-26T13:06:51Z</time>
      </trkpt>
      <trkpt lat="49.51714" lon="1.11043">
        <ele>164.9</ele>
        <time>2022-03-26T13:06:52Z</time>
      </trkpt>
      <trkpt lat="49.51714" lon="1.11037">
        <ele>165</ele>
        <time>2022-03-26T13:06:53Z</time>
      </trkpt>
      <trkpt lat="49.51713" lon="1.1103">
        <ele>165</ele>
        <time>2022-03-26T13:06:54Z</time>
      </trkpt>
      <trkpt lat="49.51712" lon="1.11021">
        <ele>165.1</ele>
        <time>2022-03-26T13:06:55Z</time>
      </trkpt>
      <trkpt lat="49.5171" lon="1.11013">
        <ele>165.1</ele>
        <time>2022-03-26T13:06:56Z</time>
      </trkpt>
      <trkpt lat="49.51709" lon="1.11007">
        <ele>165.1</ele>
        <time>2022-03-26T13:06:57Z</time>
      </trkpt>
      <trkpt lat="49.51707" lon="1.11">
        <ele>165.2</ele>
        <time>2022-03-26T13:06:58Z</time>
      </trkpt>
      <trkpt lat="49.5171" lon="1.10993">
        <ele>165.2</ele>
        <time>2022-03-26T13:07:00Z</time>
      </trkpt>
      <trkpt lat="49.51709" lon="1.10989">
        <ele>165.2</ele>
        <time>2022-03-26T13:07:01Z</time>
      </trkpt>
      <trkpt lat="49.51709" lon="1.10983">
        <ele>165.2</ele>
        <time>2022-03-26T13:07:02Z</time>
      </trkpt>
      <trkpt lat="49.51708" lon="1.10978">
        <ele>165.3</ele>
        <time>2022-03-26T13:07:03Z</time>
      </trkpt>
      <trkpt lat="49.51706" lon="1.10974">
        <ele>165.3</ele>
        <time>2022-03-26T13:07:04Z</time>
      </trkpt>
      <trkpt lat="49.51704" lon="1.10969">
        <ele>165.3</ele>
        <time>2022-03-26T13:07:05Z</time>
      </trkpt>
      <trkpt lat="49.51701" lon="1.10962">
        <ele>165.3</ele>
        <time>2022-03-26T13:07:06Z</time>
      </trkpt>
      <trkpt lat="49.51698" lon="1.10954">
        <ele>165.3</ele>
        <time>2022-03-26T13:07:07Z</time>
      </trkpt>
      <trkpt lat="49.51694" lon="1.10947">
        <ele>165.4</ele>
        <time>2022-03-26T13:07:08Z</time>
      </trkpt>
      <trkpt lat="49.51692" lon="1.1094">
        <ele>165.4</ele>
        <time>2022-03-26T13:07:09Z</time>
      </trkpt>
      <trkpt lat="49.5169" lon="1.10932">
        <ele>165.5</ele>
        <time>2022-03-26T13:07:10Z</time>
      </trkpt>
      <trkpt lat="49.51689" lon="1.10928">
        <ele>165.5</ele>
        <time>2022-03-26T13:07:11Z</time>
      </trkpt>
      <trkpt lat="49.51689" lon="1.10923">
        <ele>165.5</ele>
        <time>2022-03-26T13:07:12Z</time>
      </trkpt>
      <trkpt lat="49.51688" lon="1.10918">
        <ele>165.5</ele>
        <time>2022-03-26T13:07:13Z</time>
      </trkpt>
      <trkpt lat="49.51687" lon="1.10913">
        <ele>165.5</ele>
        <time>2022-03-26T13:07:14Z</time>
      </trkpt>
      <trkpt lat="49.51686" lon="1.10908">
        <ele>165.5</ele>
        <time>2022-03-26T13:07:15Z</time>
      </trkpt>
      <trkpt lat="49.51685" lon="1.10902">
        <ele>165.5</ele>
        <time>2022-03-26T13:07:16Z</time>
      </trkpt>
      <trkpt lat="49.51684" lon="1.10897">
        <ele>165.5</ele>
        <time>2022-03-26T13:07:17Z</time>
      </trkpt>
      <trkpt lat="49.51683" lon="1.10892">
        <ele>165.5</ele>
        <time>2022-03-26T13:07:18Z</time>
      </trkpt>
      <trkpt lat="49.51681" lon="1.10883">
        <ele>165.5</ele>
        <time>2022-03-26T13:07:20Z</time>
      </trkpt>
      <trkpt lat="49.51679" lon="1.10875">
        <ele>165.4</ele>
        <time>2022-03-26T13:07:21Z</time>
      </trkpt>
      <trkpt lat="49.51677" lon="1.10867">
        <ele>165.3</ele>
        <time>2022-03-26T13:07:22Z</time>
      </trkpt>
      <trkpt lat="49.51675" lon="1.1086">
        <ele>165.3</ele>
        <time>2022-03-26T13:07:24Z</time>
      </trkpt>
      <trkpt lat="49.51672" lon="1.10854">
        <ele>165.2</ele>
        <time>2022-03-26T13:07:25Z</time>
      </trkpt>
      <trkpt lat="49.51673" lon="1.10849">
        <ele>165.2</ele>
        <time>2022-03-26T13:07:26Z</time>
      </trkpt>
      <trkpt lat="49.51672" lon="1.10843">
        <ele>165.2</ele>
        <time>2022-03-26T13:07:27Z</time>
      </trkpt>
      <trkpt lat="49.51672" lon="1.1084">
        <ele>165.2</ele>
        <time>2022-03-26T13:07:28Z</time>
      </trkpt>
      <trkpt lat="49.51671" lon="1.10835">
        <ele>165.1</ele>
        <time>2022-03-26T13:07:29Z</time>
      </trkpt>
      <trkpt lat="49.5167" lon="1.1083">
        <ele>165.1</ele>
        <time>2022-03-26T13:07:30Z</time>
      </trkpt>
      <trkpt lat="49.51668" lon="1.10824">
        <ele>165.1</ele>
        <time>2022-03-26T13:07:31Z</time>
      </trkpt>
      <trkpt lat="49.51666" lon="1.10819">
        <ele>165</ele>
        <time>2022-03-26T13:07:32Z</time>
      </trkpt>
      <trkpt lat="49.51666" lon="1.10814">
        <ele>165</ele>
        <time>2022-03-26T13:07:33Z</time>
      </trkpt>
      <trkpt lat="49.51665" lon="1.10809">
        <ele>164.9</ele>
        <time>2022-03-26T13:07:34Z</time>
      </trkpt>
      <trkpt lat="49.51666" lon="1.10804">
        <ele>164.9</ele>
        <time>2022-03-26T13:07:35Z</time>
      </trkpt>
      <trkpt lat="49.51667" lon="1.108">
        <ele>164.9</ele>
        <time>2022-03-26T13:07:36Z</time>
      </trkpt>
      <trkpt lat="49.51669" lon="1.10797">
        <ele>164.8</ele>
        <time>2022-03-26T13:07:37Z</time>
      </trkpt>
      <trkpt lat="49.51671" lon="1.10794">
        <ele>164.8</ele>
        <time>2022-03-26T13:07:38Z</time>
      </trkpt>
      <trkpt lat="49.51674" lon="1.10792">
        <ele>164.8</ele>
        <time>2022-03-26T13:07:39Z</time>
      </trkpt>
      <trkpt lat="49.51677" lon="1.1079">
        <ele>164.8</ele>
        <time>2022-03-26T13:07:40Z</time>
      </trkpt>
      <trkpt lat="49.51679" lon="1.10786">
        <ele>164.8</ele>
        <time>2022-03-26T13:07:41Z</time>
      </trkpt>
      <trkpt lat="49.51681" lon="1.10783">
        <ele>164.8</ele>
        <time>2022-03-26T13:07:42Z</time>
      </trkpt>
      <trkpt lat="49.51684" lon="1.10779">
        <ele>164.8</ele>
        <time>2022-03-26T13:07:43Z</time>
      </trkpt>
      <trkpt lat="49.51685" lon="1.10777">
        <ele>164.8</ele>
        <time>2022-03-26T13:07:44Z</time>
      </trkpt>
      <trkpt lat="49.51686" lon="1.10774">
        <ele>164.9</ele>
        <time>2022-03-26T13:07:45Z</time>
      </trkpt>
      <trkpt lat="49.51687" lon="1.10768">
        <ele>164.9</ele>
        <time>2022-03-26T13:07:46Z</time>
      </trkpt>
      <trkpt lat="49.51688" lon="1.10763">
        <ele>165</ele>
        <time>2022-03-26T13:07:47Z</time>
      </trkpt>
      <trkpt lat="49.5169" lon="1.10758">
        <ele>165</ele>
        <time>2022-03-26T13:07:48Z</time>
      </trkpt>
      <trkpt lat="49.51693" lon="1.10755">
        <ele>165.1</ele>
        <time>2022-03-26T13:07:49Z</time>
      </trkpt>
      <trkpt lat="49.51695" lon="1.10751">
        <ele>165.1</ele>
        <time>2022-03-26T13:07:50Z</time>
      </trkpt>
      <trkpt lat="49.51697" lon="1.10746">
        <ele>165.1</ele>
        <time>2022-03-26T13:07:51Z</time>
      </trkpt>
      <trkpt lat="49.51699" lon="1.10741">
        <ele>165.2</ele>
        <time>2022-03-26T13:07:52Z</time>
      </trkpt>
      <trkpt lat="49.51701" lon="1.10735">
        <ele>165.2</ele>
        <time>2022-03-26T13:07:53Z</time>
      </trkpt>
      <trkpt lat="49.51704" lon="1.10731">
        <ele>165.3</ele>
        <time>2022-03-26T13:07:54Z</time>
      </trkpt>
      <trkpt lat="49.51707" lon="1.10727">
        <ele>165.3</ele>
        <time>2022-03-26T13:07:55Z</time>
      </trkpt>
      <trkpt lat="49.51707" lon="1.10722">
        <ele>165.3</ele>
        <time>2022-03-26T13:07:56Z</time>
      </trkpt>
      <trkpt lat="49.51708" lon="1.10717">
        <ele>165.3</ele>
        <time>2022-03-26T13:07:57Z</time>
      </trkpt>
      <trkpt lat="49.51709" lon="1.10712">
        <ele>165.4</ele>
        <time>2022-03-26T13:07:58Z</time>
      </trkpt>
      <trkpt lat="49.51709" lon="1.1071">
        <ele>165.4</ele>
        <time>2022-03-26T13:07:59Z</time>
      </trkpt>
      <trkpt lat="49.51709" lon="1.10705">
        <ele>165.4</ele>
        <time>2022-03-26T13:08:00Z</time>
      </trkpt>
      <trkpt lat="49.51708" lon="1.10698">
        <ele>165.4</ele>
        <time>2022-03-26T13:08:01Z</time>
      </trkpt>
      <trkpt lat="49.51707" lon="1.10692">
        <ele>165.5</ele>
        <time>2022-03-26T13:08:02Z</time>
      </trkpt>
      <trkpt lat="49.51706" lon="1.10688">
        <ele>165.5</ele>
        <time>2022-03-26T13:08:03Z</time>
      </trkpt>
      <trkpt lat="49.51705" lon="1.10683">
        <ele>165.5</ele>
        <time>2022-03-26T13:08:04Z</time>
      </trkpt>
      <trkpt lat="49.51703" lon="1.10677">
        <ele>165.5</ele>
        <time>2022-03-26T13:08:05Z</time>
      </trkpt>
      <trkpt lat="49.51701" lon="1.10669">
        <ele>165.5</ele>
        <time>2022-03-26T13:08:06Z</time>
      </trkpt>
      <trkpt lat="49.517" lon="1.10662">
        <ele>165.4</ele>
        <time>2022-03-26T13:08:07Z</time>
      </trkpt>
      <trkpt lat="49.51699" lon="1.10655">
        <ele>165.4</ele>
        <time>2022-03-26T13:08:08Z</time>
      </trkpt>
      <trkpt lat="49.51697" lon="1.10649">
        <ele>165.4</ele>
        <time>2022-03-26T13:08:09Z</time>
      </trkpt>
      <trkpt lat="49.51695" lon="1.10644">
        <ele>165.4</ele>
        <time>2022-03-26T13:08:10Z</time>
      </trkpt>
      <trkpt lat="49.51692" lon="1.1064">
        <ele>165.4</ele>
        <time>2022-03-26T13:08:11Z</time>
      </trkpt>
      <trkpt lat="49.51692" lon="1.10637">
        <ele>165.4</ele>
        <time>2022-03-26T13:08:12Z</time>
      </trkpt>
      <trkpt lat="49.51691" lon="1.10636">
        <ele>165.3</ele>
        <time>2022-03-26T13:08:13Z</time>
      </trkpt>
      <trkpt lat="49.51691" lon="1.10635">
        <ele>165.3</ele>
        <time>2022-03-26T13:08:14Z</time>
      </trkpt>
      <trkpt lat="49.51691" lon="1.10634">
        <ele>165.3</ele>
        <time>2022-03-26T13:08:15Z</time>
      </trkpt>
      <trkpt lat="49.51691" lon="1.10633">
        <ele>165.3</ele>
        <time>2022-03-26T13:08:16Z</time>
      </trkpt>
      <trkpt lat="49.51691" lon="1.10632">
        <ele>165.3</ele>
        <time>2022-03-26T13:08:17Z</time>
      </trkpt>
      <trkpt lat="49.51691" lon="1.10631">
        <ele>165.3</ele>
        <time>2022-03-26T13:08:18Z</time>
      </trkpt>
      <trkpt lat="49.51691" lon="1.1063">
        <ele>165.3</ele>
        <time>2022-03-26T13:08:19Z</time>
      </trkpt>
      <trkpt lat="49.51689" lon="1.10614">
        <ele>165.3</ele>
        <time>2022-03-26T13:08:20Z</time>
      </trkpt>
      <trkpt lat="49.51688" lon="1.10605">
        <ele>165.2</ele>
        <time>2022-03-26T13:08:21Z</time>
      </trkpt>
      <trkpt lat="49.51687" lon="1.10599">
        <ele>165.2</ele>
        <time>2022-03-26T13:08:22Z</time>
      </trkpt>
      <trkpt lat="49.51687" lon="1.10594">
        <ele>165.2</ele>
        <time>2022-03-26T13:08:23Z</time>
      </trkpt>
      <trkpt lat="49.51686" lon="1.1059">
        <ele>165.2</ele>
        <time>2022-03-26T13:08:24Z</time>
      </trkpt>
      <trkpt lat="49.51685" lon="1.10586">
        <ele>165.1</ele>
        <time>2022-03-26T13:08:25Z</time>
      </trkpt>
      <trkpt lat="49.51684" lon="1.10581">
        <ele>165.1</ele>
        <time>2022-03-26T13:08:26Z</time>
      </trkpt>
      <trkpt lat="49.51683" lon="1.10575">
        <ele>165.1</ele>
        <time>2022-03-26T13:08:27Z</time>
      </trkpt>
      <trkpt lat="49.51682" lon="1.10569">
        <ele>165</ele>
        <time>2022-03-26T13:08:28Z</time>
      </trkpt>
      <trkpt lat="49.5168" lon="1.10564">
        <ele>165</ele>
        <time>2022-03-26T13:08:29Z</time>
      </trkpt>
      <trkpt lat="49.51679" lon="1.10559">
        <ele>165</ele>
        <time>2022-03-26T13:08:30Z</time>
      </trkpt>
      <trkpt lat="49.51678" lon="1.10555">
        <ele>164.9</ele>
        <time>2022-03-26T13:08:31Z</time>
      </trkpt>
      <trkpt lat="49.51676" lon="1.10551">
        <ele>164.9</ele>
        <time>2022-03-26T13:08:32Z</time>
      </trkpt>
      <trkpt lat="49.51675" lon="1.10546">
        <ele>164.9</ele>
        <time>2022-03-26T13:08:33Z</time>
      </trkpt>
      <trkpt lat="49.51674" lon="1.10542">
        <ele>164.8</ele>
        <time>2022-03-26T13:08:34Z</time>
      </trkpt>
      <trkpt lat="49.51673" lon="1.10536">
        <ele>164.8</ele>
        <time>2022-03-26T13:08:35Z</time>
      </trkpt>
      <trkpt lat="49.51672" lon="1.10532">
        <ele>164.8</ele>
        <time>2022-03-26T13:08:36Z</time>
      </trkpt>
      <trkpt lat="49.51671" lon="1.10527">
        <ele>164.7</ele>
        <time>2022-03-26T13:08:37Z</time>
      </trkpt>
      <trkpt lat="49.51671" lon="1.10521">
        <ele>164.7</ele>
        <time>2022-03-26T13:08:38Z</time>
      </trkpt>
      <trkpt lat="49.5167" lon="1.10515">
        <ele>164.7</ele>
        <time>2022-03-26T13:08:39Z</time>
      </trkpt>
      <trkpt lat="49.5167" lon="1.10509">
        <ele>164.6</ele>
        <time>2022-03-26T13:08:40Z</time>
      </trkpt>
      <trkpt lat="49.51669" lon="1.10502">
        <ele>164.5</ele>
        <time>2022-03-26T13:08:41Z</time>
      </trkpt>
      <trkpt lat="49.51668" lon="1.1049">
        <ele>164.4</ele>
        <time>2022-03-26T13:08:42Z</time>
      </trkpt>
      <trkpt lat="49.51668" lon="1.10475">
        <ele>164.3</ele>
        <time>2022-03-26T13:08:43Z</time>
      </trkpt>
      <trkpt lat="49.51668" lon="1.10466">
        <ele>164.2</ele>
        <time>2022-03-26T13:08:44Z</time>
      </trkpt>
      <trkpt lat="49.51668" lon="1.10458">
        <ele>164.1</ele>
        <time>2022-03-26T13:08:45Z</time>
      </trkpt>
      <trkpt lat="49.51668" lon="1.10452">
        <ele>164</ele>
        <time>2022-03-26T13:08:46Z</time>
      </trkpt>
      <trkpt lat="49.51667" lon="1.10448">
        <ele>163.9</ele>
        <time>2022-03-26T13:08:47Z</time>
      </trkpt>
      <trkpt lat="49.51667" lon="1.10443">
        <ele>163.9</ele>
        <time>2022-03-26T13:08:48Z</time>
      </trkpt>
      <trkpt lat="49.51667" lon="1.10437">
        <ele>163.8</ele>
        <time>2022-03-26T13:08:49Z</time>
      </trkpt>
      <trkpt lat="49.51666" lon="1.10431">
        <ele>163.7</ele>
        <time>2022-03-26T13:08:50Z</time>
      </trkpt>
      <trkpt lat="49.51666" lon="1.10427">
        <ele>163.6</ele>
        <time>2022-03-26T13:08:51Z</time>
      </trkpt>
      <trkpt lat="49.51665" lon="1.10422">
        <ele>163.5</ele>
        <time>2022-03-26T13:08:52Z</time>
      </trkpt>
      <trkpt lat="49.51662" lon="1.10418">
        <ele>163.4</ele>
        <time>2022-03-26T13:08:53Z</time>
      </trkpt>
      <trkpt lat="49.51662" lon="1.10417">
        <ele>163.4</ele>
        <time>2022-03-26T13:08:54Z</time>
      </trkpt>
      <trkpt lat="49.51661" lon="1.10413">
        <ele>163.3</ele>
        <time>2022-03-26T13:08:55Z</time>
      </trkpt>
      <trkpt lat="49.51661" lon="1.10407">
        <ele>163.2</ele>
        <time>2022-03-26T13:08:56Z</time>
      </trkpt>
      <trkpt lat="49.5166" lon="1.10401">
        <ele>163.1</ele>
        <time>2022-03-26T13:08:57Z</time>
      </trkpt>
      <trkpt lat="49.51659" lon="1.10397">
        <ele>163.1</ele>
        <time>2022-03-26T13:08:58Z</time>
      </trkpt>
      <trkpt lat="49.51658" lon="1.10396">
        <ele>163.1</ele>
        <time>2022-03-26T13:08:59Z</time>
      </trkpt>
      <trkpt lat="49.51658" lon="1.10391">
        <ele>163</ele>
        <time>2022-03-26T13:09:00Z</time>
      </trkpt>
      <trkpt lat="49.51659" lon="1.1039">
        <ele>163</ele>
        <time>2022-03-26T13:09:01Z</time>
      </trkpt>
      <trkpt lat="49.51658" lon="1.10384">
        <ele>162.9</ele>
        <time>2022-03-26T13:09:02Z</time>
      </trkpt>
      <trkpt lat="49.51658" lon="1.10382">
        <ele>162.9</ele>
        <time>2022-03-26T13:09:03Z</time>
      </trkpt>
      <trkpt lat="49.51658" lon="1.10381">
        <ele>162.9</ele>
        <time>2022-03-26T13:09:04Z</time>
      </trkpt>
      <trkpt lat="49.51658" lon="1.1038">
        <ele>162.9</ele>
        <time>2022-03-26T13:09:05Z</time>
      </trkpt>
      <trkpt lat="49.51658" lon="1.10379">
        <ele>162.9</ele>
        <time>2022-03-26T13:09:06Z</time>
      </trkpt>
      <trkpt lat="49.51658" lon="1.10378">
        <ele>162.9</ele>
        <time>2022-03-26T13:09:07Z</time>
      </trkpt>
      <trkpt lat="49.51658" lon="1.10378">
        <ele>162.8</ele>
        <time>2022-03-26T13:09:08Z</time>
      </trkpt>
      <trkpt lat="49.51658" lon="1.10377">
        <ele>162.8</ele>
        <time>2022-03-26T13:09:09Z</time>
      </trkpt>
      <trkpt lat="49.51658" lon="1.10376">
        <ele>162.8</ele>
        <time>2022-03-26T13:09:10Z</time>
      </trkpt>
      <trkpt lat="49.51658" lon="1.10375">
        <ele>162.8</ele>
        <time>2022-03-26T13:09:11Z</time>
      </trkpt>
      <trkpt lat="49.51656" lon="1.10361">
        <ele>162.6</ele>
        <time>2022-03-26T13:09:12Z</time>
      </trkpt>
      <trkpt lat="49.51655" lon="1.10353">
        <ele>162.5</ele>
        <time>2022-03-26T13:09:13Z</time>
      </trkpt>
      <trkpt lat="49.51655" lon="1.10345">
        <ele>162.4</ele>
        <time>2022-03-26T13:09:14Z</time>
      </trkpt>
      <trkpt lat="49.51655" lon="1.10339">
        <ele>162.3</ele>
        <time>2022-03-26T13:09:15Z</time>
      </trkpt>
      <trkpt lat="49.51655" lon="1.10332">
        <ele>162.2</ele>
        <time>2022-03-26T13:09:16Z</time>
      </trkpt>
      <trkpt lat="49.51655" lon="1.10326">
        <ele>162.2</ele>
        <time>2022-03-26T13:09:17Z</time>
      </trkpt>
      <trkpt lat="49.51655" lon="1.10319">
        <ele>162.1</ele>
        <time>2022-03-26T13:09:18Z</time>
      </trkpt>
      <trkpt lat="49.51655" lon="1.10312">
        <ele>162.1</ele>
        <time>2022-03-26T13:09:19Z</time>
      </trkpt>
      <trkpt lat="49.51656" lon="1.10307">
        <ele>162</ele>
        <time>2022-03-26T13:09:20Z</time>
      </trkpt>
      <trkpt lat="49.51657" lon="1.10302">
        <ele>162</ele>
        <time>2022-03-26T13:09:21Z</time>
      </trkpt>
      <trkpt lat="49.51657" lon="1.103">
        <ele>162</ele>
        <time>2022-03-26T13:09:22Z</time>
      </trkpt>
      <trkpt lat="49.51656" lon="1.10294">
        <ele>162</ele>
        <time>2022-03-26T13:09:23Z</time>
      </trkpt>
      <trkpt lat="49.51655" lon="1.10292">
        <ele>162</ele>
        <time>2022-03-26T13:09:24Z</time>
      </trkpt>
      <trkpt lat="49.51655" lon="1.10287">
        <ele>162</ele>
        <time>2022-03-26T13:09:25Z</time>
      </trkpt>
      <trkpt lat="49.51655" lon="1.10282">
        <ele>161.9</ele>
        <time>2022-03-26T13:09:26Z</time>
      </trkpt>
      <trkpt lat="49.51655" lon="1.10281">
        <ele>161.9</ele>
        <time>2022-03-26T13:09:27Z</time>
      </trkpt>
      <trkpt lat="49.51655" lon="1.1028">
        <ele>161.9</ele>
        <time>2022-03-26T13:09:28Z</time>
      </trkpt>
      <trkpt lat="49.51655" lon="1.10279">
        <ele>161.9</ele>
        <time>2022-03-26T13:09:29Z</time>
      </trkpt>
      <trkpt lat="49.51655" lon="1.10278">
        <ele>161.9</ele>
        <time>2022-03-26T13:09:30Z</time>
      </trkpt>
      <trkpt lat="49.51655" lon="1.10277">
        <ele>161.9</ele>
        <time>2022-03-26T13:09:31Z</time>
      </trkpt>
      <trkpt lat="49.51655" lon="1.10277">
        <ele>161.9</ele>
        <time>2022-03-26T13:09:32Z</time>
      </trkpt>
      <trkpt lat="49.51656" lon="1.10275">
        <ele>161.9</ele>
        <time>2022-03-26T13:09:33Z</time>
      </trkpt>
      <trkpt lat="49.51656" lon="1.10274">
        <ele>161.9</ele>
        <time>2022-03-26T13:09:34Z</time>
      </trkpt>
      <trkpt lat="49.51655" lon="1.10273">
        <ele>161.9</ele>
        <time>2022-03-26T13:09:35Z</time>
      </trkpt>
      <trkpt lat="49.51655" lon="1.10273">
        <ele>161.9</ele>
        <time>2022-03-26T13:09:36Z</time>
      </trkpt>
      <trkpt lat="49.51655" lon="1.10272">
        <ele>161.9</ele>
        <time>2022-03-26T13:09:37Z</time>
      </trkpt>
      <trkpt lat="49.51654" lon="1.10271">
        <ele>161.9</ele>
        <time>2022-03-26T13:09:38Z</time>
      </trkpt>
      <trkpt lat="49.51653" lon="1.1027">
        <ele>161.9</ele>
        <time>2022-03-26T13:09:39Z</time>
      </trkpt>
      <trkpt lat="49.51653" lon="1.10269">
        <ele>161.9</ele>
        <time>2022-03-26T13:09:40Z</time>
      </trkpt>
      <trkpt lat="49.51652" lon="1.10269">
        <ele>161.8</ele>
        <time>2022-03-26T13:09:41Z</time>
      </trkpt>
      <trkpt lat="49.51652" lon="1.10268">
        <ele>161.8</ele>
        <time>2022-03-26T13:09:42Z</time>
      </trkpt>
      <trkpt lat="49.51652" lon="1.10268">
        <ele>161.8</ele>
        <time>2022-03-26T13:09:43Z</time>
      </trkpt>
      <trkpt lat="49.51651" lon="1.10267">
        <ele>161.8</ele>
        <time>2022-03-26T13:09:44Z</time>
      </trkpt>
      <trkpt lat="49.51651" lon="1.10267">
        <ele>161.8</ele>
        <time>2022-03-26T13:09:45Z</time>
      </trkpt>
      <trkpt lat="49.51651" lon="1.10266">
        <ele>161.8</ele>
        <time>2022-03-26T13:09:46Z</time>
      </trkpt>
      <trkpt lat="49.51649" lon="1.1026">
        <ele>161.6</ele>
        <time>2022-03-26T13:09:47Z</time>
      </trkpt>
      <trkpt lat="49.51649" lon="1.10258">
        <ele>161.6</ele>
        <time>2022-03-26T13:09:48Z</time>
      </trkpt>
      <trkpt lat="49.51649" lon="1.10256">
        <ele>161.6</ele>
        <time>2022-03-26T13:09:49Z</time>
      </trkpt>
      <trkpt lat="49.5165" lon="1.10257">
        <ele>161.5</ele>
        <time>2022-03-26T13:09:50Z</time>
      </trkpt>
      <trkpt lat="49.51651" lon="1.10257">
        <ele>161.5</ele>
        <time>2022-03-26T13:09:51Z</time>
      </trkpt>
      <trkpt lat="49.51652" lon="1.10258">
        <ele>161.5</ele>
        <time>2022-03-26T13:09:52Z</time>
      </trkpt>
      <trkpt lat="49.51652" lon="1.10257">
        <ele>161.4</ele>
        <time>2022-03-26T13:09:53Z</time>
      </trkpt>
      <trkpt lat="49.51652" lon="1.10255">
        <ele>161.4</ele>
        <time>2022-03-26T13:09:54Z</time>
      </trkpt>
      <trkpt lat="49.51652" lon="1.10253">
        <ele>161.4</ele>
        <time>2022-03-26T13:09:55Z</time>
      </trkpt>
      <trkpt lat="49.51652" lon="1.10251">
        <ele>161.3</ele>
        <time>2022-03-26T13:09:56Z</time>
      </trkpt>
      <trkpt lat="49.51651" lon="1.10249">
        <ele>161.3</ele>
        <time>2022-03-26T13:09:57Z</time>
      </trkpt>
      <trkpt lat="49.51649" lon="1.10242">
        <ele>161.1</ele>
        <time>2022-03-26T13:09:58Z</time>
      </trkpt>
      <trkpt lat="49.51645" lon="1.10231">
        <ele>160.8</ele>
        <time>2022-03-26T13:09:59Z</time>
      </trkpt>
      <trkpt lat="49.51642" lon="1.10222">
        <ele>160.6</ele>
        <time>2022-03-26T13:10:00Z</time>
      </trkpt>
      <trkpt lat="49.5164" lon="1.10215">
        <ele>160.4</ele>
        <time>2022-03-26T13:10:01Z</time>
      </trkpt>
      <trkpt lat="49.51639" lon="1.10206">
        <ele>160.1</ele>
        <time>2022-03-26T13:10:02Z</time>
      </trkpt>
      <trkpt lat="49.51636" lon="1.10199">
        <ele>159.9</ele>
        <time>2022-03-26T13:10:03Z</time>
      </trkpt>
      <trkpt lat="49.51633" lon="1.10191">
        <ele>159.7</ele>
        <time>2022-03-26T13:10:04Z</time>
      </trkpt>
      <trkpt lat="49.5163" lon="1.10185">
        <ele>159.6</ele>
        <time>2022-03-26T13:10:05Z</time>
      </trkpt>
      <trkpt lat="49.51627" lon="1.10178">
        <ele>159.4</ele>
        <time>2022-03-26T13:10:06Z</time>
      </trkpt>
      <trkpt lat="49.51625" lon="1.10173">
        <ele>159.3</ele>
        <time>2022-03-26T13:10:07Z</time>
      </trkpt>
      <trkpt lat="49.51623" lon="1.10168">
        <ele>159.2</ele>
        <time>2022-03-26T13:10:08Z</time>
      </trkpt>
      <trkpt lat="49.51621" lon="1.10164">
        <ele>159.1</ele>
        <time>2022-03-26T13:10:09Z</time>
      </trkpt>
      <trkpt lat="49.51619" lon="1.1016">
        <ele>159</ele>
        <time>2022-03-26T13:10:10Z</time>
      </trkpt>
      <trkpt lat="49.51617" lon="1.10156">
        <ele>158.9</ele>
        <time>2022-03-26T13:10:11Z</time>
      </trkpt>
      <trkpt lat="49.51615" lon="1.10151">
        <ele>158.7</ele>
        <time>2022-03-26T13:10:12Z</time>
      </trkpt>
      <trkpt lat="49.51614" lon="1.10146">
        <ele>158.6</ele>
        <time>2022-03-26T13:10:13Z</time>
      </trkpt>
      <trkpt lat="49.51611" lon="1.10144">
        <ele>158.5</ele>
        <time>2022-03-26T13:10:14Z</time>
      </trkpt>
      <trkpt lat="49.5161" lon="1.10143">
        <ele>158.5</ele>
        <time>2022-03-26T13:10:15Z</time>
      </trkpt>
      <trkpt lat="49.51609" lon="1.10141">
        <ele>158.5</ele>
        <time>2022-03-26T13:10:16Z</time>
      </trkpt>
      <trkpt lat="49.51608" lon="1.10139">
        <ele>158.4</ele>
        <time>2022-03-26T13:10:17Z</time>
      </trkpt>
      <trkpt lat="49.51607" lon="1.10138">
        <ele>158.4</ele>
        <time>2022-03-26T13:10:18Z</time>
      </trkpt>
      <trkpt lat="49.51606" lon="1.10137">
        <ele>158.3</ele>
        <time>2022-03-26T13:10:19Z</time>
      </trkpt>
      <trkpt lat="49.51605" lon="1.10136">
        <ele>158.3</ele>
        <time>2022-03-26T13:10:20Z</time>
      </trkpt>
      <trkpt lat="49.51604" lon="1.10135">
        <ele>158.3</ele>
        <time>2022-03-26T13:10:21Z</time>
      </trkpt>
      <trkpt lat="49.51604" lon="1.10133">
        <ele>158.2</ele>
        <time>2022-03-26T13:10:22Z</time>
      </trkpt>
      <trkpt lat="49.51603" lon="1.10132">
        <ele>158.2</ele>
        <time>2022-03-26T13:10:23Z</time>
      </trkpt>
      <trkpt lat="49.51602" lon="1.10131">
        <ele>158.1</ele>
        <time>2022-03-26T13:10:24Z</time>
      </trkpt>
      <trkpt lat="49.51602" lon="1.10131">
        <ele>158.1</ele>
        <time>2022-03-26T13:10:25Z</time>
      </trkpt>
      <trkpt lat="49.51601" lon="1.10131">
        <ele>158.1</ele>
        <time>2022-03-26T13:10:26Z</time>
      </trkpt>
      <trkpt lat="49.516" lon="1.10129">
        <ele>158.1</ele>
        <time>2022-03-26T13:10:27Z</time>
      </trkpt>
      <trkpt lat="49.516" lon="1.10128">
        <ele>158</ele>
        <time>2022-03-26T13:10:28Z</time>
      </trkpt>
      <trkpt lat="49.51599" lon="1.10127">
        <ele>158</ele>
        <time>2022-03-26T13:10:29Z</time>
      </trkpt>
      <trkpt lat="49.51599" lon="1.10126">
        <ele>157.9</ele>
        <time>2022-03-26T13:10:30Z</time>
      </trkpt>
      <trkpt lat="49.51598" lon="1.10125">
        <ele>157.9</ele>
        <time>2022-03-26T13:10:31Z</time>
      </trkpt>
      <trkpt lat="49.51597" lon="1.10125">
        <ele>157.9</ele>
        <time>2022-03-26T13:10:32Z</time>
      </trkpt>
      <trkpt lat="49.51596" lon="1.10124">
        <ele>157.8</ele>
        <time>2022-03-26T13:10:33Z</time>
      </trkpt>
      <trkpt lat="49.51596" lon="1.10123">
        <ele>157.8</ele>
        <time>2022-03-26T13:10:34Z</time>
      </trkpt>
      <trkpt lat="49.51595" lon="1.10122">
        <ele>157.8</ele>
        <time>2022-03-26T13:10:35Z</time>
      </trkpt>
      <trkpt lat="49.51595" lon="1.1012">
        <ele>157.7</ele>
        <time>2022-03-26T13:10:36Z</time>
      </trkpt>
      <trkpt lat="49.51593" lon="1.10116">
        <ele>157.6</ele>
        <time>2022-03-26T13:10:37Z</time>
      </trkpt>
      <trkpt lat="49.51592" lon="1.10115">
        <ele>157.6</ele>
        <time>2022-03-26T13:10:38Z</time>
      </trkpt>
      <trkpt lat="49.5159" lon="1.10111">
        <ele>157.4</ele>
        <time>2022-03-26T13:10:39Z</time>
      </trkpt>
      <trkpt lat="49.51588" lon="1.10104">
        <ele>157.3</ele>
        <time>2022-03-26T13:10:40Z</time>
      </trkpt>
      <trkpt lat="49.51585" lon="1.101">
        <ele>157.2</ele>
        <time>2022-03-26T13:10:41Z</time>
      </trkpt>
      <trkpt lat="49.51583" lon="1.10093">
        <ele>157.1</ele>
        <time>2022-03-26T13:10:42Z</time>
      </trkpt>
      <trkpt lat="49.51579" lon="1.10087">
        <ele>157.1</ele>
        <time>2022-03-26T13:10:43Z</time>
      </trkpt>
      <trkpt lat="49.51576" lon="1.10082">
        <ele>157.1</ele>
        <time>2022-03-26T13:10:44Z</time>
      </trkpt>
      <trkpt lat="49.51573" lon="1.10077">
        <ele>157.1</ele>
        <time>2022-03-26T13:10:45Z</time>
      </trkpt>
      <trkpt lat="49.5157" lon="1.1007">
        <ele>157.1</ele>
        <time>2022-03-26T13:10:46Z</time>
      </trkpt>
      <trkpt lat="49.51567" lon="1.10064">
        <ele>157.1</ele>
        <time>2022-03-26T13:10:47Z</time>
      </trkpt>
      <trkpt lat="49.51565" lon="1.10057">
        <ele>157.1</ele>
        <time>2022-03-26T13:10:48Z</time>
      </trkpt>
      <trkpt lat="49.51561" lon="1.10051">
        <ele>157.1</ele>
        <time>2022-03-26T13:10:49Z</time>
      </trkpt>
      <trkpt lat="49.51557" lon="1.10046">
        <ele>157.1</ele>
        <time>2022-03-26T13:10:50Z</time>
      </trkpt>
      <trkpt lat="49.51552" lon="1.1004">
        <ele>156.9</ele>
        <time>2022-03-26T13:10:51Z</time>
      </trkpt>
      <trkpt lat="49.51548" lon="1.10033">
        <ele>156.8</ele>
        <time>2022-03-26T13:10:52Z</time>
      </trkpt>
      <trkpt lat="49.51545" lon="1.10025">
        <ele>156.7</ele>
        <time>2022-03-26T13:10:53Z</time>
      </trkpt>
      <trkpt lat="49.51541" lon="1.10016">
        <ele>156.5</ele>
        <time>2022-03-26T13:10:54Z</time>
      </trkpt>
      <trkpt lat="49.51536" lon="1.1001">
        <ele>156.5</ele>
        <time>2022-03-26T13:10:55Z</time>
      </trkpt>
      <trkpt lat="49.51533" lon="1.10001">
        <ele>156.4</ele>
        <time>2022-03-26T13:10:56Z</time>
      </trkpt>
      <trkpt lat="49.51528" lon="1.09991">
        <ele>156.4</ele>
        <time>2022-03-26T13:10:57Z</time>
      </trkpt>
      <trkpt lat="49.51524" lon="1.09984">
        <ele>156.3</ele>
        <time>2022-03-26T13:10:58Z</time>
      </trkpt>
      <trkpt lat="49.5152" lon="1.09977">
        <ele>156.3</ele>
        <time>2022-03-26T13:10:59Z</time>
      </trkpt>
      <trkpt lat="49.51517" lon="1.09969">
        <ele>156.3</ele>
        <time>2022-03-26T13:11:00Z</time>
      </trkpt>
      <trkpt lat="49.51514" lon="1.09961">
        <ele>156.3</ele>
        <time>2022-03-26T13:11:01Z</time>
      </trkpt>
      <trkpt lat="49.51511" lon="1.09954">
        <ele>156.3</ele>
        <time>2022-03-26T13:11:02Z</time>
      </trkpt>
      <trkpt lat="49.51508" lon="1.09947">
        <ele>156.3</ele>
        <time>2022-03-26T13:11:03Z</time>
      </trkpt>
      <trkpt lat="49.51505" lon="1.09939">
        <ele>156.4</ele>
        <time>2022-03-26T13:11:04Z</time>
      </trkpt>
      <trkpt lat="49.51501" lon="1.0993">
        <ele>156.4</ele>
        <time>2022-03-26T13:11:05Z</time>
      </trkpt>
      <trkpt lat="49.51497" lon="1.09922">
        <ele>156.4</ele>
        <time>2022-03-26T13:11:06Z</time>
      </trkpt>
      <trkpt lat="49.51493" lon="1.09916">
        <ele>156.3</ele>
        <time>2022-03-26T13:11:07Z</time>
      </trkpt>
      <trkpt lat="49.51491" lon="1.09909">
        <ele>156.3</ele>
        <time>2022-03-26T13:11:08Z</time>
      </trkpt>
      <trkpt lat="49.51488" lon="1.099">
        <ele>156.2</ele>
        <time>2022-03-26T13:11:09Z</time>
      </trkpt>
      <trkpt lat="49.51484" lon="1.09894">
        <ele>156.1</ele>
        <time>2022-03-26T13:11:10Z</time>
      </trkpt>
      <trkpt lat="49.5148" lon="1.09889">
        <ele>155.9</ele>
        <time>2022-03-26T13:11:11Z</time>
      </trkpt>
      <trkpt lat="49.51477" lon="1.09883">
        <ele>155.8</ele>
        <time>2022-03-26T13:11:12Z</time>
      </trkpt>
      <trkpt lat="49.51474" lon="1.09876">
        <ele>155.7</ele>
        <time>2022-03-26T13:11:13Z</time>
      </trkpt>
      <trkpt lat="49.51471" lon="1.09868">
        <ele>155.5</ele>
        <time>2022-03-26T13:11:14Z</time>
      </trkpt>
      <trkpt lat="49.51468" lon="1.09861">
        <ele>155.3</ele>
        <time>2022-03-26T13:11:15Z</time>
      </trkpt>
      <trkpt lat="49.51466" lon="1.09852">
        <ele>155</ele>
        <time>2022-03-26T13:11:16Z</time>
      </trkpt>
      <trkpt lat="49.51463" lon="1.09845">
        <ele>154.8</ele>
        <time>2022-03-26T13:11:17Z</time>
      </trkpt>
      <trkpt lat="49.5146" lon="1.09838">
        <ele>154.5</ele>
        <time>2022-03-26T13:11:18Z</time>
      </trkpt>
      <trkpt lat="49.51457" lon="1.0983">
        <ele>154.1</ele>
        <time>2022-03-26T13:11:19Z</time>
      </trkpt>
      <trkpt lat="49.51453" lon="1.09823">
        <ele>153.7</ele>
        <time>2022-03-26T13:11:20Z</time>
      </trkpt>
      <trkpt lat="49.5145" lon="1.09816">
        <ele>153.3</ele>
        <time>2022-03-26T13:11:21Z</time>
      </trkpt>
      <trkpt lat="49.51447" lon="1.09809">
        <ele>152.9</ele>
        <time>2022-03-26T13:11:22Z</time>
      </trkpt>
      <trkpt lat="49.51445" lon="1.09804">
        <ele>152.6</ele>
        <time>2022-03-26T13:11:23Z</time>
      </trkpt>
      <trkpt lat="49.51443" lon="1.09801">
        <ele>152.3</ele>
        <time>2022-03-26T13:11:24Z</time>
      </trkpt>
      <trkpt lat="49.51441" lon="1.09798">
        <ele>152.1</ele>
        <time>2022-03-26T13:11:25Z</time>
      </trkpt>
      <trkpt lat="49.51439" lon="1.09794">
        <ele>151.9</ele>
        <time>2022-03-26T13:11:26Z</time>
      </trkpt>
      <trkpt lat="49.51438" lon="1.09793">
        <ele>151.8</ele>
        <time>2022-03-26T13:11:27Z</time>
      </trkpt>
      <trkpt lat="49.51435" lon="1.09789">
        <ele>151.5</ele>
        <time>2022-03-26T13:11:28Z</time>
      </trkpt>
      <trkpt lat="49.51435" lon="1.09787">
        <ele>151.4</ele>
        <time>2022-03-26T13:11:29Z</time>
      </trkpt>
      <trkpt lat="49.51433" lon="1.09786">
        <ele>151.3</ele>
        <time>2022-03-26T13:11:30Z</time>
      </trkpt>
      <trkpt lat="49.51431" lon="1.09782">
        <ele>151</ele>
        <time>2022-03-26T13:11:32Z</time>
      </trkpt>
      <trkpt lat="49.51429" lon="1.09778">
        <ele>150.8</ele>
        <time>2022-03-26T13:11:33Z</time>
      </trkpt>
      <trkpt lat="49.51428" lon="1.09773">
        <ele>150.6</ele>
        <time>2022-03-26T13:11:34Z</time>
      </trkpt>
      <trkpt lat="49.51427" lon="1.09772">
        <ele>150.5</ele>
        <time>2022-03-26T13:11:35Z</time>
      </trkpt>
      <trkpt lat="49.51426" lon="1.09767">
        <ele>150.2</ele>
        <time>2022-03-26T13:11:36Z</time>
      </trkpt>
      <trkpt lat="49.51426" lon="1.09765">
        <ele>150.2</ele>
        <time>2022-03-26T13:11:37Z</time>
      </trkpt>
      <trkpt lat="49.51424" lon="1.09761">
        <ele>149.9</ele>
        <time>2022-03-26T13:11:38Z</time>
      </trkpt>
      <trkpt lat="49.51424" lon="1.0976">
        <ele>149.9</ele>
        <time>2022-03-26T13:11:39Z</time>
      </trkpt>
      <trkpt lat="49.51422" lon="1.09755">
        <ele>149.6</ele>
        <time>2022-03-26T13:11:40Z</time>
      </trkpt>
      <trkpt lat="49.51421" lon="1.09754">
        <ele>149.6</ele>
        <time>2022-03-26T13:11:41Z</time>
      </trkpt>
      <trkpt lat="49.5142" lon="1.09749">
        <ele>149.3</ele>
        <time>2022-03-26T13:11:43Z</time>
      </trkpt>
      <trkpt lat="49.51419" lon="1.09747">
        <ele>149.2</ele>
        <time>2022-03-26T13:11:44Z</time>
      </trkpt>
      <trkpt lat="49.51417" lon="1.09743">
        <ele>148.9</ele>
        <time>2022-03-26T13:11:45Z</time>
      </trkpt>
      <trkpt lat="49.51416" lon="1.09741">
        <ele>148.9</ele>
        <time>2022-03-26T13:11:46Z</time>
      </trkpt>
      <trkpt lat="49.51414" lon="1.09738">
        <ele>148.7</ele>
        <time>2022-03-26T13:11:47Z</time>
      </trkpt>
      <trkpt lat="49.51413" lon="1.09737">
        <ele>148.6</ele>
        <time>2022-03-26T13:11:48Z</time>
      </trkpt>
      <trkpt lat="49.51409" lon="1.09732">
        <ele>148.2</ele>
        <time>2022-03-26T13:11:49Z</time>
      </trkpt>
      <trkpt lat="49.51408" lon="1.09731">
        <ele>148.1</ele>
        <time>2022-03-26T13:11:50Z</time>
      </trkpt>
      <trkpt lat="49.51406" lon="1.0973">
        <ele>148</ele>
        <time>2022-03-26T13:11:51Z</time>
      </trkpt>
      <trkpt lat="49.51404" lon="1.09725">
        <ele>147.8</ele>
        <time>2022-03-26T13:11:52Z</time>
      </trkpt>
      <trkpt lat="49.51404" lon="1.09723">
        <ele>147.7</ele>
        <time>2022-03-26T13:11:53Z</time>
      </trkpt>
      <trkpt lat="49.51403" lon="1.09719">
        <ele>147.5</ele>
        <time>2022-03-26T13:11:54Z</time>
      </trkpt>
      <trkpt lat="49.51402" lon="1.09718">
        <ele>147.4</ele>
        <time>2022-03-26T13:11:55Z</time>
      </trkpt>
      <trkpt lat="49.51401" lon="1.09714">
        <ele>147.3</ele>
        <time>2022-03-26T13:11:56Z</time>
      </trkpt>
      <trkpt lat="49.51399" lon="1.0971">
        <ele>147.1</ele>
        <time>2022-03-26T13:11:57Z</time>
      </trkpt>
      <trkpt lat="49.51398" lon="1.09706">
        <ele>146.9</ele>
        <time>2022-03-26T13:11:58Z</time>
      </trkpt>
      <trkpt lat="49.51397" lon="1.09705">
        <ele>146.9</ele>
        <time>2022-03-26T13:11:59Z</time>
      </trkpt>
      <trkpt lat="49.51396" lon="1.09703">
        <ele>146.8</ele>
        <time>2022-03-26T13:12:00Z</time>
      </trkpt>
      <trkpt lat="49.51395" lon="1.09701">
        <ele>146.7</ele>
        <time>2022-03-26T13:12:01Z</time>
      </trkpt>
      <trkpt lat="49.51393" lon="1.09697">
        <ele>146.6</ele>
        <time>2022-03-26T13:12:02Z</time>
      </trkpt>
      <trkpt lat="49.51393" lon="1.09696">
        <ele>146.5</ele>
        <time>2022-03-26T13:12:03Z</time>
      </trkpt>
      <trkpt lat="49.51391" lon="1.09694">
        <ele>146.4</ele>
        <time>2022-03-26T13:12:04Z</time>
      </trkpt>
      <trkpt lat="49.5139" lon="1.09693">
        <ele>146.4</ele>
        <time>2022-03-26T13:12:05Z</time>
      </trkpt>
      <trkpt lat="49.51389" lon="1.09689">
        <ele>146.3</ele>
        <time>2022-03-26T13:12:06Z</time>
      </trkpt>
      <trkpt lat="49.51388" lon="1.09688">
        <ele>146.2</ele>
        <time>2022-03-26T13:12:07Z</time>
      </trkpt>
      <trkpt lat="49.51388" lon="1.09686">
        <ele>146.2</ele>
        <time>2022-03-26T13:12:08Z</time>
      </trkpt>
      <trkpt lat="49.51386" lon="1.09682">
        <ele>146</ele>
        <time>2022-03-26T13:12:09Z</time>
      </trkpt>
      <trkpt lat="49.51385" lon="1.09681">
        <ele>146</ele>
        <time>2022-03-26T13:12:10Z</time>
      </trkpt>
      <trkpt lat="49.51384" lon="1.0968">
        <ele>146</ele>
        <time>2022-03-26T13:12:11Z</time>
      </trkpt>
      <trkpt lat="49.51384" lon="1.09679">
        <ele>145.9</ele>
        <time>2022-03-26T13:12:12Z</time>
      </trkpt>
      <trkpt lat="49.51384" lon="1.09678">
        <ele>145.9</ele>
        <time>2022-03-26T13:12:13Z</time>
      </trkpt>
      <trkpt lat="49.51384" lon="1.09677">
        <ele>145.9</ele>
        <time>2022-03-26T13:12:14Z</time>
      </trkpt>
      <trkpt lat="49.51384" lon="1.09676">
        <ele>145.9</ele>
        <time>2022-03-26T13:12:15Z</time>
      </trkpt>
      <trkpt lat="49.51383" lon="1.09675">
        <ele>145.8</ele>
        <time>2022-03-26T13:12:16Z</time>
      </trkpt>
      <trkpt lat="49.51382" lon="1.09673">
        <ele>145.8</ele>
        <time>2022-03-26T13:12:17Z</time>
      </trkpt>
      <trkpt lat="49.51381" lon="1.09671">
        <ele>145.7</ele>
        <time>2022-03-26T13:12:18Z</time>
      </trkpt>
      <trkpt lat="49.5138" lon="1.0967">
        <ele>145.7</ele>
        <time>2022-03-26T13:12:19Z</time>
      </trkpt>
      <trkpt lat="49.5138" lon="1.09668">
        <ele>145.6</ele>
        <time>2022-03-26T13:12:20Z</time>
      </trkpt>
      <trkpt lat="49.51379" lon="1.09666">
        <ele>145.6</ele>
        <time>2022-03-26T13:12:21Z</time>
      </trkpt>
      <trkpt lat="49.51377" lon="1.09661">
        <ele>145.4</ele>
        <time>2022-03-26T13:12:22Z</time>
      </trkpt>
      <trkpt lat="49.51376" lon="1.0966">
        <ele>145.4</ele>
        <time>2022-03-26T13:12:23Z</time>
      </trkpt>
      <trkpt lat="49.51373" lon="1.09656">
        <ele>145.3</ele>
        <time>2022-03-26T13:12:24Z</time>
      </trkpt>
      <trkpt lat="49.5137" lon="1.09654">
        <ele>145.2</ele>
        <time>2022-03-26T13:12:25Z</time>
      </trkpt>
      <trkpt lat="49.51368" lon="1.09652">
        <ele>145.1</ele>
        <time>2022-03-26T13:12:26Z</time>
      </trkpt>
      <trkpt lat="49.51366" lon="1.0965">
        <ele>145</ele>
        <time>2022-03-26T13:12:27Z</time>
      </trkpt>
      <trkpt lat="49.51363" lon="1.09649">
        <ele>144.9</ele>
        <time>2022-03-26T13:12:28Z</time>
      </trkpt>
      <trkpt lat="49.5136" lon="1.09649">
        <ele>145.2</ele>
        <time>2022-03-26T13:12:29Z</time>
      </trkpt>
      <trkpt lat="49.51359" lon="1.09648">
        <ele>145.2</ele>
        <time>2022-03-26T13:12:30Z</time>
      </trkpt>
      <trkpt lat="49.51355" lon="1.09648">
        <ele>145.5</ele>
        <time>2022-03-26T13:12:31Z</time>
      </trkpt>
      <trkpt lat="49.51353" lon="1.09647">
        <ele>145.6</ele>
        <time>2022-03-26T13:12:32Z</time>
      </trkpt>
      <trkpt lat="49.5135" lon="1.09647">
        <ele>145.8</ele>
        <time>2022-03-26T13:12:33Z</time>
      </trkpt>
      <trkpt lat="49.51347" lon="1.09648">
        <ele>146.1</ele>
        <time>2022-03-26T13:12:34Z</time>
      </trkpt>
      <trkpt lat="49.51346" lon="1.09648">
        <ele>146.1</ele>
        <time>2022-03-26T13:12:35Z</time>
      </trkpt>
      <trkpt lat="49.51343" lon="1.0965">
        <ele>146.5</ele>
        <time>2022-03-26T13:12:36Z</time>
      </trkpt>
      <trkpt lat="49.51341" lon="1.09651">
        <ele>146.6</ele>
        <time>2022-03-26T13:12:37Z</time>
      </trkpt>
      <trkpt lat="49.51339" lon="1.09654">
        <ele>147</ele>
        <time>2022-03-26T13:12:38Z</time>
      </trkpt>
      <trkpt lat="49.51338" lon="1.09654">
        <ele>147.1</ele>
        <time>2022-03-26T13:12:39Z</time>
      </trkpt>
      <trkpt lat="49.51337" lon="1.09655">
        <ele>147.3</ele>
        <time>2022-03-26T13:12:40Z</time>
      </trkpt>
      <trkpt lat="49.51335" lon="1.09657">
        <ele>147.4</ele>
        <time>2022-03-26T13:12:41Z</time>
      </trkpt>
      <trkpt lat="49.51333" lon="1.0966">
        <ele>147.8</ele>
        <time>2022-03-26T13:12:42Z</time>
      </trkpt>
      <trkpt lat="49.51332" lon="1.09661">
        <ele>148</ele>
        <time>2022-03-26T13:12:43Z</time>
      </trkpt>
      <trkpt lat="49.5133" lon="1.09662">
        <ele>148.1</ele>
        <time>2022-03-26T13:12:44Z</time>
      </trkpt>
      <trkpt lat="49.51329" lon="1.09663">
        <ele>148.2</ele>
        <time>2022-03-26T13:12:45Z</time>
      </trkpt>
      <trkpt lat="49.51329" lon="1.09664">
        <ele>148.3</ele>
        <time>2022-03-26T13:12:46Z</time>
      </trkpt>
      <trkpt lat="49.51328" lon="1.09667">
        <ele>148.5</ele>
        <time>2022-03-26T13:12:47Z</time>
      </trkpt>
      <trkpt lat="49.51328" lon="1.09669">
        <ele>148.7</ele>
        <time>2022-03-26T13:12:48Z</time>
      </trkpt>
      <trkpt lat="49.51327" lon="1.09671">
        <ele>148.8</ele>
        <time>2022-03-26T13:12:49Z</time>
      </trkpt>
      <trkpt lat="49.51324" lon="1.09674">
        <ele>149.2</ele>
        <time>2022-03-26T13:12:50Z</time>
      </trkpt>
      <trkpt lat="49.51324" lon="1.09675">
        <ele>149.3</ele>
        <time>2022-03-26T13:12:51Z</time>
      </trkpt>
      <trkpt lat="49.51323" lon="1.09677">
        <ele>149.4</ele>
        <time>2022-03-26T13:12:52Z</time>
      </trkpt>
      <trkpt lat="49.51322" lon="1.09679">
        <ele>149.5</ele>
        <time>2022-03-26T13:12:53Z</time>
      </trkpt>
      <trkpt lat="49.5132" lon="1.09682">
        <ele>149.8</ele>
        <time>2022-03-26T13:12:54Z</time>
      </trkpt>
      <trkpt lat="49.51319" lon="1.09682">
        <ele>149.9</ele>
        <time>2022-03-26T13:12:55Z</time>
      </trkpt>
      <trkpt lat="49.51317" lon="1.09685">
        <ele>150.1</ele>
        <time>2022-03-26T13:12:56Z</time>
      </trkpt>
      <trkpt lat="49.51317" lon="1.09686">
        <ele>150.2</ele>
        <time>2022-03-26T13:12:57Z</time>
      </trkpt>
      <trkpt lat="49.51314" lon="1.09688">
        <ele>150.4</ele>
        <time>2022-03-26T13:12:58Z</time>
      </trkpt>
      <trkpt lat="49.51313" lon="1.0969">
        <ele>150.5</ele>
        <time>2022-03-26T13:12:59Z</time>
      </trkpt>
      <trkpt lat="49.51312" lon="1.09692">
        <ele>150.6</ele>
        <time>2022-03-26T13:13:00Z</time>
      </trkpt>
      <trkpt lat="49.5131" lon="1.09695">
        <ele>150.7</ele>
        <time>2022-03-26T13:13:02Z</time>
      </trkpt>
      <trkpt lat="49.51309" lon="1.09697">
        <ele>150.9</ele>
        <time>2022-03-26T13:13:03Z</time>
      </trkpt>
      <trkpt lat="49.51306" lon="1.09701">
        <ele>151</ele>
        <time>2022-03-26T13:13:05Z</time>
      </trkpt>
      <trkpt lat="49.51304" lon="1.09702">
        <ele>151.1</ele>
        <time>2022-03-26T13:13:06Z</time>
      </trkpt>
      <trkpt lat="49.51301" lon="1.09703">
        <ele>151.2</ele>
        <time>2022-03-26T13:13:08Z</time>
      </trkpt>
      <trkpt lat="49.51298" lon="1.09706">
        <ele>151.3</ele>
        <time>2022-03-26T13:13:09Z</time>
      </trkpt>
      <trkpt lat="49.51297" lon="1.09707">
        <ele>151.3</ele>
        <time>2022-03-26T13:13:10Z</time>
      </trkpt>
      <trkpt lat="49.51296" lon="1.09708">
        <ele>151.3</ele>
        <time>2022-03-26T13:13:11Z</time>
      </trkpt>
      <trkpt lat="49.51296" lon="1.09709">
        <ele>151.3</ele>
        <time>2022-03-26T13:13:12Z</time>
      </trkpt>
      <trkpt lat="49.51296" lon="1.0971">
        <ele>151.3</ele>
        <time>2022-03-26T13:13:13Z</time>
      </trkpt>
      <trkpt lat="49.51295" lon="1.09712">
        <ele>151.3</ele>
        <time>2022-03-26T13:13:15Z</time>
      </trkpt>
      <trkpt lat="49.51295" lon="1.09713">
        <ele>151.3</ele>
        <time>2022-03-26T13:13:16Z</time>
      </trkpt>
      <trkpt lat="49.51294" lon="1.09714">
        <ele>151.3</ele>
        <time>2022-03-26T13:13:17Z</time>
      </trkpt>
      <trkpt lat="49.51294" lon="1.09716">
        <ele>151.3</ele>
        <time>2022-03-26T13:13:18Z</time>
      </trkpt>
      <trkpt lat="49.51293" lon="1.09717">
        <ele>151.3</ele>
        <time>2022-03-26T13:13:19Z</time>
      </trkpt>
      <trkpt lat="49.51273" lon="1.09744">
        <ele>151.5</ele>
        <time>2022-03-26T13:13:30Z</time>
      </trkpt>
      <trkpt lat="49.51265" lon="1.09752">
        <ele>151.6</ele>
        <time>2022-03-26T13:13:31Z</time>
      </trkpt>
      <trkpt lat="49.51261" lon="1.09757">
        <ele>151.6</ele>
        <time>2022-03-26T13:13:32Z</time>
      </trkpt>
      <trkpt lat="49.51258" lon="1.09761">
        <ele>151.7</ele>
        <time>2022-03-26T13:13:33Z</time>
      </trkpt>
      <trkpt lat="49.51255" lon="1.09766">
        <ele>151.7</ele>
        <time>2022-03-26T13:13:35Z</time>
      </trkpt>
      <trkpt lat="49.51252" lon="1.09769">
        <ele>151.8</ele>
        <time>2022-03-26T13:13:36Z</time>
      </trkpt>
      <trkpt lat="49.5125" lon="1.09772">
        <ele>151.8</ele>
        <time>2022-03-26T13:13:37Z</time>
      </trkpt>
      <trkpt lat="49.51249" lon="1.09773">
        <ele>151.8</ele>
        <time>2022-03-26T13:13:38Z</time>
      </trkpt>
      <trkpt lat="49.51248" lon="1.09776">
        <ele>151.8</ele>
        <time>2022-03-26T13:13:39Z</time>
      </trkpt>
      <trkpt lat="49.51246" lon="1.09779">
        <ele>151.8</ele>
        <time>2022-03-26T13:13:41Z</time>
      </trkpt>
      <trkpt lat="49.51243" lon="1.09784">
        <ele>151.9</ele>
        <time>2022-03-26T13:13:42Z</time>
      </trkpt>
      <trkpt lat="49.51242" lon="1.09786">
        <ele>151.9</ele>
        <time>2022-03-26T13:13:43Z</time>
      </trkpt>
      <trkpt lat="49.5124" lon="1.09788">
        <ele>151.9</ele>
        <time>2022-03-26T13:13:44Z</time>
      </trkpt>
      <trkpt lat="49.51238" lon="1.09792">
        <ele>151.9</ele>
        <time>2022-03-26T13:13:46Z</time>
      </trkpt>
      <trkpt lat="49.51236" lon="1.09796">
        <ele>151.9</ele>
        <time>2022-03-26T13:13:47Z</time>
      </trkpt>
      <trkpt lat="49.51222" lon="1.09816">
        <ele>152.1</ele>
        <time>2022-03-26T13:13:49Z</time>
      </trkpt>
      <trkpt lat="49.5121" lon="1.09834">
        <ele>152.4</ele>
        <time>2022-03-26T13:13:50Z</time>
      </trkpt>
      <trkpt lat="49.51206" lon="1.0984">
        <ele>152.4</ele>
        <time>2022-03-26T13:13:51Z</time>
      </trkpt>
      <trkpt lat="49.51201" lon="1.09846">
        <ele>152.5</ele>
        <time>2022-03-26T13:13:52Z</time>
      </trkpt>
      <trkpt lat="49.51192" lon="1.09858">
        <ele>152.7</ele>
        <time>2022-03-26T13:13:54Z</time>
      </trkpt>
      <trkpt lat="49.5119" lon="1.09861">
        <ele>152.7</ele>
        <time>2022-03-26T13:13:55Z</time>
      </trkpt>
      <trkpt lat="49.51186" lon="1.09866">
        <ele>152.8</ele>
        <time>2022-03-26T13:13:56Z</time>
      </trkpt>
      <trkpt lat="49.51183" lon="1.09868">
        <ele>152.8</ele>
        <time>2022-03-26T13:13:57Z</time>
      </trkpt>
      <trkpt lat="49.5118" lon="1.09871">
        <ele>152.9</ele>
        <time>2022-03-26T13:13:58Z</time>
      </trkpt>
      <trkpt lat="49.51177" lon="1.09875">
        <ele>152.9</ele>
        <time>2022-03-26T13:13:59Z</time>
      </trkpt>
      <trkpt lat="49.51174" lon="1.09879">
        <ele>153</ele>
        <time>2022-03-26T13:14:00Z</time>
      </trkpt>
      <trkpt lat="49.51171" lon="1.09882">
        <ele>153.1</ele>
        <time>2022-03-26T13:14:01Z</time>
      </trkpt>
      <trkpt lat="49.51169" lon="1.09885">
        <ele>153.1</ele>
        <time>2022-03-26T13:14:02Z</time>
      </trkpt>
      <trkpt lat="49.51166" lon="1.09889">
        <ele>153.2</ele>
        <time>2022-03-26T13:14:03Z</time>
      </trkpt>
      <trkpt lat="49.51164" lon="1.09893">
        <ele>153.3</ele>
        <time>2022-03-26T13:14:04Z</time>
      </trkpt>
      <trkpt lat="49.51161" lon="1.09898">
        <ele>153.3</ele>
        <time>2022-03-26T13:14:05Z</time>
      </trkpt>
      <trkpt lat="49.51158" lon="1.09902">
        <ele>153.4</ele>
        <time>2022-03-26T13:14:07Z</time>
      </trkpt>
      <trkpt lat="49.51155" lon="1.09905">
        <ele>153.5</ele>
        <time>2022-03-26T13:14:08Z</time>
      </trkpt>
      <trkpt lat="49.51152" lon="1.09909">
        <ele>153.6</ele>
        <time>2022-03-26T13:14:09Z</time>
      </trkpt>
      <trkpt lat="49.51151" lon="1.09911">
        <ele>153.6</ele>
        <time>2022-03-26T13:14:10Z</time>
      </trkpt>
      <trkpt lat="49.51149" lon="1.09914">
        <ele>153.6</ele>
        <time>2022-03-26T13:14:12Z</time>
      </trkpt>
      <trkpt lat="49.51146" lon="1.09916">
        <ele>153.7</ele>
        <time>2022-03-26T13:14:13Z</time>
      </trkpt>
      <trkpt lat="49.51143" lon="1.09919">
        <ele>153.7</ele>
        <time>2022-03-26T13:14:14Z</time>
      </trkpt>
      <trkpt lat="49.51141" lon="1.09921">
        <ele>153.8</ele>
        <time>2022-03-26T13:14:15Z</time>
      </trkpt>
      <trkpt lat="49.51139" lon="1.09924">
        <ele>153.8</ele>
        <time>2022-03-26T13:14:16Z</time>
      </trkpt>
      <trkpt lat="49.51137" lon="1.09928">
        <ele>153.9</ele>
        <time>2022-03-26T13:14:17Z</time>
      </trkpt>
      <trkpt lat="49.51135" lon="1.09932">
        <ele>153.9</ele>
        <time>2022-03-26T13:14:19Z</time>
      </trkpt>
      <trkpt lat="49.51132" lon="1.09936">
        <ele>154</ele>
        <time>2022-03-26T13:14:20Z</time>
      </trkpt>
      <trkpt lat="49.51131" lon="1.0994">
        <ele>154.1</ele>
        <time>2022-03-26T13:14:21Z</time>
      </trkpt>
      <trkpt lat="49.51128" lon="1.09946">
        <ele>154.1</ele>
        <time>2022-03-26T13:14:22Z</time>
      </trkpt>
      <trkpt lat="49.51125" lon="1.09951">
        <ele>154.2</ele>
        <time>2022-03-26T13:14:23Z</time>
      </trkpt>
      <trkpt lat="49.51122" lon="1.09955">
        <ele>154.3</ele>
        <time>2022-03-26T13:14:25Z</time>
      </trkpt>
      <trkpt lat="49.5112" lon="1.0996">
        <ele>154.4</ele>
        <time>2022-03-26T13:14:26Z</time>
      </trkpt>
      <trkpt lat="49.51117" lon="1.09964">
        <ele>154.4</ele>
        <time>2022-03-26T13:14:27Z</time>
      </trkpt>
      <trkpt lat="49.51114" lon="1.09968">
        <ele>154.5</ele>
        <time>2022-03-26T13:14:28Z</time>
      </trkpt>
      <trkpt lat="49.51111" lon="1.09973">
        <ele>154.6</ele>
        <time>2022-03-26T13:14:29Z</time>
      </trkpt>
      <trkpt lat="49.51107" lon="1.09979">
        <ele>154.7</ele>
        <time>2022-03-26T13:14:31Z</time>
      </trkpt>
      <trkpt lat="49.51104" lon="1.09983">
        <ele>154.8</ele>
        <time>2022-03-26T13:14:32Z</time>
      </trkpt>
      <trkpt lat="49.51101" lon="1.09989">
        <ele>154.9</ele>
        <time>2022-03-26T13:14:33Z</time>
      </trkpt>
      <trkpt lat="49.51098" lon="1.09993">
        <ele>155</ele>
        <time>2022-03-26T13:14:34Z</time>
      </trkpt>
      <trkpt lat="49.51095" lon="1.09997">
        <ele>155.1</ele>
        <time>2022-03-26T13:14:35Z</time>
      </trkpt>
      <trkpt lat="49.51094" lon="1.09999">
        <ele>155.1</ele>
        <time>2022-03-26T13:14:36Z</time>
      </trkpt>
      <trkpt lat="49.51089" lon="1.10005">
        <ele>155.2</ele>
        <time>2022-03-26T13:14:38Z</time>
      </trkpt>
      <trkpt lat="49.51085" lon="1.10011">
        <ele>155.2</ele>
        <time>2022-03-26T13:14:39Z</time>
      </trkpt>
      <trkpt lat="49.51083" lon="1.10015">
        <ele>155.3</ele>
        <time>2022-03-26T13:14:40Z</time>
      </trkpt>
      <trkpt lat="49.51077" lon="1.10023">
        <ele>155.4</ele>
        <time>2022-03-26T13:14:42Z</time>
      </trkpt>
      <trkpt lat="49.51072" lon="1.10033">
        <ele>155.5</ele>
        <time>2022-03-26T13:14:43Z</time>
      </trkpt>
      <trkpt lat="49.51066" lon="1.10044">
        <ele>155.6</ele>
        <time>2022-03-26T13:14:44Z</time>
      </trkpt>
      <trkpt lat="49.51062" lon="1.10051">
        <ele>155.6</ele>
        <time>2022-03-26T13:14:46Z</time>
      </trkpt>
      <trkpt lat="49.51059" lon="1.10058">
        <ele>155.7</ele>
        <time>2022-03-26T13:14:47Z</time>
      </trkpt>
      <trkpt lat="49.51055" lon="1.10065">
        <ele>155.7</ele>
        <time>2022-03-26T13:14:48Z</time>
      </trkpt>
      <trkpt lat="49.51049" lon="1.10073">
        <ele>155.7</ele>
        <time>2022-03-26T13:14:49Z</time>
      </trkpt>
      <trkpt lat="49.51045" lon="1.10079">
        <ele>155.8</ele>
        <time>2022-03-26T13:14:50Z</time>
      </trkpt>
      <trkpt lat="49.51041" lon="1.10085">
        <ele>155.8</ele>
        <time>2022-03-26T13:14:51Z</time>
      </trkpt>
      <trkpt lat="49.51036" lon="1.1009">
        <ele>155.8</ele>
        <time>2022-03-26T13:14:52Z</time>
      </trkpt>
      <trkpt lat="49.51031" lon="1.10094">
        <ele>155.8</ele>
        <time>2022-03-26T13:14:53Z</time>
      </trkpt>
      <trkpt lat="49.51025" lon="1.10098">
        <ele>155.7</ele>
        <time>2022-03-26T13:14:55Z</time>
      </trkpt>
      <trkpt lat="49.51021" lon="1.10105">
        <ele>155.7</ele>
        <time>2022-03-26T13:14:56Z</time>
      </trkpt>
      <trkpt lat="49.51012" lon="1.10119">
        <ele>155.6</ele>
        <time>2022-03-26T13:14:57Z</time>
      </trkpt>
      <trkpt lat="49.51008" lon="1.10124">
        <ele>155.5</ele>
        <time>2022-03-26T13:14:58Z</time>
      </trkpt>
      <trkpt lat="49.51006" lon="1.1013">
        <ele>155.5</ele>
        <time>2022-03-26T13:14:59Z</time>
      </trkpt>
      <trkpt lat="49.51003" lon="1.10136">
        <ele>155.4</ele>
        <time>2022-03-26T13:15:00Z</time>
      </trkpt>
      <trkpt lat="49.50997" lon="1.10144">
        <ele>155.3</ele>
        <time>2022-03-26T13:15:01Z</time>
      </trkpt>
      <trkpt lat="49.50993" lon="1.10149">
        <ele>155.2</ele>
        <time>2022-03-26T13:15:02Z</time>
      </trkpt>
      <trkpt lat="49.50987" lon="1.10157">
        <ele>155.1</ele>
        <time>2022-03-26T13:15:03Z</time>
      </trkpt>
      <trkpt lat="49.50983" lon="1.10163">
        <ele>155</ele>
        <time>2022-03-26T13:15:04Z</time>
      </trkpt>
      <trkpt lat="49.50979" lon="1.1017">
        <ele>154.9</ele>
        <time>2022-03-26T13:15:05Z</time>
      </trkpt>
      <trkpt lat="49.50975" lon="1.10178">
        <ele>154.3</ele>
        <time>2022-03-26T13:15:06Z</time>
      </trkpt>
      <trkpt lat="49.50972" lon="1.10186">
        <ele>154.1</ele>
        <time>2022-03-26T13:15:07Z</time>
      </trkpt>
      <trkpt lat="49.50969" lon="1.10194">
        <ele>153.9</ele>
        <time>2022-03-26T13:15:08Z</time>
      </trkpt>
      <trkpt lat="49.50967" lon="1.10201">
        <ele>153.7</ele>
        <time>2022-03-26T13:15:09Z</time>
      </trkpt>
      <trkpt lat="49.50964" lon="1.10208">
        <ele>153.5</ele>
        <time>2022-03-26T13:15:10Z</time>
      </trkpt>
      <trkpt lat="49.50963" lon="1.10216">
        <ele>153.3</ele>
        <time>2022-03-26T13:15:11Z</time>
      </trkpt>
      <trkpt lat="49.50961" lon="1.10224">
        <ele>153.1</ele>
        <time>2022-03-26T13:15:12Z</time>
      </trkpt>
      <trkpt lat="49.50959" lon="1.10229">
        <ele>152.8</ele>
        <time>2022-03-26T13:15:13Z</time>
      </trkpt>
      <trkpt lat="49.50957" lon="1.10238">
        <ele>152.6</ele>
        <time>2022-03-26T13:15:14Z</time>
      </trkpt>
      <trkpt lat="49.50955" lon="1.10248">
        <ele>152.2</ele>
        <time>2022-03-26T13:15:15Z</time>
      </trkpt>
      <trkpt lat="49.50953" lon="1.10258">
        <ele>151.8</ele>
        <time>2022-03-26T13:15:16Z</time>
      </trkpt>
      <trkpt lat="49.50952" lon="1.10268">
        <ele>151.4</ele>
        <time>2022-03-26T13:15:17Z</time>
      </trkpt>
      <trkpt lat="49.5095" lon="1.10278">
        <ele>150.9</ele>
        <time>2022-03-26T13:15:18Z</time>
      </trkpt>
      <trkpt lat="49.50948" lon="1.10289">
        <ele>150.4</ele>
        <time>2022-03-26T13:15:19Z</time>
      </trkpt>
      <trkpt lat="49.50947" lon="1.10301">
        <ele>149.8</ele>
        <time>2022-03-26T13:15:20Z</time>
      </trkpt>
      <trkpt lat="49.50945" lon="1.10313">
        <ele>149.1</ele>
        <time>2022-03-26T13:15:21Z</time>
      </trkpt>
      <trkpt lat="49.50943" lon="1.10326">
        <ele>148.2</ele>
        <time>2022-03-26T13:15:22Z</time>
      </trkpt>
      <trkpt lat="49.50941" lon="1.1034">
        <ele>147.2</ele>
        <time>2022-03-26T13:15:23Z</time>
      </trkpt>
      <trkpt lat="49.50938" lon="1.10354">
        <ele>146.1</ele>
        <time>2022-03-26T13:15:24Z</time>
      </trkpt>
      <trkpt lat="49.50936" lon="1.10366">
        <ele>145</ele>
        <time>2022-03-26T13:15:25Z</time>
      </trkpt>
      <trkpt lat="49.50933" lon="1.10377">
        <ele>144</ele>
        <time>2022-03-26T13:15:26Z</time>
      </trkpt>
      <trkpt lat="49.50929" lon="1.10387">
        <ele>143.1</ele>
        <time>2022-03-26T13:15:27Z</time>
      </trkpt>
      <trkpt lat="49.50927" lon="1.10392">
        <ele>142.5</ele>
        <time>2022-03-26T13:15:28Z</time>
      </trkpt>
      <trkpt lat="49.50925" lon="1.10393">
        <ele>142.3</ele>
        <time>2022-03-26T13:15:29Z</time>
      </trkpt>
      <trkpt lat="49.50925" lon="1.10394">
        <ele>142.2</ele>
        <time>2022-03-26T13:15:30Z</time>
      </trkpt>
      <trkpt lat="49.50925" lon="1.10395">
        <ele>142.1</ele>
        <time>2022-03-26T13:15:31Z</time>
      </trkpt>
      <trkpt lat="49.50924" lon="1.10396">
        <ele>142</ele>
        <time>2022-03-26T13:15:32Z</time>
      </trkpt>
      <trkpt lat="49.50924" lon="1.10397">
        <ele>141.9</ele>
        <time>2022-03-26T13:15:33Z</time>
      </trkpt>
      <trkpt lat="49.50923" lon="1.10398">
        <ele>141.8</ele>
        <time>2022-03-26T13:15:35Z</time>
      </trkpt>
      <trkpt lat="49.50923" lon="1.10399">
        <ele>141.7</ele>
        <time>2022-03-26T13:15:36Z</time>
      </trkpt>
      <trkpt lat="49.50921" lon="1.10406">
        <ele>141</ele>
        <time>2022-03-26T13:15:37Z</time>
      </trkpt>
      <trkpt lat="49.50919" lon="1.10411">
        <ele>140.5</ele>
        <time>2022-03-26T13:15:58Z</time>
      </trkpt>
      <trkpt lat="49.50917" lon="1.10416">
        <ele>140</ele>
        <time>2022-03-26T13:15:59Z</time>
      </trkpt>
      <trkpt lat="49.50915" lon="1.10421">
        <ele>139.5</ele>
        <time>2022-03-26T13:16:00Z</time>
      </trkpt>
      <trkpt lat="49.50913" lon="1.10426">
        <ele>138.9</ele>
        <time>2022-03-26T13:16:01Z</time>
      </trkpt>
      <trkpt lat="49.50913" lon="1.10432">
        <ele>138.2</ele>
        <time>2022-03-26T13:16:02Z</time>
      </trkpt>
      <trkpt lat="49.50912" lon="1.10438">
        <ele>137.4</ele>
        <time>2022-03-26T13:16:03Z</time>
      </trkpt>
      <trkpt lat="49.50912" lon="1.10445">
        <ele>136.5</ele>
        <time>2022-03-26T13:16:04Z</time>
      </trkpt>
      <trkpt lat="49.50912" lon="1.10452">
        <ele>135.6</ele>
        <time>2022-03-26T13:16:05Z</time>
      </trkpt>
      <trkpt lat="49.50911" lon="1.10459">
        <ele>134.6</ele>
        <time>2022-03-26T13:16:06Z</time>
      </trkpt>
      <trkpt lat="49.50911" lon="1.10464">
        <ele>133.9</ele>
        <time>2022-03-26T13:16:07Z</time>
      </trkpt>
      <trkpt lat="49.5091" lon="1.10468">
        <ele>133.3</ele>
        <time>2022-03-26T13:16:08Z</time>
      </trkpt>
      <trkpt lat="49.50909" lon="1.10473">
        <ele>132.5</ele>
        <time>2022-03-26T13:16:09Z</time>
      </trkpt>
      <trkpt lat="49.50908" lon="1.10478">
        <ele>131.7</ele>
        <time>2022-03-26T13:16:10Z</time>
      </trkpt>
      <trkpt lat="49.50907" lon="1.10485">
        <ele>130.7</ele>
        <time>2022-03-26T13:16:11Z</time>
      </trkpt>
      <trkpt lat="49.50906" lon="1.10489">
        <ele>129.9</ele>
        <time>2022-03-26T13:16:12Z</time>
      </trkpt>
      <trkpt lat="49.50904" lon="1.10494">
        <ele>129.1</ele>
        <time>2022-03-26T13:16:13Z</time>
      </trkpt>
      <trkpt lat="49.50904" lon="1.105">
        <ele>128.1</ele>
        <time>2022-03-26T13:16:14Z</time>
      </trkpt>
      <trkpt lat="49.50902" lon="1.10506">
        <ele>127</ele>
        <time>2022-03-26T13:16:15Z</time>
      </trkpt>
      <trkpt lat="49.50901" lon="1.10513">
        <ele>125.8</ele>
        <time>2022-03-26T13:16:16Z</time>
      </trkpt>
      <trkpt lat="49.50901" lon="1.1052">
        <ele>124.7</ele>
        <time>2022-03-26T13:16:17Z</time>
      </trkpt>
      <trkpt lat="49.50899" lon="1.10526">
        <ele>123.5</ele>
        <time>2022-03-26T13:16:18Z</time>
      </trkpt>
      <trkpt lat="49.50896" lon="1.10532">
        <ele>122.4</ele>
        <time>2022-03-26T13:16:19Z</time>
      </trkpt>
      <trkpt lat="49.50893" lon="1.10538">
        <ele>121.2</ele>
        <time>2022-03-26T13:16:20Z</time>
      </trkpt>
      <trkpt lat="49.50889" lon="1.10546">
        <ele>119.6</ele>
        <time>2022-03-26T13:16:21Z</time>
      </trkpt>
      <trkpt lat="49.50883" lon="1.10555">
        <ele>117.8</ele>
        <time>2022-03-26T13:16:22Z</time>
      </trkpt>
      <trkpt lat="49.50877" lon="1.10563">
        <ele>116.1</ele>
        <time>2022-03-26T13:16:23Z</time>
      </trkpt>
      <trkpt lat="49.50871" lon="1.1057">
        <ele>114.4</ele>
        <time>2022-03-26T13:16:24Z</time>
      </trkpt>
      <trkpt lat="49.50863" lon="1.10578">
        <ele>112.5</ele>
        <time>2022-03-26T13:16:25Z</time>
      </trkpt>
      <trkpt lat="49.50856" lon="1.10587">
        <ele>110.6</ele>
        <time>2022-03-26T13:16:26Z</time>
      </trkpt>
      <trkpt lat="49.50851" lon="1.10595">
        <ele>109.1</ele>
        <time>2022-03-26T13:16:27Z</time>
      </trkpt>
      <trkpt lat="49.50846" lon="1.10603">
        <ele>107.8</ele>
        <time>2022-03-26T13:16:28Z</time>
      </trkpt>
      <trkpt lat="49.50841" lon="1.10609">
        <ele>106.7</ele>
        <time>2022-03-26T13:16:29Z</time>
      </trkpt>
      <trkpt lat="49.50836" lon="1.10617">
        <ele>105.6</ele>
        <time>2022-03-26T13:16:30Z</time>
      </trkpt>
      <trkpt lat="49.50833" lon="1.10624">
        <ele>104.8</ele>
        <time>2022-03-26T13:16:31Z</time>
      </trkpt>
      <trkpt lat="49.5083" lon="1.1063">
        <ele>104</ele>
        <time>2022-03-26T13:16:32Z</time>
      </trkpt>
      <trkpt lat="49.50825" lon="1.10635">
        <ele>103.2</ele>
        <time>2022-03-26T13:16:33Z</time>
      </trkpt>
      <trkpt lat="49.50822" lon="1.10643">
        <ele>102.3</ele>
        <time>2022-03-26T13:16:34Z</time>
      </trkpt>
      <trkpt lat="49.50816" lon="1.10652">
        <ele>101.3</ele>
        <time>2022-03-26T13:16:35Z</time>
      </trkpt>
      <trkpt lat="49.50809" lon="1.10658">
        <ele>100.1</ele>
        <time>2022-03-26T13:16:36Z</time>
      </trkpt>
      <trkpt lat="49.50802" lon="1.10665">
        <ele>99</ele>
        <time>2022-03-26T13:16:37Z</time>
      </trkpt>
      <trkpt lat="49.50797" lon="1.10673">
        <ele>98.1</ele>
        <time>2022-03-26T13:16:38Z</time>
      </trkpt>
      <trkpt lat="49.50792" lon="1.10682">
        <ele>97.1</ele>
        <time>2022-03-26T13:16:39Z</time>
      </trkpt>
      <trkpt lat="49.50785" lon="1.10689">
        <ele>96.1</ele>
        <time>2022-03-26T13:16:40Z</time>
      </trkpt>
      <trkpt lat="49.50777" lon="1.10697">
        <ele>94.9</ele>
        <time>2022-03-26T13:16:41Z</time>
      </trkpt>
      <trkpt lat="49.5077" lon="1.10701">
        <ele>94</ele>
        <time>2022-03-26T13:16:42Z</time>
      </trkpt>
      <trkpt lat="49.50764" lon="1.10705">
        <ele>93.2</ele>
        <time>2022-03-26T13:16:43Z</time>
      </trkpt>
      <trkpt lat="49.50757" lon="1.10706">
        <ele>92.3</ele>
        <time>2022-03-26T13:16:44Z</time>
      </trkpt>
      <trkpt lat="49.5075" lon="1.10705">
        <ele>91.5</ele>
        <time>2022-03-26T13:16:45Z</time>
      </trkpt>
      <trkpt lat="49.50744" lon="1.10704">
        <ele>90.7</ele>
        <time>2022-03-26T13:16:46Z</time>
      </trkpt>
      <trkpt lat="49.50738" lon="1.10702">
        <ele>90.1</ele>
        <time>2022-03-26T13:16:47Z</time>
      </trkpt>
      <trkpt lat="49.50732" lon="1.107">
        <ele>89.3</ele>
        <time>2022-03-26T13:16:48Z</time>
      </trkpt>
      <trkpt lat="49.50728" lon="1.10698">
        <ele>88.9</ele>
        <time>2022-03-26T13:16:49Z</time>
      </trkpt>
      <trkpt lat="49.50726" lon="1.10697">
        <ele>88.6</ele>
        <time>2022-03-26T13:16:50Z</time>
      </trkpt>
      <trkpt lat="49.50726" lon="1.10697">
        <ele>88.6</ele>
        <time>2022-03-26T13:16:51Z</time>
      </trkpt>
      <trkpt lat="49.50725" lon="1.10698">
        <ele>88.4</ele>
        <time>2022-03-26T13:16:52Z</time>
      </trkpt>
      <trkpt lat="49.50723" lon="1.10701">
        <ele>88.1</ele>
        <time>2022-03-26T13:16:53Z</time>
      </trkpt>
      <trkpt lat="49.50722" lon="1.10702">
        <ele>87.9</ele>
        <time>2022-03-26T13:16:54Z</time>
      </trkpt>
      <trkpt lat="49.50721" lon="1.10701">
        <ele>87.8</ele>
        <time>2022-03-26T13:16:55Z</time>
      </trkpt>
      <trkpt lat="49.5072" lon="1.10701">
        <ele>87.7</ele>
        <time>2022-03-26T13:16:56Z</time>
      </trkpt>
      <trkpt lat="49.5072" lon="1.10701">
        <ele>87.6</ele>
        <time>2022-03-26T13:16:57Z</time>
      </trkpt>
      <trkpt lat="49.5072" lon="1.10701">
        <ele>87.6</ele>
        <time>2022-03-26T13:16:58Z</time>
      </trkpt>
      <trkpt lat="49.5072" lon="1.10701">
        <ele>87.6</ele>
        <time>2022-03-26T13:16:59Z</time>
      </trkpt>
      <trkpt lat="49.50719" lon="1.10701">
        <ele>87.4</ele>
        <time>2022-03-26T13:17:00Z</time>
      </trkpt>
      <trkpt lat="49.50718" lon="1.10701">
        <ele>87.2</ele>
        <time>2022-03-26T13:17:01Z</time>
      </trkpt>
      <trkpt lat="49.50717" lon="1.10701">
        <ele>87.2</ele>
        <time>2022-03-26T13:17:02Z</time>
      </trkpt>
      <trkpt lat="49.50716" lon="1.10701">
        <ele>87.1</ele>
        <time>2022-03-26T13:17:03Z</time>
      </trkpt>
      <trkpt lat="49.50716" lon="1.10701">
        <ele>87</ele>
        <time>2022-03-26T13:17:04Z</time>
      </trkpt>
      <trkpt lat="49.50716" lon="1.10701">
        <ele>86.9</ele>
        <time>2022-03-26T13:17:05Z</time>
      </trkpt>
      <trkpt lat="49.50715" lon="1.10702">
        <ele>86.9</ele>
        <time>2022-03-26T13:17:06Z</time>
      </trkpt>
      <trkpt lat="49.50715" lon="1.10702">
        <ele>86.8</ele>
        <time>2022-03-26T13:17:07Z</time>
      </trkpt>
      <trkpt lat="49.50714" lon="1.10702">
        <ele>86.7</ele>
        <time>2022-03-26T13:17:08Z</time>
      </trkpt>
      <trkpt lat="49.50714" lon="1.10702">
        <ele>86.6</ele>
        <time>2022-03-26T13:17:09Z</time>
      </trkpt>
      <trkpt lat="49.50713" lon="1.10702">
        <ele>86.6</ele>
        <time>2022-03-26T13:17:10Z</time>
      </trkpt>
      <trkpt lat="49.50712" lon="1.10707">
        <ele>86</ele>
        <time>2022-03-26T13:17:11Z</time>
      </trkpt>
      <trkpt lat="49.50711" lon="1.10708">
        <ele>85.9</ele>
        <time>2022-03-26T13:17:12Z</time>
      </trkpt>
      <trkpt lat="49.5071" lon="1.10704">
        <ele>85.3</ele>
        <time>2022-03-26T13:17:13Z</time>
      </trkpt>
      <trkpt lat="49.5071" lon="1.10702">
        <ele>83.2</ele>
        <time>2022-03-26T13:17:14Z</time>
      </trkpt>
      <trkpt lat="49.50709" lon="1.10698">
        <ele>83.1</ele>
        <time>2022-03-26T13:17:15Z</time>
      </trkpt>
      <trkpt lat="49.50707" lon="1.10693">
        <ele>83.1</ele>
        <time>2022-03-26T13:17:16Z</time>
      </trkpt>
      <trkpt lat="49.50704" lon="1.10687">
        <ele>83</ele>
        <time>2022-03-26T13:17:17Z</time>
      </trkpt>
      <trkpt lat="49.50701" lon="1.10683">
        <ele>82.9</ele>
        <time>2022-03-26T13:17:18Z</time>
      </trkpt>
      <trkpt lat="49.50699" lon="1.10677">
        <ele>82.8</ele>
        <time>2022-03-26T13:17:19Z</time>
      </trkpt>
      <trkpt lat="49.50696" lon="1.10671">
        <ele>82.7</ele>
        <time>2022-03-26T13:17:20Z</time>
      </trkpt>
      <trkpt lat="49.50694" lon="1.10663">
        <ele>82.6</ele>
        <time>2022-03-26T13:17:21Z</time>
      </trkpt>
      <trkpt lat="49.50691" lon="1.10655">
        <ele>82.5</ele>
        <time>2022-03-26T13:17:22Z</time>
      </trkpt>
      <trkpt lat="49.5069" lon="1.10646">
        <ele>82.5</ele>
        <time>2022-03-26T13:17:23Z</time>
      </trkpt>
      <trkpt lat="49.50688" lon="1.10638">
        <ele>82.4</ele>
        <time>2022-03-26T13:17:24Z</time>
      </trkpt>
      <trkpt lat="49.50686" lon="1.1063">
        <ele>82.3</ele>
        <time>2022-03-26T13:17:25Z</time>
      </trkpt>
      <trkpt lat="49.50684" lon="1.10621">
        <ele>82.2</ele>
        <time>2022-03-26T13:17:26Z</time>
      </trkpt>
      <trkpt lat="49.50682" lon="1.10613">
        <ele>82.1</ele>
        <time>2022-03-26T13:17:27Z</time>
      </trkpt>
      <trkpt lat="49.5068" lon="1.10605">
        <ele>82</ele>
        <time>2022-03-26T13:17:28Z</time>
      </trkpt>
      <trkpt lat="49.50678" lon="1.10597">
        <ele>81.9</ele>
        <time>2022-03-26T13:17:29Z</time>
      </trkpt>
      <trkpt lat="49.50676" lon="1.10588">
        <ele>81.8</ele>
        <time>2022-03-26T13:17:30Z</time>
      </trkpt>
      <trkpt lat="49.50675" lon="1.10581">
        <ele>81.7</ele>
        <time>2022-03-26T13:17:31Z</time>
      </trkpt>
      <trkpt lat="49.50673" lon="1.10573">
        <ele>81.6</ele>
        <time>2022-03-26T13:17:32Z</time>
      </trkpt>
      <trkpt lat="49.50671" lon="1.10564">
        <ele>81.5</ele>
        <time>2022-03-26T13:17:33Z</time>
      </trkpt>
      <trkpt lat="49.50669" lon="1.10554">
        <ele>81.4</ele>
        <time>2022-03-26T13:17:34Z</time>
      </trkpt>
      <trkpt lat="49.50669" lon="1.10548">
        <ele>81.3</ele>
        <time>2022-03-26T13:17:35Z</time>
      </trkpt>
      <trkpt lat="49.50666" lon="1.10541">
        <ele>81.3</ele>
        <time>2022-03-26T13:17:36Z</time>
      </trkpt>
      <trkpt lat="49.50665" lon="1.10537">
        <ele>81.2</ele>
        <time>2022-03-26T13:17:37Z</time>
      </trkpt>
      <trkpt lat="49.50662" lon="1.1053">
        <ele>81.2</ele>
        <time>2022-03-26T13:17:38Z</time>
      </trkpt>
      <trkpt lat="49.5066" lon="1.10524">
        <ele>81.1</ele>
        <time>2022-03-26T13:17:39Z</time>
      </trkpt>
      <trkpt lat="49.50658" lon="1.10518">
        <ele>81.1</ele>
        <time>2022-03-26T13:17:40Z</time>
      </trkpt>
      <trkpt lat="49.50656" lon="1.10511">
        <ele>81</ele>
        <time>2022-03-26T13:17:41Z</time>
      </trkpt>
      <trkpt lat="49.50654" lon="1.10505">
        <ele>80.9</ele>
        <time>2022-03-26T13:17:42Z</time>
      </trkpt>
      <trkpt lat="49.50651" lon="1.10496">
        <ele>80.8</ele>
        <time>2022-03-26T13:17:43Z</time>
      </trkpt>
      <trkpt lat="49.50649" lon="1.10487">
        <ele>80.7</ele>
        <time>2022-03-26T13:17:44Z</time>
      </trkpt>
      <trkpt lat="49.50646" lon="1.10477">
        <ele>80.5</ele>
        <time>2022-03-26T13:17:45Z</time>
      </trkpt>
      <trkpt lat="49.50643" lon="1.10468">
        <ele>80.4</ele>
        <time>2022-03-26T13:17:46Z</time>
      </trkpt>
      <trkpt lat="49.5064" lon="1.10459">
        <ele>80.3</ele>
        <time>2022-03-26T13:17:47Z</time>
      </trkpt>
      <trkpt lat="49.50636" lon="1.10449">
        <ele>80.2</ele>
        <time>2022-03-26T13:17:48Z</time>
      </trkpt>
      <trkpt lat="49.50633" lon="1.1044">
        <ele>80.1</ele>
        <time>2022-03-26T13:17:49Z</time>
      </trkpt>
      <trkpt lat="49.5063" lon="1.10431">
        <ele>80</ele>
        <time>2022-03-26T13:17:50Z</time>
      </trkpt>
      <trkpt lat="49.50626" lon="1.10423">
        <ele>79.9</ele>
        <time>2022-03-26T13:17:51Z</time>
      </trkpt>
      <trkpt lat="49.50623" lon="1.10413">
        <ele>79.8</ele>
        <time>2022-03-26T13:17:52Z</time>
      </trkpt>
      <trkpt lat="49.50618" lon="1.10405">
        <ele>79.7</ele>
        <time>2022-03-26T13:17:53Z</time>
      </trkpt>
      <trkpt lat="49.50615" lon="1.10397">
        <ele>79.6</ele>
        <time>2022-03-26T13:17:54Z</time>
      </trkpt>
      <trkpt lat="49.50612" lon="1.10388">
        <ele>79.5</ele>
        <time>2022-03-26T13:17:55Z</time>
      </trkpt>
      <trkpt lat="49.50608" lon="1.10379">
        <ele>79.5</ele>
        <time>2022-03-26T13:17:56Z</time>
      </trkpt>
      <trkpt lat="49.50604" lon="1.1037">
        <ele>79.4</ele>
        <time>2022-03-26T13:17:57Z</time>
      </trkpt>
      <trkpt lat="49.506" lon="1.10361">
        <ele>79.3</ele>
        <time>2022-03-26T13:17:58Z</time>
      </trkpt>
      <trkpt lat="49.50597" lon="1.10352">
        <ele>79.2</ele>
        <time>2022-03-26T13:17:59Z</time>
      </trkpt>
      <trkpt lat="49.50595" lon="1.10345">
        <ele>79.1</ele>
        <time>2022-03-26T13:18:00Z</time>
      </trkpt>
      <trkpt lat="49.50593" lon="1.10341">
        <ele>79</ele>
        <time>2022-03-26T13:18:01Z</time>
      </trkpt>
      <trkpt lat="49.50589" lon="1.10333">
        <ele>79</ele>
        <time>2022-03-26T13:18:02Z</time>
      </trkpt>
      <trkpt lat="49.50586" lon="1.10324">
        <ele>78.9</ele>
        <time>2022-03-26T13:18:03Z</time>
      </trkpt>
      <trkpt lat="49.50583" lon="1.10317">
        <ele>78.8</ele>
        <time>2022-03-26T13:18:04Z</time>
      </trkpt>
      <trkpt lat="49.5058" lon="1.10309">
        <ele>78.7</ele>
        <time>2022-03-26T13:18:05Z</time>
      </trkpt>
      <trkpt lat="49.50577" lon="1.10302">
        <ele>78.7</ele>
        <time>2022-03-26T13:18:06Z</time>
      </trkpt>
      <trkpt lat="49.50574" lon="1.10296">
        <ele>78.6</ele>
        <time>2022-03-26T13:18:07Z</time>
      </trkpt>
      <trkpt lat="49.50572" lon="1.10289">
        <ele>78.5</ele>
        <time>2022-03-26T13:18:08Z</time>
      </trkpt>
      <trkpt lat="49.50569" lon="1.10282">
        <ele>78.4</ele>
        <time>2022-03-26T13:18:09Z</time>
      </trkpt>
      <trkpt lat="49.50567" lon="1.10276">
        <ele>78.4</ele>
        <time>2022-03-26T13:18:10Z</time>
      </trkpt>
      <trkpt lat="49.50564" lon="1.10269">
        <ele>78.3</ele>
        <time>2022-03-26T13:18:11Z</time>
      </trkpt>
      <trkpt lat="49.5056" lon="1.10262">
        <ele>78.1</ele>
        <time>2022-03-26T13:18:12Z</time>
      </trkpt>
      <trkpt lat="49.50558" lon="1.10252">
        <ele>78</ele>
        <time>2022-03-26T13:18:13Z</time>
      </trkpt>
      <trkpt lat="49.50555" lon="1.10242">
        <ele>77.9</ele>
        <time>2022-03-26T13:18:14Z</time>
      </trkpt>
      <trkpt lat="49.50553" lon="1.10233">
        <ele>77.8</ele>
        <time>2022-03-26T13:18:15Z</time>
      </trkpt>
      <trkpt lat="49.50551" lon="1.10223">
        <ele>77.8</ele>
        <time>2022-03-26T13:18:16Z</time>
      </trkpt>
      <trkpt lat="49.50548" lon="1.10213">
        <ele>77.7</ele>
        <time>2022-03-26T13:18:17Z</time>
      </trkpt>
      <trkpt lat="49.50546" lon="1.10204">
        <ele>77.7</ele>
        <time>2022-03-26T13:18:18Z</time>
      </trkpt>
      <trkpt lat="49.50544" lon="1.10197">
        <ele>77.7</ele>
        <time>2022-03-26T13:18:19Z</time>
      </trkpt>
      <trkpt lat="49.50541" lon="1.10193">
        <ele>77.7</ele>
        <time>2022-03-26T13:18:20Z</time>
      </trkpt>
      <trkpt lat="49.5054" lon="1.1019">
        <ele>77.7</ele>
        <time>2022-03-26T13:18:21Z</time>
      </trkpt>
      <trkpt lat="49.50539" lon="1.10189">
        <ele>77.7</ele>
        <time>2022-03-26T13:18:22Z</time>
      </trkpt>
      <trkpt lat="49.50539" lon="1.10189">
        <ele>77.7</ele>
        <time>2022-03-26T13:18:23Z</time>
      </trkpt>
      <trkpt lat="49.5054" lon="1.10189">
        <ele>77.7</ele>
        <time>2022-03-26T13:18:24Z</time>
      </trkpt>
      <trkpt lat="49.50541" lon="1.10189">
        <ele>77.7</ele>
        <time>2022-03-26T13:18:25Z</time>
      </trkpt>
      <trkpt lat="49.50541" lon="1.10188">
        <ele>77.7</ele>
        <time>2022-03-26T13:18:26Z</time>
      </trkpt>
      <trkpt lat="49.50542" lon="1.10187">
        <ele>77.7</ele>
        <time>2022-03-26T13:18:27Z</time>
      </trkpt>
      <trkpt lat="49.50542" lon="1.10185">
        <ele>77.7</ele>
        <time>2022-03-26T13:18:29Z</time>
      </trkpt>
      <trkpt lat="49.50543" lon="1.10183">
        <ele>77.7</ele>
        <time>2022-03-26T13:18:30Z</time>
      </trkpt>
      <trkpt lat="49.50542" lon="1.10183">
        <ele>77.7</ele>
        <time>2022-03-26T13:18:31Z</time>
      </trkpt>
      <trkpt lat="49.50543" lon="1.10182">
        <ele>77.7</ele>
        <time>2022-03-26T13:18:32Z</time>
      </trkpt>
      <trkpt lat="49.50543" lon="1.10182">
        <ele>77.7</ele>
        <time>2022-03-26T13:18:33Z</time>
      </trkpt>
      <trkpt lat="49.50542" lon="1.10181">
        <ele>77.7</ele>
        <time>2022-03-26T13:18:34Z</time>
      </trkpt>
      <trkpt lat="49.50542" lon="1.10181">
        <ele>77.7</ele>
        <time>2022-03-26T13:18:35Z</time>
      </trkpt>
      <trkpt lat="49.50539" lon="1.10181">
        <ele>77.7</ele>
        <time>2022-03-26T13:18:36Z</time>
      </trkpt>
      <trkpt lat="49.50536" lon="1.10182">
        <ele>77.7</ele>
        <time>2022-03-26T13:18:37Z</time>
      </trkpt>
      <trkpt lat="49.50532" lon="1.10182">
        <ele>80.9</ele>
        <time>2022-03-26T13:18:38Z</time>
      </trkpt>
      <trkpt lat="49.50529" lon="1.10183">
        <ele>80.9</ele>
        <time>2022-03-26T13:18:39Z</time>
      </trkpt>
      <trkpt lat="49.50526" lon="1.10183">
        <ele>80.9</ele>
        <time>2022-03-26T13:19:10Z</time>
      </trkpt>
      <trkpt lat="49.50523" lon="1.10184">
        <ele>80.8</ele>
        <time>2022-03-26T13:19:11Z</time>
      </trkpt>
      <trkpt lat="49.5052" lon="1.10182">
        <ele>80.7</ele>
        <time>2022-03-26T13:19:12Z</time>
      </trkpt>
      <trkpt lat="49.50517" lon="1.10179">
        <ele>80.7</ele>
        <time>2022-03-26T13:19:13Z</time>
      </trkpt>
      <trkpt lat="49.50514" lon="1.10177">
        <ele>80.7</ele>
        <time>2022-03-26T13:19:14Z</time>
      </trkpt>
      <trkpt lat="49.50508" lon="1.10173">
        <ele>80.8</ele>
        <time>2022-03-26T13:19:16Z</time>
      </trkpt>
      <trkpt lat="49.50504" lon="1.10171">
        <ele>80.9</ele>
        <time>2022-03-26T13:19:17Z</time>
      </trkpt>
      <trkpt lat="49.50501" lon="1.10168">
        <ele>81.1</ele>
        <time>2022-03-26T13:19:18Z</time>
      </trkpt>
      <trkpt lat="49.50498" lon="1.10166">
        <ele>81.3</ele>
        <time>2022-03-26T13:19:19Z</time>
      </trkpt>
      <trkpt lat="49.50494" lon="1.10164">
        <ele>81.7</ele>
        <time>2022-03-26T13:19:21Z</time>
      </trkpt>
      <trkpt lat="49.50492" lon="1.10162">
        <ele>81.9</ele>
        <time>2022-03-26T13:19:22Z</time>
      </trkpt>
      <trkpt lat="49.50488" lon="1.1016">
        <ele>82.3</ele>
        <time>2022-03-26T13:19:23Z</time>
      </trkpt>
      <trkpt lat="49.50487" lon="1.1016">
        <ele>82.4</ele>
        <time>2022-03-26T13:19:24Z</time>
      </trkpt>
      <trkpt lat="49.50484" lon="1.10158">
        <ele>82.7</ele>
        <time>2022-03-26T13:19:25Z</time>
      </trkpt>
      <trkpt lat="49.50483" lon="1.10157">
        <ele>82.9</ele>
        <time>2022-03-26T13:19:26Z</time>
      </trkpt>
      <trkpt lat="49.5048" lon="1.10155">
        <ele>83.2</ele>
        <time>2022-03-26T13:19:27Z</time>
      </trkpt>
      <trkpt lat="49.5048" lon="1.10154">
        <ele>83.3</ele>
        <time>2022-03-26T13:19:28Z</time>
      </trkpt>
      <trkpt lat="49.50476" lon="1.1015">
        <ele>83.8</ele>
        <time>2022-03-26T13:19:29Z</time>
      </trkpt>
      <trkpt lat="49.50474" lon="1.10148">
        <ele>84</ele>
        <time>2022-03-26T13:19:30Z</time>
      </trkpt>
      <trkpt lat="49.50473" lon="1.10146">
        <ele>84.3</ele>
        <time>2022-03-26T13:19:32Z</time>
      </trkpt>
      <trkpt lat="49.50473" lon="1.10145">
        <ele>84.3</ele>
        <time>2022-03-26T13:19:33Z</time>
      </trkpt>
      <trkpt lat="49.50471" lon="1.10144">
        <ele>84.5</ele>
        <time>2022-03-26T13:19:35Z</time>
      </trkpt>
      <trkpt lat="49.5047" lon="1.10143">
        <ele>84.7</ele>
        <time>2022-03-26T13:19:36Z</time>
      </trkpt>
      <trkpt lat="49.50467" lon="1.10141">
        <ele>85</ele>
        <time>2022-03-26T13:19:38Z</time>
      </trkpt>
      <trkpt lat="49.50464" lon="1.10139">
        <ele>85.3</ele>
        <time>2022-03-26T13:19:39Z</time>
      </trkpt>
      <trkpt lat="49.50462" lon="1.10138">
        <ele>85.5</ele>
        <time>2022-03-26T13:19:40Z</time>
      </trkpt>
      <trkpt lat="49.50459" lon="1.10138">
        <ele>85.9</ele>
        <time>2022-03-26T13:19:42Z</time>
      </trkpt>
      <trkpt lat="49.50456" lon="1.10137">
        <ele>86.2</ele>
        <time>2022-03-26T13:19:43Z</time>
      </trkpt>
      <trkpt lat="49.50455" lon="1.10137">
        <ele>86.3</ele>
        <time>2022-03-26T13:19:44Z</time>
      </trkpt>
      <trkpt lat="49.50452" lon="1.10136">
        <ele>86.6</ele>
        <time>2022-03-26T13:19:45Z</time>
      </trkpt>
      <trkpt lat="49.50451" lon="1.10136">
        <ele>86.7</ele>
        <time>2022-03-26T13:19:46Z</time>
      </trkpt>
      <trkpt lat="49.50449" lon="1.10135">
        <ele>86.9</ele>
        <time>2022-03-26T13:19:47Z</time>
      </trkpt>
      <trkpt lat="49.50446" lon="1.10135">
        <ele>87.2</ele>
        <time>2022-03-26T13:19:49Z</time>
      </trkpt>
      <trkpt lat="49.50443" lon="1.10135">
        <ele>87.6</ele>
        <time>2022-03-26T13:19:50Z</time>
      </trkpt>
      <trkpt lat="49.50441" lon="1.10134">
        <ele>87.8</ele>
        <time>2022-03-26T13:19:51Z</time>
      </trkpt>
      <trkpt lat="49.50438" lon="1.10133">
        <ele>88.2</ele>
        <time>2022-03-26T13:19:52Z</time>
      </trkpt>
      <trkpt lat="49.50436" lon="1.10132">
        <ele>88.4</ele>
        <time>2022-03-26T13:19:53Z</time>
      </trkpt>
      <trkpt lat="49.50435" lon="1.10131">
        <ele>88.5</ele>
        <time>2022-03-26T13:19:55Z</time>
      </trkpt>
      <trkpt lat="49.50434" lon="1.10131">
        <ele>88.7</ele>
        <time>2022-03-26T13:19:56Z</time>
      </trkpt>
      <trkpt lat="49.50433" lon="1.10131">
        <ele>88.8</ele>
        <time>2022-03-26T13:19:57Z</time>
      </trkpt>
      <trkpt lat="49.50432" lon="1.1013">
        <ele>89</ele>
        <time>2022-03-26T13:19:58Z</time>
      </trkpt>
      <trkpt lat="49.50431" lon="1.10129">
        <ele>89.2</ele>
        <time>2022-03-26T13:19:59Z</time>
      </trkpt>
      <trkpt lat="49.5043" lon="1.10128">
        <ele>89.4</ele>
        <time>2022-03-26T13:20:00Z</time>
      </trkpt>
      <trkpt lat="49.50428" lon="1.10128">
        <ele>89.6</ele>
        <time>2022-03-26T13:20:02Z</time>
      </trkpt>
      <trkpt lat="49.50427" lon="1.10127">
        <ele>89.8</ele>
        <time>2022-03-26T13:20:03Z</time>
      </trkpt>
      <trkpt lat="49.50425" lon="1.10126">
        <ele>90</ele>
        <time>2022-03-26T13:20:04Z</time>
      </trkpt>
      <trkpt lat="49.50424" lon="1.10125">
        <ele>90.3</ele>
        <time>2022-03-26T13:20:05Z</time>
      </trkpt>
      <trkpt lat="49.50423" lon="1.10124">
        <ele>90.5</ele>
        <time>2022-03-26T13:20:06Z</time>
      </trkpt>
      <trkpt lat="49.50421" lon="1.10124">
        <ele>90.8</ele>
        <time>2022-03-26T13:20:08Z</time>
      </trkpt>
      <trkpt lat="49.50419" lon="1.10123">
        <ele>91.1</ele>
        <time>2022-03-26T13:20:09Z</time>
      </trkpt>
      <trkpt lat="49.50416" lon="1.10122">
        <ele>91.7</ele>
        <time>2022-03-26T13:20:11Z</time>
      </trkpt>
      <trkpt lat="49.50415" lon="1.10122">
        <ele>91.8</ele>
        <time>2022-03-26T13:20:12Z</time>
      </trkpt>
      <trkpt lat="49.50414" lon="1.10122">
        <ele>91.9</ele>
        <time>2022-03-26T13:20:13Z</time>
      </trkpt>
      <trkpt lat="49.50414" lon="1.10122">
        <ele>92</ele>
        <time>2022-03-26T13:20:14Z</time>
      </trkpt>
      <trkpt lat="49.50413" lon="1.10122">
        <ele>92.1</ele>
        <time>2022-03-26T13:20:15Z</time>
      </trkpt>
      <trkpt lat="49.5041" lon="1.10121">
        <ele>92.7</ele>
        <time>2022-03-26T13:20:17Z</time>
      </trkpt>
      <trkpt lat="49.50407" lon="1.10121">
        <ele>93.2</ele>
        <time>2022-03-26T13:20:18Z</time>
      </trkpt>
      <trkpt lat="49.50406" lon="1.1012">
        <ele>93.4</ele>
        <time>2022-03-26T13:20:19Z</time>
      </trkpt>
      <trkpt lat="49.50404" lon="1.10121">
        <ele>93.8</ele>
        <time>2022-03-26T13:20:20Z</time>
      </trkpt>
      <trkpt lat="49.50401" lon="1.1012">
        <ele>94.2</ele>
        <time>2022-03-26T13:20:22Z</time>
      </trkpt>
      <trkpt lat="49.50399" lon="1.1012">
        <ele>94.7</ele>
        <time>2022-03-26T13:20:23Z</time>
      </trkpt>
      <trkpt lat="49.50398" lon="1.1012">
        <ele>94.9</ele>
        <time>2022-03-26T13:20:24Z</time>
      </trkpt>
      <trkpt lat="49.50396" lon="1.1012">
        <ele>95.2</ele>
        <time>2022-03-26T13:20:25Z</time>
      </trkpt>
      <trkpt lat="49.50395" lon="1.10119">
        <ele>95.4</ele>
        <time>2022-03-26T13:20:26Z</time>
      </trkpt>
      <trkpt lat="49.50394" lon="1.10119">
        <ele>95.5</ele>
        <time>2022-03-26T13:20:27Z</time>
      </trkpt>
      <trkpt lat="49.50395" lon="1.10118">
        <ele>95.7</ele>
        <time>2022-03-26T13:20:28Z</time>
      </trkpt>
      <trkpt lat="49.50396" lon="1.10118">
        <ele>95.9</ele>
        <time>2022-03-26T13:20:29Z</time>
      </trkpt>
      <trkpt lat="49.50397" lon="1.10117">
        <ele>96.1</ele>
        <time>2022-03-26T13:20:30Z</time>
      </trkpt>
      <trkpt lat="49.50398" lon="1.10117">
        <ele>96.2</ele>
        <time>2022-03-26T13:20:31Z</time>
      </trkpt>
      <trkpt lat="49.50398" lon="1.10117">
        <ele>96.2</ele>
        <time>2022-03-26T13:20:32Z</time>
      </trkpt>
      <trkpt lat="49.50398" lon="1.10117">
        <ele>96.3</ele>
        <time>2022-03-26T13:20:33Z</time>
      </trkpt>
      <trkpt lat="49.50398" lon="1.10117">
        <ele>96.3</ele>
        <time>2022-03-26T13:20:34Z</time>
      </trkpt>
      <trkpt lat="49.50398" lon="1.10117">
        <ele>96.3</ele>
        <time>2022-03-26T13:20:35Z</time>
      </trkpt>
      <trkpt lat="49.50398" lon="1.10117">
        <ele>96.3</ele>
        <time>2022-03-26T13:20:36Z</time>
      </trkpt>
      <trkpt lat="49.50398" lon="1.10117">
        <ele>96.3</ele>
        <time>2022-03-26T13:20:37Z</time>
      </trkpt>
      <trkpt lat="49.50398" lon="1.10117">
        <ele>96.3</ele>
        <time>2022-03-26T13:20:38Z</time>
      </trkpt>
      <trkpt lat="49.50395" lon="1.10115">
        <ele>96.9</ele>
        <time>2022-03-26T13:20:47Z</time>
      </trkpt>
      <trkpt lat="49.50396" lon="1.10117">
        <ele>97.2</ele>
        <time>2022-03-26T13:20:49Z</time>
      </trkpt>
      <trkpt lat="49.50395" lon="1.10117">
        <ele>97.3</ele>
        <time>2022-03-26T13:20:50Z</time>
      </trkpt>
      <trkpt lat="49.50395" lon="1.10117">
        <ele>97.4</ele>
        <time>2022-03-26T13:20:51Z</time>
      </trkpt>
      <trkpt lat="49.50394" lon="1.10116">
        <ele>97.5</ele>
        <time>2022-03-26T13:20:52Z</time>
      </trkpt>
      <trkpt lat="49.50393" lon="1.10114">
        <ele>97.8</ele>
        <time>2022-03-26T13:20:54Z</time>
      </trkpt>
      <trkpt lat="49.50392" lon="1.10113">
        <ele>98</ele>
        <time>2022-03-26T13:20:55Z</time>
      </trkpt>
      <trkpt lat="49.50392" lon="1.10112">
        <ele>98.2</ele>
        <time>2022-03-26T13:20:56Z</time>
      </trkpt>
      <trkpt lat="49.50391" lon="1.10111">
        <ele>98.2</ele>
        <time>2022-03-26T13:20:57Z</time>
      </trkpt>
      <trkpt lat="49.50391" lon="1.10111">
        <ele>98.3</ele>
        <time>2022-03-26T13:20:58Z</time>
      </trkpt>
      <trkpt lat="49.5039" lon="1.1011">
        <ele>98.5</ele>
        <time>2022-03-26T13:21:00Z</time>
      </trkpt>
      <trkpt lat="49.5039" lon="1.10109">
        <ele>98.6</ele>
        <time>2022-03-26T13:21:01Z</time>
      </trkpt>
      <trkpt lat="49.50389" lon="1.10108">
        <ele>98.9</ele>
        <time>2022-03-26T13:21:02Z</time>
      </trkpt>
      <trkpt lat="49.50388" lon="1.10109">
        <ele>99.1</ele>
        <time>2022-03-26T13:21:03Z</time>
      </trkpt>
      <trkpt lat="49.50387" lon="1.10111">
        <ele>99.3</ele>
        <time>2022-03-26T13:21:04Z</time>
      </trkpt>
      <trkpt lat="49.50386" lon="1.10112">
        <ele>99.5</ele>
        <time>2022-03-26T13:21:05Z</time>
      </trkpt>
      <trkpt lat="49.50385" lon="1.10113">
        <ele>99.7</ele>
        <time>2022-03-26T13:21:06Z</time>
      </trkpt>
      <trkpt lat="49.50386" lon="1.10113">
        <ele>99.7</ele>
        <time>2022-03-26T13:21:07Z</time>
      </trkpt>
      <trkpt lat="49.50386" lon="1.10114">
        <ele>99.9</ele>
        <time>2022-03-26T13:21:08Z</time>
      </trkpt>
      <trkpt lat="49.50387" lon="1.10115">
        <ele>100.1</ele>
        <time>2022-03-26T13:21:10Z</time>
      </trkpt>
      <trkpt lat="49.50387" lon="1.10114">
        <ele>100.2</ele>
        <time>2022-03-26T13:21:12Z</time>
      </trkpt>
      <trkpt lat="49.50387" lon="1.10112">
        <ele>100.4</ele>
        <time>2022-03-26T13:21:13Z</time>
      </trkpt>
      <trkpt lat="49.50386" lon="1.10112">
        <ele>100.5</ele>
        <time>2022-03-26T13:21:14Z</time>
      </trkpt>
      <trkpt lat="49.50386" lon="1.10111">
        <ele>100.6</ele>
        <time>2022-03-26T13:21:15Z</time>
      </trkpt>
      <trkpt lat="49.50386" lon="1.10111">
        <ele>100.7</ele>
        <time>2022-03-26T13:21:16Z</time>
      </trkpt>
      <trkpt lat="49.50385" lon="1.1011">
        <ele>100.8</ele>
        <time>2022-03-26T13:21:17Z</time>
      </trkpt>
      <trkpt lat="49.50385" lon="1.1011">
        <ele>100.8</ele>
        <time>2022-03-26T13:21:18Z</time>
      </trkpt>
      <trkpt lat="49.50385" lon="1.1011">
        <ele>100.9</ele>
        <time>2022-03-26T13:21:19Z</time>
      </trkpt>
      <trkpt lat="49.50384" lon="1.10109">
        <ele>101</ele>
        <time>2022-03-26T13:21:20Z</time>
      </trkpt>
      <trkpt lat="49.50384" lon="1.10109">
        <ele>101.1</ele>
        <time>2022-03-26T13:21:21Z</time>
      </trkpt>
      <trkpt lat="49.50384" lon="1.10109">
        <ele>101.2</ele>
        <time>2022-03-26T13:21:22Z</time>
      </trkpt>
      <trkpt lat="49.50383" lon="1.10109">
        <ele>101.3</ele>
        <time>2022-03-26T13:21:24Z</time>
      </trkpt>
      <trkpt lat="49.50383" lon="1.10109">
        <ele>101.3</ele>
        <time>2022-03-26T13:21:25Z</time>
      </trkpt>
      <trkpt lat="49.50383" lon="1.1011">
        <ele>101.5</ele>
        <time>2022-03-26T13:21:26Z</time>
      </trkpt>
      <trkpt lat="49.50382" lon="1.1011">
        <ele>101.5</ele>
        <time>2022-03-26T13:21:27Z</time>
      </trkpt>
      <trkpt lat="49.50381" lon="1.1011">
        <ele>101.7</ele>
        <time>2022-03-26T13:21:28Z</time>
      </trkpt>
      <trkpt lat="49.50381" lon="1.10111">
        <ele>101.8</ele>
        <time>2022-03-26T13:21:29Z</time>
      </trkpt>
      <trkpt lat="49.50379" lon="1.10111">
        <ele>102.1</ele>
        <time>2022-03-26T13:21:30Z</time>
      </trkpt>
      <trkpt lat="49.50378" lon="1.10111">
        <ele>102.4</ele>
        <time>2022-03-26T13:21:32Z</time>
      </trkpt>
      <trkpt lat="49.50376" lon="1.10111">
        <ele>102.6</ele>
        <time>2022-03-26T13:21:33Z</time>
      </trkpt>
      <trkpt lat="49.50375" lon="1.10111">
        <ele>102.9</ele>
        <time>2022-03-26T13:21:34Z</time>
      </trkpt>
      <trkpt lat="49.50373" lon="1.1011">
        <ele>103.2</ele>
        <time>2022-03-26T13:21:35Z</time>
      </trkpt>
      <trkpt lat="49.50372" lon="1.1011">
        <ele>103.4</ele>
        <time>2022-03-26T13:21:36Z</time>
      </trkpt>
      <trkpt lat="49.50371" lon="1.1011">
        <ele>103.6</ele>
        <time>2022-03-26T13:21:37Z</time>
      </trkpt>
      <trkpt lat="49.5037" lon="1.1011">
        <ele>103.8</ele>
        <time>2022-03-26T13:21:39Z</time>
      </trkpt>
      <trkpt lat="49.5037" lon="1.1011">
        <ele>103.9</ele>
        <time>2022-03-26T13:21:40Z</time>
      </trkpt>
      <trkpt lat="49.50369" lon="1.10109">
        <ele>104.1</ele>
        <time>2022-03-26T13:21:41Z</time>
      </trkpt>
      <trkpt lat="49.50369" lon="1.10108">
        <ele>104.1</ele>
        <time>2022-03-26T13:21:42Z</time>
      </trkpt>
      <trkpt lat="49.50369" lon="1.10108">
        <ele>104.2</ele>
        <time>2022-03-26T13:21:43Z</time>
      </trkpt>
      <trkpt lat="49.50368" lon="1.10107">
        <ele>104.3</ele>
        <time>2022-03-26T13:21:44Z</time>
      </trkpt>
      <trkpt lat="49.50367" lon="1.10105">
        <ele>104.6</ele>
        <time>2022-03-26T13:21:45Z</time>
      </trkpt>
      <trkpt lat="49.50366" lon="1.10105">
        <ele>104.9</ele>
        <time>2022-03-26T13:21:47Z</time>
      </trkpt>
      <trkpt lat="49.50365" lon="1.10104">
        <ele>105.1</ele>
        <time>2022-03-26T13:21:48Z</time>
      </trkpt>
      <trkpt lat="49.50363" lon="1.10103">
        <ele>105.4</ele>
        <time>2022-03-26T13:21:49Z</time>
      </trkpt>
      <trkpt lat="49.50362" lon="1.10102">
        <ele>105.6</ele>
        <time>2022-03-26T13:21:50Z</time>
      </trkpt>
      <trkpt lat="49.50362" lon="1.10102">
        <ele>105.7</ele>
        <time>2022-03-26T13:21:51Z</time>
      </trkpt>
      <trkpt lat="49.5036" lon="1.101">
        <ele>106</ele>
        <time>2022-03-26T13:21:52Z</time>
      </trkpt>
      <trkpt lat="49.5036" lon="1.101">
        <ele>106.2</ele>
        <time>2022-03-26T13:21:54Z</time>
      </trkpt>
      <trkpt lat="49.50359" lon="1.10099">
        <ele>106.3</ele>
        <time>2022-03-26T13:21:55Z</time>
      </trkpt>
      <trkpt lat="49.50357" lon="1.10098">
        <ele>106.8</ele>
        <time>2022-03-26T13:21:56Z</time>
      </trkpt>
      <trkpt lat="49.50356" lon="1.10098">
        <ele>106.9</ele>
        <time>2022-03-26T13:21:57Z</time>
      </trkpt>
      <trkpt lat="49.50355" lon="1.10098">
        <ele>107.1</ele>
        <time>2022-03-26T13:21:58Z</time>
      </trkpt>
      <trkpt lat="49.50354" lon="1.10097">
        <ele>107.4</ele>
        <time>2022-03-26T13:21:59Z</time>
      </trkpt>
      <trkpt lat="49.5035" lon="1.10097">
        <ele>108.1</ele>
        <time>2022-03-26T13:22:01Z</time>
      </trkpt>
      <trkpt lat="49.50346" lon="1.10096">
        <ele>108.7</ele>
        <time>2022-03-26T13:22:02Z</time>
      </trkpt>
      <trkpt lat="49.50345" lon="1.10095">
        <ele>108.9</ele>
        <time>2022-03-26T13:22:03Z</time>
      </trkpt>
      <trkpt lat="49.50341" lon="1.10094">
        <ele>109.6</ele>
        <time>2022-03-26T13:22:04Z</time>
      </trkpt>
      <trkpt lat="49.5034" lon="1.10094">
        <ele>109.9</ele>
        <time>2022-03-26T13:22:05Z</time>
      </trkpt>
      <trkpt lat="49.50337" lon="1.10093">
        <ele>110.4</ele>
        <time>2022-03-26T13:22:06Z</time>
      </trkpt>
      <trkpt lat="49.50336" lon="1.10093">
        <ele>110.5</ele>
        <time>2022-03-26T13:22:07Z</time>
      </trkpt>
      <trkpt lat="49.50333" lon="1.10093">
        <ele>111</ele>
        <time>2022-03-26T13:22:09Z</time>
      </trkpt>
      <trkpt lat="49.50331" lon="1.10093">
        <ele>111.4</ele>
        <time>2022-03-26T13:22:10Z</time>
      </trkpt>
      <trkpt lat="49.50329" lon="1.10093">
        <ele>111.6</ele>
        <time>2022-03-26T13:22:11Z</time>
      </trkpt>
      <trkpt lat="49.50328" lon="1.10093">
        <ele>111.8</ele>
        <time>2022-03-26T13:22:12Z</time>
      </trkpt>
      <trkpt lat="49.50328" lon="1.10094">
        <ele>111.9</ele>
        <time>2022-03-26T13:22:13Z</time>
      </trkpt>
      <trkpt lat="49.50327" lon="1.10095">
        <ele>112</ele>
        <time>2022-03-26T13:22:14Z</time>
      </trkpt>
      <trkpt lat="49.50327" lon="1.10095">
        <ele>112.1</ele>
        <time>2022-03-26T13:22:15Z</time>
      </trkpt>
      <trkpt lat="49.50326" lon="1.10096">
        <ele>112.2</ele>
        <time>2022-03-26T13:22:16Z</time>
      </trkpt>
      <trkpt lat="49.50326" lon="1.10096">
        <ele>112.2</ele>
        <time>2022-03-26T13:22:17Z</time>
      </trkpt>
      <trkpt lat="49.50326" lon="1.10097">
        <ele>112.3</ele>
        <time>2022-03-26T13:22:19Z</time>
      </trkpt>
      <trkpt lat="49.50326" lon="1.10097">
        <ele>112.3</ele>
        <time>2022-03-26T13:22:20Z</time>
      </trkpt>
      <trkpt lat="49.50325" lon="1.10097">
        <ele>112.4</ele>
        <time>2022-03-26T13:22:21Z</time>
      </trkpt>
      <trkpt lat="49.50325" lon="1.10097">
        <ele>112.4</ele>
        <time>2022-03-26T13:22:22Z</time>
      </trkpt>
      <trkpt lat="49.50325" lon="1.10098">
        <ele>112.4</ele>
        <time>2022-03-26T13:22:23Z</time>
      </trkpt>
      <trkpt lat="49.50325" lon="1.10098">
        <ele>112.5</ele>
        <time>2022-03-26T13:22:24Z</time>
      </trkpt>
      <trkpt lat="49.50325" lon="1.10097">
        <ele>112.6</ele>
        <time>2022-03-26T13:22:25Z</time>
      </trkpt>
      <trkpt lat="49.50326" lon="1.10096">
        <ele>112.7</ele>
        <time>2022-03-26T13:22:26Z</time>
      </trkpt>
      <trkpt lat="49.50327" lon="1.10096">
        <ele>112.8</ele>
        <time>2022-03-26T13:22:27Z</time>
      </trkpt>
      <trkpt lat="49.50328" lon="1.10095">
        <ele>112.9</ele>
        <time>2022-03-26T13:22:28Z</time>
      </trkpt>
      <trkpt lat="49.50328" lon="1.10095">
        <ele>113</ele>
        <time>2022-03-26T13:22:29Z</time>
      </trkpt>
      <trkpt lat="49.50328" lon="1.10095">
        <ele>113</ele>
        <time>2022-03-26T13:22:30Z</time>
      </trkpt>
      <trkpt lat="49.50328" lon="1.10095">
        <ele>113</ele>
        <time>2022-03-26T13:22:31Z</time>
      </trkpt>
      <trkpt lat="49.50328" lon="1.10095">
        <ele>113.1</ele>
        <time>2022-03-26T13:22:32Z</time>
      </trkpt>
      <trkpt lat="49.50328" lon="1.10095">
        <ele>113.1</ele>
        <time>2022-03-26T13:22:33Z</time>
      </trkpt>
      <trkpt lat="49.50328" lon="1.10095">
        <ele>113.1</ele>
        <time>2022-03-26T13:22:34Z</time>
      </trkpt>
      <trkpt lat="49.50325" lon="1.10091">
        <ele>113.7</ele>
        <time>2022-03-26T13:22:54Z</time>
      </trkpt>
      <trkpt lat="49.50324" lon="1.10091">
        <ele>113.9</ele>
        <time>2022-03-26T13:22:55Z</time>
      </trkpt>
      <trkpt lat="49.50322" lon="1.10091">
        <ele>114.1</ele>
        <time>2022-03-26T13:22:56Z</time>
      </trkpt>
      <trkpt lat="49.50322" lon="1.10091">
        <ele>114.2</ele>
        <time>2022-03-26T13:22:57Z</time>
      </trkpt>
      <trkpt lat="49.50322" lon="1.10091">
        <ele>114.2</ele>
        <time>2022-03-26T13:22:58Z</time>
      </trkpt>
      <trkpt lat="49.50321" lon="1.10094">
        <ele>114.6</ele>
        <time>2022-03-26T13:22:59Z</time>
      </trkpt>
      <trkpt lat="49.50319" lon="1.10093">
        <ele>114.9</ele>
        <time>2022-03-26T13:23:00Z</time>
      </trkpt>
      <trkpt lat="49.50316" lon="1.10092">
        <ele>115.4</ele>
        <time>2022-03-26T13:23:01Z</time>
      </trkpt>
      <trkpt lat="49.50315" lon="1.10091">
        <ele>115.5</ele>
        <time>2022-03-26T13:23:02Z</time>
      </trkpt>
      <trkpt lat="49.50314" lon="1.1009">
        <ele>115.9</ele>
        <time>2022-03-26T13:23:03Z</time>
      </trkpt>
      <trkpt lat="49.50311" lon="1.10088">
        <ele>116.3</ele>
        <time>2022-03-26T13:23:05Z</time>
      </trkpt>
      <trkpt lat="49.50308" lon="1.10086">
        <ele>117</ele>
        <time>2022-03-26T13:23:06Z</time>
      </trkpt>
      <trkpt lat="49.50307" lon="1.10085">
        <ele>117.1</ele>
        <time>2022-03-26T13:23:07Z</time>
      </trkpt>
      <trkpt lat="49.50304" lon="1.10084">
        <ele>117.7</ele>
        <time>2022-03-26T13:23:08Z</time>
      </trkpt>
      <trkpt lat="49.50303" lon="1.10084">
        <ele>117.8</ele>
        <time>2022-03-26T13:23:09Z</time>
      </trkpt>
      <trkpt lat="49.50301" lon="1.10083">
        <ele>118.1</ele>
        <time>2022-03-26T13:23:10Z</time>
      </trkpt>
      <trkpt lat="49.503" lon="1.10082">
        <ele>118.4</ele>
        <time>2022-03-26T13:23:11Z</time>
      </trkpt>
      <trkpt lat="49.50297" lon="1.10081">
        <ele>119</ele>
        <time>2022-03-26T13:23:13Z</time>
      </trkpt>
      <trkpt lat="49.50295" lon="1.10081">
        <ele>119.2</ele>
        <time>2022-03-26T13:23:14Z</time>
      </trkpt>
      <trkpt lat="49.50294" lon="1.1008">
        <ele>119.6</ele>
        <time>2022-03-26T13:23:15Z</time>
      </trkpt>
      <trkpt lat="49.50292" lon="1.10079">
        <ele>119.9</ele>
        <time>2022-03-26T13:23:16Z</time>
      </trkpt>
      <trkpt lat="49.50289" lon="1.10078">
        <ele>120.5</ele>
        <time>2022-03-26T13:23:17Z</time>
      </trkpt>
      <trkpt lat="49.50288" lon="1.10078">
        <ele>120.8</ele>
        <time>2022-03-26T13:23:18Z</time>
      </trkpt>
      <trkpt lat="49.50285" lon="1.10077">
        <ele>121.5</ele>
        <time>2022-03-26T13:23:20Z</time>
      </trkpt>
      <trkpt lat="49.50284" lon="1.10076">
        <ele>121.9</ele>
        <time>2022-03-26T13:23:21Z</time>
      </trkpt>
      <trkpt lat="49.50282" lon="1.10075">
        <ele>122.3</ele>
        <time>2022-03-26T13:23:22Z</time>
      </trkpt>
      <trkpt lat="49.50281" lon="1.10073">
        <ele>122.7</ele>
        <time>2022-03-26T13:23:23Z</time>
      </trkpt>
      <trkpt lat="49.5028" lon="1.10072">
        <ele>123.1</ele>
        <time>2022-03-26T13:23:25Z</time>
      </trkpt>
      <trkpt lat="49.50279" lon="1.10072">
        <ele>123.2</ele>
        <time>2022-03-26T13:23:26Z</time>
      </trkpt>
      <trkpt lat="49.50279" lon="1.10072">
        <ele>123.3</ele>
        <time>2022-03-26T13:23:27Z</time>
      </trkpt>
      <trkpt lat="49.50279" lon="1.10073">
        <ele>123.4</ele>
        <time>2022-03-26T13:23:28Z</time>
      </trkpt>
      <trkpt lat="49.50279" lon="1.10074">
        <ele>123.5</ele>
        <time>2022-03-26T13:23:29Z</time>
      </trkpt>
      <trkpt lat="49.50279" lon="1.10074">
        <ele>123.6</ele>
        <time>2022-03-26T13:23:31Z</time>
      </trkpt>
      <trkpt lat="49.50279" lon="1.10074">
        <ele>123.6</ele>
        <time>2022-03-26T13:23:32Z</time>
      </trkpt>
      <trkpt lat="49.50279" lon="1.10075">
        <ele>123.8</ele>
        <time>2022-03-26T13:23:33Z</time>
      </trkpt>
      <trkpt lat="49.50279" lon="1.10075">
        <ele>123.9</ele>
        <time>2022-03-26T13:23:34Z</time>
      </trkpt>
      <trkpt lat="49.50278" lon="1.10075">
        <ele>123.9</ele>
        <time>2022-03-26T13:23:35Z</time>
      </trkpt>
      <trkpt lat="49.50278" lon="1.10076">
        <ele>124</ele>
        <time>2022-03-26T13:23:37Z</time>
      </trkpt>
      <trkpt lat="49.50278" lon="1.10075">
        <ele>124.1</ele>
        <time>2022-03-26T13:23:38Z</time>
      </trkpt>
      <trkpt lat="49.50277" lon="1.10075">
        <ele>124.3</ele>
        <time>2022-03-26T13:23:39Z</time>
      </trkpt>
      <trkpt lat="49.50277" lon="1.10075">
        <ele>124.4</ele>
        <time>2022-03-26T13:23:40Z</time>
      </trkpt>
      <trkpt lat="49.50277" lon="1.10075">
        <ele>124.5</ele>
        <time>2022-03-26T13:23:41Z</time>
      </trkpt>
      <trkpt lat="49.50276" lon="1.10075">
        <ele>124.5</ele>
        <time>2022-03-26T13:23:42Z</time>
      </trkpt>
      <trkpt lat="49.50276" lon="1.10075">
        <ele>124.6</ele>
        <time>2022-03-26T13:23:43Z</time>
      </trkpt>
      <trkpt lat="49.50276" lon="1.10074">
        <ele>124.6</ele>
        <time>2022-03-26T13:23:45Z</time>
      </trkpt>
      <trkpt lat="49.50275" lon="1.10075">
        <ele>124.9</ele>
        <time>2022-03-26T13:23:46Z</time>
      </trkpt>
      <trkpt lat="49.50275" lon="1.10075">
        <ele>125.1</ele>
        <time>2022-03-26T13:23:47Z</time>
      </trkpt>
      <trkpt lat="49.50274" lon="1.10074">
        <ele>125.3</ele>
        <time>2022-03-26T13:23:48Z</time>
      </trkpt>
      <trkpt lat="49.50274" lon="1.10073">
        <ele>125.5</ele>
        <time>2022-03-26T13:23:50Z</time>
      </trkpt>
      <trkpt lat="49.50273" lon="1.10073">
        <ele>125.8</ele>
        <time>2022-03-26T13:23:51Z</time>
      </trkpt>
      <trkpt lat="49.50273" lon="1.10071">
        <ele>126.2</ele>
        <time>2022-03-26T13:23:53Z</time>
      </trkpt>
      <trkpt lat="49.50274" lon="1.10069">
        <ele>126.6</ele>
        <time>2022-03-26T13:23:54Z</time>
      </trkpt>
      <trkpt lat="49.50274" lon="1.10068">
        <ele>126.9</ele>
        <time>2022-03-26T13:23:55Z</time>
      </trkpt>
      <trkpt lat="49.50274" lon="1.10066">
        <ele>127.2</ele>
        <time>2022-03-26T13:23:56Z</time>
      </trkpt>
      <trkpt lat="49.50274" lon="1.10065">
        <ele>127.4</ele>
        <time>2022-03-26T13:23:58Z</time>
      </trkpt>
      <trkpt lat="49.50274" lon="1.10064">
        <ele>127.6</ele>
        <time>2022-03-26T13:23:59Z</time>
      </trkpt>
      <trkpt lat="49.50274" lon="1.10063">
        <ele>127.9</ele>
        <time>2022-03-26T13:24:01Z</time>
      </trkpt>
      <trkpt lat="49.50273" lon="1.10062">
        <ele>128</ele>
        <time>2022-03-26T13:24:02Z</time>
      </trkpt>
      <trkpt lat="49.50273" lon="1.10062">
        <ele>128.3</ele>
        <time>2022-03-26T13:24:04Z</time>
      </trkpt>
      <trkpt lat="49.50272" lon="1.10061">
        <ele>128.7</ele>
        <time>2022-03-26T13:24:05Z</time>
      </trkpt>
      <trkpt lat="49.50269" lon="1.10059">
        <ele>129.4</ele>
        <time>2022-03-26T13:24:06Z</time>
      </trkpt>
      <trkpt lat="49.50268" lon="1.10059">
        <ele>129.7</ele>
        <time>2022-03-26T13:24:08Z</time>
      </trkpt>
      <trkpt lat="49.50267" lon="1.10059">
        <ele>130</ele>
        <time>2022-03-26T13:24:09Z</time>
      </trkpt>
      <trkpt lat="49.50266" lon="1.10059">
        <ele>130.3</ele>
        <time>2022-03-26T13:24:11Z</time>
      </trkpt>
      <trkpt lat="49.50265" lon="1.10059">
        <ele>130.6</ele>
        <time>2022-03-26T13:24:12Z</time>
      </trkpt>
      <trkpt lat="49.50264" lon="1.10059">
        <ele>130.8</ele>
        <time>2022-03-26T13:24:13Z</time>
      </trkpt>
      <trkpt lat="49.50263" lon="1.10059">
        <ele>131.1</ele>
        <time>2022-03-26T13:24:15Z</time>
      </trkpt>
      <trkpt lat="49.50262" lon="1.10058">
        <ele>131.4</ele>
        <time>2022-03-26T13:24:16Z</time>
      </trkpt>
      <trkpt lat="49.5026" lon="1.10058">
        <ele>131.7</ele>
        <time>2022-03-26T13:24:17Z</time>
      </trkpt>
      <trkpt lat="49.50259" lon="1.10058">
        <ele>132.1</ele>
        <time>2022-03-26T13:24:19Z</time>
      </trkpt>
      <trkpt lat="49.50258" lon="1.10058">
        <ele>132.3</ele>
        <time>2022-03-26T13:24:20Z</time>
      </trkpt>
      <trkpt lat="49.50257" lon="1.10058">
        <ele>132.6</ele>
        <time>2022-03-26T13:24:21Z</time>
      </trkpt>
      <trkpt lat="49.50256" lon="1.10058">
        <ele>132.8</ele>
        <time>2022-03-26T13:24:23Z</time>
      </trkpt>
      <trkpt lat="49.50255" lon="1.10057">
        <ele>133.1</ele>
        <time>2022-03-26T13:24:24Z</time>
      </trkpt>
      <trkpt lat="49.50255" lon="1.10057">
        <ele>133.2</ele>
        <time>2022-03-26T13:24:25Z</time>
      </trkpt>
      <trkpt lat="49.50254" lon="1.10057">
        <ele>133.4</ele>
        <time>2022-03-26T13:24:26Z</time>
      </trkpt>
      <trkpt lat="49.50254" lon="1.10056">
        <ele>133.5</ele>
        <time>2022-03-26T13:24:27Z</time>
      </trkpt>
      <trkpt lat="49.50253" lon="1.10056">
        <ele>133.6</ele>
        <time>2022-03-26T13:24:29Z</time>
      </trkpt>
      <trkpt lat="49.50253" lon="1.10055">
        <ele>133.7</ele>
        <time>2022-03-26T13:24:30Z</time>
      </trkpt>
      <trkpt lat="49.50252" lon="1.10055">
        <ele>133.9</ele>
        <time>2022-03-26T13:24:31Z</time>
      </trkpt>
      <trkpt lat="49.50252" lon="1.10055">
        <ele>134</ele>
        <time>2022-03-26T13:24:32Z</time>
      </trkpt>
      <trkpt lat="49.50251" lon="1.10054">
        <ele>134.2</ele>
        <time>2022-03-26T13:24:33Z</time>
      </trkpt>
      <trkpt lat="49.50251" lon="1.10055">
        <ele>134.3</ele>
        <time>2022-03-26T13:24:34Z</time>
      </trkpt>
      <trkpt lat="49.5025" lon="1.10054">
        <ele>134.4</ele>
        <time>2022-03-26T13:24:35Z</time>
      </trkpt>
      <trkpt lat="49.50249" lon="1.10054">
        <ele>134.6</ele>
        <time>2022-03-26T13:24:36Z</time>
      </trkpt>
      <trkpt lat="49.50249" lon="1.10053">
        <ele>134.7</ele>
        <time>2022-03-26T13:24:37Z</time>
      </trkpt>
      <trkpt lat="49.50249" lon="1.10052">
        <ele>134.9</ele>
        <time>2022-03-26T13:24:38Z</time>
      </trkpt>
      <trkpt lat="49.50249" lon="1.10052">
        <ele>134.9</ele>
        <time>2022-03-26T13:24:39Z</time>
      </trkpt>
      <trkpt lat="49.50249" lon="1.10052">
        <ele>135</ele>
        <time>2022-03-26T13:24:40Z</time>
      </trkpt>
      <trkpt lat="49.50249" lon="1.10053">
        <ele>135.1</ele>
        <time>2022-03-26T13:24:41Z</time>
      </trkpt>
      <trkpt lat="49.50249" lon="1.10054">
        <ele>135.2</ele>
        <time>2022-03-26T13:24:42Z</time>
      </trkpt>
      <trkpt lat="49.50249" lon="1.10054">
        <ele>135.3</ele>
        <time>2022-03-26T13:24:43Z</time>
      </trkpt>
      <trkpt lat="49.50249" lon="1.10055">
        <ele>135.4</ele>
        <time>2022-03-26T13:24:44Z</time>
      </trkpt>
      <trkpt lat="49.50249" lon="1.10055">
        <ele>135.4</ele>
        <time>2022-03-26T13:24:45Z</time>
      </trkpt>
      <trkpt lat="49.50249" lon="1.10055">
        <ele>135.5</ele>
        <time>2022-03-26T13:24:46Z</time>
      </trkpt>
      <trkpt lat="49.50249" lon="1.10055">
        <ele>135.5</ele>
        <time>2022-03-26T13:24:47Z</time>
      </trkpt>
      <trkpt lat="49.50249" lon="1.10055">
        <ele>135.5</ele>
        <time>2022-03-26T13:24:48Z</time>
      </trkpt>
      <trkpt lat="49.50248" lon="1.10056">
        <ele>135.7</ele>
        <time>2022-03-26T13:24:50Z</time>
      </trkpt>
      <trkpt lat="49.50247" lon="1.10056">
        <ele>135.8</ele>
        <time>2022-03-26T13:24:51Z</time>
      </trkpt>
      <trkpt lat="49.50247" lon="1.10056">
        <ele>135.9</ele>
        <time>2022-03-26T13:24:52Z</time>
      </trkpt>
      <trkpt lat="49.50246" lon="1.10056">
        <ele>136</ele>
        <time>2022-03-26T13:24:53Z</time>
      </trkpt>
      <trkpt lat="49.50245" lon="1.10057">
        <ele>136.2</ele>
        <time>2022-03-26T13:24:54Z</time>
      </trkpt>
      <trkpt lat="49.50244" lon="1.10057">
        <ele>136.4</ele>
        <time>2022-03-26T13:24:56Z</time>
      </trkpt>
      <trkpt lat="49.50244" lon="1.10057">
        <ele>136.5</ele>
        <time>2022-03-26T13:24:57Z</time>
      </trkpt>
      <trkpt lat="49.50243" lon="1.10057">
        <ele>136.7</ele>
        <time>2022-03-26T13:24:58Z</time>
      </trkpt>
      <trkpt lat="49.50242" lon="1.10057">
        <ele>137</ele>
        <time>2022-03-26T13:24:59Z</time>
      </trkpt>
      <trkpt lat="49.5024" lon="1.10056">
        <ele>137.4</ele>
        <time>2022-03-26T13:25:01Z</time>
      </trkpt>
      <trkpt lat="49.50237" lon="1.10053">
        <ele>138</ele>
        <time>2022-03-26T13:25:02Z</time>
      </trkpt>
      <trkpt lat="49.50236" lon="1.10052">
        <ele>138.3</ele>
        <time>2022-03-26T13:25:03Z</time>
      </trkpt>
      <trkpt lat="49.50234" lon="1.10051">
        <ele>138.5</ele>
        <time>2022-03-26T13:25:04Z</time>
      </trkpt>
      <trkpt lat="49.50233" lon="1.1005">
        <ele>138.8</ele>
        <time>2022-03-26T13:25:05Z</time>
      </trkpt>
      <trkpt lat="49.50231" lon="1.1005">
        <ele>139.2</ele>
        <time>2022-03-26T13:25:06Z</time>
      </trkpt>
      <trkpt lat="49.50227" lon="1.10049">
        <ele>139.8</ele>
        <time>2022-03-26T13:25:08Z</time>
      </trkpt>
      <trkpt lat="49.50224" lon="1.10049">
        <ele>140.3</ele>
        <time>2022-03-26T13:25:10Z</time>
      </trkpt>
      <trkpt lat="49.50224" lon="1.10049">
        <ele>140.4</ele>
        <time>2022-03-26T13:25:11Z</time>
      </trkpt>
      <trkpt lat="49.50221" lon="1.10049">
        <ele>140.7</ele>
        <time>2022-03-26T13:25:12Z</time>
      </trkpt>
      <trkpt lat="49.50221" lon="1.10049">
        <ele>140.9</ele>
        <time>2022-03-26T13:25:13Z</time>
      </trkpt>
      <trkpt lat="49.5022" lon="1.10049">
        <ele>141</ele>
        <time>2022-03-26T13:25:14Z</time>
      </trkpt>
      <trkpt lat="49.50221" lon="1.10048">
        <ele>141.2</ele>
        <time>2022-03-26T13:25:15Z</time>
      </trkpt>
      <trkpt lat="49.50221" lon="1.10047">
        <ele>141.3</ele>
        <time>2022-03-26T13:25:16Z</time>
      </trkpt>
      <trkpt lat="49.50222" lon="1.10046">
        <ele>141.4</ele>
        <time>2022-03-26T13:25:17Z</time>
      </trkpt>
      <trkpt lat="49.50222" lon="1.10045">
        <ele>141.5</ele>
        <time>2022-03-26T13:25:18Z</time>
      </trkpt>
      <trkpt lat="49.50222" lon="1.10045">
        <ele>141.6</ele>
        <time>2022-03-26T13:25:19Z</time>
      </trkpt>
      <trkpt lat="49.5022" lon="1.10045">
        <ele>141.8</ele>
        <time>2022-03-26T13:25:20Z</time>
      </trkpt>
      <trkpt lat="49.50219" lon="1.10044">
        <ele>142.1</ele>
        <time>2022-03-26T13:25:21Z</time>
      </trkpt>
      <trkpt lat="49.50216" lon="1.10043">
        <ele>142.7</ele>
        <time>2022-03-26T13:25:22Z</time>
      </trkpt>
      <trkpt lat="49.50213" lon="1.10041">
        <ele>142.8</ele>
        <time>2022-03-26T13:25:23Z</time>
      </trkpt>
      <trkpt lat="49.5021" lon="1.1004">
        <ele>142.8</ele>
        <time>2022-03-26T13:25:24Z</time>
      </trkpt>
      <trkpt lat="49.50206" lon="1.10039">
        <ele>142.9</ele>
        <time>2022-03-26T13:25:26Z</time>
      </trkpt>
      <trkpt lat="49.50205" lon="1.10039">
        <ele>142.9</ele>
        <time>2022-03-26T13:25:27Z</time>
      </trkpt>
      <trkpt lat="49.50203" lon="1.10038">
        <ele>142.9</ele>
        <time>2022-03-26T13:25:28Z</time>
      </trkpt>
      <trkpt lat="49.50202" lon="1.10037">
        <ele>143</ele>
        <time>2022-03-26T13:25:29Z</time>
      </trkpt>
      <trkpt lat="49.50201" lon="1.10037">
        <ele>143</ele>
        <time>2022-03-26T13:25:30Z</time>
      </trkpt>
      <trkpt lat="49.502" lon="1.10036">
        <ele>143</ele>
        <time>2022-03-26T13:25:31Z</time>
      </trkpt>
      <trkpt lat="49.50199" lon="1.10036">
        <ele>143</ele>
        <time>2022-03-26T13:25:32Z</time>
      </trkpt>
      <trkpt lat="49.50199" lon="1.10036">
        <ele>143</ele>
        <time>2022-03-26T13:25:33Z</time>
      </trkpt>
      <trkpt lat="49.50198" lon="1.10035">
        <ele>143.1</ele>
        <time>2022-03-26T13:25:35Z</time>
      </trkpt>
      <trkpt lat="49.50198" lon="1.10034">
        <ele>143.1</ele>
        <time>2022-03-26T13:25:36Z</time>
      </trkpt>
      <trkpt lat="49.50198" lon="1.10033">
        <ele>143.1</ele>
        <time>2022-03-26T13:25:37Z</time>
      </trkpt>
      <trkpt lat="49.50199" lon="1.10033">
        <ele>143.1</ele>
        <time>2022-03-26T13:25:38Z</time>
      </trkpt>
      <trkpt lat="49.50199" lon="1.10031">
        <ele>143.2</ele>
        <time>2022-03-26T13:25:39Z</time>
      </trkpt>
      <trkpt lat="49.502" lon="1.10029">
        <ele>143.2</ele>
        <time>2022-03-26T13:25:41Z</time>
      </trkpt>
      <trkpt lat="49.502" lon="1.10028">
        <ele>143.2</ele>
        <time>2022-03-26T13:25:42Z</time>
      </trkpt>
      <trkpt lat="49.502" lon="1.10027">
        <ele>143.3</ele>
        <time>2022-03-26T13:25:43Z</time>
      </trkpt>
      <trkpt lat="49.502" lon="1.10026">
        <ele>143.3</ele>
        <time>2022-03-26T13:25:44Z</time>
      </trkpt>
      <trkpt lat="49.502" lon="1.10023">
        <ele>143.4</ele>
        <time>2022-03-26T13:25:45Z</time>
      </trkpt>
      <trkpt lat="49.50201" lon="1.10019">
        <ele>143.5</ele>
        <time>2022-03-26T13:25:47Z</time>
      </trkpt>
      <trkpt lat="49.50201" lon="1.10017">
        <ele>143.6</ele>
        <time>2022-03-26T13:25:48Z</time>
      </trkpt>
      <trkpt lat="49.50202" lon="1.10014">
        <ele>143.7</ele>
        <time>2022-03-26T13:25:49Z</time>
      </trkpt>
      <trkpt lat="49.50202" lon="1.10011">
        <ele>143.9</ele>
        <time>2022-03-26T13:25:51Z</time>
      </trkpt>
      <trkpt lat="49.50201" lon="1.10009">
        <ele>143.9</ele>
        <time>2022-03-26T13:25:52Z</time>
      </trkpt>
      <trkpt lat="49.50201" lon="1.10006">
        <ele>144.1</ele>
        <time>2022-03-26T13:25:53Z</time>
      </trkpt>
      <trkpt lat="49.502" lon="1.10004">
        <ele>144.2</ele>
        <time>2022-03-26T13:25:54Z</time>
      </trkpt>
      <trkpt lat="49.50199" lon="1.1">
        <ele>144.5</ele>
        <time>2022-03-26T13:25:55Z</time>
      </trkpt>
      <trkpt lat="49.50196" lon="1.09995">
        <ele>144.8</ele>
        <time>2022-03-26T13:25:56Z</time>
      </trkpt>
      <trkpt lat="49.50195" lon="1.09994">
        <ele>145</ele>
        <time>2022-03-26T13:25:57Z</time>
      </trkpt>
      <trkpt lat="49.50193" lon="1.0999">
        <ele>145.3</ele>
        <time>2022-03-26T13:25:58Z</time>
      </trkpt>
      <trkpt lat="49.50192" lon="1.09989">
        <ele>145.4</ele>
        <time>2022-03-26T13:25:59Z</time>
      </trkpt>
      <trkpt lat="49.5019" lon="1.09986">
        <ele>145.7</ele>
        <time>2022-03-26T13:26:00Z</time>
      </trkpt>
      <trkpt lat="49.50189" lon="1.09985">
        <ele>145.8</ele>
        <time>2022-03-26T13:26:01Z</time>
      </trkpt>
      <trkpt lat="49.50186" lon="1.09981">
        <ele>146.2</ele>
        <time>2022-03-26T13:26:03Z</time>
      </trkpt>
      <trkpt lat="49.50185" lon="1.0998">
        <ele>146.3</ele>
        <time>2022-03-26T13:26:04Z</time>
      </trkpt>
      <trkpt lat="49.50182" lon="1.09978">
        <ele>146.6</ele>
        <time>2022-03-26T13:26:05Z</time>
      </trkpt>
      <trkpt lat="49.50181" lon="1.09977">
        <ele>146.7</ele>
        <time>2022-03-26T13:26:06Z</time>
      </trkpt>
      <trkpt lat="49.50178" lon="1.09976">
        <ele>147</ele>
        <time>2022-03-26T13:26:07Z</time>
      </trkpt>
      <trkpt lat="49.50176" lon="1.09974">
        <ele>147.3</ele>
        <time>2022-03-26T13:26:09Z</time>
      </trkpt>
      <trkpt lat="49.50173" lon="1.09972">
        <ele>147.6</ele>
        <time>2022-03-26T13:26:10Z</time>
      </trkpt>
      <trkpt lat="49.50169" lon="1.09969">
        <ele>147.9</ele>
        <time>2022-03-26T13:26:11Z</time>
      </trkpt>
      <trkpt lat="49.50168" lon="1.09968">
        <ele>148</ele>
        <time>2022-03-26T13:26:12Z</time>
      </trkpt>
      <trkpt lat="49.50166" lon="1.09967">
        <ele>148.2</ele>
        <time>2022-03-26T13:26:13Z</time>
      </trkpt>
      <trkpt lat="49.50163" lon="1.09965">
        <ele>148.5</ele>
        <time>2022-03-26T13:26:15Z</time>
      </trkpt>
      <trkpt lat="49.50161" lon="1.09963">
        <ele>148.7</ele>
        <time>2022-03-26T13:26:16Z</time>
      </trkpt>
      <trkpt lat="49.50158" lon="1.09962">
        <ele>148.9</ele>
        <time>2022-03-26T13:26:17Z</time>
      </trkpt>
      <trkpt lat="49.50155" lon="1.09961">
        <ele>149.1</ele>
        <time>2022-03-26T13:26:19Z</time>
      </trkpt>
      <trkpt lat="49.50152" lon="1.09959">
        <ele>149.4</ele>
        <time>2022-03-26T13:26:20Z</time>
      </trkpt>
      <trkpt lat="49.50149" lon="1.09956">
        <ele>149.7</ele>
        <time>2022-03-26T13:26:21Z</time>
      </trkpt>
      <trkpt lat="49.50148" lon="1.09955">
        <ele>149.7</ele>
        <time>2022-03-26T13:26:22Z</time>
      </trkpt>
      <trkpt lat="49.50145" lon="1.09952">
        <ele>150</ele>
        <time>2022-03-26T13:26:23Z</time>
      </trkpt>
      <trkpt lat="49.50145" lon="1.09951">
        <ele>150.1</ele>
        <time>2022-03-26T13:26:24Z</time>
      </trkpt>
      <trkpt lat="49.50142" lon="1.09948">
        <ele>150.3</ele>
        <time>2022-03-26T13:26:25Z</time>
      </trkpt>
      <trkpt lat="49.50138" lon="1.09944">
        <ele>150.6</ele>
        <time>2022-03-26T13:26:27Z</time>
      </trkpt>
      <trkpt lat="49.50135" lon="1.09943">
        <ele>150.8</ele>
        <time>2022-03-26T13:26:29Z</time>
      </trkpt>
      <trkpt lat="49.50132" lon="1.09941">
        <ele>151</ele>
        <time>2022-03-26T13:26:30Z</time>
      </trkpt>
      <trkpt lat="49.50131" lon="1.09939">
        <ele>151.1</ele>
        <time>2022-03-26T13:26:31Z</time>
      </trkpt>
      <trkpt lat="49.50128" lon="1.09936">
        <ele>151.3</ele>
        <time>2022-03-26T13:26:33Z</time>
      </trkpt>
      <trkpt lat="49.50126" lon="1.09932">
        <ele>151.5</ele>
        <time>2022-03-26T13:26:34Z</time>
      </trkpt>
      <trkpt lat="49.50125" lon="1.0993">
        <ele>151.5</ele>
        <time>2022-03-26T13:26:35Z</time>
      </trkpt>
      <trkpt lat="49.50123" lon="1.09925">
        <ele>151.7</ele>
        <time>2022-03-26T13:26:36Z</time>
      </trkpt>
      <trkpt lat="49.50122" lon="1.09921">
        <ele>151.8</ele>
        <time>2022-03-26T13:26:37Z</time>
      </trkpt>
      <trkpt lat="49.5012" lon="1.09915">
        <ele>151.9</ele>
        <time>2022-03-26T13:26:39Z</time>
      </trkpt>
      <trkpt lat="49.50119" lon="1.09913">
        <ele>151.9</ele>
        <time>2022-03-26T13:26:40Z</time>
      </trkpt>
      <trkpt lat="49.50118" lon="1.09912">
        <ele>151.9</ele>
        <time>2022-03-26T13:26:41Z</time>
      </trkpt>
      <trkpt lat="49.50116" lon="1.09908">
        <ele>152</ele>
        <time>2022-03-26T13:26:42Z</time>
      </trkpt>
      <trkpt lat="49.50115" lon="1.09906">
        <ele>152</ele>
        <time>2022-03-26T13:26:43Z</time>
      </trkpt>
      <trkpt lat="49.50113" lon="1.09903">
        <ele>152</ele>
        <time>2022-03-26T13:26:44Z</time>
      </trkpt>
      <trkpt lat="49.50112" lon="1.09902">
        <ele>152</ele>
        <time>2022-03-26T13:26:45Z</time>
      </trkpt>
      <trkpt lat="49.50111" lon="1.09898">
        <ele>152.1</ele>
        <time>2022-03-26T13:26:47Z</time>
      </trkpt>
      <trkpt lat="49.50109" lon="1.09894">
        <ele>152.1</ele>
        <time>2022-03-26T13:26:48Z</time>
      </trkpt>
      <trkpt lat="49.50107" lon="1.0989">
        <ele>152.1</ele>
        <time>2022-03-26T13:26:49Z</time>
      </trkpt>
      <trkpt lat="49.50106" lon="1.09889">
        <ele>152.1</ele>
        <time>2022-03-26T13:26:50Z</time>
      </trkpt>
      <trkpt lat="49.50105" lon="1.09886">
        <ele>152.1</ele>
        <time>2022-03-26T13:26:51Z</time>
      </trkpt>
      <trkpt lat="49.50101" lon="1.09877">
        <ele>152.2</ele>
        <time>2022-03-26T13:26:53Z</time>
      </trkpt>
      <trkpt lat="49.50101" lon="1.09874">
        <ele>152.2</ele>
        <time>2022-03-26T13:26:54Z</time>
      </trkpt>
      <trkpt lat="49.501" lon="1.09871">
        <ele>152.2</ele>
        <time>2022-03-26T13:26:56Z</time>
      </trkpt>
      <trkpt lat="49.50098" lon="1.09867">
        <ele>152.2</ele>
        <time>2022-03-26T13:26:57Z</time>
      </trkpt>
      <trkpt lat="49.50098" lon="1.09866">
        <ele>152.2</ele>
        <time>2022-03-26T13:26:58Z</time>
      </trkpt>
      <trkpt lat="49.50095" lon="1.09863">
        <ele>152.2</ele>
        <time>2022-03-26T13:26:59Z</time>
      </trkpt>
      <trkpt lat="49.50095" lon="1.09862">
        <ele>152.2</ele>
        <time>2022-03-26T13:27:00Z</time>
      </trkpt>
      <trkpt lat="49.50092" lon="1.09859">
        <ele>152.2</ele>
        <time>2022-03-26T13:27:01Z</time>
      </trkpt>
      <trkpt lat="49.50091" lon="1.09858">
        <ele>152.2</ele>
        <time>2022-03-26T13:27:02Z</time>
      </trkpt>
      <trkpt lat="49.50088" lon="1.09855">
        <ele>152.2</ele>
        <time>2022-03-26T13:27:03Z</time>
      </trkpt>
      <trkpt lat="49.50088" lon="1.09855">
        <ele>152.2</ele>
        <time>2022-03-26T13:27:04Z</time>
      </trkpt>
      <trkpt lat="49.50085" lon="1.09853">
        <ele>152.3</ele>
        <time>2022-03-26T13:27:05Z</time>
      </trkpt>
      <trkpt lat="49.50085" lon="1.09852">
        <ele>152.3</ele>
        <time>2022-03-26T13:27:06Z</time>
      </trkpt>
      <trkpt lat="49.50083" lon="1.0985">
        <ele>152.3</ele>
        <time>2022-03-26T13:27:07Z</time>
      </trkpt>
      <trkpt lat="49.50081" lon="1.09848">
        <ele>152.3</ele>
        <time>2022-03-26T13:27:09Z</time>
      </trkpt>
      <trkpt lat="49.50079" lon="1.09847">
        <ele>152.4</ele>
        <time>2022-03-26T13:27:10Z</time>
      </trkpt>
      <trkpt lat="49.50078" lon="1.09846">
        <ele>152.4</ele>
        <time>2022-03-26T13:27:11Z</time>
      </trkpt>
      <trkpt lat="49.50075" lon="1.09844">
        <ele>152.5</ele>
        <time>2022-03-26T13:27:12Z</time>
      </trkpt>
      <trkpt lat="49.50075" lon="1.09843">
        <ele>152.5</ele>
        <time>2022-03-26T13:27:13Z</time>
      </trkpt>
      <trkpt lat="49.50073" lon="1.0984">
        <ele>152.6</ele>
        <time>2022-03-26T13:27:14Z</time>
      </trkpt>
      <trkpt lat="49.50072" lon="1.09839">
        <ele>152.6</ele>
        <time>2022-03-26T13:27:15Z</time>
      </trkpt>
      <trkpt lat="49.50071" lon="1.09838">
        <ele>152.7</ele>
        <time>2022-03-26T13:27:16Z</time>
      </trkpt>
      <trkpt lat="49.50069" lon="1.09837">
        <ele>152.7</ele>
        <time>2022-03-26T13:27:17Z</time>
      </trkpt>
      <trkpt lat="49.50066" lon="1.09834">
        <ele>152.9</ele>
        <time>2022-03-26T13:27:19Z</time>
      </trkpt>
      <trkpt lat="49.50065" lon="1.09833">
        <ele>152.9</ele>
        <time>2022-03-26T13:27:20Z</time>
      </trkpt>
      <trkpt lat="49.50063" lon="1.0983">
        <ele>153.1</ele>
        <time>2022-03-26T13:27:21Z</time>
      </trkpt>
      <trkpt lat="49.5006" lon="1.09829">
        <ele>153.2</ele>
        <time>2022-03-26T13:27:22Z</time>
      </trkpt>
      <trkpt lat="49.50056" lon="1.09825">
        <ele>153.5</ele>
        <time>2022-03-26T13:27:24Z</time>
      </trkpt>
      <trkpt lat="49.50053" lon="1.09821">
        <ele>153.7</ele>
        <time>2022-03-26T13:27:25Z</time>
      </trkpt>
      <trkpt lat="49.50049" lon="1.09818">
        <ele>153.9</ele>
        <time>2022-03-26T13:27:26Z</time>
      </trkpt>
      <trkpt lat="49.50048" lon="1.09818">
        <ele>153.9</ele>
        <time>2022-03-26T13:27:27Z</time>
      </trkpt>
      <trkpt lat="49.50046" lon="1.09817">
        <ele>154</ele>
        <time>2022-03-26T13:27:28Z</time>
      </trkpt>
      <trkpt lat="49.50044" lon="1.09815">
        <ele>154.1</ele>
        <time>2022-03-26T13:27:30Z</time>
      </trkpt>
      <trkpt lat="49.50041" lon="1.09814">
        <ele>154.2</ele>
        <time>2022-03-26T13:27:31Z</time>
      </trkpt>
      <trkpt lat="49.5004" lon="1.09814">
        <ele>154.3</ele>
        <time>2022-03-26T13:27:32Z</time>
      </trkpt>
      <trkpt lat="49.50037" lon="1.09812">
        <ele>154.4</ele>
        <time>2022-03-26T13:27:33Z</time>
      </trkpt>
      <trkpt lat="49.50035" lon="1.09812">
        <ele>154.5</ele>
        <time>2022-03-26T13:27:34Z</time>
      </trkpt>
      <trkpt lat="49.50032" lon="1.09811">
        <ele>154.6</ele>
        <time>2022-03-26T13:27:36Z</time>
      </trkpt>
      <trkpt lat="49.50031" lon="1.09811">
        <ele>154.6</ele>
        <time>2022-03-26T13:27:37Z</time>
      </trkpt>
      <trkpt lat="49.50028" lon="1.0981">
        <ele>154.7</ele>
        <time>2022-03-26T13:27:38Z</time>
      </trkpt>
      <trkpt lat="49.50024" lon="1.09809">
        <ele>154.9</ele>
        <time>2022-03-26T13:27:39Z</time>
      </trkpt>
      <trkpt lat="49.5002" lon="1.09807">
        <ele>155</ele>
        <time>2022-03-26T13:27:40Z</time>
      </trkpt>
      <trkpt lat="49.50019" lon="1.09807">
        <ele>155.1</ele>
        <time>2022-03-26T13:27:41Z</time>
      </trkpt>
      <trkpt lat="49.50016" lon="1.09805">
        <ele>155.2</ele>
        <time>2022-03-26T13:27:42Z</time>
      </trkpt>
      <trkpt lat="49.50013" lon="1.09803">
        <ele>155.3</ele>
        <time>2022-03-26T13:27:44Z</time>
      </trkpt>
      <trkpt lat="49.50009" lon="1.098">
        <ele>155.4</ele>
        <time>2022-03-26T13:27:45Z</time>
      </trkpt>
      <trkpt lat="49.50006" lon="1.09798">
        <ele>155.5</ele>
        <time>2022-03-26T13:27:46Z</time>
      </trkpt>
      <trkpt lat="49.50005" lon="1.09797">
        <ele>155.6</ele>
        <time>2022-03-26T13:27:47Z</time>
      </trkpt>
      <trkpt lat="49.50002" lon="1.09796">
        <ele>155.6</ele>
        <time>2022-03-26T13:27:48Z</time>
      </trkpt>
      <trkpt lat="49.50001" lon="1.09795">
        <ele>155.7</ele>
        <time>2022-03-26T13:27:49Z</time>
      </trkpt>
      <trkpt lat="49.49998" lon="1.09795">
        <ele>155.8</ele>
        <time>2022-03-26T13:27:51Z</time>
      </trkpt>
      <trkpt lat="49.49993" lon="1.09797">
        <ele>155.9</ele>
        <time>2022-03-26T13:27:52Z</time>
      </trkpt>
      <trkpt lat="49.4999" lon="1.09796">
        <ele>156</ele>
        <time>2022-03-26T13:27:53Z</time>
      </trkpt>
      <trkpt lat="49.49987" lon="1.09795">
        <ele>156.1</ele>
        <time>2022-03-26T13:27:54Z</time>
      </trkpt>
      <trkpt lat="49.49986" lon="1.09795">
        <ele>156.1</ele>
        <time>2022-03-26T13:27:55Z</time>
      </trkpt>
      <trkpt lat="49.49983" lon="1.09793">
        <ele>156.2</ele>
        <time>2022-03-26T13:27:56Z</time>
      </trkpt>
      <trkpt lat="49.49982" lon="1.09793">
        <ele>156.2</ele>
        <time>2022-03-26T13:27:57Z</time>
      </trkpt>
      <trkpt lat="49.4998" lon="1.09792">
        <ele>156.3</ele>
        <time>2022-03-26T13:27:58Z</time>
      </trkpt>
      <trkpt lat="49.4997" lon="1.09791">
        <ele>156.5</ele>
        <time>2022-03-26T13:28:00Z</time>
      </trkpt>
      <trkpt lat="49.49956" lon="1.09789">
        <ele>156.5</ele>
        <time>2022-03-26T13:28:01Z</time>
      </trkpt>
      <trkpt lat="49.49946" lon="1.09787">
        <ele>156.3</ele>
        <time>2022-03-26T13:28:02Z</time>
      </trkpt>
      <trkpt lat="49.49939" lon="1.09786">
        <ele>156.2</ele>
        <time>2022-03-26T13:28:03Z</time>
      </trkpt>
      <trkpt lat="49.4993" lon="1.09785">
        <ele>156.1</ele>
        <time>2022-03-26T13:28:04Z</time>
      </trkpt>
      <trkpt lat="49.49923" lon="1.09785">
        <ele>156</ele>
        <time>2022-03-26T13:28:05Z</time>
      </trkpt>
      <trkpt lat="49.49915" lon="1.09785">
        <ele>155.9</ele>
        <time>2022-03-26T13:28:06Z</time>
      </trkpt>
      <trkpt lat="49.49909" lon="1.09783">
        <ele>155.7</ele>
        <time>2022-03-26T13:28:07Z</time>
      </trkpt>
      <trkpt lat="49.49903" lon="1.09779">
        <ele>155.5</ele>
        <time>2022-03-26T13:28:08Z</time>
      </trkpt>
      <trkpt lat="49.49899" lon="1.09777">
        <ele>155.4</ele>
        <time>2022-03-26T13:28:09Z</time>
      </trkpt>
      <trkpt lat="49.49897" lon="1.09775">
        <ele>155.3</ele>
        <time>2022-03-26T13:28:10Z</time>
      </trkpt>
      <trkpt lat="49.49895" lon="1.09773">
        <ele>155.2</ele>
        <time>2022-03-26T13:28:11Z</time>
      </trkpt>
      <trkpt lat="49.49892" lon="1.0977">
        <ele>155.1</ele>
        <time>2022-03-26T13:28:13Z</time>
      </trkpt>
      <trkpt lat="49.49889" lon="1.09767">
        <ele>155</ele>
        <time>2022-03-26T13:28:14Z</time>
      </trkpt>
      <trkpt lat="49.49887" lon="1.09764">
        <ele>154.9</ele>
        <time>2022-03-26T13:28:15Z</time>
      </trkpt>
      <trkpt lat="49.49884" lon="1.09759">
        <ele>154.7</ele>
        <time>2022-03-26T13:28:16Z</time>
      </trkpt>
      <trkpt lat="49.49882" lon="1.09756">
        <ele>154.6</ele>
        <time>2022-03-26T13:28:17Z</time>
      </trkpt>
      <trkpt lat="49.49854" lon="1.09725">
        <ele>152.6</ele>
        <time>2022-03-26T13:28:18Z</time>
      </trkpt>
      <trkpt lat="49.49848" lon="1.09717">
        <ele>152.1</ele>
        <time>2022-03-26T13:28:19Z</time>
      </trkpt>
      <trkpt lat="49.49839" lon="1.09704">
        <ele>150.9</ele>
        <time>2022-03-26T13:28:20Z</time>
      </trkpt>
      <trkpt lat="49.49832" lon="1.09691">
        <ele>149.7</ele>
        <time>2022-03-26T13:28:21Z</time>
      </trkpt>
      <trkpt lat="49.49827" lon="1.09677">
        <ele>148.3</ele>
        <time>2022-03-26T13:28:22Z</time>
      </trkpt>
      <trkpt lat="49.49822" lon="1.09664">
        <ele>147.1</ele>
        <time>2022-03-26T13:28:23Z</time>
      </trkpt>
      <trkpt lat="49.49817" lon="1.09655">
        <ele>146.3</ele>
        <time>2022-03-26T13:28:24Z</time>
      </trkpt>
      <trkpt lat="49.49812" lon="1.0965">
        <ele>145.9</ele>
        <time>2022-03-26T13:28:25Z</time>
      </trkpt>
      <trkpt lat="49.49807" lon="1.09652">
        <ele>146.8</ele>
        <time>2022-03-26T13:28:26Z</time>
      </trkpt>
      <trkpt lat="49.49806" lon="1.09653">
        <ele>146.9</ele>
        <time>2022-03-26T13:28:27Z</time>
      </trkpt>
      <trkpt lat="49.49805" lon="1.0966">
        <ele>147.3</ele>
        <time>2022-03-26T13:28:29Z</time>
      </trkpt>
      <trkpt lat="49.49802" lon="1.09665">
        <ele>147.7</ele>
        <time>2022-03-26T13:28:30Z</time>
      </trkpt>
      <trkpt lat="49.498" lon="1.09669">
        <ele>148</ele>
        <time>2022-03-26T13:28:31Z</time>
      </trkpt>
      <trkpt lat="49.49798" lon="1.09673">
        <ele>148.3</ele>
        <time>2022-03-26T13:28:32Z</time>
      </trkpt>
      <trkpt lat="49.49797" lon="1.09675">
        <ele>148.5</ele>
        <time>2022-03-26T13:28:33Z</time>
      </trkpt>
      <trkpt lat="49.49794" lon="1.09678">
        <ele>148.8</ele>
        <time>2022-03-26T13:28:35Z</time>
      </trkpt>
      <trkpt lat="49.49791" lon="1.09682">
        <ele>149.1</ele>
        <time>2022-03-26T13:28:36Z</time>
      </trkpt>
      <trkpt lat="49.49789" lon="1.09686">
        <ele>149.4</ele>
        <time>2022-03-26T13:28:37Z</time>
      </trkpt>
      <trkpt lat="49.49787" lon="1.0969">
        <ele>149.7</ele>
        <time>2022-03-26T13:28:38Z</time>
      </trkpt>
      <trkpt lat="49.49786" lon="1.09695">
        <ele>149.9</ele>
        <time>2022-03-26T13:28:39Z</time>
      </trkpt>
      <trkpt lat="49.49784" lon="1.09699">
        <ele>150.2</ele>
        <time>2022-03-26T13:28:40Z</time>
      </trkpt>
      <trkpt lat="49.49782" lon="1.09703">
        <ele>150.5</ele>
        <time>2022-03-26T13:28:41Z</time>
      </trkpt>
      <trkpt lat="49.49778" lon="1.0971">
        <ele>151</ele>
        <time>2022-03-26T13:28:43Z</time>
      </trkpt>
      <trkpt lat="49.49775" lon="1.09716">
        <ele>151.4</ele>
        <time>2022-03-26T13:28:44Z</time>
      </trkpt>
      <trkpt lat="49.49774" lon="1.0972">
        <ele>151.7</ele>
        <time>2022-03-26T13:28:45Z</time>
      </trkpt>
      <trkpt lat="49.49768" lon="1.09727">
        <ele>152.4</ele>
        <time>2022-03-26T13:28:47Z</time>
      </trkpt>
      <trkpt lat="49.49765" lon="1.09732">
        <ele>152.7</ele>
        <time>2022-03-26T13:28:49Z</time>
      </trkpt>
      <trkpt lat="49.49763" lon="1.09734">
        <ele>153</ele>
        <time>2022-03-26T13:28:50Z</time>
      </trkpt>
      <trkpt lat="49.49759" lon="1.09738">
        <ele>153.4</ele>
        <time>2022-03-26T13:28:51Z</time>
      </trkpt>
      <trkpt lat="49.49756" lon="1.0974">
        <ele>153.7</ele>
        <time>2022-03-26T13:28:52Z</time>
      </trkpt>
      <trkpt lat="49.49751" lon="1.09744">
        <ele>154.1</ele>
        <time>2022-03-26T13:28:54Z</time>
      </trkpt>
      <trkpt lat="49.49748" lon="1.09748">
        <ele>154.6</ele>
        <time>2022-03-26T13:28:55Z</time>
      </trkpt>
      <trkpt lat="49.49745" lon="1.09751">
        <ele>154.8</ele>
        <time>2022-03-26T13:28:56Z</time>
      </trkpt>
      <trkpt lat="49.49744" lon="1.09752">
        <ele>155</ele>
        <time>2022-03-26T13:28:57Z</time>
      </trkpt>
      <trkpt lat="49.49741" lon="1.09754">
        <ele>155.2</ele>
        <time>2022-03-26T13:28:58Z</time>
      </trkpt>
      <trkpt lat="49.49737" lon="1.09756">
        <ele>155.5</ele>
        <time>2022-03-26T13:28:59Z</time>
      </trkpt>
      <trkpt lat="49.49733" lon="1.0976">
        <ele>155.9</ele>
        <time>2022-03-26T13:29:00Z</time>
      </trkpt>
      <trkpt lat="49.49731" lon="1.09761">
        <ele>156</ele>
        <time>2022-03-26T13:29:02Z</time>
      </trkpt>
      <trkpt lat="49.4973" lon="1.09763">
        <ele>156.1</ele>
        <time>2022-03-26T13:29:03Z</time>
      </trkpt>
      <trkpt lat="49.49728" lon="1.09764">
        <ele>156.3</ele>
        <time>2022-03-26T13:29:04Z</time>
      </trkpt>
      <trkpt lat="49.49727" lon="1.09765">
        <ele>156.4</ele>
        <time>2022-03-26T13:29:05Z</time>
      </trkpt>
      <trkpt lat="49.49722" lon="1.09769">
        <ele>156.8</ele>
        <time>2022-03-26T13:29:07Z</time>
      </trkpt>
      <trkpt lat="49.49718" lon="1.09771">
        <ele>157.1</ele>
        <time>2022-03-26T13:29:08Z</time>
      </trkpt>
      <trkpt lat="49.49715" lon="1.09774">
        <ele>157.3</ele>
        <time>2022-03-26T13:29:09Z</time>
      </trkpt>
      <trkpt lat="49.49709" lon="1.09777">
        <ele>157.7</ele>
        <time>2022-03-26T13:29:10Z</time>
      </trkpt>
      <trkpt lat="49.49707" lon="1.09779">
        <ele>157.8</ele>
        <time>2022-03-26T13:29:11Z</time>
      </trkpt>
      <trkpt lat="49.49704" lon="1.09782">
        <ele>158</ele>
        <time>2022-03-26T13:29:12Z</time>
      </trkpt>
      <trkpt lat="49.49701" lon="1.09784">
        <ele>158.2</ele>
        <time>2022-03-26T13:29:13Z</time>
      </trkpt>
      <trkpt lat="49.49698" lon="1.09786">
        <ele>158.4</ele>
        <time>2022-03-26T13:29:14Z</time>
      </trkpt>
      <trkpt lat="49.49695" lon="1.09788">
        <ele>158.5</ele>
        <time>2022-03-26T13:29:15Z</time>
      </trkpt>
      <trkpt lat="49.49692" lon="1.0979">
        <ele>158.7</ele>
        <time>2022-03-26T13:29:16Z</time>
      </trkpt>
      <trkpt lat="49.49689" lon="1.09793">
        <ele>158.9</ele>
        <time>2022-03-26T13:29:17Z</time>
      </trkpt>
      <trkpt lat="49.49686" lon="1.09795">
        <ele>159.1</ele>
        <time>2022-03-26T13:29:18Z</time>
      </trkpt>
      <trkpt lat="49.49683" lon="1.09797">
        <ele>159.2</ele>
        <time>2022-03-26T13:29:19Z</time>
      </trkpt>
      <trkpt lat="49.4968" lon="1.09799">
        <ele>159.4</ele>
        <time>2022-03-26T13:29:20Z</time>
      </trkpt>
      <trkpt lat="49.49677" lon="1.098">
        <ele>159.5</ele>
        <time>2022-03-26T13:29:21Z</time>
      </trkpt>
      <trkpt lat="49.49674" lon="1.09802">
        <ele>159.7</ele>
        <time>2022-03-26T13:29:22Z</time>
      </trkpt>
      <trkpt lat="49.49672" lon="1.09803">
        <ele>159.8</ele>
        <time>2022-03-26T13:29:23Z</time>
      </trkpt>
      <trkpt lat="49.4967" lon="1.09805">
        <ele>159.9</ele>
        <time>2022-03-26T13:29:24Z</time>
      </trkpt>
      <trkpt lat="49.49667" lon="1.09807">
        <ele>160.1</ele>
        <time>2022-03-26T13:29:25Z</time>
      </trkpt>
      <trkpt lat="49.49664" lon="1.0981">
        <ele>160.2</ele>
        <time>2022-03-26T13:29:26Z</time>
      </trkpt>
      <trkpt lat="49.49663" lon="1.09811">
        <ele>160.3</ele>
        <time>2022-03-26T13:29:28Z</time>
      </trkpt>
      <trkpt lat="49.49662" lon="1.09812">
        <ele>160.3</ele>
        <time>2022-03-26T13:29:29Z</time>
      </trkpt>
      <trkpt lat="49.4966" lon="1.09815">
        <ele>160.5</ele>
        <time>2022-03-26T13:29:30Z</time>
      </trkpt>
      <trkpt lat="49.49658" lon="1.09817">
        <ele>160.5</ele>
        <time>2022-03-26T13:29:31Z</time>
      </trkpt>
      <trkpt lat="49.49657" lon="1.09818">
        <ele>160.6</ele>
        <time>2022-03-26T13:29:32Z</time>
      </trkpt>
      <trkpt lat="49.49653" lon="1.09822">
        <ele>160.8</ele>
        <time>2022-03-26T13:29:33Z</time>
      </trkpt>
      <trkpt lat="49.4965" lon="1.09826">
        <ele>161</ele>
        <time>2022-03-26T13:29:34Z</time>
      </trkpt>
      <trkpt lat="49.49647" lon="1.09829">
        <ele>161.1</ele>
        <time>2022-03-26T13:29:35Z</time>
      </trkpt>
      <trkpt lat="49.49644" lon="1.09832">
        <ele>161.3</ele>
        <time>2022-03-26T13:29:36Z</time>
      </trkpt>
      <trkpt lat="49.49641" lon="1.09835">
        <ele>161.5</ele>
        <time>2022-03-26T13:29:37Z</time>
      </trkpt>
      <trkpt lat="49.49638" lon="1.09838">
        <ele>161.6</ele>
        <time>2022-03-26T13:29:38Z</time>
      </trkpt>
      <trkpt lat="49.49635" lon="1.09841">
        <ele>161.8</ele>
        <time>2022-03-26T13:29:39Z</time>
      </trkpt>
      <trkpt lat="49.49632" lon="1.09846">
        <ele>161.9</ele>
        <time>2022-03-26T13:29:40Z</time>
      </trkpt>
      <trkpt lat="49.49627" lon="1.09852">
        <ele>162.2</ele>
        <time>2022-03-26T13:29:41Z</time>
      </trkpt>
      <trkpt lat="49.4962" lon="1.09859">
        <ele>162.5</ele>
        <time>2022-03-26T13:29:43Z</time>
      </trkpt>
      <trkpt lat="49.49616" lon="1.09865">
        <ele>162.7</ele>
        <time>2022-03-26T13:29:44Z</time>
      </trkpt>
      <trkpt lat="49.49612" lon="1.09875">
        <ele>162.9</ele>
        <time>2022-03-26T13:29:45Z</time>
      </trkpt>
      <trkpt lat="49.49602" lon="1.09891">
        <ele>163.4</ele>
        <time>2022-03-26T13:29:47Z</time>
      </trkpt>
      <trkpt lat="49.49599" lon="1.09896">
        <ele>163.6</ele>
        <time>2022-03-26T13:29:48Z</time>
      </trkpt>
      <trkpt lat="49.49596" lon="1.09901">
        <ele>163.7</ele>
        <time>2022-03-26T13:29:49Z</time>
      </trkpt>
      <trkpt lat="49.49593" lon="1.09905">
        <ele>163.8</ele>
        <time>2022-03-26T13:29:50Z</time>
      </trkpt>
      <trkpt lat="49.49591" lon="1.09909">
        <ele>163.9</ele>
        <time>2022-03-26T13:29:51Z</time>
      </trkpt>
      <trkpt lat="49.49588" lon="1.09912">
        <ele>164</ele>
        <time>2022-03-26T13:29:52Z</time>
      </trkpt>
      <trkpt lat="49.49585" lon="1.09916">
        <ele>164.1</ele>
        <time>2022-03-26T13:29:53Z</time>
      </trkpt>
      <trkpt lat="49.49583" lon="1.09919">
        <ele>164.2</ele>
        <time>2022-03-26T13:29:54Z</time>
      </trkpt>
      <trkpt lat="49.4958" lon="1.09921">
        <ele>164.3</ele>
        <time>2022-03-26T13:29:55Z</time>
      </trkpt>
      <trkpt lat="49.49578" lon="1.09924">
        <ele>164.4</ele>
        <time>2022-03-26T13:29:56Z</time>
      </trkpt>
      <trkpt lat="49.49575" lon="1.09927">
        <ele>164.5</ele>
        <time>2022-03-26T13:29:57Z</time>
      </trkpt>
      <trkpt lat="49.49574" lon="1.09928">
        <ele>164.5</ele>
        <time>2022-03-26T13:29:58Z</time>
      </trkpt>
      <trkpt lat="49.49571" lon="1.09931">
        <ele>164.6</ele>
        <time>2022-03-26T13:29:59Z</time>
      </trkpt>
      <trkpt lat="49.49569" lon="1.09934">
        <ele>164.7</ele>
        <time>2022-03-26T13:30:00Z</time>
      </trkpt>
      <trkpt lat="49.49566" lon="1.09936">
        <ele>164.8</ele>
        <time>2022-03-26T13:30:01Z</time>
      </trkpt>
      <trkpt lat="49.49563" lon="1.0994">
        <ele>164.8</ele>
        <time>2022-03-26T13:30:02Z</time>
      </trkpt>
      <trkpt lat="49.4956" lon="1.09944">
        <ele>164.9</ele>
        <time>2022-03-26T13:30:03Z</time>
      </trkpt>
      <trkpt lat="49.49554" lon="1.09952">
        <ele>165</ele>
        <time>2022-03-26T13:30:04Z</time>
      </trkpt>
      <trkpt lat="49.4955" lon="1.09955">
        <ele>165</ele>
        <time>2022-03-26T13:30:05Z</time>
      </trkpt>
      <trkpt lat="49.49547" lon="1.09958">
        <ele>165.1</ele>
        <time>2022-03-26T13:30:06Z</time>
      </trkpt>
      <trkpt lat="49.49544" lon="1.0996">
        <ele>165.1</ele>
        <time>2022-03-26T13:30:07Z</time>
      </trkpt>
      <trkpt lat="49.49541" lon="1.09964">
        <ele>165.1</ele>
        <time>2022-03-26T13:30:08Z</time>
      </trkpt>
      <trkpt lat="49.49538" lon="1.09967">
        <ele>165.2</ele>
        <time>2022-03-26T13:30:09Z</time>
      </trkpt>
      <trkpt lat="49.49536" lon="1.0997">
        <ele>165.2</ele>
        <time>2022-03-26T13:30:10Z</time>
      </trkpt>
      <trkpt lat="49.49532" lon="1.09973">
        <ele>165.2</ele>
        <time>2022-03-26T13:30:11Z</time>
      </trkpt>
      <trkpt lat="49.49531" lon="1.09974">
        <ele>165.2</ele>
        <time>2022-03-26T13:30:12Z</time>
      </trkpt>
      <trkpt lat="49.49525" lon="1.09979">
        <ele>165.3</ele>
        <time>2022-03-26T13:30:14Z</time>
      </trkpt>
      <trkpt lat="49.49522" lon="1.09983">
        <ele>165.3</ele>
        <time>2022-03-26T13:30:15Z</time>
      </trkpt>
      <trkpt lat="49.49519" lon="1.09987">
        <ele>165.4</ele>
        <time>2022-03-26T13:30:16Z</time>
      </trkpt>
      <trkpt lat="49.49514" lon="1.09997">
        <ele>165.4</ele>
        <time>2022-03-26T13:30:18Z</time>
      </trkpt>
      <trkpt lat="49.49511" lon="1.10002">
        <ele>165.5</ele>
        <time>2022-03-26T13:30:19Z</time>
      </trkpt>
      <trkpt lat="49.49508" lon="1.10007">
        <ele>165.5</ele>
        <time>2022-03-26T13:30:20Z</time>
      </trkpt>
      <trkpt lat="49.49505" lon="1.10012">
        <ele>165.6</ele>
        <time>2022-03-26T13:30:21Z</time>
      </trkpt>
      <trkpt lat="49.49501" lon="1.10016">
        <ele>165.7</ele>
        <time>2022-03-26T13:30:22Z</time>
      </trkpt>
      <trkpt lat="49.49497" lon="1.10022">
        <ele>165.7</ele>
        <time>2022-03-26T13:30:23Z</time>
      </trkpt>
      <trkpt lat="49.49493" lon="1.10026">
        <ele>165.8</ele>
        <time>2022-03-26T13:30:24Z</time>
      </trkpt>
      <trkpt lat="49.4949" lon="1.10031">
        <ele>165.8</ele>
        <time>2022-03-26T13:30:25Z</time>
      </trkpt>
      <trkpt lat="49.49486" lon="1.10036">
        <ele>165.9</ele>
        <time>2022-03-26T13:30:26Z</time>
      </trkpt>
      <trkpt lat="49.49483" lon="1.10041">
        <ele>165.9</ele>
        <time>2022-03-26T13:30:27Z</time>
      </trkpt>
      <trkpt lat="49.49479" lon="1.10046">
        <ele>165.9</ele>
        <time>2022-03-26T13:30:28Z</time>
      </trkpt>
      <trkpt lat="49.49477" lon="1.1005">
        <ele>166</ele>
        <time>2022-03-26T13:30:29Z</time>
      </trkpt>
      <trkpt lat="49.49474" lon="1.10057">
        <ele>166</ele>
        <time>2022-03-26T13:30:31Z</time>
      </trkpt>
      <trkpt lat="49.4947" lon="1.10059">
        <ele>166</ele>
        <time>2022-03-26T13:30:32Z</time>
      </trkpt>
      <trkpt lat="49.49466" lon="1.10063">
        <ele>166</ele>
        <time>2022-03-26T13:30:33Z</time>
      </trkpt>
      <trkpt lat="49.49463" lon="1.10066">
        <ele>166.1</ele>
        <time>2022-03-26T13:30:34Z</time>
      </trkpt>
      <trkpt lat="49.4946" lon="1.10073">
        <ele>166.1</ele>
        <time>2022-03-26T13:30:35Z</time>
      </trkpt>
      <trkpt lat="49.49458" lon="1.10079">
        <ele>166.1</ele>
        <time>2022-03-26T13:30:36Z</time>
      </trkpt>
      <trkpt lat="49.49455" lon="1.10084">
        <ele>166</ele>
        <time>2022-03-26T13:30:37Z</time>
      </trkpt>
      <trkpt lat="49.49452" lon="1.1009">
        <ele>166</ele>
        <time>2022-03-26T13:30:38Z</time>
      </trkpt>
      <trkpt lat="49.49447" lon="1.10096">
        <ele>166</ele>
        <time>2022-03-26T13:30:39Z</time>
      </trkpt>
      <trkpt lat="49.49444" lon="1.101">
        <ele>165.9</ele>
        <time>2022-03-26T13:30:40Z</time>
      </trkpt>
      <trkpt lat="49.49439" lon="1.10107">
        <ele>165.9</ele>
        <time>2022-03-26T13:30:41Z</time>
      </trkpt>
      <trkpt lat="49.49435" lon="1.10111">
        <ele>165.9</ele>
        <time>2022-03-26T13:30:42Z</time>
      </trkpt>
      <trkpt lat="49.49432" lon="1.10116">
        <ele>165.8</ele>
        <time>2022-03-26T13:30:43Z</time>
      </trkpt>
      <trkpt lat="49.49425" lon="1.10125">
        <ele>165.8</ele>
        <time>2022-03-26T13:30:45Z</time>
      </trkpt>
      <trkpt lat="49.49421" lon="1.1013">
        <ele>165.7</ele>
        <time>2022-03-26T13:30:46Z</time>
      </trkpt>
      <trkpt lat="49.49417" lon="1.10134">
        <ele>165.7</ele>
        <time>2022-03-26T13:30:47Z</time>
      </trkpt>
      <trkpt lat="49.49413" lon="1.10138">
        <ele>165.6</ele>
        <time>2022-03-26T13:30:48Z</time>
      </trkpt>
      <trkpt lat="49.49408" lon="1.10141">
        <ele>165.6</ele>
        <time>2022-03-26T13:30:49Z</time>
      </trkpt>
      <trkpt lat="49.49405" lon="1.10147">
        <ele>165.5</ele>
        <time>2022-03-26T13:30:50Z</time>
      </trkpt>
      <trkpt lat="49.49401" lon="1.1015">
        <ele>165.4</ele>
        <time>2022-03-26T13:30:51Z</time>
      </trkpt>
      <trkpt lat="49.49397" lon="1.10153">
        <ele>165.3</ele>
        <time>2022-03-26T13:30:52Z</time>
      </trkpt>
      <trkpt lat="49.49391" lon="1.10156">
        <ele>165.2</ele>
        <time>2022-03-26T13:30:53Z</time>
      </trkpt>
      <trkpt lat="49.49379" lon="1.10167">
        <ele>164.9</ele>
        <time>2022-03-26T13:30:55Z</time>
      </trkpt>
      <trkpt lat="49.49375" lon="1.1017">
        <ele>164.8</ele>
        <time>2022-03-26T13:30:56Z</time>
      </trkpt>
      <trkpt lat="49.49371" lon="1.10172">
        <ele>164.7</ele>
        <time>2022-03-26T13:30:57Z</time>
      </trkpt>
      <trkpt lat="49.49367" lon="1.10174">
        <ele>164.6</ele>
        <time>2022-03-26T13:30:58Z</time>
      </trkpt>
      <trkpt lat="49.4936" lon="1.10182">
        <ele>164.3</ele>
        <time>2022-03-26T13:30:59Z</time>
      </trkpt>
      <trkpt lat="49.49355" lon="1.10187">
        <ele>164.2</ele>
        <time>2022-03-26T13:31:00Z</time>
      </trkpt>
      <trkpt lat="49.49349" lon="1.10191">
        <ele>164</ele>
        <time>2022-03-26T13:31:01Z</time>
      </trkpt>
      <trkpt lat="49.49344" lon="1.10195">
        <ele>163.8</ele>
        <time>2022-03-26T13:31:02Z</time>
      </trkpt>
      <trkpt lat="49.49339" lon="1.10197">
        <ele>163.6</ele>
        <time>2022-03-26T13:31:03Z</time>
      </trkpt>
      <trkpt lat="49.49335" lon="1.10198">
        <ele>163.5</ele>
        <time>2022-03-26T13:31:04Z</time>
      </trkpt>
      <trkpt lat="49.49328" lon="1.10202">
        <ele>163.2</ele>
        <time>2022-03-26T13:31:05Z</time>
      </trkpt>
      <trkpt lat="49.49324" lon="1.10205">
        <ele>163.1</ele>
        <time>2022-03-26T13:31:06Z</time>
      </trkpt>
      <trkpt lat="49.4932" lon="1.10208">
        <ele>162.9</ele>
        <time>2022-03-26T13:31:07Z</time>
      </trkpt>
      <trkpt lat="49.49316" lon="1.1021">
        <ele>162.7</ele>
        <time>2022-03-26T13:31:08Z</time>
      </trkpt>
      <trkpt lat="49.49313" lon="1.10215">
        <ele>162.6</ele>
        <time>2022-03-26T13:31:09Z</time>
      </trkpt>
      <trkpt lat="49.4931" lon="1.1022">
        <ele>162.4</ele>
        <time>2022-03-26T13:31:10Z</time>
      </trkpt>
      <trkpt lat="49.49306" lon="1.10224">
        <ele>162.3</ele>
        <time>2022-03-26T13:31:11Z</time>
      </trkpt>
      <trkpt lat="49.49302" lon="1.10229">
        <ele>162.1</ele>
        <time>2022-03-26T13:31:12Z</time>
      </trkpt>
      <trkpt lat="49.49294" lon="1.10244">
        <ele>161.7</ele>
        <time>2022-03-26T13:31:13Z</time>
      </trkpt>
      <trkpt lat="49.4929" lon="1.10249">
        <ele>161.5</ele>
        <time>2022-03-26T13:31:14Z</time>
      </trkpt>
      <trkpt lat="49.49283" lon="1.1026">
        <ele>161.1</ele>
        <time>2022-03-26T13:31:15Z</time>
      </trkpt>
      <trkpt lat="49.49277" lon="1.10266">
        <ele>160.9</ele>
        <time>2022-03-26T13:31:17Z</time>
      </trkpt>
      <trkpt lat="49.49267" lon="1.10279">
        <ele>160.5</ele>
        <time>2022-03-26T13:31:18Z</time>
      </trkpt>
      <trkpt lat="49.49261" lon="1.10286">
        <ele>160.5</ele>
        <time>2022-03-26T13:31:19Z</time>
      </trkpt>
      <trkpt lat="49.49256" lon="1.10292">
        <ele>160.4</ele>
        <time>2022-03-26T13:31:20Z</time>
      </trkpt>
      <trkpt lat="49.4925" lon="1.10296">
        <ele>160.4</ele>
        <time>2022-03-26T13:31:21Z</time>
      </trkpt>
      <trkpt lat="49.49245" lon="1.10302">
        <ele>160.4</ele>
        <time>2022-03-26T13:31:22Z</time>
      </trkpt>
      <trkpt lat="49.49241" lon="1.10307">
        <ele>160.5</ele>
        <time>2022-03-26T13:31:23Z</time>
      </trkpt>
      <trkpt lat="49.49237" lon="1.1031">
        <ele>160.6</ele>
        <time>2022-03-26T13:31:24Z</time>
      </trkpt>
      <trkpt lat="49.49229" lon="1.10319">
        <ele>160.8</ele>
        <time>2022-03-26T13:31:26Z</time>
      </trkpt>
      <trkpt lat="49.49224" lon="1.10324">
        <ele>160.9</ele>
        <time>2022-03-26T13:31:27Z</time>
      </trkpt>
      <trkpt lat="49.49217" lon="1.10329">
        <ele>161.2</ele>
        <time>2022-03-26T13:31:29Z</time>
      </trkpt>
      <trkpt lat="49.49212" lon="1.10332">
        <ele>161.4</ele>
        <time>2022-03-26T13:31:30Z</time>
      </trkpt>
      <trkpt lat="49.49208" lon="1.10334">
        <ele>161.5</ele>
        <time>2022-03-26T13:31:31Z</time>
      </trkpt>
      <trkpt lat="49.49203" lon="1.10339">
        <ele>161.7</ele>
        <time>2022-03-26T13:31:33Z</time>
      </trkpt>
      <trkpt lat="49.49198" lon="1.10341">
        <ele>162</ele>
        <time>2022-03-26T13:31:34Z</time>
      </trkpt>
      <trkpt lat="49.49195" lon="1.10341">
        <ele>162.1</ele>
        <time>2022-03-26T13:31:35Z</time>
      </trkpt>
      <trkpt lat="49.49189" lon="1.10348">
        <ele>162.5</ele>
        <time>2022-03-26T13:31:37Z</time>
      </trkpt>
      <trkpt lat="49.49182" lon="1.10355">
        <ele>162.9</ele>
        <time>2022-03-26T13:31:38Z</time>
      </trkpt>
      <trkpt lat="49.4918" lon="1.10359">
        <ele>163.1</ele>
        <time>2022-03-26T13:31:39Z</time>
      </trkpt>
      <trkpt lat="49.49177" lon="1.10362">
        <ele>163.3</ele>
        <time>2022-03-26T13:31:40Z</time>
      </trkpt>
      <trkpt lat="49.49174" lon="1.10365">
        <ele>163.5</ele>
        <time>2022-03-26T13:31:41Z</time>
      </trkpt>
      <trkpt lat="49.4917" lon="1.10367">
        <ele>163.7</ele>
        <time>2022-03-26T13:31:42Z</time>
      </trkpt>
      <trkpt lat="49.49166" lon="1.10369">
        <ele>163.9</ele>
        <time>2022-03-26T13:31:43Z</time>
      </trkpt>
      <trkpt lat="49.49161" lon="1.10371">
        <ele>164.2</ele>
        <time>2022-03-26T13:31:44Z</time>
      </trkpt>
      <trkpt lat="49.49157" lon="1.10375">
        <ele>164.5</ele>
        <time>2022-03-26T13:31:45Z</time>
      </trkpt>
      <trkpt lat="49.49153" lon="1.10377">
        <ele>164.7</ele>
        <time>2022-03-26T13:31:46Z</time>
      </trkpt>
      <trkpt lat="49.4915" lon="1.10379">
        <ele>164.9</ele>
        <time>2022-03-26T13:31:47Z</time>
      </trkpt>
      <trkpt lat="49.49146" lon="1.10381">
        <ele>165.1</ele>
        <time>2022-03-26T13:31:48Z</time>
      </trkpt>
      <trkpt lat="49.49142" lon="1.10385">
        <ele>165.4</ele>
        <time>2022-03-26T13:31:49Z</time>
      </trkpt>
      <trkpt lat="49.49138" lon="1.10388">
        <ele>165.6</ele>
        <time>2022-03-26T13:31:50Z</time>
      </trkpt>
      <trkpt lat="49.49135" lon="1.10389">
        <ele>165.7</ele>
        <time>2022-03-26T13:31:51Z</time>
      </trkpt>
      <trkpt lat="49.49132" lon="1.10391">
        <ele>165.9</ele>
        <time>2022-03-26T13:31:52Z</time>
      </trkpt>
      <trkpt lat="49.49129" lon="1.10394">
        <ele>166.1</ele>
        <time>2022-03-26T13:31:53Z</time>
      </trkpt>
      <trkpt lat="49.49126" lon="1.10396">
        <ele>166.2</ele>
        <time>2022-03-26T13:31:54Z</time>
      </trkpt>
      <trkpt lat="49.49123" lon="1.10398">
        <ele>166.4</ele>
        <time>2022-03-26T13:31:55Z</time>
      </trkpt>
      <trkpt lat="49.49122" lon="1.10398">
        <ele>166.5</ele>
        <time>2022-03-26T13:31:56Z</time>
      </trkpt>
      <trkpt lat="49.49119" lon="1.104">
        <ele>166.6</ele>
        <time>2022-03-26T13:31:57Z</time>
      </trkpt>
      <trkpt lat="49.49114" lon="1.10401">
        <ele>166.8</ele>
        <time>2022-03-26T13:31:58Z</time>
      </trkpt>
      <trkpt lat="49.4911" lon="1.10401">
        <ele>166.9</ele>
        <time>2022-03-26T13:31:59Z</time>
      </trkpt>
      <trkpt lat="49.49108" lon="1.10399">
        <ele>167</ele>
        <time>2022-03-26T13:32:00Z</time>
      </trkpt>
      <trkpt lat="49.49107" lon="1.10398">
        <ele>167</ele>
        <time>2022-03-26T13:32:01Z</time>
      </trkpt>
      <trkpt lat="49.49107" lon="1.10394">
        <ele>166.9</ele>
        <time>2022-03-26T13:32:02Z</time>
      </trkpt>
      <trkpt lat="49.49107" lon="1.10392">
        <ele>166.8</ele>
        <time>2022-03-26T13:32:03Z</time>
      </trkpt>
      <trkpt lat="49.49109" lon="1.10387">
        <ele>166.7</ele>
        <time>2022-03-26T13:32:04Z</time>
      </trkpt>
      <trkpt lat="49.49111" lon="1.1038">
        <ele>166.5</ele>
        <time>2022-03-26T13:32:05Z</time>
      </trkpt>
      <trkpt lat="49.49113" lon="1.10373">
        <ele>166.3</ele>
        <time>2022-03-26T13:32:06Z</time>
      </trkpt>
      <trkpt lat="49.49115" lon="1.10367">
        <ele>166.1</ele>
        <time>2022-03-26T13:32:07Z</time>
      </trkpt>
      <trkpt lat="49.49118" lon="1.10361">
        <ele>166</ele>
        <time>2022-03-26T13:32:08Z</time>
      </trkpt>
      <trkpt lat="49.49121" lon="1.10355">
        <ele>165.8</ele>
        <time>2022-03-26T13:32:09Z</time>
      </trkpt>
      <trkpt lat="49.49122" lon="1.10349">
        <ele>165.7</ele>
        <time>2022-03-26T13:32:10Z</time>
      </trkpt>
      <trkpt lat="49.49122" lon="1.10344">
        <ele>165.6</ele>
        <time>2022-03-26T13:32:11Z</time>
      </trkpt>
      <trkpt lat="49.49123" lon="1.10334">
        <ele>165.4</ele>
        <time>2022-03-26T13:32:12Z</time>
      </trkpt>
      <trkpt lat="49.49125" lon="1.10322">
        <ele>165.2</ele>
        <time>2022-03-26T13:32:13Z</time>
      </trkpt>
      <trkpt lat="49.49124" lon="1.1031">
        <ele>165</ele>
        <time>2022-03-26T13:32:14Z</time>
      </trkpt>
      <trkpt lat="49.4912" lon="1.10299">
        <ele>164.9</ele>
        <time>2022-03-26T13:32:15Z</time>
      </trkpt>
      <trkpt lat="49.49118" lon="1.10291">
        <ele>164.8</ele>
        <time>2022-03-26T13:32:16Z</time>
      </trkpt>
      <trkpt lat="49.49115" lon="1.10283">
        <ele>164.7</ele>
        <time>2022-03-26T13:32:17Z</time>
      </trkpt>
      <trkpt lat="49.49112" lon="1.10276">
        <ele>164.6</ele>
        <time>2022-03-26T13:32:18Z</time>
      </trkpt>
      <trkpt lat="49.4911" lon="1.10269">
        <ele>164.6</ele>
        <time>2022-03-26T13:32:19Z</time>
      </trkpt>
      <trkpt lat="49.49108" lon="1.10264">
        <ele>164.6</ele>
        <time>2022-03-26T13:32:20Z</time>
      </trkpt>
      <trkpt lat="49.49105" lon="1.10259">
        <ele>164.5</ele>
        <time>2022-03-26T13:32:21Z</time>
      </trkpt>
      <trkpt lat="49.49102" lon="1.10252">
        <ele>164.5</ele>
        <time>2022-03-26T13:32:22Z</time>
      </trkpt>
      <trkpt lat="49.491" lon="1.10245">
        <ele>164.4</ele>
        <time>2022-03-26T13:32:23Z</time>
      </trkpt>
      <trkpt lat="49.49097" lon="1.10237">
        <ele>164.4</ele>
        <time>2022-03-26T13:32:24Z</time>
      </trkpt>
      <trkpt lat="49.49094" lon="1.1023">
        <ele>164.3</ele>
        <time>2022-03-26T13:32:25Z</time>
      </trkpt>
      <trkpt lat="49.49091" lon="1.10224">
        <ele>164.3</ele>
        <time>2022-03-26T13:32:26Z</time>
      </trkpt>
      <trkpt lat="49.49088" lon="1.10218">
        <ele>164.2</ele>
        <time>2022-03-26T13:32:27Z</time>
      </trkpt>
      <trkpt lat="49.49087" lon="1.1021">
        <ele>164.2</ele>
        <time>2022-03-26T13:32:28Z</time>
      </trkpt>
      <trkpt lat="49.49085" lon="1.102">
        <ele>164.2</ele>
        <time>2022-03-26T13:32:29Z</time>
      </trkpt>
      <trkpt lat="49.49083" lon="1.1019">
        <ele>164.1</ele>
        <time>2022-03-26T13:32:30Z</time>
      </trkpt>
      <trkpt lat="49.49081" lon="1.10183">
        <ele>164.1</ele>
        <time>2022-03-26T13:32:31Z</time>
      </trkpt>
      <trkpt lat="49.4908" lon="1.10178">
        <ele>164.1</ele>
        <time>2022-03-26T13:32:32Z</time>
      </trkpt>
      <trkpt lat="49.49078" lon="1.10173">
        <ele>164</ele>
        <time>2022-03-26T13:32:33Z</time>
      </trkpt>
      <trkpt lat="49.49076" lon="1.10167">
        <ele>164</ele>
        <time>2022-03-26T13:32:34Z</time>
      </trkpt>
      <trkpt lat="49.49073" lon="1.1016">
        <ele>163.9</ele>
        <time>2022-03-26T13:32:35Z</time>
      </trkpt>
      <trkpt lat="49.4907" lon="1.10151">
        <ele>163.9</ele>
        <time>2022-03-26T13:32:36Z</time>
      </trkpt>
      <trkpt lat="49.49069" lon="1.10145">
        <ele>163.9</ele>
        <time>2022-03-26T13:32:37Z</time>
      </trkpt>
      <trkpt lat="49.49067" lon="1.10139">
        <ele>163.9</ele>
        <time>2022-03-26T13:32:38Z</time>
      </trkpt>
      <trkpt lat="49.49064" lon="1.10131">
        <ele>163.8</ele>
        <time>2022-03-26T13:32:39Z</time>
      </trkpt>
      <trkpt lat="49.4906" lon="1.10123">
        <ele>163.8</ele>
        <time>2022-03-26T13:32:40Z</time>
      </trkpt>
      <trkpt lat="49.49057" lon="1.10117">
        <ele>163.8</ele>
        <time>2022-03-26T13:32:41Z</time>
      </trkpt>
      <trkpt lat="49.49054" lon="1.10109">
        <ele>163.8</ele>
        <time>2022-03-26T13:32:42Z</time>
      </trkpt>
      <trkpt lat="49.49052" lon="1.10101">
        <ele>163.8</ele>
        <time>2022-03-26T13:32:43Z</time>
      </trkpt>
      <trkpt lat="49.49049" lon="1.10094">
        <ele>163.8</ele>
        <time>2022-03-26T13:32:44Z</time>
      </trkpt>
      <trkpt lat="49.49047" lon="1.10086">
        <ele>163.8</ele>
        <time>2022-03-26T13:32:45Z</time>
      </trkpt>
      <trkpt lat="49.49045" lon="1.10078">
        <ele>163.8</ele>
        <time>2022-03-26T13:32:46Z</time>
      </trkpt>
      <trkpt lat="49.49042" lon="1.10068">
        <ele>163.8</ele>
        <time>2022-03-26T13:32:47Z</time>
      </trkpt>
      <trkpt lat="49.49041" lon="1.10064">
        <ele>163.8</ele>
        <time>2022-03-26T13:32:48Z</time>
      </trkpt>
      <trkpt lat="49.4904" lon="1.10059">
        <ele>163.8</ele>
        <time>2022-03-26T13:32:50Z</time>
      </trkpt>
      <trkpt lat="49.49039" lon="1.10057">
        <ele>163.8</ele>
        <time>2022-03-26T13:32:51Z</time>
      </trkpt>
      <trkpt lat="49.49039" lon="1.10056">
        <ele>163.8</ele>
        <time>2022-03-26T13:32:52Z</time>
      </trkpt>
      <trkpt lat="49.49039" lon="1.10055">
        <ele>163.8</ele>
        <time>2022-03-26T13:32:53Z</time>
      </trkpt>
      <trkpt lat="49.49039" lon="1.10055">
        <ele>163.8</ele>
        <time>2022-03-26T13:32:54Z</time>
      </trkpt>
      <trkpt lat="49.49034" lon="1.10044">
        <ele>163.8</ele>
        <time>2022-03-26T13:32:55Z</time>
      </trkpt>
      <trkpt lat="49.4903" lon="1.10033">
        <ele>163.8</ele>
        <time>2022-03-26T13:32:56Z</time>
      </trkpt>
      <trkpt lat="49.49026" lon="1.10022">
        <ele>163.8</ele>
        <time>2022-03-26T13:32:57Z</time>
      </trkpt>
      <trkpt lat="49.49022" lon="1.10011">
        <ele>163.7</ele>
        <time>2022-03-26T13:32:59Z</time>
      </trkpt>
      <trkpt lat="49.49018" lon="1.09999">
        <ele>163.7</ele>
        <time>2022-03-26T13:33:02Z</time>
      </trkpt>
      <trkpt lat="49.49015" lon="1.09993">
        <ele>163.7</ele>
        <time>2022-03-26T13:33:03Z</time>
      </trkpt>
      <trkpt lat="49.49012" lon="1.09988">
        <ele>163.6</ele>
        <time>2022-03-26T13:33:04Z</time>
      </trkpt>
      <trkpt lat="49.4901" lon="1.09985">
        <ele>163.6</ele>
        <time>2022-03-26T13:33:05Z</time>
      </trkpt>
      <trkpt lat="49.49003" lon="1.09967">
        <ele>163.4</ele>
        <time>2022-03-26T13:33:06Z</time>
      </trkpt>
      <trkpt lat="49.48999" lon="1.09958">
        <ele>163.4</ele>
        <time>2022-03-26T13:33:07Z</time>
      </trkpt>
      <trkpt lat="49.48996" lon="1.09952">
        <ele>163.3</ele>
        <time>2022-03-26T13:33:08Z</time>
      </trkpt>
      <trkpt lat="49.48996" lon="1.09948">
        <ele>163.3</ele>
        <time>2022-03-26T13:33:10Z</time>
      </trkpt>
      <trkpt lat="49.48993" lon="1.09945">
        <ele>163.3</ele>
        <time>2022-03-26T13:33:11Z</time>
      </trkpt>
      <trkpt lat="49.48991" lon="1.09944">
        <ele>163.2</ele>
        <time>2022-03-26T13:33:12Z</time>
      </trkpt>
      <trkpt lat="49.48986" lon="1.09941">
        <ele>163.4</ele>
        <time>2022-03-26T13:33:14Z</time>
      </trkpt>
      <trkpt lat="49.48981" lon="1.09939">
        <ele>163.5</ele>
        <time>2022-03-26T13:33:15Z</time>
      </trkpt>
      <trkpt lat="49.48978" lon="1.0994">
        <ele>163.5</ele>
        <time>2022-03-26T13:33:16Z</time>
      </trkpt>
      <trkpt lat="49.48972" lon="1.09939">
        <ele>163.6</ele>
        <time>2022-03-26T13:33:18Z</time>
      </trkpt>
      <trkpt lat="49.48964" lon="1.09932">
        <ele>163.8</ele>
        <time>2022-03-26T13:33:19Z</time>
      </trkpt>
      <trkpt lat="49.48961" lon="1.09929">
        <ele>163.9</ele>
        <time>2022-03-26T13:33:20Z</time>
      </trkpt>
      <trkpt lat="49.48958" lon="1.09928">
        <ele>164</ele>
        <time>2022-03-26T13:33:21Z</time>
      </trkpt>
      <trkpt lat="49.48956" lon="1.09927">
        <ele>164.1</ele>
        <time>2022-03-26T13:33:22Z</time>
      </trkpt>
      <trkpt lat="49.48952" lon="1.09925">
        <ele>164.1</ele>
        <time>2022-03-26T13:33:24Z</time>
      </trkpt>
      <trkpt lat="49.48947" lon="1.09922">
        <ele>164.3</ele>
        <time>2022-03-26T13:33:25Z</time>
      </trkpt>
      <trkpt lat="49.48942" lon="1.09925">
        <ele>164.4</ele>
        <time>2022-03-26T13:33:27Z</time>
      </trkpt>
      <trkpt lat="49.48938" lon="1.09928">
        <ele>164.5</ele>
        <time>2022-03-26T13:33:28Z</time>
      </trkpt>
      <trkpt lat="49.48934" lon="1.09928">
        <ele>164.6</ele>
        <time>2022-03-26T13:33:29Z</time>
      </trkpt>
      <trkpt lat="49.48931" lon="1.09928">
        <ele>164.6</ele>
        <time>2022-03-26T13:33:30Z</time>
      </trkpt>
      <trkpt lat="49.48928" lon="1.09928">
        <ele>164.7</ele>
        <time>2022-03-26T13:33:31Z</time>
      </trkpt>
      <trkpt lat="49.48924" lon="1.09928">
        <ele>164.8</ele>
        <time>2022-03-26T13:33:32Z</time>
      </trkpt>
      <trkpt lat="49.48921" lon="1.09927">
        <ele>164.9</ele>
        <time>2022-03-26T13:33:33Z</time>
      </trkpt>
      <trkpt lat="49.48918" lon="1.09928">
        <ele>165</ele>
        <time>2022-03-26T13:33:34Z</time>
      </trkpt>
      <trkpt lat="49.48915" lon="1.09928">
        <ele>165</ele>
        <time>2022-03-26T13:33:35Z</time>
      </trkpt>
      <trkpt lat="49.48911" lon="1.09927">
        <ele>165.1</ele>
        <time>2022-03-26T13:33:36Z</time>
      </trkpt>
      <trkpt lat="49.48907" lon="1.09927">
        <ele>165.2</ele>
        <time>2022-03-26T13:33:37Z</time>
      </trkpt>
      <trkpt lat="49.48903" lon="1.09928">
        <ele>165.3</ele>
        <time>2022-03-26T13:33:38Z</time>
      </trkpt>
      <trkpt lat="49.48899" lon="1.09929">
        <ele>165.4</ele>
        <time>2022-03-26T13:33:39Z</time>
      </trkpt>
      <trkpt lat="49.48895" lon="1.09929">
        <ele>165.5</ele>
        <time>2022-03-26T13:33:40Z</time>
      </trkpt>
      <trkpt lat="49.48891" lon="1.09929">
        <ele>165.6</ele>
        <time>2022-03-26T13:33:41Z</time>
      </trkpt>
      <trkpt lat="49.48887" lon="1.09929">
        <ele>165.7</ele>
        <time>2022-03-26T13:33:42Z</time>
      </trkpt>
      <trkpt lat="49.48885" lon="1.09929">
        <ele>165.8</ele>
        <time>2022-03-26T13:33:44Z</time>
      </trkpt>
      <trkpt lat="49.48881" lon="1.09929">
        <ele>165.8</ele>
        <time>2022-03-26T13:33:45Z</time>
      </trkpt>
      <trkpt lat="49.48878" lon="1.09929">
        <ele>165.9</ele>
        <time>2022-03-26T13:33:46Z</time>
      </trkpt>
      <trkpt lat="49.48876" lon="1.09928">
        <ele>166</ele>
        <time>2022-03-26T13:33:48Z</time>
      </trkpt>
      <trkpt lat="49.48876" lon="1.09928">
        <ele>166</ele>
        <time>2022-03-26T13:33:49Z</time>
      </trkpt>
      <trkpt lat="49.48871" lon="1.09929">
        <ele>166.1</ele>
        <time>2022-03-26T13:33:51Z</time>
      </trkpt>
      <trkpt lat="49.48867" lon="1.09931">
        <ele>166.2</ele>
        <time>2022-03-26T13:33:52Z</time>
      </trkpt>
      <trkpt lat="49.48856" lon="1.09931">
        <ele>166.3</ele>
        <time>2022-03-26T13:33:58Z</time>
      </trkpt>
      <trkpt lat="49.48852" lon="1.09932">
        <ele>166.3</ele>
        <time>2022-03-26T13:33:59Z</time>
      </trkpt>
      <trkpt lat="49.48847" lon="1.09933">
        <ele>166.3</ele>
        <time>2022-03-26T13:34:00Z</time>
      </trkpt>
      <trkpt lat="49.48842" lon="1.09934">
        <ele>166.3</ele>
        <time>2022-03-26T13:34:01Z</time>
      </trkpt>
      <trkpt lat="49.48839" lon="1.09934">
        <ele>166.3</ele>
        <time>2022-03-26T13:34:02Z</time>
      </trkpt>
      <trkpt lat="49.48834" lon="1.09935">
        <ele>166.3</ele>
        <time>2022-03-26T13:34:03Z</time>
      </trkpt>
      <trkpt lat="49.4883" lon="1.09937">
        <ele>166.3</ele>
        <time>2022-03-26T13:34:04Z</time>
      </trkpt>
      <trkpt lat="49.48826" lon="1.09939">
        <ele>166.3</ele>
        <time>2022-03-26T13:34:05Z</time>
      </trkpt>
      <trkpt lat="49.48823" lon="1.09941">
        <ele>166.2</ele>
        <time>2022-03-26T13:34:06Z</time>
      </trkpt>
      <trkpt lat="49.48819" lon="1.09942">
        <ele>166.2</ele>
        <time>2022-03-26T13:34:07Z</time>
      </trkpt>
      <trkpt lat="49.48816" lon="1.09942">
        <ele>166.2</ele>
        <time>2022-03-26T13:34:08Z</time>
      </trkpt>
      <trkpt lat="49.48814" lon="1.09941">
        <ele>166.2</ele>
        <time>2022-03-26T13:34:09Z</time>
      </trkpt>
      <trkpt lat="49.4881" lon="1.09943">
        <ele>166.1</ele>
        <time>2022-03-26T13:34:10Z</time>
      </trkpt>
      <trkpt lat="49.48808" lon="1.09944">
        <ele>166.1</ele>
        <time>2022-03-26T13:34:11Z</time>
      </trkpt>
      <trkpt lat="49.48804" lon="1.09944">
        <ele>166</ele>
        <time>2022-03-26T13:34:12Z</time>
      </trkpt>
      <trkpt lat="49.48803" lon="1.09944">
        <ele>166</ele>
        <time>2022-03-26T13:34:13Z</time>
      </trkpt>
      <trkpt lat="49.488" lon="1.09945">
        <ele>166</ele>
        <time>2022-03-26T13:34:14Z</time>
      </trkpt>
      <trkpt lat="49.48796" lon="1.09944">
        <ele>165.9</ele>
        <time>2022-03-26T13:34:15Z</time>
      </trkpt>
      <trkpt lat="49.48788" lon="1.09945">
        <ele>165.8</ele>
        <time>2022-03-26T13:34:17Z</time>
      </trkpt>
      <trkpt lat="49.48784" lon="1.09946">
        <ele>165.8</ele>
        <time>2022-03-26T13:34:18Z</time>
      </trkpt>
      <trkpt lat="49.48779" lon="1.09947">
        <ele>165.7</ele>
        <time>2022-03-26T13:34:19Z</time>
      </trkpt>
      <trkpt lat="49.48776" lon="1.09948">
        <ele>165.7</ele>
        <time>2022-03-26T13:34:20Z</time>
      </trkpt>
      <trkpt lat="49.48747" lon="1.09961">
        <ele>165.5</ele>
        <time>2022-03-26T13:34:21Z</time>
      </trkpt>
      <trkpt lat="49.48745" lon="1.09963">
        <ele>165.5</ele>
        <time>2022-03-26T13:34:22Z</time>
      </trkpt>
      <trkpt lat="49.48742" lon="1.09967">
        <ele>165.5</ele>
        <time>2022-03-26T13:34:24Z</time>
      </trkpt>
      <trkpt lat="49.48738" lon="1.09971">
        <ele>165.5</ele>
        <time>2022-03-26T13:34:25Z</time>
      </trkpt>
      <trkpt lat="49.48733" lon="1.09978">
        <ele>165.5</ele>
        <time>2022-03-26T13:34:26Z</time>
      </trkpt>
      <trkpt lat="49.48727" lon="1.09981">
        <ele>165.4</ele>
        <time>2022-03-26T13:34:27Z</time>
      </trkpt>
      <trkpt lat="49.48722" lon="1.09984">
        <ele>165.4</ele>
        <time>2022-03-26T13:34:28Z</time>
      </trkpt>
      <trkpt lat="49.48717" lon="1.09986">
        <ele>165.4</ele>
        <time>2022-03-26T13:34:29Z</time>
      </trkpt>
      <trkpt lat="49.48713" lon="1.09988">
        <ele>165.4</ele>
        <time>2022-03-26T13:34:30Z</time>
      </trkpt>
      <trkpt lat="49.48706" lon="1.0999">
        <ele>165.4</ele>
        <time>2022-03-26T13:34:32Z</time>
      </trkpt>
      <trkpt lat="49.487" lon="1.0999">
        <ele>165.3</ele>
        <time>2022-03-26T13:34:33Z</time>
      </trkpt>
      <trkpt lat="49.48696" lon="1.09986">
        <ele>165.3</ele>
        <time>2022-03-26T13:34:34Z</time>
      </trkpt>
      <trkpt lat="49.48692" lon="1.09984">
        <ele>165.3</ele>
        <time>2022-03-26T13:34:35Z</time>
      </trkpt>
      <trkpt lat="49.48689" lon="1.09983">
        <ele>165.2</ele>
        <time>2022-03-26T13:34:36Z</time>
      </trkpt>
      <trkpt lat="49.48687" lon="1.09988">
        <ele>165.2</ele>
        <time>2022-03-26T13:34:37Z</time>
      </trkpt>
      <trkpt lat="49.48686" lon="1.09989">
        <ele>165.2</ele>
        <time>2022-03-26T13:34:38Z</time>
      </trkpt>
      <trkpt lat="49.48684" lon="1.09994">
        <ele>165.2</ele>
        <time>2022-03-26T13:34:40Z</time>
      </trkpt>
      <trkpt lat="49.48682" lon="1.09998">
        <ele>165.1</ele>
        <time>2022-03-26T13:34:41Z</time>
      </trkpt>
      <trkpt lat="49.4868" lon="1.10001">
        <ele>165.1</ele>
        <time>2022-03-26T13:34:42Z</time>
      </trkpt>
      <trkpt lat="49.4868" lon="1.10002">
        <ele>165.1</ele>
        <time>2022-03-26T13:34:43Z</time>
      </trkpt>
      <trkpt lat="49.48678" lon="1.10003">
        <ele>165.1</ele>
        <time>2022-03-26T13:34:44Z</time>
      </trkpt>
      <trkpt lat="49.48675" lon="1.10005">
        <ele>165.1</ele>
        <time>2022-03-26T13:34:45Z</time>
      </trkpt>
      <trkpt lat="49.48671" lon="1.10008">
        <ele>165.1</ele>
        <time>2022-03-26T13:34:46Z</time>
      </trkpt>
      <trkpt lat="49.4867" lon="1.10008">
        <ele>165.1</ele>
        <time>2022-03-26T13:34:47Z</time>
      </trkpt>
      <trkpt lat="49.48667" lon="1.10008">
        <ele>165</ele>
        <time>2022-03-26T13:34:48Z</time>
      </trkpt>
      <trkpt lat="49.48666" lon="1.10008">
        <ele>165</ele>
        <time>2022-03-26T13:34:49Z</time>
      </trkpt>
      <trkpt lat="49.48663" lon="1.1001">
        <ele>165</ele>
        <time>2022-03-26T13:34:50Z</time>
      </trkpt>
      <trkpt lat="49.48662" lon="1.10011">
        <ele>165</ele>
        <time>2022-03-26T13:34:51Z</time>
      </trkpt>
      <trkpt lat="49.48658" lon="1.10013">
        <ele>165</ele>
        <time>2022-03-26T13:34:52Z</time>
      </trkpt>
      <trkpt lat="49.48657" lon="1.10013">
        <ele>165</ele>
        <time>2022-03-26T13:34:53Z</time>
      </trkpt>
      <trkpt lat="49.48653" lon="1.10013">
        <ele>165</ele>
        <time>2022-03-26T13:34:54Z</time>
      </trkpt>
      <trkpt lat="49.48652" lon="1.10014">
        <ele>164.9</ele>
        <time>2022-03-26T13:34:55Z</time>
      </trkpt>
      <trkpt lat="49.48649" lon="1.10013">
        <ele>164.9</ele>
        <time>2022-03-26T13:34:56Z</time>
      </trkpt>
      <trkpt lat="49.48646" lon="1.1001">
        <ele>164.9</ele>
        <time>2022-03-26T13:34:58Z</time>
      </trkpt>
      <trkpt lat="49.48644" lon="1.10007">
        <ele>164.9</ele>
        <time>2022-03-26T13:34:59Z</time>
      </trkpt>
      <trkpt lat="49.48642" lon="1.10004">
        <ele>164.9</ele>
        <time>2022-03-26T13:35:00Z</time>
      </trkpt>
      <trkpt lat="49.48639" lon="1.10003">
        <ele>164.9</ele>
        <time>2022-03-26T13:35:01Z</time>
      </trkpt>
      <trkpt lat="49.48636" lon="1.10002">
        <ele>164.9</ele>
        <time>2022-03-26T13:35:02Z</time>
      </trkpt>
      <trkpt lat="49.48634" lon="1.10001">
        <ele>164.8</ele>
        <time>2022-03-26T13:35:03Z</time>
      </trkpt>
      <trkpt lat="49.48631" lon="1.1">
        <ele>164.8</ele>
        <time>2022-03-26T13:35:04Z</time>
      </trkpt>
      <trkpt lat="49.48621" lon="1.09996">
        <ele>164.7</ele>
        <time>2022-03-26T13:35:06Z</time>
      </trkpt>
      <trkpt lat="49.48607" lon="1.09992">
        <ele>164.5</ele>
        <time>2022-03-26T13:35:07Z</time>
      </trkpt>
      <trkpt lat="49.48602" lon="1.09993">
        <ele>164.4</ele>
        <time>2022-03-26T13:35:08Z</time>
      </trkpt>
      <trkpt lat="49.48597" lon="1.09992">
        <ele>164.4</ele>
        <time>2022-03-26T13:35:09Z</time>
      </trkpt>
      <trkpt lat="49.48593" lon="1.09989">
        <ele>164.3</ele>
        <time>2022-03-26T13:35:10Z</time>
      </trkpt>
      <trkpt lat="49.4859" lon="1.09984">
        <ele>164.3</ele>
        <time>2022-03-26T13:35:11Z</time>
      </trkpt>
      <trkpt lat="49.48589" lon="1.09979">
        <ele>164.2</ele>
        <time>2022-03-26T13:35:12Z</time>
      </trkpt>
      <trkpt lat="49.48587" lon="1.09975">
        <ele>164.2</ele>
        <time>2022-03-26T13:35:13Z</time>
      </trkpt>
      <trkpt lat="49.48584" lon="1.0997">
        <ele>164.2</ele>
        <time>2022-03-26T13:35:14Z</time>
      </trkpt>
      <trkpt lat="49.4858" lon="1.09962">
        <ele>164.1</ele>
        <time>2022-03-26T13:35:16Z</time>
      </trkpt>
      <trkpt lat="49.48578" lon="1.09957">
        <ele>164</ele>
        <time>2022-03-26T13:35:17Z</time>
      </trkpt>
      <trkpt lat="49.48575" lon="1.09952">
        <ele>164</ele>
        <time>2022-03-26T13:35:18Z</time>
      </trkpt>
      <trkpt lat="49.48572" lon="1.09949">
        <ele>163.9</ele>
        <time>2022-03-26T13:35:19Z</time>
      </trkpt>
      <trkpt lat="49.48568" lon="1.09946">
        <ele>163.9</ele>
        <time>2022-03-26T13:35:20Z</time>
      </trkpt>
      <trkpt lat="49.48565" lon="1.09944">
        <ele>163.8</ele>
        <time>2022-03-26T13:35:21Z</time>
      </trkpt>
      <trkpt lat="49.4856" lon="1.09942">
        <ele>163.8</ele>
        <time>2022-03-26T13:35:23Z</time>
      </trkpt>
      <trkpt lat="49.48555" lon="1.0994">
        <ele>163.7</ele>
        <time>2022-03-26T13:35:24Z</time>
      </trkpt>
      <trkpt lat="49.4855" lon="1.09939">
        <ele>163.6</ele>
        <time>2022-03-26T13:35:25Z</time>
      </trkpt>
      <trkpt lat="49.48546" lon="1.09938">
        <ele>163.5</ele>
        <time>2022-03-26T13:35:26Z</time>
      </trkpt>
      <trkpt lat="49.48545" lon="1.09937">
        <ele>163.5</ele>
        <time>2022-03-26T13:35:27Z</time>
      </trkpt>
      <trkpt lat="49.48544" lon="1.09936">
        <ele>163.5</ele>
        <time>2022-03-26T13:35:28Z</time>
      </trkpt>
      <trkpt lat="49.48543" lon="1.09934">
        <ele>163.4</ele>
        <time>2022-03-26T13:35:29Z</time>
      </trkpt>
      <trkpt lat="49.48539" lon="1.09932">
        <ele>163.4</ele>
        <time>2022-03-26T13:35:30Z</time>
      </trkpt>
      <trkpt lat="49.48538" lon="1.09931">
        <ele>163.3</ele>
        <time>2022-03-26T13:35:31Z</time>
      </trkpt>
      <trkpt lat="49.48535" lon="1.0993">
        <ele>163.3</ele>
        <time>2022-03-26T13:35:32Z</time>
      </trkpt>
      <trkpt lat="49.48531" lon="1.09928">
        <ele>163.2</ele>
        <time>2022-03-26T13:35:33Z</time>
      </trkpt>
      <trkpt lat="49.4853" lon="1.09928">
        <ele>163.2</ele>
        <time>2022-03-26T13:35:34Z</time>
      </trkpt>
      <trkpt lat="49.48527" lon="1.09928">
        <ele>163.1</ele>
        <time>2022-03-26T13:35:35Z</time>
      </trkpt>
      <trkpt lat="49.48522" lon="1.09928">
        <ele>162.9</ele>
        <time>2022-03-26T13:35:36Z</time>
      </trkpt>
      <trkpt lat="49.48516" lon="1.09929">
        <ele>162.8</ele>
        <time>2022-03-26T13:35:37Z</time>
      </trkpt>
      <trkpt lat="49.48511" lon="1.09929">
        <ele>162.6</ele>
        <time>2022-03-26T13:35:38Z</time>
      </trkpt>
      <trkpt lat="49.48505" lon="1.09929">
        <ele>162.5</ele>
        <time>2022-03-26T13:35:39Z</time>
      </trkpt>
      <trkpt lat="49.48495" lon="1.09931">
        <ele>162.2</ele>
        <time>2022-03-26T13:35:41Z</time>
      </trkpt>
      <trkpt lat="49.48489" lon="1.09929">
        <ele>162</ele>
        <time>2022-03-26T13:35:43Z</time>
      </trkpt>
      <trkpt lat="49.48476" lon="1.09921">
        <ele>161.5</ele>
        <time>2022-03-26T13:35:44Z</time>
      </trkpt>
      <trkpt lat="49.48472" lon="1.09918">
        <ele>161.4</ele>
        <time>2022-03-26T13:35:45Z</time>
      </trkpt>
      <trkpt lat="49.48462" lon="1.09913">
        <ele>161</ele>
        <time>2022-03-26T13:35:46Z</time>
      </trkpt>
      <trkpt lat="49.48455" lon="1.09912">
        <ele>160.7</ele>
        <time>2022-03-26T13:35:47Z</time>
      </trkpt>
      <trkpt lat="49.48447" lon="1.09912">
        <ele>160.3</ele>
        <time>2022-03-26T13:35:48Z</time>
      </trkpt>
      <trkpt lat="49.4844" lon="1.09909">
        <ele>159.9</ele>
        <time>2022-03-26T13:35:49Z</time>
      </trkpt>
      <trkpt lat="49.48432" lon="1.09904">
        <ele>159.6</ele>
        <time>2022-03-26T13:35:50Z</time>
      </trkpt>
      <trkpt lat="49.48428" lon="1.099">
        <ele>159.4</ele>
        <time>2022-03-26T13:35:51Z</time>
      </trkpt>
      <trkpt lat="49.48424" lon="1.09896">
        <ele>159.2</ele>
        <time>2022-03-26T13:35:52Z</time>
      </trkpt>
      <trkpt lat="49.48421" lon="1.0989">
        <ele>159</ele>
        <time>2022-03-26T13:35:53Z</time>
      </trkpt>
      <trkpt lat="49.48417" lon="1.09884">
        <ele>158.7</ele>
        <time>2022-03-26T13:35:54Z</time>
      </trkpt>
      <trkpt lat="49.48413" lon="1.09879">
        <ele>158.5</ele>
        <time>2022-03-26T13:35:55Z</time>
      </trkpt>
      <trkpt lat="49.48408" lon="1.09873">
        <ele>158.3</ele>
        <time>2022-03-26T13:35:56Z</time>
      </trkpt>
      <trkpt lat="49.48404" lon="1.09866">
        <ele>158.2</ele>
        <time>2022-03-26T13:35:57Z</time>
      </trkpt>
      <trkpt lat="49.48398" lon="1.09862">
        <ele>158</ele>
        <time>2022-03-26T13:35:58Z</time>
      </trkpt>
      <trkpt lat="49.48393" lon="1.09861">
        <ele>157.9</ele>
        <time>2022-03-26T13:35:59Z</time>
      </trkpt>
      <trkpt lat="49.4839" lon="1.09861">
        <ele>157.8</ele>
        <time>2022-03-26T13:36:00Z</time>
      </trkpt>
      <trkpt lat="49.48387" lon="1.09864">
        <ele>157.6</ele>
        <time>2022-03-26T13:36:01Z</time>
      </trkpt>
      <trkpt lat="49.48382" lon="1.09866">
        <ele>157.6</ele>
        <time>2022-03-26T13:36:02Z</time>
      </trkpt>
      <trkpt lat="49.48378" lon="1.09869">
        <ele>157.5</ele>
        <time>2022-03-26T13:36:03Z</time>
      </trkpt>
      <trkpt lat="49.48374" lon="1.09871">
        <ele>157.5</ele>
        <time>2022-03-26T13:36:04Z</time>
      </trkpt>
      <trkpt lat="49.4837" lon="1.09875">
        <ele>157.5</ele>
        <time>2022-03-26T13:36:05Z</time>
      </trkpt>
      <trkpt lat="49.48365" lon="1.09882">
        <ele>157.5</ele>
        <time>2022-03-26T13:36:07Z</time>
      </trkpt>
      <trkpt lat="49.48361" lon="1.09886">
        <ele>157.5</ele>
        <time>2022-03-26T13:36:08Z</time>
      </trkpt>
      <trkpt lat="49.48356" lon="1.09887">
        <ele>157.4</ele>
        <time>2022-03-26T13:36:09Z</time>
      </trkpt>
      <trkpt lat="49.48352" lon="1.09887">
        <ele>157.4</ele>
        <time>2022-03-26T13:36:10Z</time>
      </trkpt>
      <trkpt lat="49.48348" lon="1.09888">
        <ele>157.4</ele>
        <time>2022-03-26T13:36:11Z</time>
      </trkpt>
      <trkpt lat="49.48343" lon="1.0989">
        <ele>157.5</ele>
        <time>2022-03-26T13:36:13Z</time>
      </trkpt>
      <trkpt lat="49.48333" lon="1.09893">
        <ele>157.7</ele>
        <time>2022-03-26T13:36:14Z</time>
      </trkpt>
      <trkpt lat="49.48327" lon="1.09894">
        <ele>157.7</ele>
        <time>2022-03-26T13:36:15Z</time>
      </trkpt>
      <trkpt lat="49.48321" lon="1.09896">
        <ele>157.8</ele>
        <time>2022-03-26T13:36:16Z</time>
      </trkpt>
      <trkpt lat="49.48315" lon="1.09898">
        <ele>157.8</ele>
        <time>2022-03-26T13:36:17Z</time>
      </trkpt>
      <trkpt lat="49.48309" lon="1.09898">
        <ele>157.9</ele>
        <time>2022-03-26T13:36:18Z</time>
      </trkpt>
      <trkpt lat="49.48304" lon="1.09898">
        <ele>157.9</ele>
        <time>2022-03-26T13:36:19Z</time>
      </trkpt>
      <trkpt lat="49.48299" lon="1.09899">
        <ele>158</ele>
        <time>2022-03-26T13:36:20Z</time>
      </trkpt>
      <trkpt lat="49.48293" lon="1.09902">
        <ele>158</ele>
        <time>2022-03-26T13:36:21Z</time>
      </trkpt>
      <trkpt lat="49.48288" lon="1.09906">
        <ele>158.1</ele>
        <time>2022-03-26T13:36:22Z</time>
      </trkpt>
      <trkpt lat="49.48283" lon="1.09911">
        <ele>158.1</ele>
        <time>2022-03-26T13:36:23Z</time>
      </trkpt>
      <trkpt lat="49.48279" lon="1.09917">
        <ele>158.2</ele>
        <time>2022-03-26T13:36:24Z</time>
      </trkpt>
      <trkpt lat="49.48278" lon="1.09924">
        <ele>158.2</ele>
        <time>2022-03-26T13:36:25Z</time>
      </trkpt>
      <trkpt lat="49.48278" lon="1.09932">
        <ele>158.2</ele>
        <time>2022-03-26T13:36:26Z</time>
      </trkpt>
      <trkpt lat="49.4828" lon="1.0994">
        <ele>158.3</ele>
        <time>2022-03-26T13:36:27Z</time>
      </trkpt>
      <trkpt lat="49.4828" lon="1.09946">
        <ele>158.3</ele>
        <time>2022-03-26T13:36:28Z</time>
      </trkpt>
      <trkpt lat="49.48281" lon="1.09953">
        <ele>158.4</ele>
        <time>2022-03-26T13:36:29Z</time>
      </trkpt>
      <trkpt lat="49.48282" lon="1.09963">
        <ele>158.5</ele>
        <time>2022-03-26T13:36:30Z</time>
      </trkpt>
      <trkpt lat="49.48282" lon="1.09967">
        <ele>158.6</ele>
        <time>2022-03-26T13:36:31Z</time>
      </trkpt>
      <trkpt lat="49.48282" lon="1.09974">
        <ele>158.7</ele>
        <time>2022-03-26T13:36:32Z</time>
      </trkpt>
      <trkpt lat="49.48282" lon="1.09981">
        <ele>158.9</ele>
        <time>2022-03-26T13:36:33Z</time>
      </trkpt>
      <trkpt lat="49.48283" lon="1.09987">
        <ele>159</ele>
        <time>2022-03-26T13:36:34Z</time>
      </trkpt>
      <trkpt lat="49.48283" lon="1.09994">
        <ele>159.1</ele>
        <time>2022-03-26T13:36:35Z</time>
      </trkpt>
      <trkpt lat="49.48283" lon="1.1">
        <ele>159.2</ele>
        <time>2022-03-26T13:36:36Z</time>
      </trkpt>
      <trkpt lat="49.48283" lon="1.10006">
        <ele>159.3</ele>
        <time>2022-03-26T13:36:37Z</time>
      </trkpt>
      <trkpt lat="49.48283" lon="1.10012">
        <ele>159.4</ele>
        <time>2022-03-26T13:36:38Z</time>
      </trkpt>
      <trkpt lat="49.48283" lon="1.10019">
        <ele>159.5</ele>
        <time>2022-03-26T13:36:39Z</time>
      </trkpt>
      <trkpt lat="49.48283" lon="1.10025">
        <ele>159.5</ele>
        <time>2022-03-26T13:36:40Z</time>
      </trkpt>
      <trkpt lat="49.48284" lon="1.10032">
        <ele>159.6</ele>
        <time>2022-03-26T13:36:41Z</time>
      </trkpt>
      <trkpt lat="49.48284" lon="1.10038">
        <ele>159.7</ele>
        <time>2022-03-26T13:36:42Z</time>
      </trkpt>
      <trkpt lat="49.48285" lon="1.10044">
        <ele>159.8</ele>
        <time>2022-03-26T13:36:43Z</time>
      </trkpt>
      <trkpt lat="49.48285" lon="1.10051">
        <ele>159.9</ele>
        <time>2022-03-26T13:36:44Z</time>
      </trkpt>
      <trkpt lat="49.48285" lon="1.10057">
        <ele>160</ele>
        <time>2022-03-26T13:36:45Z</time>
      </trkpt>
      <trkpt lat="49.48285" lon="1.10062">
        <ele>160</ele>
        <time>2022-03-26T13:36:46Z</time>
      </trkpt>
      <trkpt lat="49.48286" lon="1.10068">
        <ele>160.1</ele>
        <time>2022-03-26T13:36:47Z</time>
      </trkpt>
      <trkpt lat="49.48286" lon="1.10075">
        <ele>160.2</ele>
        <time>2022-03-26T13:36:48Z</time>
      </trkpt>
      <trkpt lat="49.48286" lon="1.10082">
        <ele>160.3</ele>
        <time>2022-03-26T13:36:49Z</time>
      </trkpt>
      <trkpt lat="49.48287" lon="1.10088">
        <ele>160.4</ele>
        <time>2022-03-26T13:36:50Z</time>
      </trkpt>
      <trkpt lat="49.48287" lon="1.10094">
        <ele>160.4</ele>
        <time>2022-03-26T13:36:51Z</time>
      </trkpt>
      <trkpt lat="49.48287" lon="1.10101">
        <ele>160.5</ele>
        <time>2022-03-26T13:36:52Z</time>
      </trkpt>
      <trkpt lat="49.48287" lon="1.10109">
        <ele>160.6</ele>
        <time>2022-03-26T13:36:53Z</time>
      </trkpt>
      <trkpt lat="49.48287" lon="1.10115">
        <ele>160.7</ele>
        <time>2022-03-26T13:36:54Z</time>
      </trkpt>
      <trkpt lat="49.48288" lon="1.1012">
        <ele>160.7</ele>
        <time>2022-03-26T13:36:55Z</time>
      </trkpt>
      <trkpt lat="49.48288" lon="1.10127">
        <ele>160.8</ele>
        <time>2022-03-26T13:36:56Z</time>
      </trkpt>
      <trkpt lat="49.48288" lon="1.10133">
        <ele>160.9</ele>
        <time>2022-03-26T13:36:57Z</time>
      </trkpt>
      <trkpt lat="49.48288" lon="1.10139">
        <ele>160.9</ele>
        <time>2022-03-26T13:36:58Z</time>
      </trkpt>
      <trkpt lat="49.48288" lon="1.10147">
        <ele>161</ele>
        <time>2022-03-26T13:36:59Z</time>
      </trkpt>
      <trkpt lat="49.48287" lon="1.10153">
        <ele>161</ele>
        <time>2022-03-26T13:37:00Z</time>
      </trkpt>
      <trkpt lat="49.48288" lon="1.10161">
        <ele>161.1</ele>
        <time>2022-03-26T13:37:01Z</time>
      </trkpt>
      <trkpt lat="49.48288" lon="1.10168">
        <ele>161.2</ele>
        <time>2022-03-26T13:37:02Z</time>
      </trkpt>
      <trkpt lat="49.48288" lon="1.10175">
        <ele>161.2</ele>
        <time>2022-03-26T13:37:03Z</time>
      </trkpt>
      <trkpt lat="49.48288" lon="1.10181">
        <ele>161.3</ele>
        <time>2022-03-26T13:37:04Z</time>
      </trkpt>
      <trkpt lat="49.48289" lon="1.10186">
        <ele>161.3</ele>
        <time>2022-03-26T13:37:05Z</time>
      </trkpt>
      <trkpt lat="49.48289" lon="1.10191">
        <ele>161.4</ele>
        <time>2022-03-26T13:37:06Z</time>
      </trkpt>
      <trkpt lat="49.4829" lon="1.10195">
        <ele>161.4</ele>
        <time>2022-03-26T13:37:07Z</time>
      </trkpt>
      <trkpt lat="49.4829" lon="1.10201">
        <ele>161.5</ele>
        <time>2022-03-26T13:37:08Z</time>
      </trkpt>
      <trkpt lat="49.48291" lon="1.10206">
        <ele>161.5</ele>
        <time>2022-03-26T13:37:09Z</time>
      </trkpt>
      <trkpt lat="49.48291" lon="1.10212">
        <ele>161.6</ele>
        <time>2022-03-26T13:37:10Z</time>
      </trkpt>
      <trkpt lat="49.48291" lon="1.10219">
        <ele>161.6</ele>
        <time>2022-03-26T13:37:11Z</time>
      </trkpt>
      <trkpt lat="49.48291" lon="1.10226">
        <ele>161.7</ele>
        <time>2022-03-26T13:37:12Z</time>
      </trkpt>
      <trkpt lat="49.48291" lon="1.10233">
        <ele>161.8</ele>
        <time>2022-03-26T13:37:13Z</time>
      </trkpt>
      <trkpt lat="49.48291" lon="1.10239">
        <ele>161.8</ele>
        <time>2022-03-26T13:37:14Z</time>
      </trkpt>
      <trkpt lat="49.48291" lon="1.10244">
        <ele>161.9</ele>
        <time>2022-03-26T13:37:15Z</time>
      </trkpt>
      <trkpt lat="49.48291" lon="1.1025">
        <ele>161.9</ele>
        <time>2022-03-26T13:37:16Z</time>
      </trkpt>
      <trkpt lat="49.48292" lon="1.10257">
        <ele>162</ele>
        <time>2022-03-26T13:37:17Z</time>
      </trkpt>
      <trkpt lat="49.48292" lon="1.10264">
        <ele>162.1</ele>
        <time>2022-03-26T13:37:18Z</time>
      </trkpt>
      <trkpt lat="49.48293" lon="1.1027">
        <ele>162.1</ele>
        <time>2022-03-26T13:37:19Z</time>
      </trkpt>
      <trkpt lat="49.48293" lon="1.10277">
        <ele>162.2</ele>
        <time>2022-03-26T13:37:20Z</time>
      </trkpt>
      <trkpt lat="49.48293" lon="1.10283">
        <ele>162.3</ele>
        <time>2022-03-26T13:37:21Z</time>
      </trkpt>
      <trkpt lat="49.48293" lon="1.10286">
        <ele>162.3</ele>
        <time>2022-03-26T13:37:22Z</time>
      </trkpt>
      <trkpt lat="49.48293" lon="1.10291">
        <ele>162.4</ele>
        <time>2022-03-26T13:37:23Z</time>
      </trkpt>
      <trkpt lat="49.48293" lon="1.10297">
        <ele>162.5</ele>
        <time>2022-03-26T13:37:24Z</time>
      </trkpt>
      <trkpt lat="49.48293" lon="1.10305">
        <ele>162.6</ele>
        <time>2022-03-26T13:37:25Z</time>
      </trkpt>
      <trkpt lat="49.48293" lon="1.10312">
        <ele>162.7</ele>
        <time>2022-03-26T13:37:26Z</time>
      </trkpt>
      <trkpt lat="49.48293" lon="1.10319">
        <ele>162.8</ele>
        <time>2022-03-26T13:37:27Z</time>
      </trkpt>
      <trkpt lat="49.48293" lon="1.10326">
        <ele>162.9</ele>
        <time>2022-03-26T13:37:28Z</time>
      </trkpt>
      <trkpt lat="49.48293" lon="1.10331">
        <ele>162.9</ele>
        <time>2022-03-26T13:37:29Z</time>
      </trkpt>
      <trkpt lat="49.48293" lon="1.10337">
        <ele>163</ele>
        <time>2022-03-26T13:37:30Z</time>
      </trkpt>
      <trkpt lat="49.48293" lon="1.10345">
        <ele>163.1</ele>
        <time>2022-03-26T13:37:31Z</time>
      </trkpt>
      <trkpt lat="49.48293" lon="1.10352">
        <ele>163.2</ele>
        <time>2022-03-26T13:37:32Z</time>
      </trkpt>
      <trkpt lat="49.48293" lon="1.10358">
        <ele>163.3</ele>
        <time>2022-03-26T13:37:33Z</time>
      </trkpt>
      <trkpt lat="49.48293" lon="1.10363">
        <ele>163.3</ele>
        <time>2022-03-26T13:37:34Z</time>
      </trkpt>
      <trkpt lat="49.48293" lon="1.10369">
        <ele>163.4</ele>
        <time>2022-03-26T13:37:35Z</time>
      </trkpt>
      <trkpt lat="49.48292" lon="1.10376">
        <ele>163.5</ele>
        <time>2022-03-26T13:37:36Z</time>
      </trkpt>
      <trkpt lat="49.48292" lon="1.10383">
        <ele>163.6</ele>
        <time>2022-03-26T13:37:37Z</time>
      </trkpt>
      <trkpt lat="49.48293" lon="1.1039">
        <ele>163.7</ele>
        <time>2022-03-26T13:37:38Z</time>
      </trkpt>
      <trkpt lat="49.48293" lon="1.10397">
        <ele>163.7</ele>
        <time>2022-03-26T13:37:39Z</time>
      </trkpt>
      <trkpt lat="49.48293" lon="1.10403">
        <ele>163.8</ele>
        <time>2022-03-26T13:37:40Z</time>
      </trkpt>
      <trkpt lat="49.48294" lon="1.10409">
        <ele>163.8</ele>
        <time>2022-03-26T13:37:41Z</time>
      </trkpt>
      <trkpt lat="49.48294" lon="1.10415">
        <ele>163.9</ele>
        <time>2022-03-26T13:37:42Z</time>
      </trkpt>
      <trkpt lat="49.48294" lon="1.1042">
        <ele>163.9</ele>
        <time>2022-03-26T13:37:43Z</time>
      </trkpt>
      <trkpt lat="49.48294" lon="1.10425">
        <ele>164</ele>
        <time>2022-03-26T13:37:44Z</time>
      </trkpt>
      <trkpt lat="49.48294" lon="1.10431">
        <ele>164.1</ele>
        <time>2022-03-26T13:37:45Z</time>
      </trkpt>
      <trkpt lat="49.48295" lon="1.10436">
        <ele>164.2</ele>
        <time>2022-03-26T13:37:46Z</time>
      </trkpt>
      <trkpt lat="49.48295" lon="1.10441">
        <ele>164.2</ele>
        <time>2022-03-26T13:37:47Z</time>
      </trkpt>
      <trkpt lat="49.48295" lon="1.10446">
        <ele>164.3</ele>
        <time>2022-03-26T13:37:48Z</time>
      </trkpt>
      <trkpt lat="49.48295" lon="1.10452">
        <ele>164.4</ele>
        <time>2022-03-26T13:37:49Z</time>
      </trkpt>
      <trkpt lat="49.48295" lon="1.10458">
        <ele>164.5</ele>
        <time>2022-03-26T13:37:50Z</time>
      </trkpt>
      <trkpt lat="49.48295" lon="1.10464">
        <ele>164.5</ele>
        <time>2022-03-26T13:37:51Z</time>
      </trkpt>
      <trkpt lat="49.48295" lon="1.1047">
        <ele>164.6</ele>
        <time>2022-03-26T13:37:52Z</time>
      </trkpt>
      <trkpt lat="49.48295" lon="1.10476">
        <ele>164.6</ele>
        <time>2022-03-26T13:37:53Z</time>
      </trkpt>
      <trkpt lat="49.48293" lon="1.10482">
        <ele>164.6</ele>
        <time>2022-03-26T13:37:54Z</time>
      </trkpt>
      <trkpt lat="49.48291" lon="1.10486">
        <ele>164.6</ele>
        <time>2022-03-26T13:37:55Z</time>
      </trkpt>
      <trkpt lat="49.48289" lon="1.1049">
        <ele>164.7</ele>
        <time>2022-03-26T13:37:56Z</time>
      </trkpt>
      <trkpt lat="49.48288" lon="1.10491">
        <ele>164.7</ele>
        <time>2022-03-26T13:37:57Z</time>
      </trkpt>
      <trkpt lat="49.48284" lon="1.10494">
        <ele>164.7</ele>
        <time>2022-03-26T13:37:58Z</time>
      </trkpt>
      <trkpt lat="49.48283" lon="1.10495">
        <ele>164.7</ele>
        <time>2022-03-26T13:37:59Z</time>
      </trkpt>
      <trkpt lat="49.48281" lon="1.10499">
        <ele>164.7</ele>
        <time>2022-03-26T13:38:00Z</time>
      </trkpt>
      <trkpt lat="49.48279" lon="1.10502">
        <ele>164.7</ele>
        <time>2022-03-26T13:38:01Z</time>
      </trkpt>
      <trkpt lat="49.48278" lon="1.10506">
        <ele>164.7</ele>
        <time>2022-03-26T13:38:02Z</time>
      </trkpt>
      <trkpt lat="49.48277" lon="1.10511">
        <ele>164.7</ele>
        <time>2022-03-26T13:38:03Z</time>
      </trkpt>
      <trkpt lat="49.48277" lon="1.10516">
        <ele>164.7</ele>
        <time>2022-03-26T13:38:04Z</time>
      </trkpt>
      <trkpt lat="49.48276" lon="1.10521">
        <ele>164.7</ele>
        <time>2022-03-26T13:38:05Z</time>
      </trkpt>
      <trkpt lat="49.48275" lon="1.10526">
        <ele>164.7</ele>
        <time>2022-03-26T13:38:06Z</time>
      </trkpt>
      <trkpt lat="49.48275" lon="1.10528">
        <ele>164.7</ele>
        <time>2022-03-26T13:38:07Z</time>
      </trkpt>
      <trkpt lat="49.48275" lon="1.10533">
        <ele>164.7</ele>
        <time>2022-03-26T13:38:08Z</time>
      </trkpt>
      <trkpt lat="49.48274" lon="1.10538">
        <ele>164.7</ele>
        <time>2022-03-26T13:38:09Z</time>
      </trkpt>
      <trkpt lat="49.48274" lon="1.10544">
        <ele>164.7</ele>
        <time>2022-03-26T13:38:10Z</time>
      </trkpt>
      <trkpt lat="49.48273" lon="1.10549">
        <ele>164.7</ele>
        <time>2022-03-26T13:38:11Z</time>
      </trkpt>
      <trkpt lat="49.48273" lon="1.10554">
        <ele>164.7</ele>
        <time>2022-03-26T13:38:12Z</time>
      </trkpt>
      <trkpt lat="49.48273" lon="1.10559">
        <ele>164.7</ele>
        <time>2022-03-26T13:38:13Z</time>
      </trkpt>
    </trkseg>
  </trk>
</gpx>